# Wetter Temperatur Luftdruck Luftfeuchtigkeit Sichtweite Windgeschwindigkeit Windrichtung Zeit
1 Clouds 9 1012 63 10000 12.73 256 15:55 01.02.2023
2 Clear 13 1010 37 10000 12.84 247 13:42 01.02.2023
3 Clouds 13 1010 37 10000 13.83 249 13:19 01.02.2023
4 Clouds 12 1011 47 10000 12.49 247 12:26 01.02.2023
5 Clouds 11 1012 56 10000 11.62 247 09:42 01.02.2023
6 Clouds 8 1012 76 10000 9.69 246 06:19 01.02.2023
7 Clouds 7 1013 88 10000 4.71 237 22:21 31.01.2023
8 Clouds 8 1013 83 10000 5.41 257 20:29 31.01.2023
9 Clouds 8 1013 78 10000 5.34 264 19:24 31.01.2023
10 Clouds 9 1012 67 10000 6.36 278 16:41 31.01.2023
11 Clouds 8 1011 81 10000 5.96 270 15:36 31.01.2023
12 Clouds 10 1011 71 10000 8.2 282 15:18 31.01.2023
13 Clouds 9 1010 76 10000 9.01 265 12:48 31.01.2023
14 Clouds 9 1010 65 10000 11.78 270 11:21 31.01.2023
15 Clouds 10 1010 59 10000 11.16 266 09:55 31.01.2023
16 Clear 11 1010 45 10000 13.1 265 09:25 31.01.2023
17 Clear 11 1010 45 10000 13.1 265 08:35 31.01.2023
18 Clear 8 1010 59 10000 8.66 262 06:23 31.01.2023
19 Clear 8 1011 78 10000 3.06 257 00:54 31.01.2023
20 Clear 9 1011 76 10000 2.26 280 23:24 30.01.2023
21 Clear 9 1011 76 10000 2.26 280 22:49 30.01.2023
22 Clear 9 1011 75 10000 2.65 286 21:38 30.01.2023
23 Clear 10 1012 76 10000 2.97 280 20:43 30.01.2023
24 Clear 11 1011 64 10000 5.67 286 18:26 30.01.2023
25 Clear 12 1011 57 10000 5.78 276 17:23 30.01.2023
26 Clear 14 1010 46 10000 7.37 274 14:47 30.01.2023
27 Clear 15 1010 43 10000 7.54 277 13:39 30.01.2023
28 Clear 16 1011 42 10000 6.69 281 12:18 30.01.2023
29 Clear 14 1013 54 10000 4.56 282 10:20 30.01.2023
30 Clear 14 1013 54 10000 4.56 282 09:53 30.01.2023
31 Clear 11 1013 73 10000 3.31 315 08:19 30.01.2023
32 Clear 9 1013 79 10000 3.11 320 04:30 30.01.2023
33 Clouds 10 1013 67 10000 2.68 327 23:35 29.01.2023
34 Clouds 11 1013 65 10000 2.5 317 22:59 29.01.2023
35 Clouds 11 1013 65 10000 2.5 317 22:31 29.01.2023
36 Clouds 12 1014 60 10000 3.04 327 20:52 29.01.2023
37 Clouds 12 1014 54 10000 3.61 329 20:19 29.01.2023
38 Clouds 13 1014 55 10000 3.7 331 19:32 29.01.2023
39 Clouds 14 1013 45 10000 3.23 309 17:56 29.01.2023
40 Clouds 15 1013 41 10000 4.42 300 16:43 29.01.2023
41 Clouds 16 1013 36 10000 4.99 298 16:19 29.01.2023
42 Clouds 16 1013 32 10000 5.36 292 14:20 29.01.2023
43 Clouds 17 1013 23 10000 6.18 290 13:18 29.01.2023
44 Clouds 17 1013 23 10000 6.18 290 12:37 29.01.2023
45 Clouds 17 1014 26 10000 5.24 285 12:19 29.01.2023
46 Clouds 17 1014 26 10000 5.24 285 11:37 29.01.2023
47 Clouds 16 1014 30 10000 4.2 276 10:47 29.01.2023
48 Clear 14 1016 45 10000 2.96 301 08:32 29.01.2023
49 Clear 9 1016 78 10000 3.75 311 04:45 29.01.2023
50 Clear 11 1015 63 10000 4.47 314 23:51 28.01.2023
51 Clouds 13 1015 50 10000 4.05 296 20:59 28.01.2023
52 Clouds 14 1015 48 10000 3.79 292 19:57 28.01.2023
53 Clouds 15 1015 49 10000 3.3 315 19:24 28.01.2023
54 Clouds 15 1014 46 10000 3.45 299 17:46 28.01.2023
55 Clouds 16 1014 43 10000 4.38 301 16:57 28.01.2023
56 Clouds 17 1013 37 10000 4.86 293 16:19 28.01.2023
57 Clouds 17 1013 37 10000 4.86 293 15:37 28.01.2023
58 Clouds 21 1012 25 10000 7.65 262 13:51 28.01.2023
59 Clouds 22 1012 21 10000 5.11 246 12:45 28.01.2023
60 Clouds 19 1013 31 10000 2.47 154 10:41 28.01.2023
61 Clouds 17 1014 36 10000 4.1 140 10:20 28.01.2023
62 Clouds 10 1016 58 10000 4.35 108 05:57 28.01.2023
63 Clouds 11 1016 48 10000 5.2 123 01:32 28.01.2023
64 Clouds 11 1017 46 10000 6.16 112 00:21 28.01.2023
65 Clouds 12 1018 43 10000 5.76 119 20:35 27.01.2023
66 Clouds 14 1017 41 10000 7.28 117 17:58 27.01.2023
67 Clear 14 1017 40 10000 7.67 109 17:21 27.01.2023
68 Clear 14 1017 40 10000 7.67 109 16:59 27.01.2023
69 Clear 14 1017 40 10000 7.67 109 16:31 27.01.2023
70 Clear 17 1016 31 10000 7.66 122 14:45 27.01.2023
71 Clear 18 1016 30 10000 8.43 131 14:22 27.01.2023
72 Clear 17 1017 34 10000 7.53 138 12:44 27.01.2023
73 Clear 13 1020 49 10000 7.37 130 08:36 27.01.2023
74 Clear 9 1019 63 10000 4.61 107 03:55 27.01.2023
75 Clear 11 1019 55 10000 3.5 126 22:51 26.01.2023
76 Clear 12 1019 52 10000 3.2 119 21:22 26.01.2023
77 Clear 12 1019 52 10000 3.2 119 21:22 26.01.2023
78 Clear 12 1019 52 10000 3.2 119 20:35 26.01.2023
79 Clear 13 1018 48 10000 3.69 93 18:23 26.01.2023
80 Clear 13 1018 48 10000 3.69 93 17:42 26.01.2023
81 Clear 15 1017 42 10000 2.74 84 16:27 26.01.2023
82 Clear 15 1017 42 10000 2.74 84 15:53 26.01.2023
83 Clear 15 1017 42 10000 2.74 84 15:30 26.01.2023
84 Clear 16 1017 36 10000 1.44 113 14:50 26.01.2023
85 Clear 16 1017 38 10000 2.05 163 12:48 26.01.2023
86 Clear 16 1018 42 10000 2.75 162 11:31 26.01.2023
87 Clear 15 1019 46 10000 3.22 153 10:30 26.01.2023
88 Clear 14 1019 48 10000 3.38 139 09:44 26.01.2023
89 Clear 12 1020 53 10000 2.5 125 08:25 26.01.2023
90 Clear 9 1020 65 10000 2.61 133 06:26 26.01.2023
91 Clear 10 1019 62 10000 1.68 167 23:39 25.01.2023
92 Clear 11 1019 58 10000 2.56 161 22:26 25.01.2023
93 Clear 11 1019 56 10000 2.87 157 21:25 25.01.2023
94 Clear 12 1019 55 10000 3.22 141 19:50 25.01.2023
95 Clear 13 1018 51 10000 3.67 126 18:24 25.01.2023
96 Clear 14 1017 44 10000 2.9 117 15:55 25.01.2023
97 Clear 16 1017 39 10000 2.15 142 13:46 25.01.2023
98 Clear 15 1018 44 10000 2.97 149 11:37 25.01.2023
99 Clear 14 1020 53 10000 3.89 145 09:52 25.01.2023
100 Clear 13 1020 58 10000 4 138 08:59 25.01.2023
101 Clear 10 1019 66 10000 2.55 128 01:53 25.01.2023
102 Clear 11 1019 64 10000 2.21 107 00:26 25.01.2023
103 Clear 12 1020 61 10000 1.88 114 21:55 24.01.2023
104 Clear 12 1020 61 10000 1.59 135 21:26 24.01.2023
105 Clear 13 1019 58 10000 2.32 156 19:28 24.01.2023
106 Clear 13 1019 56 10000 2.85 155 18:29 24.01.2023
107 Clear 14 1019 54 10000 3.14 150 17:18 24.01.2023
108 Clear 14 1019 54 10000 3.14 150 16:47 24.01.2023
109 Clear 16 1019 44 10000 3.47 126 13:57 24.01.2023
110 Clear 16 1019 44 10000 3.96 131 12:21 24.01.2023
111 Clear 15 1021 48 10000 4.73 130 09:36 24.01.2023
112 Clear 12 1023 58 10000 4.52 129 08:20 24.01.2023
113 Clear 12 1023 58 10000 4.52 129 07:49 24.01.2023
114 Clear 10 1021 69 10000 3.49 104 02:57 24.01.2023
115 Clear 11 1021 64 10000 3.66 98 00:41 24.01.2023
116 Clear 12 1021 62 10000 3.75 99 23:34 23.01.2023
117 Clear 12 1021 58 10000 3.23 93 21:39 23.01.2023
118 Clear 14 1021 54 10000 2.63 120 19:30 23.01.2023
119 Clear 14 1020 47 10000 2.84 155 17:41 23.01.2023
120 Clear 15 1019 48 10000 2.78 145 15:33 23.01.2023
121 Clear 17 1019 42 10000 3.25 128 13:58 23.01.2023
122 Clouds 17 1019 42 10000 3.38 128 13:21 23.01.2023
123 Clouds 17 1019 42 10000 3.38 128 12:44 23.01.2023
124 Clouds 17 1019 43 10000 3.73 121 11:42 23.01.2023
125 Clouds 13 1022 55 10000 4.59 108 08:25 23.01.2023
126 Clouds 11 1020 66 10000 3.89 95 02:49 23.01.2023
127 Clear 12 1019 65 10000 3.98 97 23:22 22.01.2023
128 Clear 13 1019 61 10000 4.16 92 21:33 22.01.2023
129 Clear 13 1019 58 10000 3.88 80 20:50 22.01.2023
130 Clear 14 1019 56 10000 2.24 93 19:53 22.01.2023
131 Clear 14 1019 54 10000 2.08 106 19:19 22.01.2023
132 Clear 15 1019 52 10000 1.99 120 17:57 22.01.2023
133 Clear 15 1019 52 10000 1.99 120 17:57 22.01.2023
134 Clear 15 1018 49 10000 2.3 135 17:27 22.01.2023
135 Clear 15 1018 49 10000 2.3 135 16:39 22.01.2023
136 Clear 18 1017 40 10000 3.31 113 14:55 22.01.2023
137 Clear 18 1017 39 10000 4.03 112 13:49 22.01.2023
138 Clear 18 1017 40 10000 4.17 106 12:53 22.01.2023
139 Clear 18 1017 41 10000 4.08 104 11:39 22.01.2023
140 Clear 16 1019 47 10000 4.59 105 09:36 22.01.2023
141 Clear 15 1020 52 10000 4.52 113 08:43 22.01.2023
142 Clear 11 1018 63 10000 3.5 84 02:54 22.01.2023
143 Clear 12 1018 58 10000 3.53 85 23:42 21.01.2023
144 Clear 12 1018 55 10000 3.3 79 22:47 21.01.2023
145 Clear 13 1018 51 10000 1.59 56 20:43 21.01.2023
146 Clouds 13 1018 50 10000 0.89 322 18:49 21.01.2023
147 Clouds 17 1016 37 10000 1.79 143 15:19 21.01.2023
148 Clear 18 1016 34 10000 2.04 119 13:30 21.01.2023
149 Clear 17 1016 36 10000 1.46 113 12:42 21.01.2023
150 Clear 16 1017 39 10000 2.13 109 11:28 21.01.2023
151 Clear 16 1017 39 10000 2.13 109 10:46 21.01.2023
152 Clear 11 1019 54 10000 2.2 119 06:48 21.01.2023
153 Clear 10 1018 54 10000 1.73 113 00:27 21.01.2023
154 Clear 11 1018 51 10000 2.28 106 22:26 20.01.2023
155 Clear 11 1018 51 10000 2.28 106 21:36 20.01.2023
156 Clear 11 1018 51 10000 2.03 116 20:42 20.01.2023
157 Clear 12 1017 47 10000 2.53 109 18:29 20.01.2023
158 Clear 13 1017 44 10000 2.87 129 15:45 20.01.2023
159 Clear 15 1017 38 10000 3.63 126 14:33 20.01.2023
160 Clear 16 1017 33 10000 5 130 12:42 20.01.2023
161 Clear 12 1020 43 10000 6.36 125 09:24 20.01.2023
162 Clear 10 1021 49 10000 5.66 121 08:22 20.01.2023
163 Clear 8 1021 55 10000 4.08 117 02:34 20.01.2023
164 Clear 9 1021 49 10000 3.48 113 22:54 19.01.2023
165 Clear 9 1021 49 10000 3.48 113 22:31 19.01.2023
166 Clear 11 1022 45 10000 3.72 119 20:22 19.01.2023
167 Clear 11 1022 45 10000 3.75 117 18:58 19.01.2023
168 Clear 13 1021 39 10000 4.74 113 15:37 19.01.2023
169 Clear 14 1023 39 10000 5.63 135 10:53 19.01.2023
170 Clear 12 1025 48 10000 5.24 125 08:59 19.01.2023
171 Clear 10 1025 66 10000 2.42 131 23:35 18.01.2023
172 Clear 11 1025 60 10000 3.32 144 20:55 18.01.2023
173 Clear 12 1025 57 10000 3.01 136 20:19 18.01.2023
174 Clear 12 1025 57 10000 2.98 136 19:37 18.01.2023
175 Clear 12 1025 57 10000 2.98 136 19:37 18.01.2023
176 Clear 13 1024 53 10000 2.77 118 17:33 18.01.2023
177 Clear 15 1023 42 10000 1.02 154 15:22 18.01.2023
178 Clear 16 1023 42 10000 1.45 200 13:27 18.01.2023
179 Clear 14 1023 49 10000 2.58 180 10:41 18.01.2023
180 Clear 11 1025 61 10000 1.9 156 08:23 18.01.2023
181 Clear 9 1024 70 10000 1.77 305 01:27 18.01.2023
182 Clear 10 1024 68 10000 1.81 304 23:32 17.01.2023
183 Clear 11 1024 64 10000 2.47 331 20:32 17.01.2023
184 Clear 11 1024 65 10000 2.81 330 19:33 17.01.2023
185 Clear 12 1023 52 10000 1.93 312 18:18 17.01.2023
186 Clear 12 1022 52 10000 1.5 320 16:33 17.01.2023
187 Clear 14 1021 43 10000 2.43 289 14:56 17.01.2023
188 Clear 15 1021 43 10000 2.48 292 13:52 17.01.2023
189 Clear 14 1021 44 10000 2.38 288 12:48 17.01.2023
190 Clear 14 1021 46 10000 2.34 292 11:42 17.01.2023
191 Clear 13 1023 52 10000 2.24 305 09:34 17.01.2023
192 Clear 11 1024 66 10000 3.11 327 07:54 17.01.2023
193 Clouds 8 1023 80 10000 3.68 312 05:51 17.01.2023
194 Clouds 9 1020 76 10000 4.43 313 00:57 17.01.2023
195 Clouds 9 1020 74 10000 3.66 314 23:38 16.01.2023
196 Clouds 10 1019 71 10000 2.79 343 21:55 16.01.2023
197 Clouds 10 1019 75 10000 3.24 341 20:46 16.01.2023
198 Clouds 11 1018 66 10000 3.93 305 19:40 16.01.2023
199 Clouds 11 1017 62 10000 3.44 282 18:54 16.01.2023
200 Clouds 12 1016 56 10000 2.09 287 18:21 16.01.2023
201 Clouds 12 1016 56 10000 2.09 287 17:35 16.01.2023
202 Clouds 13 1015 55 10000 2.13 351 15:49 16.01.2023
203 Clouds 14 1015 45 10000 1.06 283 13:39 16.01.2023
204 Clouds 13 1015 48 10000 1.62 152 11:57 16.01.2023
205 Clouds 12 1017 53 10000 2.99 133 10:20 16.01.2023
206 Clouds 9 1018 65 10000 2.3 122 00:55 16.01.2023
207 Clouds 10 1019 61 10000 2.84 109 22:27 15.01.2023
208 Clouds 10 1019 60 10000 2.71 119 20:47 15.01.2023
209 Clouds 10 1019 58 10000 3.02 119 19:59 15.01.2023
210 Clouds 11 1019 53 10000 3.21 121 18:19 15.01.2023
211 Clouds 12 1018 50 10000 3.2 114 16:38 15.01.2023
212 Clouds 14 1017 44 10000 3.72 155 12:51 15.01.2023
213 Clouds 14 1018 46 10000 3.69 162 11:38 15.01.2023
214 Clouds 13 1019 48 10000 3.46 174 10:41 15.01.2023
215 Clear 13 1020 52 10000 2.92 177 10:21 15.01.2023
216 Clouds 8 1019 75 10000 1.4 186 01:55 15.01.2023
217 Clear 8 1020 72 10000 1.12 214 23:27 14.01.2023
218 Clear 8 1020 72 10000 1.12 214 22:31 14.01.2023
219 Clear 9 1020 71 10000 1.09 246 21:36 14.01.2023
220 Clear 9 1020 69 10000 1.34 257 21:18 14.01.2023
221 Clear 9 1020 69 10000 1.34 257 20:40 14.01.2023
222 Clouds 10 1019 66 10000 2.04 240 19:27 14.01.2023
223 Clouds 10 1018 64 10000 2.72 248 17:42 14.01.2023
224 Clouds 12 1017 57 10000 4.11 246 15:30 14.01.2023
225 Clouds 13 1016 49 10000 6.87 237 14:26 14.01.2023
226 Clouds 13 1016 49 10000 6.87 237 13:44 14.01.2023
227 Clouds 14 1015 43 10000 4.24 233 12:23 14.01.2023
228 Clouds 13 1016 47 10000 3.05 225 10:47 14.01.2023
229 Clouds 10 1018 61 10000 1.36 128 08:19 14.01.2023
230 Clouds 9 1018 64 10000 1.15 194 23:56 13.01.2023
231 Clouds 9 1018 63 10000 1.67 183 22:58 13.01.2023
232 Clouds 9 1018 63 10000 1.67 183 22:40 13.01.2023
233 Clouds 9 1018 61 10000 2.2 163 21:56 13.01.2023
234 Clouds 10 1019 58 10000 2.86 151 20:24 13.01.2023
235 Clouds 11 1019 56 10000 3.08 133 18:54 13.01.2023
236 Clouds 12 1018 48 10000 2.75 138 16:58 13.01.2023
237 Clouds 13 1017 41 10000 2.31 179 14:45 13.01.2023
238 Clouds 13 1018 43 10000 2.17 187 12:21 13.01.2023
239 Clouds 12 1019 46 10000 2.37 186 10:37 13.01.2023
240 Clouds 12 1020 50 10000 2.32 172 10:18 13.01.2023
241 Clouds 12 1020 50 10000 2.32 172 09:39 13.01.2023
242 Clouds 11 1021 54 10000 2.17 160 08:49 13.01.2023
243 Clouds 11 1021 54 10000 2.17 160 08:49 13.01.2023
244 Clear 8 1020 62 10000 1.65 144 06:56 13.01.2023
245 Clear 7 1020 69 10000 1.34 140 05:47 13.01.2023
246 Clear 7 1019 67 10000 0.18 109 00:55 13.01.2023
247 Clear 8 1019 65 10000 0.36 149 22:46 12.01.2023
248 Clear 8 1020 63 10000 1.13 159 21:49 12.01.2023
249 Clear 8 1020 61 10000 2.06 153 20:48 12.01.2023
250 Clear 10 1019 56 10000 2.5 123 18:26 12.01.2023
251 Clear 10 1018 53 10000 3.12 109 16:59 12.01.2023
252 Clear 13 1017 42 10000 3.39 111 14:55 12.01.2023
253 Clear 13 1017 40 10000 3.45 131 14:26 12.01.2023
254 Clear 13 1017 40 10000 3.45 131 13:49 12.01.2023
255 Clouds 12 1018 41 10000 5.27 140 11:57 12.01.2023
256 Clouds 10 1021 47 10000 6.73 135 10:25 12.01.2023
257 Clouds 6 1023 67 10000 5.55 121 07:26 12.01.2023
258 Clouds 7 1023 66 10000 3.94 119 00:31 12.01.2023
259 Clouds 7 1023 64 10000 4.29 120 23:57 11.01.2023
260 Clouds 7 1023 64 10000 4.29 120 23:37 11.01.2023
261 Clouds 8 1023 63 10000 4.49 120 23:19 11.01.2023
262 Clouds 9 1024 58 10000 4.4 128 21:22 11.01.2023
263 Clouds 9 1024 55 10000 4.15 126 18:51 11.01.2023
264 Clouds 10 1024 54 10000 4.31 122 17:37 11.01.2023
265 Clouds 11 1023 50 10000 5.33 113 15:43 11.01.2023
266 Clouds 13 1023 42 10000 5.62 125 13:59 11.01.2023
267 Clouds 13 1022 41 10000 5.37 130 12:33 11.01.2023
268 Clouds 13 1023 43 10000 5.02 136 11:39 11.01.2023
269 Clear 11 1026 55 10000 5.09 129 09:29 11.01.2023
270 Clear 9 1026 62 10000 4.14 124 07:30 11.01.2023
271 Clear 8 1026 70 10000 2.97 115 06:47 11.01.2023
272 Clear 8 1025 69 10000 2.6 135 23:55 10.01.2023
273 Clear 9 1025 68 10000 2.87 139 22:34 10.01.2023
274 Clear 9 1026 64 10000 2.87 155 21:28 10.01.2023
275 Clear 10 1025 62 10000 3.18 154 19:56 10.01.2023
276 Clear 11 1025 57 10000 3.17 149 19:29 10.01.2023
277 Clear 11 1024 55 10000 2.41 154 18:47 10.01.2023
278 Clear 11 1024 54 10000 1.58 170 17:33 10.01.2023
279 Clear 12 1023 52 10000 0.77 257 15:48 10.01.2023
280 Clear 13 1023 45 10000 1.55 262 15:22 10.01.2023
281 Clear 13 1023 45 10000 1.67 262 13:42 10.01.2023
282 Clear 12 1024 54 10000 2.52 199 11:28 10.01.2023
283 Clear 10 1026 64 10000 2.32 170 08:57 10.01.2023
284 Clear 9 1026 69 10000 1.94 152 07:59 10.01.2023
285 Clouds 8 1025 77 10000 1.75 137 07:25 10.01.2023
286 Clouds 7 1024 82 10000 2.01 143 04:50 10.01.2023
287 Clouds 9 1022 72 10000 2.97 87 22:50 09.01.2023
288 Clouds 10 1022 68 10000 4.19 61 21:21 09.01.2023
289 Clouds 10 1022 68 10000 4.19 61 20:34 09.01.2023
290 Clouds 12 1020 56 10000 4.08 53 18:42 09.01.2023
291 Clouds 12 1019 52 10000 2.38 56 17:51 09.01.2023
292 Clouds 13 1018 50 10000 2.85 57 16:47 09.01.2023
293 Clouds 13 1018 49 10000 4.14 40 16:29 09.01.2023
294 Clouds 14 1017 42 10000 3.72 3 15:22 09.01.2023
295 Clouds 14 1016 42 10000 3.79 350 14:43 09.01.2023
296 Clouds 15 1015 38 10000 4.07 317 12:54 09.01.2023
297 Clouds 14 1016 39 10000 3.89 313 12:22 09.01.2023
298 Clouds 14 1016 41 10000 3.46 313 11:20 09.01.2023
299 Clear 11 1017 50 10000 1.29 5 08:28 09.01.2023
300 Clear 9 1017 58 10000 1.05 27 06:31 09.01.2023
301 Clear 8 1016 56 10000 2.46 94 02:53 09.01.2023
302 Clear 10 1017 50 10000 2.67 108 22:31 08.01.2023
303 Clear 10 1017 49 10000 2.41 124 21:23 08.01.2023
304 Clear 10 1017 49 10000 2.41 124 21:23 08.01.2023
305 Clear 10 1017 49 10000 2.41 124 20:57 08.01.2023
306 Clear 11 1017 48 10000 2.94 98 19:19 08.01.2023
307 Clear 12 1016 47 10000 3.4 92 17:39 08.01.2023
308 Clear 12 1016 45 10000 3.99 90 17:18 08.01.2023
309 Clear 13 1016 43 10000 3.76 96 15:38 08.01.2023
310 Clear 13 1016 43 10000 3.76 96 15:38 08.01.2023
311 Clear 15 1015 39 10000 3.45 135 14:18 08.01.2023
312 Clear 15 1015 39 10000 3.45 135 13:32 08.01.2023
313 Clear 15 1016 39 10000 3.67 138 12:59 08.01.2023
314 Clear 14 1017 50 10000 3.7 134 11:23 08.01.2023
315 Clear 13 1018 60 10000 3.3 128 09:37 08.01.2023
316 Clear 12 1019 69 10000 2.73 129 08:31 08.01.2023
317 Clear 9 1019 87 10000 1 301 02:43 08.01.2023
318 Clear 10 1021 81 10000 2.3 333 22:55 07.01.2023
319 Clear 10 1021 81 10000 2.3 333 22:34 07.01.2023
320 Clear 10 1021 80 10000 2.51 328 21:59 07.01.2023
321 Clear 11 1021 79 10000 2.5 320 20:59 07.01.2023
322 Clear 11 1021 77 10000 2.52 315 20:25 07.01.2023
323 Clear 11 1021 74 10000 2.62 304 19:23 07.01.2023
324 Clear 12 1020 71 10000 3.23 291 18:18 07.01.2023
325 Clear 12 1020 71 10000 3.23 291 17:40 07.01.2023
326 Clear 12 1020 67 10000 3.29 288 16:47 07.01.2023
327 Clear 13 1019 62 10000 3.16 285 16:20 07.01.2023
328 Clear 13 1019 62 10000 3.16 285 15:38 07.01.2023
329 Clear 14 1019 55 10000 3.7 295 15:18 07.01.2023
330 Clear 15 1019 52 10000 4.24 291 13:59 07.01.2023
331 Clear 15 1019 52 10000 4.24 291 13:40 07.01.2023
332 Clouds 15 1019 57 10000 4.73 285 12:50 07.01.2023
333 Clouds 14 1020 59 10000 5.2 285 12:20 07.01.2023
334 Clouds 13 1022 67 10000 5.09 285 10:28 07.01.2023
335 Clouds 12 1022 72 10000 3.74 289 08:52 07.01.2023
336 Clouds 11 1023 76 10000 2.79 278 07:59 07.01.2023
337 Clouds 11 1023 76 10000 2.79 278 07:40 07.01.2023
338 Clouds 9 1022 85 10000 3.09 266 05:49 07.01.2023
339 Clouds 10 1022 81 10000 4.41 282 22:58 06.01.2023
340 Clouds 10 1022 82 10000 4.08 277 22:21 06.01.2023
341 Clouds 10 1022 82 10000 4.08 277 22:21 06.01.2023
342 Clouds 10 1022 82 10000 4.08 277 21:47 06.01.2023
343 Clouds 10 1023 84 10000 3.75 269 20:34 06.01.2023
344 Clear 10 1023 84 10000 3.57 270 19:55 06.01.2023
345 Clear 10 1023 84 10000 3.57 270 19:37 06.01.2023
346 Clear 10 1023 81 10000 3.64 268 19:18 06.01.2023
347 Clouds 11 1022 76 10000 3.34 254 17:44 06.01.2023
348 Clouds 11 1022 74 10000 3.75 260 16:52 06.01.2023
349 Clouds 12 1021 69 10000 3.93 266 16:22 06.01.2023
350 Clouds 12 1021 69 10000 3.93 266 15:51 06.01.2023
351 Clouds 13 1020 61 10000 4.12 274 15:28 06.01.2023
352 Clouds 14 1020 56 10000 4.19 274 13:38 06.01.2023
353 Clouds 14 1021 55 10000 3.18 271 11:50 06.01.2023
354 Clouds 13 1022 58 10000 2.27 278 10:34 06.01.2023
355 Clouds 12 1024 62 10000 2.5 252 08:42 06.01.2023
356 Clear 8 1023 84 10000 3.07 252 05:20 06.01.2023
357 Clear 9 1022 77 10000 3.54 276 22:56 05.01.2023
358 Clear 10 1022 76 10000 3.48 275 22:29 05.01.2023
359 Clear 10 1022 74 10000 3.74 276 20:24 05.01.2023
360 Clear 11 1022 72 10000 4.18 278 17:30 05.01.2023
361 Clear 11 1021 70 10000 4.65 281 16:38 05.01.2023
362 Clear 12 1020 65 10000 5.23 282 15:48 05.01.2023
363 Clear 13 1020 57 10000 6.02 288 15:20 05.01.2023
364 Clear 14 1019 51 10000 6.68 290 13:35 05.01.2023
365 Clear 14 1019 50 10000 6.46 293 12:40 05.01.2023
366 Clear 14 1020 55 10000 6.25 299 10:37 05.01.2023
367 Clear 13 1021 62 10000 6.55 300 09:40 05.01.2023
368 Clear 9 1022 84 10000 4.07 291 07:28 05.01.2023
369 Clear 9 1022 84 10000 4.07 291 06:38 05.01.2023
370 Clear 8 1020 77 10000 3.77 294 00:32 05.01.2023
371 Clear 9 1020 66 10000 3.24 291 22:23 04.01.2023
372 Clear 9 1020 66 10000 3.24 291 21:30 04.01.2023
373 Clouds 10 1020 56 10000 3.07 266 19:58 04.01.2023
374 Clouds 10 1020 56 10000 3.07 266 19:37 04.01.2023
375 Clouds 10 1020 52 10000 1.9 190 19:18 04.01.2023
376 Clouds 10 1020 49 10000 0.58 70 17:38 04.01.2023
377 Clouds 11 1019 45 10000 2 6 16:30 04.01.2023
378 Clouds 13 1018 39 10000 3.62 341 14:50 04.01.2023
379 Clouds 13 1018 48 10000 3.63 272 12:19 04.01.2023
380 Clouds 12 1018 44 10000 1.78 267 11:23 04.01.2023
381 Clouds 12 1018 44 10000 1.78 267 10:44 04.01.2023
382 Clouds 12 1020 45 10000 1 63 10:24 04.01.2023
383 Clouds 11 1020 51 10000 2.13 63 09:24 04.01.2023
384 Clouds 9 1021 64 10000 1.78 86 05:38 04.01.2023
385 Clouds 9 1020 61 10000 4.62 54 01:40 04.01.2023
386 Clouds 11 1020 55 10000 7.14 65 23:42 03.01.2023
387 Clouds 11 1020 54 10000 7.2 64 22:56 03.01.2023
388 Clouds 11 1020 55 10000 7.37 68 21:37 03.01.2023
389 Clouds 12 1020 57 10000 7.54 74 20:50 03.01.2023
390 Clouds 12 1021 71 10000 5.83 97 18:24 03.01.2023
391 Clouds 12 1021 66 10000 5.75 95 16:40 03.01.2023
392 Clouds 14 1020 60 10000 7.22 102 15:28 03.01.2023
393 -273 0 0 0 0 0 13:33 03.01.2023
394 Clouds 14 1021 52 10000 7.37 93 12:59 03.01.2023
395 Clouds 14 1021 52 10000 7.37 93 12:31 03.01.2023
396 Clouds 13 1022 54 10000 7.64 95 11:56 03.01.2023
397 Clouds 11 1026 54 10000 8.7 92 09:26 03.01.2023
398 Clouds 9 1025 58 10000 6.65 91 04:26 03.01.2023
399 Clouds 9 1025 58 10000 6.65 91 03:47 03.01.2023
400 Clouds 9 1025 57 10000 6.74 88 03:28 03.01.2023
401 Clouds 10 1025 52 10000 6.82 82 23:19 02.01.2023
402 Clouds 10 1025 52 10000 6.82 82 22:39 02.01.2023
403 Clouds 9 1027 64 10000 6.72 75 20:51 02.01.2023
404 Clouds 9 1027 64 10000 6.72 75 20:31 02.01.2023
405 Clouds 10 1026 55 10000 7.52 85 18:49 02.01.2023
406 Clouds 10 1025 50 10000 8.38 96 16:20 02.01.2023
407 Clouds 10 1025 60 10000 10.05 96 14:26 02.01.2023
408 Clouds 10 1025 63 10000 9.54 97 12:38 02.01.2023
409 Clouds 8 1026 78 10000 8.56 96 11:27 02.01.2023
410 Clouds 10 1027 53 10000 9.64 103 08:51 02.01.2023
411 Clouds 8 1026 59 10000 7.19 89 04:42 02.01.2023
412 Clouds 9 1026 60 10000 8.31 91 23:32 01.01.2023
413 Clouds 10 1026 56 10000 8.24 95 21:55 01.01.2023
414 Clouds 11 1026 55 10000 8.62 96 20:49 01.01.2023
415 Clouds 11 1026 54 10000 8.64 97 20:18 01.01.2023
416 Clouds 11 1026 54 10000 8.64 97 20:18 01.01.2023
417 Clouds 12 1026 53 10000 8.52 97 18:53 01.01.2023
418 Clouds 13 1025 52 10000 8.32 96 17:24 01.01.2023
419 Clouds 13 1025 52 10000 8.32 96 16:57 01.01.2023
420 Clouds 13 1024 51 10000 8.32 98 15:46 01.01.2023
421 Clouds 14 1024 48 10000 8.89 105 13:50 01.01.2023
422 Clouds 14 1024 48 10000 9.05 108 12:59 01.01.2023
423 Clouds 14 1025 50 10000 8.82 109 11:42 01.01.2023
424 Clouds 13 1025 53 10000 8.7 109 11:21 01.01.2023
425 Clouds 12 1026 55 10000 8.65 107 09:38 01.01.2023
426 Clouds 11 1027 59 10000 8.55 103 08:42 01.01.2023
427 Clouds 10 1028 63 10000 8.3 99 08:18 01.01.2023
428 Clouds 9 1028 68 10000 7.28 96 06:46 01.01.2023
429 Clear 9 1026 69 10000 5.24 96 23:47 31.12.2022
430 Clear 10 1026 67 10000 5.41 97 23:26 31.12.2022
431 Clear 10 1027 65 10000 5.28 101 22:29 31.12.2022
432 Clear 11 1026 63 10000 5.48 88 21:24 31.12.2022
433 Clear 11 1026 63 10000 5.48 88 20:31 31.12.2022
434 Clouds 11 1026 58 10000 5.6 87 18:57 31.12.2022
435 Clouds 11 1026 58 10000 5.6 87 18:38 31.12.2022
436 Clouds 12 1025 56 10000 5.45 90 17:58 31.12.2022
437 Clouds 12 1025 56 10000 5.45 90 17:34 31.12.2022
438 Clouds 12 1025 55 10000 5.42 97 16:32 31.12.2022
439 Clouds 12 1024 52 10000 5.91 98 15:43 31.12.2022
440 Clouds 13 1024 49 10000 6.48 99 14:34 31.12.2022
441 Clouds 14 1024 45 10000 7.88 107 13:28 31.12.2022
442 Clouds 13 1024 49 10000 8.28 106 12:24 31.12.2022
443 Clouds 13 1024 49 10000 8.28 106 11:56 31.12.2022
444 Clouds 13 1024 49 10000 8.28 106 11:38 31.12.2022
445 Clouds 12 1026 52 10000 8.41 102 10:20 31.12.2022
446 Clouds 12 1026 52 10000 8.41 102 09:50 31.12.2022
447 Clouds 11 1027 56 10000 8.63 96 08:39 31.12.2022
448 Clouds 8 1027 69 10000 5.14 83 05:40 31.12.2022
449 Clear 8 1027 68 10000 4.93 85 00:34 31.12.2022
450 Clear 9 1027 65 10000 5.27 87 23:27 30.12.2022
451 Clear 9 1027 62 10000 5.85 90 22:19 30.12.2022
452 Clear 9 1027 62 10000 5.85 90 21:39 30.12.2022
453 Clear 10 1027 59 10000 6.12 91 21:21 30.12.2022
454 Clear 11 1026 53 10000 5.67 86 18:51 30.12.2022
455 Clear 11 1025 51 10000 5.53 87 17:35 30.12.2022
456 Clear 11 1025 49 10000 4.91 93 16:50 30.12.2022
457 Clear 13 1024 41 10000 5.66 103 15:18 30.12.2022
458 Clear 14 1024 37 10000 6.03 108 13:31 30.12.2022
459 Clear 11 1027 55 10000 5.66 108 08:39 30.12.2022
460 Clear 7 1027 73 10000 3.71 111 04:54 30.12.2022
461 Clear 8 1026 71 10000 3.35 103 02:28 30.12.2022
462 Clear 9 1026 67 10000 3.03 111 23:48 29.12.2022
463 Clear 9 1026 65 10000 3.12 116 22:37 29.12.2022
464 Clear 10 1026 62 10000 3.25 118 21:29 29.12.2022
465 Clear 10 1026 62 10000 3.25 118 20:53 29.12.2022
466 Clear 10 1026 60 10000 3.61 114 19:55 29.12.2022
467 Clear 11 1025 56 10000 3.87 101 17:56 29.12.2022
468 Clear 11 1025 54 10000 4.12 104 17:27 29.12.2022
469 Clear 11 1025 54 10000 4.12 104 16:55 29.12.2022
470 Clear 12 1024 52 10000 4.06 106 15:58 29.12.2022
471 Clear 14 1024 44 10000 3.99 125 13:55 29.12.2022
472 Clear 14 1024 44 10000 3.88 136 12:41 29.12.2022
473 Clear 13 1024 52 10000 4.3 137 10:31 29.12.2022
474 Clear 9 1027 74 10000 2.68 112 06:57 29.12.2022
475 Clear 9 1026 82 10000 1.38 328 23:30 28.12.2022
476 Clear 9 1026 80 10000 1.69 324 22:33 28.12.2022
477 Clear 10 1026 76 10000 2.25 332 21:20 28.12.2022
478 Clear 10 1026 74 10000 2.38 334 20:22 28.12.2022
479 Clear 10 1026 71 10000 2.78 338 19:23 28.12.2022
480 Clear 12 1025 62 10000 2.18 320 16:43 28.12.2022
481 Clear 13 1025 52 10000 2.82 309 14:29 28.12.2022
482 Clear 13 1024 53 10000 2.88 304 12:49 28.12.2022
483 Clear 13 1025 55 10000 2.88 296 11:51 28.12.2022
484 Clear 12 1026 58 10000 2.79 287 10:37 28.12.2022
485 Clear 10 1028 74 10000 2.07 274 07:51 28.12.2022
486 Clear 9 1027 77 10000 1.79 287 06:48 28.12.2022
487 Clear 8 1026 80 10000 1.97 290 03:43 28.12.2022
488 Clear 9 1026 73 10000 2.28 313 23:22 27.12.2022
489 Clear 9 1026 72 10000 2.02 325 19:58 27.12.2022
490 Clear 10 1026 72 10000 1.84 339 19:24 27.12.2022
491 Clouds 10 1024 72 10000 2.46 322 17:20 27.12.2022
492 Clouds 10 1024 72 10000 2.46 322 16:39 27.12.2022
493 Clouds 12 1023 61 10000 3.71 336 15:22 27.12.2022
494 Clouds 12 1021 57 10000 5.05 340 12:28 27.12.2022
495 Clouds 11 1022 61 10000 4.97 346 11:24 27.12.2022
496 Clouds 10 1022 65 10000 4.76 349 09:46 27.12.2022
497 Clouds 9 1023 73 10000 4.84 340 09:22 27.12.2022
498 Clouds 8 1022 79 10000 5.46 326 06:49 27.12.2022
499 Clouds 8 1019 83 10000 4.96 318 04:29 27.12.2022
500 Clouds 9 1016 80 10000 7.96 315 22:20 26.12.2022
501 Clouds 9 1016 77 10000 9.49 309 20:51 26.12.2022
502 Clouds 9 1016 81 10000 8.12 300 20:29 26.12.2022
503 Clouds 9 1015 79 10000 8.51 294 18:43 26.12.2022
504 Clouds 9 1015 80 10000 7.08 292 17:32 26.12.2022
505 Clouds 8 1015 73 10000 5.77 294 15:46 26.12.2022
506 Clouds 11 1014 81 10000 4.94 240 13:20 26.12.2022
507 Clouds 10 1014 84 10000 6.56 205 11:46 26.12.2022
508 Clouds 10 1016 83 10000 3.52 227 07:28 26.12.2022
509 Clouds 11 1017 72 10000 1.59 265 23:48 25.12.2022
510 Clouds 11 1017 72 10000 1.88 297 23:22 25.12.2022
511 Clouds 11 1017 70 10000 3 278 22:26 25.12.2022
512 Clouds 11 1017 70 10000 3 278 21:35 25.12.2022
513 Clouds 12 1017 55 10000 2.77 282 18:32 25.12.2022
514 Clouds 12 1017 55 10000 3.1 281 17:51 25.12.2022
515 Clouds 12 1017 55 10000 3.1 281 17:33 25.12.2022
516 Clouds 15 1016 45 10000 5.47 271 15:19 25.12.2022
517 Clouds 15 1016 52 10000 3.63 270 11:50 25.12.2022
518 Clouds 10 1018 84 10000 1.6 216 06:21 25.12.2022
519 Clouds 11 1017 82 10000 1.83 272 23:26 24.12.2022
520 Clouds 11 1017 81 10000 2.07 260 21:25 24.12.2022
521 Clouds 12 1016 74 10000 3.29 268 17:59 24.12.2022
522 Clouds 12 1015 69 10000 3.72 269 16:32 24.12.2022
523 Clouds 15 1014 54 10000 5 276 14:48 24.12.2022
524 Clear 15 1014 50 10000 5.37 282 12:42 24.12.2022
525 Clear 15 1014 54 10000 4.84 272 10:39 24.12.2022
526 Clear 14 1015 60 10000 4.33 265 10:20 24.12.2022
527 Clear 14 1015 60 10000 4.33 265 09:36 24.12.2022
528 Clear 8 1015 84 10000 0.99 270 05:46 24.12.2022
529 Clear 8 1015 81 10000 1.33 308 02:20 24.12.2022
530 Clear 9 1015 75 10000 1.44 295 23:35 23.12.2022
531 Clear 9 1014 73 10000 1.6 307 21:58 23.12.2022
532 Clear 10 1014 71 10000 1.63 304 20:40 23.12.2022
533 Clear 10 1014 71 10000 1.57 297 19:39 23.12.2022
534 Clouds 10 1014 70 10000 1.4 268 19:21 23.12.2022
535 Clouds 10 1014 70 10000 1.67 240 18:39 23.12.2022
536 Clouds 11 1014 70 10000 1.74 195 18:19 23.12.2022
537 Clouds 11 1013 67 10000 1.62 139 16:33 23.12.2022
538 Clouds 12 1013 60 10000 2.92 101 14:51 23.12.2022
539 Clouds 13 1011 57 10000 4.06 102 11:42 23.12.2022
540 Clouds 13 1012 59 10000 4.82 94 09:37 23.12.2022
541 Clouds 11 1013 64 10000 6.35 97 07:55 23.12.2022
542 Clouds 11 1013 67 10000 5.93 88 06:52 23.12.2022
543 Clouds 10 1013 70 10000 5.66 90 05:45 23.12.2022
544 Clear 11 1013 65 10000 5.02 79 23:22 22.12.2022
545 Clear 11 1013 65 10000 5.02 79 22:35 22.12.2022
546 Clear 12 1014 60 10000 5.29 74 21:20 22.12.2022
547 Clear 13 1014 55 10000 3.85 80 19:25 22.12.2022
548 Clear 13 1014 55 10000 3.85 80 18:40 22.12.2022
549 Clear 14 1014 51 10000 3.01 95 17:23 22.12.2022
550 Clear 14 1014 51 10000 3.01 95 16:38 22.12.2022
551 Clear 14 1014 48 10000 3.12 100 15:34 22.12.2022
552 Clear 16 1014 44 10000 3.32 103 14:51 22.12.2022
553 Clear 16 1014 42 10000 3.43 99 13:33 22.12.2022
554 Clear 16 1013 45 10000 2.07 116 12:59 22.12.2022
555 Clear 15 1014 53 10000 1.68 86 10:44 22.12.2022
556 Clear 14 1015 58 10000 1.24 66 10:22 22.12.2022
557 Clear 13 1016 65 10000 0.49 48 09:20 22.12.2022
558 Clear 12 1017 72 10000 0.43 352 08:26 22.12.2022
559 Clear 9 1015 89 10000 2.12 317 05:28 22.12.2022
560 Clear 10 1015 89 10000 2.59 309 04:18 22.12.2022
561 Clear 10 1015 89 10000 3.24 294 23:50 21.12.2022
562 Clear 11 1015 85 10000 3.12 274 21:58 21.12.2022
563 Clear 12 1015 82 10000 3.02 268 21:23 21.12.2022
564 Clear 12 1015 82 10000 3.02 268 20:52 21.12.2022
565 Clear 12 1014 79 10000 2.94 269 20:18 21.12.2022
566 Clear 12 1014 79 10000 2.94 269 19:43 21.12.2022
567 Clear 12 1014 76 10000 3.32 276 19:24 21.12.2022
568 Clear 12 1014 76 10000 3.32 276 18:46 21.12.2022
569 Clear 13 1014 72 10000 3.68 276 17:38 21.12.2022
570 Clear 15 1013 52 10000 5.02 286 14:58 21.12.2022
571 Clear 16 1013 45 10000 5.55 301 13:26 21.12.2022
572 Clear 16 1013 45 10000 5.09 300 11:47 21.12.2022
573 Clear 16 1014 48 10000 4.66 296 11:20 21.12.2022
574 Clear 15 1014 51 10000 4.33 297 09:47 21.12.2022
575 Clear 13 1015 57 10000 3.34 300 07:38 21.12.2022
576 Clear 10 1014 62 10000 3.11 310 03:48 21.12.2022
577 Clear 12 1014 54 10000 2.43 299 22:56 20.12.2022
578 Clear 13 1014 53 10000 1.5 290 21:22 20.12.2022
579 Clear 13 1014 52 10000 0.8 280 20:24 20.12.2022
580 Clear 13 1014 52 10000 0.8 280 19:40 20.12.2022
581 Clear 13 1014 50 10000 0.63 342 18:37 20.12.2022
582 Clear 14 1014 49 10000 1.12 26 18:19 20.12.2022
583 Clear 14 1014 49 10000 1.12 26 17:46 20.12.2022
584 Clear 14 1013 46 10000 1.59 38 16:35 20.12.2022
585 Clear 15 1013 45 10000 1.23 47 15:30 20.12.2022
586 Clear 17 1013 41 10000 0.61 68 14:48 20.12.2022
587 Clear 18 1013 38 10000 0.66 143 14:28 20.12.2022
588 Clear 17 1013 38 10000 1.31 149 12:58 20.12.2022
589 Clear 17 1014 40 10000 1.89 147 12:28 20.12.2022
590 Clear 17 1014 40 10000 1.89 147 11:33 20.12.2022
591 Clear 14 1017 46 10000 4.16 125 08:49 20.12.2022
592 Clouds 10 1017 54 10000 3.33 116 03:40 20.12.2022
593 Clear 12 1018 49 10000 2.97 121 22:42 19.12.2022
594 Clear 12 1018 47 10000 2.92 125 21:56 19.12.2022
595 Clear 13 1018 45 10000 3.16 118 19:58 19.12.2022
596 Clear 13 1018 45 10000 3.16 118 19:39 19.12.2022
597 Clear 13 1018 45 10000 3.29 111 18:42 19.12.2022
598 Clear 14 1018 44 10000 4.05 108 16:52 19.12.2022
599 Clear 17 1018 35 10000 4.29 120 13:41 19.12.2022
600 Clear 17 1019 37 10000 5.17 132 12:21 19.12.2022
601 Clear 16 1019 40 10000 5.33 131 10:55 19.12.2022
602 Clear 13 1022 52 10000 4.66 122 07:44 19.12.2022
603 Clear 10 1022 52 10000 3.46 106 03:48 19.12.2022
604 Clear 12 1022 51 10000 3.7 100 22:40 18.12.2022
605 Clear 12 1023 52 10000 3.72 103 21:46 18.12.2022
606 Clear 13 1023 52 10000 3.88 101 21:23 18.12.2022
607 Clear 13 1022 52 10000 3.6 104 20:33 18.12.2022
608 Clear 13 1023 52 10000 3.47 105 19:42 18.12.2022
609 Clear 14 1022 51 10000 3.32 112 18:39 18.12.2022
610 Clear 15 1022 50 10000 3.41 129 17:49 18.12.2022
611 Clear 16 1021 47 10000 3.65 131 15:41 18.12.2022
612 Clear 16 1021 47 10000 3.65 131 15:41 18.12.2022
613 Clear 17 1021 42 10000 3.95 120 15:20 18.12.2022
614 Clear 18 1021 40 10000 4.77 118 14:21 18.12.2022
615 Clouds 18 1021 41 10000 5.03 119 12:57 18.12.2022
616 Clouds 18 1021 41 10000 5.03 119 12:31 18.12.2022
617 Clouds 17 1022 45 10000 4.93 124 11:22 18.12.2022
618 Clouds 15 1024 50 10000 4.94 115 09:24 18.12.2022
619 Clouds 15 1024 50 10000 4.94 115 08:45 18.12.2022
620 Clouds 11 1024 66 10000 3.89 102 06:24 18.12.2022
621 Clouds 11 1024 66 10000 3.86 105 04:41 18.12.2022
622 Clear 12 1023 63 10000 3.28 101 01:49 18.12.2022
623 Clear 13 1023 60 10000 3.54 96 22:30 17.12.2022
624 Clear 14 1023 58 10000 3.49 99 20:35 17.12.2022
625 Clear 16 1021 51 10000 3.58 143 17:20 17.12.2022
626 Clear 18 1021 44 10000 3.79 124 15:19 17.12.2022
627 Clear 19 1021 41 10000 4.04 114 13:18 17.12.2022
628 Clear 18 1021 45 10000 4.07 119 11:18 17.12.2022
629 Clear 18 1021 45 10000 4.07 119 10:39 17.12.2022
630 Clear 17 1023 51 10000 4.89 111 08:36 17.12.2022
631 Clear 13 1023 63 10000 3.27 110 06:47 17.12.2022
632 Clear 13 1022 69 10000 2.84 109 02:19 17.12.2022
633 Clear 14 1022 64 10000 2.6 100 22:34 16.12.2022
634 Clear 15 1022 58 10000 1.91 116 20:26 16.12.2022
635 Clear 16 1021 55 10000 2.26 146 18:22 16.12.2022
636 Clear 18 1020 48 10000 1.45 126 15:28 16.12.2022
637 Clear 18 1020 48 10000 1.45 126 14:36 16.12.2022
638 Clear 19 1020 45 10000 1.51 132 12:38 16.12.2022
639 Clear 18 1020 46 10000 2 140 11:55 16.12.2022
640 Clear 17 1021 52 10000 2.51 134 09:40 16.12.2022
641 Clear 16 1022 56 10000 2.72 125 08:39 16.12.2022
642 Clear 15 1023 62 10000 2.26 125 07:54 16.12.2022
643 Clear 14 1022 69 10000 1.83 120 06:45 16.12.2022
644 Clear 14 1021 77 10000 1.65 317 22:46 15.12.2022
645 Clear 14 1021 76 10000 2.21 310 21:36 15.12.2022
646 Clear 15 1021 72 10000 2.35 319 19:49 15.12.2022
647 Clear 15 1020 66 10000 1.79 328 18:54 15.12.2022
648 Clear 16 1020 62 10000 1.79 307 17:28 15.12.2022
649 Clear 16 1019 60 10000 2.05 301 16:25 15.12.2022
650 Clear 18 1018 55 10000 1.81 306 14:57 15.12.2022
651 Clear 18 1018 52 10000 2.4 316 12:55 15.12.2022
652 Clear 18 1018 53 10000 1.91 306 12:24 15.12.2022
653 Clear 16 1020 64 10000 1.05 302 09:19 15.12.2022
654 Clear 16 1020 64 10000 1.05 302 08:41 15.12.2022
655 Clouds 12 1019 84 10000 1.94 308 05:45 15.12.2022
656 Clouds 12 1018 85 10000 2.31 309 02:38 15.12.2022
657 Clouds 14 1018 74 10000 2.97 284 21:24 14.12.2022
658 Clouds 14 1018 74 10000 2.97 284 20:51 14.12.2022
659 Clouds 14 1017 75 10000 3.07 270 19:59 14.12.2022
660 Clouds 15 1017 68 10000 1.83 275 17:52 14.12.2022
661 Clouds 15 1016 66 10000 0.96 309 16:57 14.12.2022
662 Clouds 16 1016 63 10000 1.29 323 15:30 14.12.2022
663 Clouds 17 1015 53 10000 1.89 293 13:31 14.12.2022
664 Clouds 16 1015 53 10000 0.89 235 11:20 14.12.2022
665 Clouds 16 1015 53 10000 0.89 235 11:20 14.12.2022
666 Clouds 16 1016 55 10000 0.5 101 10:25 14.12.2022
667 Clouds 15 1017 55 10000 1.05 238 08:48 14.12.2022
668 Clear 13 1015 65 10000 2.04 299 22:47 13.12.2022
669 Clear 14 1016 63 10000 2.84 304 21:48 13.12.2022
670 Clear 14 1016 65 10000 2.99 306 20:48 13.12.2022
671 Clear 14 1015 65 10000 3.01 289 19:57 13.12.2022
672 Clouds 15 1014 54 10000 3.44 267 17:21 13.12.2022
673 Clouds 16 1013 46 10000 4.48 268 15:35 13.12.2022
674 Clouds 18 1013 36 10000 4.69 276 14:36 13.12.2022
675 Clouds 20 1012 27 10000 3.89 246 10:55 13.12.2022
676 Clouds 20 1012 27 10000 3.89 246 10:35 13.12.2022
677 Clouds 18 1014 28 10000 1.73 266 09:23 13.12.2022
678 Clouds 14 1013 36 10000 1.04 196 23:23 12.12.2022
679 Clouds 14 1013 36 10000 1.36 193 22:22 12.12.2022
680 Clouds 15 1013 35 10000 1.43 192 20:53 12.12.2022
681 Clouds 16 1013 35 10000 1.15 279 18:33 12.12.2022
682 Clouds 17 1013 34 10000 2.06 313 17:19 12.12.2022
683 Clouds 19 1012 32 10000 3.1 298 15:22 12.12.2022
684 Clouds 20 1012 28 10000 2.62 264 11:51 12.12.2022
685 Clouds 16 1015 43 10000 0.87 230 09:19 12.12.2022
686 Clouds 12 1015 59 10000 1.19 338 04:54 12.12.2022
687 Clouds 12 1014 59 10000 2.28 106 01:53 12.12.2022
688 Clouds 14 1015 56 10000 2.89 108 22:53 11.12.2022
689 Clouds 14 1016 51 10000 3.09 118 20:47 11.12.2022
690 Clouds 14 1015 50 10000 3.47 119 19:43 11.12.2022
691 Clouds 15 1016 48 10000 3.48 116 19:22 11.12.2022
692 Clouds 15 1016 46 10000 3.88 102 18:18 11.12.2022
693 Clouds 15 1016 46 10000 3.88 102 17:31 11.12.2022
694 Clouds 16 1016 45 10000 4.47 93 16:52 11.12.2022
695 Clouds 16 1015 43 10000 4.9 88 15:46 11.12.2022
696 Clear 17 1015 38 10000 4.15 100 14:50 11.12.2022
697 Clouds 18 1015 35 10000 5.12 132 12:44 11.12.2022
698 Clouds 18 1016 39 10000 4.71 138 11:53 11.12.2022
699 Clear 14 1020 59 10000 4.53 117 08:29 11.12.2022
700 Clear 12 1019 66 10000 3.05 107 00:34 11.12.2022
701 Clear 13 1019 59 10000 3.23 98 23:20 10.12.2022
702 Clear 13 1019 59 10000 3.23 98 22:33 10.12.2022
703 Clear 14 1020 54 10000 1.6 98 21:19 10.12.2022
704 Clear 14 1020 54 10000 1.6 98 20:39 10.12.2022
705 Clear 14 1019 55 10000 0.71 127 18:58 10.12.2022
706 Clear 15 1019 53 10000 0.45 196 16:57 10.12.2022
707 Clear 15 1019 53 10000 0.45 196 16:33 10.12.2022
708 Clear 16 1018 51 10000 0.54 223 15:38 10.12.2022
709 Clear 17 1018 47 10000 0.48 225 14:49 10.12.2022
710 Clear 18 1018 41 10000 0.69 170 12:54 10.12.2022
711 Clear 18 1018 43 10000 1.2 137 11:37 10.12.2022
712 Clear 17 1019 47 10000 1.64 126 10:43 10.12.2022
713 Clear 15 1021 56 10000 2.35 125 09:18 10.12.2022
714 Clear 13 1021 67 10000 1.56 137 07:20 10.12.2022
715 Clear 12 1020 69 10000 0.92 349 00:52 10.12.2022
716 Clear 13 1021 64 10000 2.1 337 23:19 09.12.2022
717 Clear 13 1021 64 10000 2.1 337 22:40 09.12.2022
718 Clear 14 1021 58 10000 2.4 340 21:26 09.12.2022
719 Clear 14 1021 58 10000 2.4 340 20:44 09.12.2022
720 Clear 15 1020 53 10000 2.68 341 19:28 09.12.2022
721 Clear 15 1020 50 10000 2.68 330 17:55 09.12.2022
722 Clear 16 1020 49 10000 2.75 326 16:36 09.12.2022
723 Clear 16 1019 47 10000 2.65 325 16:18 09.12.2022
724 Clear 18 1019 43 10000 2.52 323 15:19 09.12.2022
725 Clouds 18 1019 46 10000 1.25 315 11:36 09.12.2022
726 Clouds 17 1020 50 10000 0.48 316 10:45 09.12.2022
727 Clouds 16 1021 56 10000 1.97 101 09:25 09.12.2022
728 Clouds 12 1020 71 10000 1.23 110 03:33 09.12.2022
729 Clouds 13 1021 67 10000 0.88 13 00:56 09.12.2022
730 Clouds 14 1021 60 10000 1.82 319 22:32 08.12.2022
731 Clouds 14 1021 57 10000 2.01 332 20:51 08.12.2022
732 Clear 16 1020 53 10000 1.9 325 18:18 08.12.2022
733 Clouds 17 1019 49 10000 1.6 333 15:44 08.12.2022
734 Clear 19 1018 42 10000 0.02 304 14:27 08.12.2022
735 Clear 19 1018 42 10000 0.02 304 14:27 08.12.2022
736 Clear 18 1019 44 10000 1.86 158 11:42 08.12.2022
737 Clear 17 1020 49 10000 3.45 131 10:22 08.12.2022
738 Clear 16 1020 52 10000 3.93 122 09:27 08.12.2022
739 Clouds 13 1018 59 10000 2.34 50 02:56 08.12.2022
740 Clouds 14 1018 57 10000 1.75 88 22:19 07.12.2022
741 Clouds 14 1018 57 10000 1.75 88 21:51 07.12.2022
742 Clouds 14 1018 57 10000 1.75 88 21:31 07.12.2022
743 Clouds 14 1018 55 10000 2.05 66 19:47 07.12.2022
744 Clouds 15 1018 52 10000 2.69 81 17:41 07.12.2022
745 Clouds 17 1017 45 10000 0.86 91 14:41 07.12.2022
746 Clear 17 1017 42 10000 1.38 211 12:39 07.12.2022
747 Clear 16 1018 47 10000 1.24 200 10:46 07.12.2022
748 Clear 15 1019 53 10000 0.92 199 09:57 07.12.2022
749 Clear 14 1019 60 10000 0.2 226 08:54 07.12.2022
750 Clear 12 1020 75 10000 0.76 283 06:49 07.12.2022
751 Clear 11 1019 86 10000 1.45 311 05:23 07.12.2022
752 Clouds 12 1018 81 10000 2.05 306 23:44 06.12.2022
753 Clouds 13 1018 77 10000 2.74 298 21:31 06.12.2022
754 Clouds 13 1018 74 10000 3.13 289 18:35 06.12.2022
755 Clouds 14 1018 65 10000 3.49 281 17:18 06.12.2022
756 Clouds 15 1017 58 10000 3.11 290 16:23 06.12.2022
757 Clouds 15 1017 58 10000 3.11 290 15:35 06.12.2022
758 Clouds 16 1017 52 10000 2.77 299 14:35 06.12.2022
759 Clear 17 1017 49 10000 2.94 296 13:39 06.12.2022
760 Clear 17 1017 48 10000 3.09 291 12:41 06.12.2022
761 Clear 17 1017 49 10000 2.95 284 11:34 06.12.2022
762 Clear 14 1019 66 10000 2.5 305 07:49 06.12.2022
763 Clear 12 1018 77 10000 3.25 317 03:20 06.12.2022
764 Clear 13 1018 66 10000 2.93 328 23:21 05.12.2022
765 Clear 13 1018 65 10000 2.79 328 21:40 05.12.2022
766 Clear 14 1018 63 10000 2.79 326 20:52 05.12.2022
767 Clouds 15 1018 62 10000 2.47 319 19:53 05.12.2022
768 Clouds 15 1018 62 10000 2.47 319 19:34 05.12.2022
769 Clouds 16 1017 55 10000 1.78 19 16:51 05.12.2022
770 Clouds 18 1016 48 10000 1.49 42 15:29 05.12.2022
771 Clear 18 1016 46 10000 0.43 55 13:52 05.12.2022
772 Clouds 18 1017 47 10000 1.23 162 12:57 05.12.2022
773 Clouds 18 1017 47 10000 1.23 162 12:38 05.12.2022
774 Clouds 18 1017 49 10000 2.28 157 11:40 05.12.2022
775 Clouds 16 1020 52 10000 2.96 122 08:32 05.12.2022
776 Clear 13 1019 65 10000 3.48 96 00:18 05.12.2022
777 Clear 14 1019 66 10000 3.25 95 22:44 04.12.2022
778 Clear 14 1019 65 10000 2.66 102 22:19 04.12.2022
779 Clear 14 1019 66 10000 1.96 109 21:32 04.12.2022
780 Clear 15 1019 66 10000 1.63 124 20:20 04.12.2022
781 Clear 15 1019 64 10000 2.07 136 19:23 04.12.2022
782 Clear 15 1019 64 10000 2.07 136 18:36 04.12.2022
783 Clear 16 1018 61 10000 2.16 134 17:22 04.12.2022
784 Clear 16 1018 61 10000 2.16 134 16:37 04.12.2022
785 Clear 16 1018 59 10000 1.94 123 16:18 04.12.2022
786 Clear 17 1017 55 10000 1.71 119 15:27 04.12.2022
787 Clear 17 1017 58 10000 1.48 108 14:32 04.12.2022
788 Clouds 18 1017 55 10000 1.98 132 12:52 04.12.2022
789 Clouds 18 1017 55 10000 1.98 132 12:33 04.12.2022
790 Clouds 17 1017 56 10000 2.69 133 11:35 04.12.2022
791 Clouds 14 1020 59 10000 4.68 110 07:59 04.12.2022
792 Clouds 12 1019 65 10000 3.33 98 02:51 04.12.2022
793 Clouds 13 1019 60 10000 3.66 97 23:44 03.12.2022
794 Clouds 13 1019 59 10000 3.75 93 22:46 03.12.2022
795 Clouds 13 1019 59 10000 3.63 91 21:52 03.12.2022
796 Clouds 14 1019 58 10000 3.82 95 20:46 03.12.2022
797 Clouds 15 1019 52 10000 3.04 106 18:57 03.12.2022
798 Clouds 15 1019 52 10000 3.04 106 18:31 03.12.2022
799 Clouds 16 1017 47 10000 3.22 121 15:52 03.12.2022
800 Clouds 18 1017 40 10000 3.9 109 13:46 03.12.2022
801 Clouds 18 1017 41 10000 3.62 109 12:51 03.12.2022
802 Clouds 18 1017 44 10000 4.02 114 12:18 03.12.2022
803 Clouds 17 1019 49 10000 4.09 111 09:46 03.12.2022
804 Clouds 12 1018 65 10000 2.61 105 04:18 03.12.2022
805 Clouds 13 1018 59 10000 2.04 61 00:23 03.12.2022
806 Clear 14 1018 58 10000 1.11 33 22:19 02.12.2022
807 Clear 14 1019 57 10000 0.92 30 20:53 02.12.2022
808 Clear 15 1018 53 10000 0.51 154 17:40 02.12.2022
809 Clear 16 1018 51 10000 0.57 181 15:58 02.12.2022
810 Clear 17 1018 47 10000 0.9 136 14:38 02.12.2022
811 Clear 18 1018 41 10000 1.42 120 14:19 02.12.2022
812 Clear 18 1017 38 10000 1.5 129 12:51 02.12.2022
813 Clear 18 1018 39 10000 1.87 135 11:30 02.12.2022
814 Clear 15 1020 56 10000 3.57 124 08:19 02.12.2022
815 Clear 14 1020 60 10000 2.44 121 07:23 02.12.2022
816 Clear 14 1019 61 10000 2.06 113 22:54 01.12.2022
817 Clear 14 1020 60 10000 2.23 122 21:44 01.12.2022
818 Clear 14 1020 58 10000 2.62 125 21:22 01.12.2022
819 Clear 15 1019 54 10000 3.04 106 19:19 01.12.2022
820 Clear 16 1019 53 10000 3.62 98 17:31 01.12.2022
821 Clear 18 1018 40 10000 2.99 92 14:47 01.12.2022
822 Clear 18 1018 39 10000 3.22 145 11:23 01.12.2022
823 Clear 17 1019 46 10000 3.45 139 09:55 01.12.2022
824 Clear 17 1019 46 10000 3.45 139 09:37 01.12.2022
825 Clear 14 1020 73 10000 2.04 136 07:18 01.12.2022
826 Clear 13 1019 80 10000 1.65 338 23:59 30.11.2022
827 Clear 14 1019 75 10000 2.48 342 22:28 30.11.2022
828 Clear 14 1018 73 10000 2.36 340 21:19 30.11.2022
829 Clear 14 1018 72 10000 2.4 323 20:25 30.11.2022
830 Clear 14 1018 72 10000 2.4 323 19:36 30.11.2022
831 Clear 15 1018 69 10000 3.09 289 18:33 30.11.2022
832 Clear 15 1018 67 10000 3.38 280 17:35 30.11.2022
833 Clear 18 1016 53 10000 4.78 282 14:47 30.11.2022
834 Clear 18 1015 48 10000 5.2 282 14:27 30.11.2022
835 Clear 18 1015 48 10000 5.2 282 13:31 30.11.2022
836 Clear 17 1016 60 10000 4.45 294 10:24 30.11.2022
837 Clear 15 1016 66 10000 4.03 292 08:39 30.11.2022
838 Clear 13 1015 77 10000 3.4 300 07:26 30.11.2022
839 Clouds 13 1013 82 10000 3.92 277 23:33 29.11.2022
840 Clouds 14 1013 79 10000 3.46 282 22:46 29.11.2022
841 Rain 14 1013 77 10000 2.53 265 21:25 29.11.2022
842 Rain 14 1013 77 10000 2.53 265 20:36 29.11.2022
843 Clouds 14 1013 78 10000 1.91 157 18:58 29.11.2022
844 Clouds 15 1012 75 10000 2.44 124 16:59 29.11.2022
845 Clouds 15 1012 72 10000 1.92 113 16:24 29.11.2022
846 Clouds 17 1011 67 10000 1.04 128 14:50 29.11.2022
847 Clouds 17 1011 60 10000 1.54 112 12:55 29.11.2022
848 Clouds 17 1011 62 10000 2.25 65 11:32 29.11.2022
849 Clouds 17 1012 63 10000 1.21 43 10:53 29.11.2022
850 Rain 16 1013 65 10000 0.26 302 09:38 29.11.2022
851 Rain 16 1013 68 10000 1.53 176 08:38 29.11.2022
852 Clouds 15 1011 68 10000 5.77 84 00:36 29.11.2022
853 Clouds 15 1011 67 10000 6.42 88 23:34 28.11.2022
854 Clouds 16 1011 66 10000 6.35 89 22:50 28.11.2022
855 Clouds 16 1012 65 10000 6.24 93 21:44 28.11.2022
856 Clouds 16 1012 64 10000 6.08 87 20:50 28.11.2022
857 Clouds 17 1012 58 10000 5.13 88 19:38 28.11.2022
858 Clouds 19 1011 51 10000 3.55 87 18:29 28.11.2022
859 Clouds 19 1011 51 10000 3.55 87 17:51 28.11.2022
860 Clouds 19 1011 51 10000 3.55 104 16:25 28.11.2022
861 Clouds 20 1011 44 10000 4.79 128 14:24 28.11.2022
862 Clouds 20 1011 44 10000 4.79 128 13:51 28.11.2022
863 Clouds 20 1011 44 10000 5.52 124 12:42 28.11.2022
864 Clouds 18 1013 48 10000 7.56 115 09:39 28.11.2022
865 Clouds 15 1014 60 10000 7.48 92 07:27 28.11.2022
866 Clouds 13 1014 67 10000 5.81 87 04:43 28.11.2022
867 Clouds 13 1014 67 10000 5.6 86 03:58 28.11.2022
868 Clouds 13 1014 68 10000 5.43 91 03:18 28.11.2022
869 Clouds 15 1014 59 10000 6.35 108 22:47 27.11.2022
870 Clouds 15 1014 56 10000 6.58 100 21:41 27.11.2022
871 Clouds 16 1015 52 10000 4.93 86 20:22 27.11.2022
872 Clouds 16 1015 50 10000 3.86 89 17:49 27.11.2022
873 Clouds 17 1015 45 10000 3.92 127 15:20 27.11.2022
874 Clouds 18 1015 44 10000 6.01 129 12:32 27.11.2022
875 Clouds 17 1016 48 10000 6.37 118 10:48 27.11.2022
876 Clouds 14 1019 60 10000 4.73 106 08:19 27.11.2022
877 Clouds 11 1018 72 10000 0.45 72 00:42 27.11.2022
878 Clouds 12 1019 68 10000 3.18 268 22:25 26.11.2022
879 Clouds 12 1019 68 10000 2.95 266 20:51 26.11.2022
880 Clouds 13 1018 63 10000 3.25 291 19:26 26.11.2022
881 Clouds 13 1018 59 10000 3.69 287 17:30 26.11.2022
882 Clouds 14 1017 52 10000 5.06 268 15:47 26.11.2022
883 Clouds 16 1017 50 10000 7.9 264 13:34 26.11.2022
884 Clouds 16 1016 50 10000 8.35 270 11:37 26.11.2022
885 Rain 14 1017 68 10000 7.25 277 09:45 26.11.2022
886 Rain 15 1017 64 10000 7.57 277 09:21 26.11.2022
887 Clouds 12 1017 71 10000 4.48 265 05:37 26.11.2022
888 Clear 13 1015 68 10000 6.5 267 21:43 25.11.2022
889 Clear 13 1015 76 10000 6.55 274 21:22 25.11.2022
890 Clear 13 1014 77 10000 7.39 265 19:56 25.11.2022
891 Clear 14 1014 74 10000 6.83 262 16:49 25.11.2022
892 Clear 16 1012 55 10000 10.24 264 14:22 25.11.2022
893 Clouds 17 1012 47 10000 8.9 250 09:22 25.11.2022
894 Clouds 17 1012 47 10000 8.9 250 08:41 25.11.2022
895 Clouds 14 1012 60 10000 5.69 244 06:54 25.11.2022
896 Clouds 13 1012 68 10000 3.59 233 06:22 25.11.2022
897 Clouds 13 1012 82 10000 3.02 274 23:54 24.11.2022
898 Clouds 13 1011 81 10000 2.74 293 22:50 24.11.2022
899 Clouds 14 1012 79 10000 3.68 301 21:58 24.11.2022
900 Clouds 14 1012 78 10000 3.75 311 20:30 24.11.2022
901 Clouds 15 1011 76 10000 4.94 286 18:30 24.11.2022
902 Clouds 15 1011 74 10000 4.91 284 17:40 24.11.2022
903 Clouds 16 1011 70 10000 5.35 288 17:20 24.11.2022
904 Clouds 18 1010 60 10000 6.86 277 15:18 24.11.2022
905 -273 0 0 0 0 0 13:49 24.11.2022
906 Clouds 20 1009 49 10000 4.44 273 11:55 24.11.2022
907 Clouds 20 1010 54 10000 3 266 10:36 24.11.2022
908 Clouds 16 1013 73 10000 2.54 151 07:53 24.11.2022
909 Clouds 14 1012 80 10000 2.85 122 03:22 24.11.2022
910 Clouds 15 1013 71 7776 3.53 152 23:45 23.11.2022
911 Clear 17 1013 52 10000 3.22 94 21:57 23.11.2022
912 Clear 17 1013 49 10000 3.03 89 21:24 23.11.2022
913 Clear 18 1014 47 10000 2.69 80 20:21 23.11.2022
914 Clear 18 1014 46 10000 2.5 94 19:27 23.11.2022
915 Clear 18 1014 46 10000 1.71 87 18:41 23.11.2022
916 Clear 18 1014 45 10000 1.51 170 16:39 23.11.2022
917 Clear 22 1013 33 10000 3.01 132 13:40 23.11.2022
918 Clear 22 1013 34 10000 3.26 129 13:20 23.11.2022
919 Clear 22 1014 34 10000 3.35 122 12:21 23.11.2022
920 Clear 22 1014 34 10000 3.35 122 11:41 23.11.2022
921 Clear 21 1015 36 10000 4.05 118 10:42 23.11.2022
922 Clear 20 1016 41 10000 4.46 114 09:44 23.11.2022
923 Clear 19 1017 49 10000 4.53 110 09:25 23.11.2022
924 Clear 19 1017 49 10000 4.53 110 08:37 23.11.2022
925 Clear 12 1018 86 10000 2.91 343 05:22 23.11.2022
926 Clear 12 1018 86 10000 2.91 343 04:32 23.11.2022
927 Clear 14 1018 84 10000 3.23 325 23:24 22.11.2022
928 Clear 14 1018 84 10000 3.23 325 22:33 22.11.2022
929 Clear 14 1018 82 10000 3.16 318 21:34 22.11.2022
930 Clear 15 1018 79 10000 3.32 311 20:50 22.11.2022
931 Clear 16 1018 76 10000 3.8 318 19:57 22.11.2022
932 Clouds 17 1018 72 10000 4.98 330 17:56 22.11.2022
933 Clouds 17 1017 70 10000 5.16 323 17:28 22.11.2022
934 Clouds 19 1016 58 10000 5.26 302 15:56 22.11.2022
935 Clouds 22 1015 38 10000 4.76 304 13:47 22.11.2022
936 Clouds 22 1015 36 10000 3.69 300 11:52 22.11.2022
937 Clouds 18 1017 44 10000 1.61 155 09:26 22.11.2022
938 Clouds 17 1018 46 10000 3.05 132 07:55 22.11.2022
939 Clouds 14 1017 53 10000 4.14 107 03:47 22.11.2022
940 Clouds 15 1018 49 10000 3.72 108 23:41 21.11.2022
941 Clouds 15 1017 46 10000 3.92 108 22:49 21.11.2022
942 Clouds 15 1018 45 10000 4.11 106 21:59 21.11.2022
943 Clouds 16 1018 44 10000 4.01 110 20:56 21.11.2022
944 Clouds 16 1018 44 10000 4.01 110 20:56 21.11.2022
945 Clouds 16 1018 42 10000 4.35 113 19:44 21.11.2022
946 Clouds 17 1018 41 10000 3.98 112 19:26 21.11.2022
947 Clouds 17 1018 41 10000 3.98 112 18:44 21.11.2022
948 Clouds 18 1017 40 10000 4.75 104 16:58 21.11.2022
949 Clouds 18 1017 40 10000 4.75 104 16:40 21.11.2022
950 Clouds 19 1017 38 10000 4.86 105 15:54 21.11.2022
951 Clouds 20 1017 34 10000 5.17 119 15:23 21.11.2022
952 Clouds 21 1017 32 10000 6.25 136 13:52 21.11.2022
953 Clouds 20 1018 33 10000 7.04 137 11:41 21.11.2022
954 Clouds 18 1021 40 10000 6.7 135 09:29 21.11.2022
955 Clouds 16 1022 44 10000 6.68 133 07:43 21.11.2022
956 Clear 14 1022 40 10000 3.62 119 22:51 20.11.2022
957 Clear 15 1022 38 10000 3.28 119 21:36 20.11.2022
958 Clear 15 1022 36 10000 3.76 116 20:47 20.11.2022
959 Clear 16 1022 29 10000 3.7 121 18:58 20.11.2022
960 Clouds 17 1022 29 10000 3.36 140 16:50 20.11.2022
961 Clouds 18 1021 30 10000 3.53 149 15:35 20.11.2022
962 Clouds 19 1021 28 10000 4.44 136 14:55 20.11.2022
963 Clouds 20 1021 27 10000 5.89 130 13:58 20.11.2022
964 Clear 21 1022 28 10000 5.94 129 13:23 20.11.2022
965 Clear 20 1022 29 10000 6.36 127 11:38 20.11.2022
966 Clear 20 1022 30 10000 6.45 125 10:57 20.11.2022
967 Clear 19 1024 32 10000 6.5 124 09:43 20.11.2022
968 Clear 18 1025 35 10000 5.69 122 08:51 20.11.2022
969 Clear 16 1025 38 10000 5.43 120 07:30 20.11.2022
970 Clear 15 1025 42 10000 4.1 115 06:43 20.11.2022
971 Clear 14 1025 46 10000 3.15 113 01:26 20.11.2022
972 Clear 14 1025 46 10000 3.15 113 00:45 20.11.2022
973 Clear 15 1025 46 10000 3.51 100 00:26 20.11.2022
974 Clear 15 1025 46 10000 3.51 100 23:56 19.11.2022
975 Clear 15 1025 46 10000 3.28 98 23:26 19.11.2022
976 Clear 15 1025 46 10000 3.28 98 22:43 19.11.2022
977 Clear 15 1025 46 10000 3.28 98 22:43 19.11.2022
978 Clear 15 1025 45 10000 2.78 103 21:47 19.11.2022
979 Clear 16 1025 44 10000 2.5 104 21:23 19.11.2022
980 Clear 16 1025 44 10000 2.5 104 20:40 19.11.2022
981 Clear 17 1024 42 10000 2.64 99 19:35 19.11.2022
982 Clear 17 1023 40 10000 2.13 119 17:47 19.11.2022
983 Clear 18 1023 39 10000 2.28 144 17:26 19.11.2022
984 Clear 18 1023 39 10000 2.28 144 16:51 19.11.2022
985 Clear 20 1022 33 10000 2.79 119 14:47 19.11.2022
986 Clouds 21 1021 32 10000 3.15 112 13:21 19.11.2022
987 Clouds 21 1021 32 10000 3.07 118 11:52 19.11.2022
988 Clouds 19 1023 38 10000 3.04 126 09:45 19.11.2022
989 Clouds 17 1024 43 10000 2.9 127 07:52 19.11.2022
990 Clear 13 1022 56 10000 1.87 134 04:44 19.11.2022
991 Clear 14 1020 52 10000 1.3 96 00:46 19.11.2022
992 Clear 14 1020 52 10000 1.29 101 23:30 18.11.2022
993 Clear 14 1020 52 10000 1.29 101 23:30 18.11.2022
994 Clear 15 1020 50 10000 1.73 120 22:23 18.11.2022
995 Clear 15 1020 50 10000 1.73 120 21:35 18.11.2022
996 Clear 16 1020 49 10000 2.24 119 20:57 18.11.2022
997 Clear 16 1020 49 10000 2.72 120 20:21 18.11.2022
998 Clear 16 1020 49 10000 2.72 120 19:36 18.11.2022
999 Clear 17 1019 45 10000 3.11 109 17:45 18.11.2022
1000 Clear 18 1018 40 10000 2.25 98 15:59 18.11.2022
1001 Clear 20 1018 36 10000 1.59 212 11:52 18.11.2022
1002 Clear 18 1019 44 10000 2.09 201 10:22 18.11.2022
1003 Clear 18 1019 44 10000 2.09 201 10:22 18.11.2022
1004 Clear 16 1020 61 10000 0.98 178 07:52 18.11.2022
1005 Clear 11 1019 84 10000 0.65 189 05:27 18.11.2022
1006 Clear 12 1018 83 10000 0.89 293 02:40 18.11.2022
1007 Clear 14 1018 70 10000 2.18 322 23:29 17.11.2022
1008 Clear 14 1018 63 10000 2.36 318 20:48 17.11.2022
1009 Clear 15 1018 59 10000 2.36 311 19:54 17.11.2022
1010 Clear 15 1018 59 10000 2.36 311 19:54 17.11.2022
1011 Clear 15 1018 56 10000 2.7 306 19:27 17.11.2022
1012 Clear 16 1017 54 10000 2.99 293 18:29 17.11.2022
1013 Clear 16 1017 54 10000 2.99 293 17:30 17.11.2022
1014 Clear 16 1017 51 10000 3.64 289 16:31 17.11.2022
1015 Clear 19 1015 41 10000 4.25 290 12:20 17.11.2022
1016 Clear 18 1016 46 10000 3.64 291 10:47 17.11.2022
1017 Clear 15 1017 64 10000 2.6 290 07:35 17.11.2022
1018 Clear 13 1016 73 10000 3.58 297 01:30 17.11.2022
1019 Clear 13 1016 73 10000 3.51 289 23:31 16.11.2022
1020 Clear 13 1016 72 10000 3.69 287 22:24 16.11.2022
1021 Clear 14 1016 72 10000 3.55 294 20:33 16.11.2022
1022 Clear 15 1015 58 10000 3.96 292 18:49 16.11.2022
1023 Clear 15 1015 58 10000 3.96 292 18:49 16.11.2022
1024 Clear 15 1015 58 10000 3.96 292 18:30 16.11.2022
1025 Clear 17 1014 48 10000 5.25 278 15:58 16.11.2022
1026 Clear 19 1013 42 10000 7.15 289 11:54 16.11.2022
1027 Clear 16 1015 62 10000 6.28 299 07:55 16.11.2022
1028 Clouds 16 1014 70 10000 5.07 306 01:46 16.11.2022
1029 Clouds 15 1014 75 10000 4.04 313 23:47 15.11.2022
1030 Clear 16 1014 73 10000 5 323 21:44 15.11.2022
1031 Clear 17 1014 69 10000 6.12 320 20:25 15.11.2022
1032 Clouds 17 1014 68 10000 7.04 320 19:18 15.11.2022
1033 Clouds 18 1014 64 10000 7.65 322 17:38 15.11.2022
1034 Clouds 19 1013 59 10000 7.53 295 16:22 15.11.2022
1035 Clouds 19 1013 59 10000 7.53 295 15:40 15.11.2022
1036 Clouds 21 1013 54 10000 7.21 290 14:41 15.11.2022
1037 Clouds 23 1013 44 10000 4.18 304 12:59 15.11.2022
1038 Clouds 22 1014 48 10000 3.02 305 11:22 15.11.2022
1039 Clouds 21 1015 51 10000 2.44 295 09:53 15.11.2022
1040 Clouds 18 1015 62 10000 0.94 339 03:48 15.11.2022
1041 Clouds 18 1015 62 10000 2.12 315 00:28 15.11.2022
1042 Clouds 18 1015 63 10000 2.09 310 22:52 14.11.2022
1043 Clouds 19 1015 60 10000 1.56 340 20:53 14.11.2022
1044 Clouds 19 1015 60 10000 1.56 340 20:30 14.11.2022
1045 Clouds 20 1015 57 10000 1.83 64 18:28 14.11.2022
1046 Clouds 23 1014 47 10000 1.54 148 14:59 14.11.2022
1047 Clear 23 1014 48 10000 3.2 156 11:49 14.11.2022
1048 Clear 22 1015 50 10000 3.79 149 11:28 14.11.2022
1049 Clear 22 1015 50 10000 3.79 149 11:28 14.11.2022
1050 Clear 20 1017 57 10000 4.31 133 08:48 14.11.2022
1051 Clear 19 1018 60 10000 4.58 126 07:53 14.11.2022
1052 Clear 16 1018 72 10000 2.94 105 05:59 14.11.2022
1053 Clear 17 1018 71 10000 3.89 103 23:51 13.11.2022
1054 Clear 18 1018 63 10000 4.3 97 21:46 13.11.2022
1055 Clear 18 1018 61 10000 3.6 86 20:58 13.11.2022
1056 Clouds 19 1018 58 10000 3.14 107 19:25 13.11.2022
1057 Clouds 19 1018 56 10000 2.87 96 17:55 13.11.2022
1058 Clear 20 1017 51 10000 1.72 138 17:00 13.11.2022
1059 Clear 24 1017 41 10000 3.34 129 14:58 13.11.2022
1060 Clear 24 1017 39 10000 5.5 120 13:26 13.11.2022
1061 Clear 24 1017 40 10000 5.42 117 12:35 13.11.2022
1062 Clear 23 1018 44 10000 6.36 116 10:51 13.11.2022
1063 Clear 20 1021 53 10000 7.75 98 07:39 13.11.2022
1064 Clear 17 1020 53 10000 5.14 69 01:33 13.11.2022
1065 Clear 18 1020 50 10000 4.11 76 22:19 12.11.2022
1066 Clear 18 1020 46 10000 3.76 75 21:24 12.11.2022
1067 Clear 19 1020 43 10000 3.81 67 19:55 12.11.2022
1068 Clear 20 1019 38 10000 2.53 61 17:56 12.11.2022
1069 Clear 21 1018 35 10000 2.43 112 16:23 12.11.2022
1070 Clear 23 1017 30 10000 3.06 101 15:18 12.11.2022
1071 Clear 24 1017 30 10000 5.17 93 11:59 12.11.2022
1072 Clear 21 1019 42 10000 8.27 78 09:20 12.11.2022
1073 Clear 17 1017 49 10000 5.37 57 01:59 12.11.2022
1074 Clear 17 1018 45 10000 3.44 40 22:30 11.11.2022
1075 Clouds 18 1018 42 10000 3.7 11 20:45 11.11.2022
1076 Clear 18 1017 42 10000 3.88 358 19:42 11.11.2022
1077 Clear 19 1017 40 10000 4.25 354 19:20 11.11.2022
1078 Clear 19 1017 37 10000 4.02 349 17:54 11.11.2022
1079 Clear 21 1016 31 10000 3.3 355 16:20 11.11.2022
1080 Clear 23 1016 24 10000 1.93 42 14:20 11.11.2022
1081 Clear 23 1016 25 10000 2.07 66 13:29 11.11.2022
1082 Clear 22 1018 31 10000 4.28 98 09:48 11.11.2022
1083 Clear 19 1019 39 10000 3.3 84 08:27 11.11.2022
1084 Clear 15 1019 52 10000 1.75 340 05:44 11.11.2022
1085 Clear 16 1018 49 10000 3.4 14 23:22 10.11.2022
1086 Clear 16 1018 49 10000 3.4 14 22:35 10.11.2022
1087 Clear 16 1018 48 10000 3.46 358 21:33 10.11.2022
1088 Clear 16 1019 47 10000 3.11 355 20:52 10.11.2022
1089 Clear 17 1018 45 10000 3.24 350 20:22 10.11.2022
1090 Clear 17 1018 45 10000 3.24 350 19:43 10.11.2022
1091 Clear 17 1018 39 10000 3.01 357 18:33 10.11.2022
1092 Clear 19 1017 38 10000 2.82 347 16:26 10.11.2022
1093 Clear 21 1016 34 10000 2.43 312 13:59 10.11.2022
1094 Clear 21 1016 35 10000 2.3 296 12:51 10.11.2022
1095 Clear 18 1017 51 10000 0.7 283 08:53 10.11.2022
1096 Clear 12 1017 78 10000 2.43 340 04:39 10.11.2022
1097 Clear 13 1016 78 10000 3.47 316 00:56 10.11.2022
1098 Clear 14 1016 79 10000 3.31 311 22:46 09.11.2022
1099 Clear 15 1015 76 10000 3.46 313 20:58 09.11.2022
1100 Clear 15 1015 76 10000 3.46 313 20:39 09.11.2022
1101 Clear 15 1015 72 10000 3.89 315 19:50 09.11.2022
1102 Clouds 16 1015 68 10000 3.77 309 19:24 09.11.2022
1103 Clouds 16 1015 61 10000 4.03 288 17:39 09.11.2022
1104 Clouds 16 1015 61 10000 4.03 288 17:39 09.11.2022
1105 Clouds 20 1013 43 10000 5 272 14:56 09.11.2022
1106 Clouds 20 1013 41 10000 4.48 284 14:26 09.11.2022
1107 Clouds 20 1013 41 10000 4.48 284 13:34 09.11.2022
1108 Clouds 20 1013 44 10000 4.73 295 12:51 09.11.2022
1109 Clear 17 1015 59 10000 1.72 255 09:29 09.11.2022
1110 Clear 16 1016 67 10000 1.18 250 07:47 09.11.2022
1111 Clear 13 1015 86 10000 1.77 307 04:35 09.11.2022
1112 Clear 14 1015 81 10000 3.23 279 22:38 08.11.2022
1113 Clear 15 1015 80 10000 3.16 271 21:40 08.11.2022
1114 Clear 15 1015 78 10000 3.04 263 20:54 08.11.2022
1115 Clear 15 1015 75 10000 2.96 261 20:18 08.11.2022
1116 Clear 16 1015 72 10000 3.22 274 19:28 08.11.2022
1117 Clear 17 1014 67 10000 3.18 278 17:37 08.11.2022
1118 Clear 18 1013 59 10000 4.79 282 15:32 08.11.2022
1119 Clear 19 1012 53 10000 6.55 281 14:36 08.11.2022
1120 Clear 20 1012 47 10000 7.26 277 13:29 08.11.2022
1121 Clear 20 1012 50 10000 7.96 271 11:21 08.11.2022
1122 Clear 18 1013 57 10000 7.15 256 07:45 08.11.2022
1123 Clouds 15 1013 54 10000 4.03 254 06:28 08.11.2022
1124 Clear 15 1013 58 10000 3.26 282 23:50 07.11.2022
1125 Clear 15 1013 58 10000 3.06 299 21:56 07.11.2022
1126 Clear 16 1013 58 10000 3.77 298 20:59 07.11.2022
1127 Clear 16 1013 57 10000 4.3 301 19:57 07.11.2022
1128 Clouds 17 1013 50 10000 5.71 310 17:44 07.11.2022
1129 Clouds 20 1012 47 10000 5.7 284 15:55 07.11.2022
1130 Clouds 20 1012 47 10000 5.7 284 15:32 07.11.2022
1131 Clouds 22 1012 41 10000 7.44 277 13:54 07.11.2022
1132 Clouds 22 1012 41 10000 7.53 279 12:32 07.11.2022
1133 Clear 22 1012 47 10000 5.01 282 10:46 07.11.2022
1134 Clear 20 1014 57 10000 3.66 301 09:22 07.11.2022
1135 Clear 18 1015 66 10000 2.73 323 07:21 07.11.2022
1136 Clear 16 1015 53 10000 1.16 11 03:27 07.11.2022
1137 Clear 17 1015 45 10000 0.98 115 01:18 07.11.2022
1138 Clear 19 1015 40 10000 2.28 150 22:18 06.11.2022
1139 Clear 20 1015 37 10000 3.45 138 21:19 06.11.2022
1140 Clear 21 1015 36 10000 2.87 126 20:20 06.11.2022
1141 Clear 21 1015 36 10000 2.87 126 19:32 06.11.2022
1142 Clear 21 1015 35 10000 2.87 122 18:39 06.11.2022
1143 Clear 21 1015 33 10000 2.87 120 18:19 06.11.2022
1144 Clear 22 1014 31 10000 2.93 124 17:20 06.11.2022
1145 Clear 22 1014 31 10000 2.93 124 16:37 06.11.2022
1146 Clear 23 1014 30 10000 3.36 120 15:42 06.11.2022
1147 Clear 25 1014 25 10000 4.56 136 12:48 06.11.2022
1148 Clear 25 1014 25 10000 5.04 134 11:58 06.11.2022
1149 Clear 24 1015 26 10000 5.37 135 10:40 06.11.2022
1150 Clear 21 1017 32 10000 5.04 125 07:45 06.11.2022
1151 Clear 18 1016 36 10000 3.58 98 00:50 06.11.2022
1152 Clear 18 1016 36 10000 3.7 98 22:52 05.11.2022
1153 Clear 20 1015 32 10000 2 45 19:28 05.11.2022
1154 Clear 21 1015 32 10000 1.31 101 17:23 05.11.2022
1155 Clear 22 1014 30 10000 2.03 132 15:45 05.11.2022
1156 Clear 24 1014 26 10000 3.06 136 14:33 05.11.2022
1157 Clear 24 1014 25 10000 3.98 140 12:38 05.11.2022
1158 Clouds 24 1015 26 10000 4.55 133 10:31 05.11.2022
1159 Clouds 21 1017 29 10000 5.24 109 08:24 05.11.2022
1160 Clouds 19 1017 32 10000 3.83 100 06:57 05.11.2022
1161 Clouds 16 1016 49 10000 0.75 3 02:35 05.11.2022
1162 Clouds 17 1016 46 10000 0.43 340 23:34 04.11.2022
1163 Clouds 18 1015 44 10000 0.96 345 22:28 04.11.2022
1164 Clouds 19 1016 41 10000 2.25 4 19:55 04.11.2022
1165 Clouds 19 1016 41 10000 2.25 4 19:53 04.11.2022
1166 Clear 20 1015 38 10000 1.25 354 17:45 04.11.2022
1167 Clear 21 1015 34 10000 0.9 313 16:33 04.11.2022
1168 Clear 23 1014 28 10000 1.98 228 13:24 04.11.2022
1169 Clear 23 1015 30 10000 2.03 228 12:23 04.11.2022
1170 Clear 21 1017 40 10000 2 216 09:40 04.11.2022
1171 Clear 19 1018 52 10000 1.43 255 08:21 04.11.2022
1172 Clear 19 1018 52 10000 1.43 255 08:21 04.11.2022
1173 Clear 17 1018 58 10000 1.5 282 07:26 04.11.2022
1174 Clear 15 1017 69 10000 3.18 318 01:35 04.11.2022
1175 Clear 16 1017 66 10000 3.65 325 22:30 03.11.2022
1176 Clear 17 1017 63 10000 4.13 329 20:48 03.11.2022
1177 Clear 17 1017 60 10000 4.38 329 19:43 03.11.2022
1178 Clear 18 1017 54 10000 4.78 321 18:46 03.11.2022
1179 Clear 19 1017 45 10000 4.07 322 17:40 03.11.2022
1180 Clear 21 1016 38 10000 3.04 301 15:49 03.11.2022
1181 Clear 22 1015 32 10000 2.62 295 13:54 03.11.2022
1182 Clear 22 1015 35 10000 2.32 289 12:35 03.11.2022
1183 Clear 22 1015 37 10000 1.88 278 11:44 03.11.2022
1184 Clear 19 1018 52 10000 1.28 311 09:18 03.11.2022
1185 Clear 16 1018 70 10000 3.13 317 07:24 03.11.2022
1186 Clear 16 1017 73 10000 4.74 319 21:24 02.11.2022
1187 Clear 16 1017 73 10000 4.74 319 20:34 02.11.2022
1188 Clear 17 1016 69 10000 5.12 320 19:47 02.11.2022
1189 Clear 19 1015 50 10000 6.78 318 16:36 02.11.2022
1190 Clear 20 1014 41 10000 5.83 301 15:35 02.11.2022
1191 Clear 23 1013 34 10000 5.88 291 14:25 02.11.2022
1192 Clouds 23 1013 33 10000 5.09 301 12:38 02.11.2022
1193 Clouds 22 1014 36 10000 3.97 309 10:45 02.11.2022
1194 Clouds 20 1016 44 10000 3.85 321 08:49 02.11.2022
1195 Clouds 15 1016 76 10000 3.98 318 04:48 02.11.2022
1196 Clouds 16 1016 71 10000 5.64 323 23:52 01.11.2022
1197 Clouds 17 1016 69 10000 5.74 322 22:19 01.11.2022
1198 Clear 17 1016 68 10000 6.08 329 21:26 01.11.2022
1199 Clear 17 1016 66 10000 5.75 328 20:25 01.11.2022
1200 Clear 17 1016 66 10000 5.75 328 19:42 01.11.2022
1201 Clear 18 1016 64 10000 5.91 326 18:33 01.11.2022
1202 Clear 20 1015 41 10000 5.05 321 17:28 01.11.2022
1203 Clear 21 1015 36 10000 4.67 312 15:54 01.11.2022
1204 Clear 23 1014 29 10000 4.45 313 13:35 01.11.2022
1205 Clear 23 1014 30 10000 4.23 307 12:27 01.11.2022
1206 Clear 23 1015 34 10000 3.75 309 11:22 01.11.2022
1207 Clear 22 1016 39 10000 3.35 313 09:54 01.11.2022
1208 Clear 21 1016 46 10000 3.31 318 08:38 01.11.2022
1209 Clear 18 1017 64 10000 4.12 327 07:29 01.11.2022
1210 Clear 18 1017 65 10000 4.33 323 06:47 01.11.2022
1211 Clear 16 1017 76 10000 3.77 322 05:56 01.11.2022
1212 Clear 15 1016 81 10000 4.07 323 03:37 01.11.2022
1213 Clear 17 1016 71 10000 5.11 331 21:46 31.10.2022
1214 Clear 17 1016 69 10000 5.48 327 20:30 31.10.2022
1215 Clear 19 1015 58 10000 5.94 320 18:54 31.10.2022
1216 Clear 20 1015 52 10000 5.99 315 17:48 31.10.2022
1217 Clear 21 1014 48 10000 6.27 309 16:42 31.10.2022
1218 Clear 24 1013 35 10000 6.12 292 13:24 31.10.2022
1219 Clear 23 1015 46 10000 4.89 301 10:21 31.10.2022
1220 Clear 21 1015 53 10000 4.73 300 08:37 31.10.2022
1221 Clear 16 1015 88 10000 3.55 310 04:49 31.10.2022
1222 Clear 17 1014 84 10000 3.87 296 02:23 31.10.2022
1223 Clear 18 1014 78 10000 4.49 290 23:19 30.10.2022
1224 Clear 18 1014 78 10000 4.49 290 23:19 30.10.2022
1225 Clear 19 1014 70 10000 4.15 294 20:51 30.10.2022
1226 Clear 20 1014 66 10000 4.03 290 20:27 30.10.2022
1227 Clear 21 1013 64 10000 3.82 286 18:39 30.10.2022
1228 Clear 23 1012 47 10000 5.49 264 16:18 30.10.2022
1229 Clear 23 1012 47 10000 5.49 264 16:18 30.10.2022
1230 Clear 25 1011 32 10000 6.15 277 13:53 30.10.2022
1231 Clear 26 1011 28 10000 4.67 282 13:20 30.10.2022
1232 Clear 26 1011 28 10000 3.3 277 11:42 30.10.2022
1233 Clear 24 1012 30 10000 1.92 160 09:38 30.10.2022
1234 Clear 23 1013 32 10000 3.54 135 08:38 30.10.2022
1235 Clear 19 1012 43 10000 5.04 81 03:58 30.10.2022
1236 Clear 21 1013 35 10000 4.5 95 00:28 30.10.2022
1237 Clear 21 1013 35 10000 4.5 95 23:45 29.10.2022
1238 Clear 23 1012 29 10000 3.6 23 21:27 29.10.2022
1239 Clear 24 1012 28 10000 2.2 358 18:34 29.10.2022
1240 Clear 24 1011 28 10000 0.44 173 17:20 29.10.2022
1241 Clear 27 1011 23 10000 2.56 129 15:38 29.10.2022
1242 Clear 27 1011 22 10000 3.72 130 14:48 29.10.2022
1243 Clouds 27 1012 21 10000 4.56 131 12:35 29.10.2022
1244 Clouds 27 1013 22 10000 4.84 126 11:54 29.10.2022
1245 Clouds 22 1015 33 10000 4.22 102 07:38 29.10.2022
1246 Clouds 20 1015 38 10000 2.89 98 06:45 29.10.2022
1247 Clouds 19 1015 41 10000 2.75 94 05:53 29.10.2022
1248 Clouds 20 1015 37 10000 2.37 91 23:43 28.10.2022
1249 Clouds 21 1015 36 10000 1.18 144 21:29 28.10.2022
1250 Clouds 22 1014 32 10000 2.44 109 19:36 28.10.2022
1251 Clouds 23 1015 31 10000 2.95 123 18:32 28.10.2022
1252 Clear 24 1014 29 10000 2.34 130 17:26 28.10.2022
1253 Clear 26 1014 25 10000 2.25 157 14:46 28.10.2022
1254 Clear 26 1015 28 10000 3.15 154 13:23 28.10.2022
1255 Clear 26 1016 29 10000 3.61 149 11:54 28.10.2022
1256 Clear 26 1016 29 10000 3.61 149 11:32 28.10.2022
1257 Clear 25 1017 31 10000 3.98 137 10:44 28.10.2022
1258 Clear 23 1017 37 10000 4.35 118 08:40 28.10.2022
1259 Clear 19 1017 45 10000 1.58 91 06:51 28.10.2022
1260 Clear 19 1017 50 10000 3.37 339 00:52 28.10.2022
1261 Clear 20 1017 52 10000 4.13 330 23:45 27.10.2022
1262 Clear 20 1017 55 10000 4.63 321 22:32 27.10.2022
1263 Clear 21 1017 56 10000 5.16 322 20:57 27.10.2022
1264 Clear 22 1016 39 10000 4.74 318 18:31 27.10.2022
1265 Clear 24 1015 31 10000 4.14 304 17:22 27.10.2022
1266 Clear 26 1015 28 10000 2.98 313 12:33 27.10.2022
1267 Clear 21 1017 43 10000 4.11 323 07:41 27.10.2022
1268 Clear 19 1016 50 10000 2.64 297 02:55 27.10.2022
1269 Clouds 20 1016 46 10000 3.09 308 23:53 26.10.2022
1270 Clouds 20 1016 45 10000 3.48 315 22:43 26.10.2022
1271 Clouds 21 1016 42 10000 3.6 321 21:33 26.10.2022
1272 Clouds 23 1015 40 10000 5.2 256 18:28 26.10.2022
1273 Clouds 25 1013 28 10000 2.34 222 14:54 26.10.2022
1274 Clouds 25 1013 27 10000 2.29 157 13:34 26.10.2022
1275 Clear 26 1013 27 10000 3.91 126 12:32 26.10.2022
1276 Clear 22 1016 38 10000 7.2 107 09:20 26.10.2022
1277 Clear 22 1016 38 10000 7.2 107 08:53 26.10.2022
1278 Clouds 21 1016 44 10000 6.51 100 07:52 26.10.2022
1279 Clouds 18 1016 68 10000 3.57 122 00:40 26.10.2022
1280 Clouds 20 1015 53 10000 7.24 104 22:59 25.10.2022
1281 Clouds 22 1015 45 10000 9.09 105 21:46 25.10.2022
1282 Clouds 23 1014 39 10000 9.29 106 20:46 25.10.2022
1283 Clouds 22 1015 44 10000 10.81 110 18:58 25.10.2022
1284 Clouds 24 1014 35 10000 10.65 134 17:49 25.10.2022
1285 Clouds 28 1012 25 10000 8.12 144 13:40 25.10.2022
1286 Clouds 27 1013 27 10000 6.92 125 11:38 25.10.2022
1287 Clouds 26 1014 30 10000 7.06 117 10:37 25.10.2022
1288 Clouds 23 1016 39 10000 7.86 112 08:44 25.10.2022
1289 Clouds 22 1016 41 10000 7.8 95 08:18 25.10.2022
1290 Clouds 22 1015 41 10000 8.66 93 07:54 25.10.2022
1291 Rain 21 1015 44 10000 8.25 90 06:55 25.10.2022
1292 Clouds 21 1014 43 10000 8.01 74 03:41 25.10.2022
1293 Clear 21 1014 45 10000 4.48 45 00:34 25.10.2022
1294 Clear 21 1014 50 10000 3.86 344 23:28 24.10.2022
1295 Clear 21 1014 50 10000 4.16 339 22:24 24.10.2022
1296 Clear 21 1014 50 10000 4.16 339 21:32 24.10.2022
1297 Clear 21 1014 44 10000 4.45 339 20:41 24.10.2022
1298 Clear 22 1014 40 10000 5.09 310 18:52 24.10.2022
1299 Clear 23 1014 35 10000 4.9 300 17:35 24.10.2022
1300 Clear 24 1014 29 10000 4.27 296 16:33 24.10.2022
1301 Clear 26 1013 28 10000 2.75 305 14:22 24.10.2022
1302 Clear 26 1014 32 10000 2.22 304 13:27 24.10.2022
1303 Clear 25 1015 36 10000 1.76 314 11:41 24.10.2022
1304 Clear 20 1017 58 10000 3.23 309 07:57 24.10.2022
1305 Clear 19 1016 63 10000 4.9 318 00:50 24.10.2022
1306 Clear 21 1016 51 10000 5.86 320 20:43 23.10.2022
1307 Clear 22 1016 46 10000 5.84 326 19:50 23.10.2022
1308 Clear 24 1015 39 10000 5.28 329 17:55 23.10.2022
1309 Clear 25 1014 35 10000 3.52 309 17:27 23.10.2022
1310 Clear 28 1014 29 10000 1.92 174 15:19 23.10.2022
1311 Clouds 27 1015 31 10000 0.71 66 12:59 23.10.2022
1312 Clouds 25 1017 37 10000 0.86 112 10:59 23.10.2022
1313 Clear 20 1018 54 10000 1.26 296 08:18 23.10.2022
1314 Clear 19 1017 62 10000 3.95 321 23:40 22.10.2022
1315 Clear 19 1017 61 10000 4.21 326 22:31 22.10.2022
1316 Clear 20 1018 60 10000 4.57 333 21:42 22.10.2022
1317 Clear 20 1018 54 10000 4.56 334 20:49 22.10.2022
1318 Clear 21 1017 50 10000 5.06 330 19:45 22.10.2022
1319 Clear 22 1017 47 10000 4.28 327 19:24 22.10.2022
1320 Clear 23 1016 47 10000 3.89 338 17:36 22.10.2022
1321 Clear 25 1015 38 10000 5.18 324 15:37 22.10.2022
1322 Clouds 26 1014 37 10000 5.27 316 14:39 22.10.2022
1323 Clear 26 1014 39 10000 4.54 308 13:45 22.10.2022
1324 Clear 23 1016 48 10000 1.8 316 09:59 22.10.2022
1325 Clear 23 1016 48 10000 1.8 316 09:36 22.10.2022
1326 Clouds 20 1017 61 10000 3.02 331 07:58 22.10.2022
1327 Clouds 18 1016 72 10000 4.69 329 02:59 22.10.2022
1328 Clear 19 1015 68 10000 4.85 337 23:49 21.10.2022
1329 Clear 20 1014 64 10000 6.05 331 21:35 21.10.2022
1330 Clear 21 1014 59 10000 5.7 328 20:57 21.10.2022
1331 Clear 21 1014 56 10000 4.86 335 19:33 21.10.2022
1332 Clouds 23 1013 47 10000 3.29 229 16:51 21.10.2022
1333 Clouds 28 1011 30 10000 3.26 180 13:57 21.10.2022
1334 Clouds 27 1012 32 10000 3.71 155 12:58 21.10.2022
1335 Clouds 27 1012 32 10000 3.71 155 12:58 21.10.2022
1336 Clouds 24 1014 41 10000 2.37 196 10:59 21.10.2022
1337 Clouds 23 1014 47 10000 1.68 269 09:50 21.10.2022
1338 Clouds 22 1015 53 10000 1.53 292 08:39 21.10.2022
1339 Clouds 19 1015 67 10000 1.85 305 07:28 21.10.2022
1340 Clouds 18 1015 78 10000 3.13 285 01:00 21.10.2022
1341 Clouds 20 1014 64 10000 4.2 340 22:26 20.10.2022
1342 Clouds 20 1015 59 10000 4.09 329 20:38 20.10.2022
1343 Clouds 21 1014 54 10000 3.76 328 19:38 20.10.2022
1344 Clear 22 1014 45 10000 4.11 314 17:53 20.10.2022
1345 Clear 22 1014 45 10000 4.11 314 17:33 20.10.2022
1346 Clear 27 1013 29 10000 6.51 295 12:37 20.10.2022
1347 Clear 26 1013 31 10000 6.32 297 12:18 20.10.2022
1348 Clear 25 1014 34 10000 6.03 299 11:20 20.10.2022
1349 Clear 25 1014 34 10000 6.03 299 10:45 20.10.2022
1350 Clouds 20 1015 59 10000 5.08 314 08:22 20.10.2022
1351 Clouds 17 1015 69 10000 4.15 321 05:43 20.10.2022
1352 Clouds 19 1014 62 10000 4.56 323 01:50 20.10.2022
1353 Clouds 20 1014 58 10000 5.99 321 22:46 19.10.2022
1354 Clouds 21 1014 56 10000 5.51 323 21:57 19.10.2022
1355 Clouds 21 1014 55 10000 5.43 325 21:18 19.10.2022
1356 Clouds 23 1013 42 10000 5.13 332 18:50 19.10.2022
1357 Clouds 25 1013 36 10000 5.19 317 17:38 19.10.2022
1358 Clouds 28 1012 30 10000 5.15 309 15:58 19.10.2022
1359 Clouds 29 1012 27 10000 4.16 285 13:53 19.10.2022
1360 Clear 25 1014 37 10000 1.42 297 09:42 19.10.2022
1361 Clear 24 1015 42 10000 1.58 314 08:35 19.10.2022
1362 Clear 20 1015 59 10000 2.73 315 06:30 19.10.2022
1363 Clear 19 1015 65 10000 4.25 324 01:26 19.10.2022
1364 Clear 20 1015 60 10000 5.01 323 23:19 18.10.2022
1365 Clear 20 1016 57 10000 5.01 326 21:48 18.10.2022
1366 Clear 21 1016 49 10000 4.84 331 20:59 18.10.2022
1367 Clear 22 1016 41 10000 4.23 335 20:18 18.10.2022
1368 Clear 24 1015 37 10000 4.2 327 18:25 18.10.2022
1369 Clear 25 1015 35 10000 2.82 312 16:52 18.10.2022
1370 Clear 27 1015 31 10000 1.97 258 14:51 18.10.2022
1371 Clear 26 1015 33 10000 3.15 274 12:35 18.10.2022
1372 Clear 25 1017 39 10000 3.38 284 11:22 18.10.2022
1373 Clear 24 1017 44 10000 3.78 295 09:59 18.10.2022
1374 Clear 21 1018 59 10000 5.01 319 07:57 18.10.2022
1375 Clear 17 1017 71 10000 4.34 312 04:35 18.10.2022
1376 Clear 19 1017 69 10000 5.88 338 22:54 17.10.2022
1377 Clear 20 1017 69 10000 7.65 334 20:55 17.10.2022
1378 Clear 20 1017 69 10000 7.65 334 20:33 17.10.2022
1379 Clear 21 1016 65 10000 8.39 336 19:52 17.10.2022
1380 Clear 21 1016 65 10000 8.39 336 19:30 17.10.2022
1381 Clear 26 1014 32 10000 6.89 298 17:28 17.10.2022
1382 Clear 29 1013 26 10000 5.17 283 15:54 17.10.2022
1383 Clear 30 1013 22 10000 3.15 244 14:35 17.10.2022
1384 Clear 29 1014 26 10000 2.63 237 12:25 17.10.2022
1385 Clear 21 1015 46 10000 3.1 300 06:42 17.10.2022
1386 Clouds 21 1014 49 10000 3.01 313 00:24 17.10.2022
1387 Clear 22 1014 38 10000 3.04 299 22:25 16.10.2022
1388 Clear 23 1013 35 10000 3.55 318 20:59 16.10.2022
1389 Clear 24 1013 29 10000 3.91 320 19:50 16.10.2022
1390 Clear 24 1012 28 10000 3.97 307 18:35 16.10.2022
1391 Clear 25 1012 27 10000 4.41 288 17:41 16.10.2022
1392 Clear 30 1010 18 10000 2.23 235 15:59 16.10.2022
1393 Clear 30 1010 18 10000 2.23 235 15:41 16.10.2022
1394 Clear 29 1012 23 10000 4.78 163 12:25 16.10.2022
1395 Clear 26 1013 27 10000 5.82 128 10:28 16.10.2022
1396 Clear 26 1013 27 10000 5.82 128 09:39 16.10.2022
1397 Clear 19 1013 46 10000 2.15 108 03:57 16.10.2022
1398 Clear 20 1013 48 10000 2.48 326 23:42 15.10.2022
1399 Clear 21 1012 40 10000 3.29 339 21:29 15.10.2022
1400 Clear 21 1012 40 10000 3.29 339 21:29 15.10.2022
1401 Clear 21 1012 40 10000 3.29 339 21:29 15.10.2022
1402 Clear 21 1012 40 10000 3.29 339 20:57 15.10.2022
1403 Clear 21 1012 40 10000 3.29 339 20:57 15.10.2022
1404 Clear 22 1012 35 10000 3.99 330 19:30 15.10.2022
1405 Clear 25 1010 25 10000 3.9 286 16:57 15.10.2022
1406 Clear 27 1010 22 10000 3.8 267 15:45 15.10.2022
1407 Clouds 26 1010 24 10000 2.93 248 13:21 15.10.2022
1408 Clouds 25 1011 28 10000 2.84 252 11:40 15.10.2022
1409 Clouds 20 1013 54 10000 1.7 295 09:28 15.10.2022
1410 Clouds 18 1013 69 10000 2 316 07:33 15.10.2022
1411 Clouds 18 1012 78 10000 3.9 327 00:40 15.10.2022
1412 Clear 18 1012 74 10000 4.07 329 22:41 14.10.2022
1413 Clear 19 1012 72 10000 4.91 331 22:22 14.10.2022
1414 Clear 19 1012 71 10000 5.87 334 20:46 14.10.2022
1415 Clear 22 1011 37 10000 4.74 313 18:39 14.10.2022
1416 Clear 26 1010 30 10000 3.74 298 15:32 14.10.2022
1417 Clear 25 1011 33 10000 3.25 285 12:49 14.10.2022
1418 Clear 23 1013 41 10000 3.14 296 11:25 14.10.2022
1419 Clear 19 1014 69 10000 3.18 312 08:29 14.10.2022
1420 Clear 17 1014 80 10000 3.37 318 06:47 14.10.2022
1421 Clear 15 1014 89 10000 3.83 323 06:18 14.10.2022
1422 Clear 15 1014 89 10000 3.83 323 05:42 14.10.2022
1423 Clear 16 1014 87 10000 5.25 326 03:19 14.10.2022
1424 Clear 17 1014 79 10000 5.31 323 23:42 13.10.2022
1425 Clear 18 1014 74 10000 5.39 323 21:43 13.10.2022
1426 Clear 19 1014 70 10000 5.56 322 20:44 13.10.2022
1427 Clear 20 1014 65 10000 6.39 320 19:43 13.10.2022
1428 Clear 21 1014 56 10000 6.33 314 18:52 13.10.2022
1429 Clear 22 1013 53 10000 6.49 297 18:21 13.10.2022
1430 Clear 25 1012 43 10000 6.84 288 15:51 13.10.2022
1431 Clear 25 1012 43 10000 6.84 288 15:33 13.10.2022
1432 Clear 26 1012 35 10000 6.14 292 13:54 13.10.2022
1433 Clear 26 1012 35 10000 5.88 296 12:42 13.10.2022
1434 Clear 25 1014 41 10000 5.54 300 10:59 13.10.2022
1435 Clear 21 1015 58 10000 5.83 308 08:34 13.10.2022
1436 Clear 20 1016 70 10000 6.4 315 07:38 13.10.2022
1437 Clear 17 1015 84 10000 5.62 322 04:25 13.10.2022
1438 Clouds 18 1015 75 10000 6.05 324 01:41 13.10.2022
1439 Clouds 19 1015 73 10000 5.86 321 00:41 13.10.2022
1440 Clouds 20 1014 68 10000 5.67 325 22:45 12.10.2022
1441 Clouds 21 1015 65 10000 5.53 328 21:48 12.10.2022
1442 Clouds 22 1015 62 10000 5.49 325 21:19 12.10.2022
1443 Clouds 22 1015 62 10000 5.49 325 20:35 12.10.2022
1444 Clouds 23 1014 50 10000 5.91 324 19:23 12.10.2022
1445 Clouds 25 1013 37 10000 5.16 318 18:18 12.10.2022
1446 Clouds 25 1013 37 10000 5.16 318 17:42 12.10.2022
1447 Clouds 30 1012 18 10000 3.39 293 14:45 12.10.2022
1448 Clouds 30 1012 18 10000 2.94 275 13:53 12.10.2022
1449 Clear 29 1014 23 10000 2.39 283 11:54 12.10.2022
1450 Clear 26 1015 30 10000 2.57 308 09:36 12.10.2022
1451 Clear 22 1016 42 10000 3.11 316 07:42 12.10.2022
1452 Clear 20 1016 49 10000 3.36 314 06:44 12.10.2022
1453 Clear 19 1015 54 10000 3.54 323 05:32 12.10.2022
1454 Clear 20 1015 50 10000 3.73 321 00:38 12.10.2022
1455 Clear 22 1016 38 10000 4.7 342 21:26 11.10.2022
1456 Clear 22 1016 38 10000 4.7 342 20:32 11.10.2022
1457 Clear 25 1014 24 10000 3.91 317 18:27 11.10.2022
1458 Clear 28 1013 22 10000 3.41 298 16:27 11.10.2022
1459 Clear 29 1013 23 10000 3.24 290 13:59 11.10.2022
1460 Clear 27 1015 27 10000 1.99 286 11:45 11.10.2022
1461 Clear 25 1016 34 10000 0.81 312 10:28 11.10.2022
1462 Clear 23 1017 40 10000 1.27 320 09:25 11.10.2022
1463 Clear 17 1017 64 10000 3.6 323 05:26 11.10.2022
1464 Clear 18 1016 60 10000 3.99 325 01:55 11.10.2022
1465 Clear 19 1017 58 10000 4.29 330 00:27 11.10.2022
1466 Clear 21 1017 38 10000 4.37 329 21:23 10.10.2022
1467 Clear 21 1017 36 10000 4.58 330 19:45 10.10.2022
1468 Clear 24 1016 26 10000 3.42 324 18:25 10.10.2022
1469 Clear 25 1015 24 10000 2.85 314 16:48 10.10.2022
1470 Clear 27 1015 22 10000 3.51 294 14:48 10.10.2022
1471 Clear 26 1016 25 10000 3.13 284 12:43 10.10.2022
1472 Clear 24 1017 31 10000 1.94 300 11:26 10.10.2022
1473 Clear 21 1018 44 10000 2.27 329 08:33 10.10.2022
1474 Clear 16 1018 81 10000 3.52 325 05:41 10.10.2022
1475 Clear 16 1017 80 10000 3.84 330 03:48 10.10.2022
1476 Clear 18 1016 72 10000 4.63 322 00:29 10.10.2022
1477 Clear 18 1016 68 10000 5.47 321 22:37 09.10.2022
1478 Clear 19 1016 64 10000 6.08 324 22:18 09.10.2022
1479 Clear 19 1016 59 10000 5.92 326 21:21 09.10.2022
1480 Clear 20 1016 57 10000 5.82 321 19:59 09.10.2022
1481 Clear 20 1016 57 10000 5.82 321 19:37 09.10.2022
1482 Clear 21 1015 56 10000 5.56 320 18:43 09.10.2022
1483 Clear 23 1014 43 10000 6.37 299 16:56 09.10.2022
1484 Clear 23 1014 43 10000 6.37 299 16:33 09.10.2022
1485 Clear 25 1013 35 10000 6.61 297 15:38 09.10.2022
1486 Clear 26 1013 30 10000 6.23 294 14:31 09.10.2022
1487 Clear 26 1013 28 10000 4.94 293 13:23 09.10.2022
1488 Clear 25 1014 31 10000 4.77 294 12:29 09.10.2022
1489 Clear 24 1015 34 10000 4.8 298 10:48 09.10.2022
1490 Clear 21 1016 52 10000 4.93 305 08:30 09.10.2022
1491 Clear 16 1015 81 10000 4.17 303 03:40 09.10.2022
1492 Clear 17 1014 80 10000 4.81 304 02:52 09.10.2022
1493 Clear 17 1014 79 10000 5.82 309 00:38 09.10.2022
1494 Clear 18 1014 76 10000 6.37 314 22:58 08.10.2022
1495 Clear 19 1015 72 10000 6.28 315 22:19 08.10.2022
1496 Clear 20 1014 66 10000 6.6 316 20:31 08.10.2022
1497 Clear 21 1013 52 10000 7.54 301 18:57 08.10.2022
1498 Clear 22 1012 47 10000 7.52 294 17:33 08.10.2022
1499 Clear 26 1011 29 10000 7.36 285 15:26 08.10.2022
1500 Clear 27 1011 29 10000 7.16 285 13:32 08.10.2022
1501 Clear 25 1013 37 10000 5.18 297 10:48 08.10.2022
1502 Clear 24 1013 42 10000 5 300 10:25 08.10.2022
1503 Clear 22 1014 48 10000 5.47 307 09:19 08.10.2022
1504 Clear 17 1014 74 10000 5.74 320 05:31 08.10.2022
1505 Clouds 19 1013 74 10000 7.98 320 01:19 08.10.2022
1506 Clouds 19 1013 74 10000 8.17 325 23:39 07.10.2022
1507 Clouds 20 1013 72 10000 7.69 324 23:20 07.10.2022
1508 Clear 20 1013 70 10000 7.76 324 21:52 07.10.2022
1509 Clear 22 1013 65 10000 8.53 322 19:56 07.10.2022
1510 Clear 25 1011 50 10000 7.08 315 17:55 07.10.2022
1511 Clear 27 1011 42 10000 7.03 302 16:51 07.10.2022
1512 Clear 31 1010 29 10000 4.6 297 15:27 07.10.2022
1513 Clear 31 1010 29 10000 3.6 286 14:22 07.10.2022
1514 Clear 29 1011 33 10000 3.65 277 11:41 07.10.2022
1515 Clear 25 1014 46 10000 4.88 306 09:25 07.10.2022
1516 Clouds 23 1014 51 10000 5.56 314 08:29 07.10.2022
1517 Clouds 20 1014 60 10000 5.77 319 04:39 07.10.2022
1518 Clear 22 1013 53 10000 4.26 302 00:23 07.10.2022
1519 Clear 23 1013 49 10000 4.16 298 22:50 06.10.2022
1520 Clear 24 1013 44 10000 3.37 304 21:41 06.10.2022
1521 Clear 25 1013 40 10000 3.52 319 20:45 06.10.2022
1522 Clear 25 1013 42 10000 4.61 333 19:33 06.10.2022
1523 Clear 26 1013 36 10000 4.71 340 18:32 06.10.2022
1524 Clear 32 1011 19 10000 6.9 282 15:47 06.10.2022
1525 Clear 33 1011 17 10000 3.83 268 13:49 06.10.2022
1526 Clear 30 1014 20 10000 3.1 291 10:45 06.10.2022
1527 Clear 21 1015 35 10000 3.53 307 05:43 06.10.2022
1528 Clear 22 1015 41 10000 4.16 328 02:38 06.10.2022
1529 Clear 24 1015 44 10000 5.95 317 22:34 05.10.2022
1530 Clear 25 1015 46 10000 6.52 332 19:54 05.10.2022
1531 Clear 28 1013 39 10000 7.62 334 17:50 05.10.2022
1532 Clear 30 1013 31 10000 6.97 321 17:29 05.10.2022
1533 Clear 33 1012 23 10000 5.7 307 15:46 05.10.2022
1534 Clear 33 1012 22 10000 3.7 305 14:38 05.10.2022
1535 Clear 33 1012 22 10000 2.96 294 13:52 05.10.2022
1536 Clear 32 1013 28 10000 3.49 291 12:19 05.10.2022
1537 Clear 28 1015 42 10000 3.45 303 08:45 05.10.2022
1538 Clear 23 1015 57 10000 2.96 297 07:23 05.10.2022
1539 Clear 22 1014 63 10000 2.88 300 05:35 05.10.2022
1540 Clear 22 1014 64 10000 4.13 321 02:42 05.10.2022
1541 Clear 23 1013 65 10000 4.58 325 00:41 05.10.2022
1542 Clear 23 1013 63 10000 5.09 321 00:23 05.10.2022
1543 Clear 25 1013 56 10000 4.45 324 21:59 04.10.2022
1544 Clear 26 1012 41 10000 4.78 333 20:29 04.10.2022
1545 Clear 27 1011 35 10000 5.02 322 18:57 04.10.2022
1546 Clear 27 1011 35 10000 5.02 322 18:35 04.10.2022
1547 Clear 29 1010 31 10000 5.46 314 17:43 04.10.2022
1548 Clear 33 1009 19 10000 2.49 259 16:28 04.10.2022
1549 Clear 32 1009 25 10000 3.32 246 12:41 04.10.2022
1550 Clear 32 1009 25 10000 3.32 246 12:41 04.10.2022
1551 Clear 27 1010 37 10000 3.35 331 08:52 04.10.2022
1552 Clear 23 1010 59 10000 4.38 319 07:23 04.10.2022
1553 Clear 22 1009 73 10000 4.84 321 01:44 04.10.2022
1554 Clear 23 1009 70 10000 3.84 320 23:40 03.10.2022
1555 Clear 24 1008 67 10000 4.3 325 21:52 03.10.2022
1556 Clear 24 1008 64 10000 4.78 333 20:55 03.10.2022
1557 Clear 25 1008 47 10000 5.44 334 19:34 03.10.2022
1558 Clear 28 1007 24 10000 4.56 295 17:58 03.10.2022
1559 Clear 30 1006 20 10000 4.96 285 16:56 03.10.2022
1560 Clear 33 1005 15 10000 3.74 257 15:28 03.10.2022
1561 Clear 33 1006 16 10000 3.26 253 13:45 03.10.2022
1562 Clear 31 1007 19 10000 2.67 252 12:22 03.10.2022
1563 Clear 30 1008 21 10000 2.6 255 10:39 03.10.2022
1564 Clear 29 1009 25 10000 2.8 262 09:37 03.10.2022
1565 Clear 21 1009 47 10000 2.76 297 05:44 03.10.2022
1566 Clear 22 1008 52 10000 3.9 314 02:51 03.10.2022
1567 Clear 24 1009 51 10000 3.92 317 22:29 02.10.2022
1568 Clear 25 1009 49 10000 4.39 320 20:50 02.10.2022
1569 Clear 27 1009 41 10000 6.08 311 18:42 02.10.2022
1570 Clear 28 1008 34 10000 6 297 17:52 02.10.2022
1571 Clear 30 1008 27 10000 6.38 289 16:33 02.10.2022
1572 Clear 32 1008 22 10000 6.06 286 15:50 02.10.2022
1573 Clear 33 1008 19 10000 5.4 293 13:51 02.10.2022
1574 Clear 33 1008 21 10000 4.5 294 13:21 02.10.2022
1575 Clear 32 1009 23 10000 3.67 291 12:28 02.10.2022
1576 Clear 32 1009 23 10000 3.67 291 11:37 02.10.2022
1577 Clear 31 1010 26 10000 3.21 290 10:59 02.10.2022
1578 Clear 28 1012 35 10000 3.14 301 09:27 02.10.2022
1579 Clear 26 1012 34 10000 2.04 302 07:39 02.10.2022
1580 Clear 23 1012 46 10000 3.2 309 02:55 02.10.2022
1581 Clear 24 1013 39 10000 2.92 316 00:46 02.10.2022
1582 Clear 25 1013 39 10000 3.11 324 00:21 02.10.2022
1583 Clear 25 1013 39 10000 3.36 320 22:53 01.10.2022
1584 Clear 26 1013 39 10000 3.43 336 20:53 01.10.2022
1585 Clear 28 1012 37 10000 5.67 311 18:50 01.10.2022
1586 Clear 32 1011 25 10000 7.93 309 16:36 01.10.2022
1587 Clear 35 1011 16 10000 7.14 317 14:41 01.10.2022
1588 Clear 35 1012 15 10000 5.79 313 13:32 01.10.2022
1589 Clear 35 1012 15 10000 5.79 313 13:32 01.10.2022
1590 Clear 35 1013 16 10000 5.21 306 12:33 01.10.2022
1591 Clear 33 1015 19 10000 2.79 285 11:21 01.10.2022
1592 Clear 33 1015 19 10000 2.79 285 10:32 01.10.2022
1593 Clear 32 1016 22 10000 2.33 282 09:55 01.10.2022
1594 Clear 30 1016 25 10000 1.83 300 08:58 01.10.2022
1595 Clear 24 1017 36 10000 1.03 292 05:47 01.10.2022
1596 Clear 23 1016 37 10000 0.47 2 03:36 01.10.2022
1597 Clear 25 1016 28 10000 2.02 18 01:21 01.10.2022
1598 Clear 26 1016 27 10000 3.26 3 22:56 30.09.2022
1599 Clear 27 1016 28 10000 3.89 0 21:41 30.09.2022
1600 Clear 27 1016 27 10000 4.23 356 20:45 30.09.2022
1601 Clear 28 1015 25 10000 4.08 360 20:19 30.09.2022
1602 Clear 30 1013 18 10000 4.19 345 17:40 30.09.2022
1603 Clear 35 1012 12 10000 5.95 346 16:25 30.09.2022
1604 Clear 35 1012 15 10000 3.86 292 14:21 30.09.2022
1605 Clear 33 1014 19 10000 2.03 277 12:24 30.09.2022
1606 Clear 33 1014 19 10000 2.03 277 11:48 30.09.2022
1607 Clear 28 1016 34 10000 1.76 251 08:38 30.09.2022
1608 Clear 21 1015 57 10000 1.01 308 06:29 30.09.2022
1609 Clear 22 1014 55 10000 2.49 316 02:50 30.09.2022
1610 Clear 23 1014 49 10000 2.85 322 00:35 30.09.2022
1611 Clear 24 1013 45 10000 5.33 335 21:39 29.09.2022
1612 Clear 25 1013 43 10000 5.94 335 21:18 29.09.2022
1613 Clear 26 1012 42 10000 7.13 322 18:48 29.09.2022
1614 Clear 28 1011 37 10000 8.56 316 17:48 29.09.2022
1615 Clear 32 1010 26 10000 9.01 320 16:29 29.09.2022
1616 Clear 32 1010 26 10000 9.01 320 15:36 29.09.2022
1617 Clear 33 1010 24 10000 8.45 323 14:59 29.09.2022
1618 Clear 32 1011 24 10000 7.02 325 11:53 29.09.2022
1619 Clear 24 1013 42 10000 4.97 314 07:39 29.09.2022
1620 Clear 20 1013 54 10000 4.12 316 03:24 29.09.2022
1621 Clear 21 1013 53 10000 4.99 316 00:29 29.09.2022
1622 Clear 21 1013 51 10000 4.92 317 23:19 28.09.2022
1623 Clear 21 1013 49 10000 4.99 320 21:31 28.09.2022
1624 Clear 22 1013 47 10000 5.35 320 20:45 28.09.2022
1625 Clear 23 1012 40 10000 6.32 321 18:53 28.09.2022
1626 Clear 29 1011 22 10000 8.52 308 16:27 28.09.2022
1627 Clear 30 1011 13 10000 7.3 315 13:28 28.09.2022
1628 Clear 30 1011 13 10000 7.3 315 13:28 28.09.2022
1629 Clear 30 1012 13 10000 6.45 308 11:43 28.09.2022
1630 Clear 27 1013 19 10000 5.84 305 09:34 28.09.2022
1631 Clear 24 1014 35 10000 5.66 300 07:41 28.09.2022
1632 Clear 20 1014 47 10000 4.06 288 05:31 28.09.2022
1633 Clear 22 1013 41 10000 4.24 302 01:41 28.09.2022
1634 Clear 23 1013 39 10000 3.93 308 23:31 27.09.2022
1635 Clear 23 1013 38 10000 3.85 312 22:33 27.09.2022
1636 Clear 24 1014 35 10000 4.2 321 20:56 27.09.2022
1637 Clear 25 1013 36 10000 4.61 321 20:26 27.09.2022
1638 Clear 25 1013 36 10000 4.61 321 19:37 27.09.2022
1639 Clear 27 1012 30 10000 6.18 321 17:46 27.09.2022
1640 Clear 31 1011 21 10000 8.13 302 16:25 27.09.2022
1641 Clear 32 1011 18 10000 8.83 299 15:18 27.09.2022
1642 Clear 33 1011 17 10000 8.97 294 13:52 27.09.2022
1643 Clear 33 1012 16 10000 8.27 289 12:36 27.09.2022
1644 Clear 31 1013 20 10000 4.88 285 10:33 27.09.2022
1645 Clear 26 1014 26 10000 2.79 307 07:51 27.09.2022
1646 Clear 23 1014 29 10000 3.04 320 04:28 27.09.2022
1647 Clear 23 1014 27 10000 3.29 316 01:37 27.09.2022
1648 Clear 24 1014 26 10000 3.88 327 23:52 26.09.2022
1649 Clear 25 1014 26 10000 4.11 329 23:24 26.09.2022
1650 Clear 26 1014 28 10000 4.5 330 21:20 26.09.2022
1651 Clear 26 1014 27 10000 4.82 326 19:44 26.09.2022
1652 Clear 27 1014 27 10000 5.21 325 18:39 26.09.2022
1653 Clear 31 1012 18 10000 6.54 312 17:25 26.09.2022
1654 Clear 34 1011 14 10000 7.32 291 15:23 26.09.2022
1655 Clear 34 1012 15 10000 5.2 299 12:31 26.09.2022
1656 Clear 32 1014 18 10000 2.87 279 10:43 26.09.2022
1657 Clear 31 1014 20 10000 2.31 263 10:23 26.09.2022
1658 Clear 31 1014 20 10000 2.31 263 09:57 26.09.2022
1659 Clear 29 1015 22 10000 1.91 256 09:27 26.09.2022
1660 Clear 29 1015 22 10000 1.91 256 08:59 26.09.2022
1661 Clear 23 1014 34 10000 1.28 316 05:30 26.09.2022
1662 Clear 24 1014 36 10000 2.72 324 02:29 26.09.2022
1663 Clear 25 1015 36 10000 2.99 329 23:24 25.09.2022
1664 Clear 25 1015 35 10000 3.11 333 21:44 25.09.2022
1665 Clear 26 1015 34 10000 3.66 331 21:25 25.09.2022
1666 Clear 26 1015 34 10000 3.66 331 20:36 25.09.2022
1667 Clear 28 1014 30 10000 4.89 328 18:55 25.09.2022
1668 Clear 29 1013 28 10000 5.22 325 18:24 25.09.2022
1669 Clear 31 1013 23 10000 7.05 317 17:24 25.09.2022
1670 Clear 33 1012 19 10000 7.12 307 16:21 25.09.2022
1671 Clear 34 1012 19 10000 5.3 306 14:49 25.09.2022
1672 Clear 33 1012 19 10000 4.79 306 14:19 25.09.2022
1673 Clear 32 1014 23 10000 3.02 274 11:34 25.09.2022
1674 Clear 29 1015 28 10000 0.6 245 09:44 25.09.2022
1675 Clear 26 1016 33 10000 0.63 113 07:42 25.09.2022
1676 Clear 22 1015 44 10000 0.61 24 05:25 25.09.2022
1677 Clear 24 1015 40 10000 4.47 327 23:37 24.09.2022
1678 Clear 25 1015 36 10000 4.91 328 21:25 24.09.2022
1679 Clear 25 1015 36 10000 4.91 328 20:32 24.09.2022
1680 Clear 27 1014 31 10000 5.98 324 19:20 24.09.2022
1681 Clear 30 1013 22 10000 7.02 321 16:57 24.09.2022
1682 Clear 33 1012 18 10000 6.97 299 15:29 24.09.2022
1683 Clear 33 1012 18 10000 6.97 299 14:47 24.09.2022
1684 Clear 33 1013 19 10000 5.2 299 13:22 24.09.2022
1685 Clear 32 1014 21 10000 4.31 295 12:25 24.09.2022
1686 Clear 29 1015 27 10000 3.23 282 09:59 24.09.2022
1687 Clear 27 1016 33 10000 3.05 293 09:21 24.09.2022
1688 Clear 27 1016 33 10000 3.05 293 08:40 24.09.2022
1689 Clear 21 1015 51 10000 2.33 321 04:55 24.09.2022
1690 Clear 21 1014 52 10000 1.64 329 04:25 24.09.2022
1691 Clear 23 1014 51 10000 2.01 315 23:25 23.09.2022
1692 Clear 24 1013 49 10000 2.97 323 21:41 23.09.2022
1693 Clear 25 1013 47 10000 3.79 337 21:22 23.09.2022
1694 Clear 25 1013 47 10000 3.79 337 20:54 23.09.2022
1695 Clear 26 1012 43 10000 5.9 329 19:20 23.09.2022
1696 Clear 27 1011 36 10000 4.86 312 17:50 23.09.2022
1697 Clear 31 1011 25 10000 6.69 284 13:41 23.09.2022
1698 Clear 28 1013 30 10000 4.1 272 10:24 23.09.2022
1699 Clear 24 1013 38 10000 3.87 283 07:43 23.09.2022
1700 Clear 19 1013 64 10000 3.04 306 03:37 23.09.2022
1701 Clear 20 1012 59 10000 3.24 317 23:30 22.09.2022
1702 Clear 21 1013 53 10000 3.32 331 22:28 22.09.2022
1703 Clear 21 1013 53 10000 3.32 331 21:36 22.09.2022
1704 Clear 23 1012 45 10000 3.68 314 20:25 22.09.2022
1705 Clear 24 1011 41 10000 4.86 303 18:58 22.09.2022
1706 Clear 28 1009 30 10000 7.31 293 15:58 22.09.2022
1707 Clear 26 1011 33 10000 5.53 291 10:55 22.09.2022
1708 Clear 24 1012 42 10000 4.94 294 10:19 22.09.2022
1709 Clear 21 1012 65 10000 4.57 295 08:22 22.09.2022
1710 Clear 17 1011 82 10000 2.86 291 06:18 22.09.2022
1711 Clear 18 1010 79 10000 4.52 292 01:27 22.09.2022
1712 Clear 20 1011 67 10000 4.79 301 22:29 21.09.2022
1713 Clear 21 1011 62 10000 5.27 305 21:24 21.09.2022
1714 Clear 22 1010 48 10000 7.1 299 19:22 21.09.2022
1715 Clear 24 1009 40 10000 7.78 290 17:45 21.09.2022
1716 Clear 27 1008 33 10000 8.17 275 16:20 21.09.2022
1717 Clear 28 1008 29 10000 7.51 274 13:56 21.09.2022
1718 Clear 27 1008 33 10000 7.22 280 11:44 21.09.2022
1719 Clear 26 1009 37 10000 6.9 282 11:22 21.09.2022
1720 Clear 25 1010 44 10000 6.77 287 09:44 21.09.2022
1721 Clear 23 1010 54 10000 6.61 291 08:50 21.09.2022
1722 Clear 18 1010 88 10000 4.44 305 05:53 21.09.2022
1723 Clear 19 1009 85 10000 5.44 314 02:42 21.09.2022
1724 Clear 19 1009 83 10000 5.9 315 02:19 21.09.2022
1725 Clear 20 1009 80 10000 5.52 316 00:20 21.09.2022
1726 Clear 21 1009 74 10000 6.28 322 21:55 20.09.2022
1727 Clear 22 1009 70 10000 6.75 321 20:34 20.09.2022
1728 Clear 24 1009 59 10000 7.54 309 19:24 20.09.2022
1729 Clear 29 1007 38 10000 8.12 288 15:58 20.09.2022
1730 Clear 30 1006 35 10000 8.01 295 14:34 20.09.2022
1731 Clear 30 1007 35 10000 6.97 304 12:45 20.09.2022
1732 Clear 24 1010 55 10000 7.11 308 08:51 20.09.2022
1733 Clear 22 1010 65 10000 6.87 309 08:25 20.09.2022
1734 Clear 19 1010 84 10000 6.16 316 04:44 20.09.2022
1735 Clear 19 1010 82 10000 6.72 325 03:38 20.09.2022
1736 Clear 21 1010 73 10000 6.39 330 22:51 19.09.2022
1737 Clear 21 1010 72 10000 6.99 323 21:39 19.09.2022
1738 Clear 22 1010 69 10000 7.49 316 20:47 19.09.2022
1739 Clear 23 1011 63 10000 8.01 331 19:42 19.09.2022
1740 Clear 26 1009 49 10000 8.2 304 17:44 19.09.2022
1741 Clear 32 1007 30 10000 8.36 304 14:18 19.09.2022
1742 Clear 32 1008 30 10000 8.05 307 12:56 19.09.2022
1743 Clear 30 1009 36 10000 7 310 10:47 19.09.2022
1744 Clear 25 1011 53 10000 7.11 311 08:51 19.09.2022
1745 Clear 20 1010 85 10000 6.82 318 05:53 19.09.2022
1746 Clear 21 1009 69 10000 6.84 323 01:53 19.09.2022
1747 Clear 23 1009 67 10000 7.17 322 23:22 18.09.2022
1748 Clear 23 1009 68 10000 7.27 315 21:34 18.09.2022
1749 Clear 24 1009 61 10000 8.2 318 20:24 18.09.2022
1750 Clear 28 1007 48 10000 9.82 310 17:54 18.09.2022
1751 Clear 28 1007 48 10000 9.82 310 17:35 18.09.2022
1752 Clear 33 1006 27 10000 9.57 308 15:36 18.09.2022
1753 Clear 36 1005 14 10000 4.13 301 13:50 18.09.2022
1754 Clear 36 1006 13 10000 2.1 281 12:35 18.09.2022
1755 Clear 34 1007 15 10000 0.38 268 10:55 18.09.2022
1756 Clear 23 1008 50 10000 3.91 322 03:42 18.09.2022
1757 Clear 24 1007 48 10000 4.3 305 01:24 18.09.2022
1758 Clear 25 1007 43 10000 4.59 317 00:23 18.09.2022
1759 Clear 27 1007 42 10000 5.17 329 21:40 17.09.2022
1760 Clear 28 1006 39 10000 7.02 336 19:43 17.09.2022
1761 Clear 28 1006 39 10000 7.02 336 19:43 17.09.2022
1762 Clear 29 1006 31 10000 6.73 335 18:57 17.09.2022
1763 Clear 29 1006 31 10000 6.73 335 18:57 17.09.2022
1764 Clear 36 1004 9 10000 1.19 206 16:18 17.09.2022
1765 Clear 36 1004 10 10000 1.28 167 13:56 17.09.2022
1766 Clear 35 1006 12 10000 1.92 135 11:31 17.09.2022
1767 Clear 30 1008 25 10000 1.83 9 09:27 17.09.2022
1768 Clear 23 1009 48 10000 3.33 320 06:25 17.09.2022
1769 Clear 24 1008 50 10000 4.79 323 01:51 17.09.2022
1770 Clear 26 1008 41 10000 4.46 340 22:54 16.09.2022
1771 Clear 27 1008 38 10000 6.01 340 21:23 16.09.2022
1772 Clear 27 1009 35 10000 6.23 336 19:51 16.09.2022
1773 Clear 30 1007 24 10000 5.65 323 17:50 16.09.2022
1774 Clear 34 1007 17 10000 3.17 293 15:34 16.09.2022
1775 Clear 34 1007 17 10000 2.18 274 13:57 16.09.2022
1776 Clear 32 1009 19 10000 0.57 244 11:43 16.09.2022
1777 Clear 25 1012 38 10000 2.13 315 08:26 16.09.2022
1778 Clear 23 1013 47 10000 2.78 314 07:19 16.09.2022
1779 Clear 23 1013 47 10000 2.78 314 06:47 16.09.2022
1780 Clear 21 1012 58 10000 4.48 324 02:52 16.09.2022
1781 Clear 23 1012 48 10000 4.23 327 22:56 15.09.2022
1782 Clear 24 1012 43 10000 4.89 338 21:18 15.09.2022
1783 Clear 25 1012 32 10000 4.9 336 19:57 15.09.2022
1784 Clear 26 1012 24 10000 4.13 312 18:30 15.09.2022
1785 Clear 28 1011 19 10000 4.41 296 17:33 15.09.2022
1786 Clear 30 1011 16 10000 4.73 300 16:43 15.09.2022
1787 Clear 31 1011 17 10000 4.34 301 14:36 15.09.2022
1788 Clear 29 1013 25 10000 4.28 297 12:29 15.09.2022
1789 Clear 25 1014 38 10000 4.24 298 10:21 15.09.2022
1790 Clear 22 1015 57 10000 4.64 311 07:51 15.09.2022
1791 Clear 18 1014 79 10000 5.08 328 03:58 15.09.2022
1792 Clear 20 1013 71 10000 5.87 323 01:27 15.09.2022
1793 Clear 22 1013 60 10000 5.77 328 21:54 14.09.2022
1794 Clear 23 1012 48 10000 5.62 320 19:55 14.09.2022
1795 Clear 25 1012 42 10000 6.2 309 19:20 14.09.2022
1796 Clear 28 1010 32 10000 7.87 284 17:25 14.09.2022
1797 Clear 30 1010 30 10000 7.44 282 15:49 14.09.2022
1798 Clear 31 1009 27 10000 7.2 283 14:34 14.09.2022
1799 Clear 30 1010 32 10000 5.96 284 11:40 14.09.2022
1800 Clear 27 1012 46 10000 5.3 292 09:48 14.09.2022
1801 Clear 23 1012 65 10000 5.25 295 07:39 14.09.2022
1802 Clear 21 1012 78 10000 5.16 299 06:47 14.09.2022
1803 Clear 19 1010 90 10000 5.18 306 04:33 14.09.2022
1804 Clear 20 1010 84 10000 5.2 315 01:48 14.09.2022
1805 Clear 21 1010 80 10000 5.33 319 01:29 14.09.2022
1806 Clear 21 1010 80 10000 5.33 319 00:50 14.09.2022
1807 Clear 21 1010 75 10000 5.36 318 23:54 13.09.2022
1808 Clear 21 1010 75 10000 5.36 318 23:36 13.09.2022
1809 Clear 22 1009 73 10000 5.23 318 23:18 13.09.2022
1810 Clear 22 1009 70 10000 5.58 323 22:20 13.09.2022
1811 Clear 25 1008 56 10000 6.68 322 19:52 13.09.2022
1812 Clear 28 1007 41 10000 7.68 304 18:20 13.09.2022
1813 Clear 31 1005 26 10000 7.86 290 15:55 13.09.2022
1814 Clear 32 1005 23 10000 7.65 292 14:36 13.09.2022
1815 Clear 32 1005 23 10000 6.74 301 13:20 13.09.2022
1816 Clear 26 1008 47 10000 5.83 302 09:23 13.09.2022
1817 Clear 21 1007 74 10000 5.67 313 06:59 13.09.2022
1818 Clear 22 1007 51 10000 5.33 319 00:23 13.09.2022
1819 Clear 22 1007 50 10000 4.99 318 22:51 12.09.2022
1820 Clear 23 1007 50 10000 5.05 321 22:18 12.09.2022
1821 Clear 24 1007 47 10000 5.55 323 20:39 12.09.2022
1822 Clear 27 1006 36 10000 6.82 316 18:52 12.09.2022
1823 Clear 31 1004 20 10000 7.28 298 17:25 12.09.2022
1824 Clear 34 1004 13 10000 7.65 293 14:39 12.09.2022
1825 Clear 33 1006 13 10000 5.13 295 11:51 12.09.2022
1826 Clear 30 1007 19 10000 5.02 306 09:57 12.09.2022
1827 Clear 21 1008 44 10000 4.56 317 04:57 12.09.2022
1828 Clear 21 1008 44 10000 4.3 307 04:27 12.09.2022
1829 Clear 23 1008 42 10000 5.4 323 23:58 11.09.2022
1830 Clear 24 1008 40 10000 5.75 329 22:43 11.09.2022
1831 Clear 26 1009 38 10000 5.02 330 20:53 11.09.2022
1832 Clear 26 1008 36 10000 5.28 328 20:21 11.09.2022
1833 Clear 28 1008 32 10000 5.86 325 19:26 11.09.2022
1834 Clear 28 1008 32 10000 5.86 325 18:37 11.09.2022
1835 Clear 33 1007 16 10000 6.25 301 16:56 11.09.2022
1836 Clear 35 1007 12 10000 7.15 297 15:22 11.09.2022
1837 Clear 36 1007 10 10000 5.77 301 12:54 11.09.2022
1838 Clear 31 1010 15 10000 6 308 09:45 11.09.2022
1839 Clear 26 1011 26 10000 5.6 313 07:49 11.09.2022
1840 Clear 22 1010 35 10000 5.35 319 03:34 11.09.2022
1841 Clear 25 1010 30 10000 5.56 323 23:45 10.09.2022
1842 Clear 26 1010 31 10000 5.41 327 21:35 10.09.2022
1843 Clear 28 1010 31 10000 5.15 331 19:58 10.09.2022
1844 Clear 28 1010 31 10000 5.15 331 19:40 10.09.2022
1845 Clear 29 1010 28 10000 5.85 325 19:20 10.09.2022
1846 Clear 34 1008 17 10000 6.43 308 16:58 10.09.2022
1847 Clear 35 1008 17 10000 7.09 306 15:32 10.09.2022
1848 Clear 37 1009 14 10000 5.54 306 12:55 10.09.2022
1849 Clear 36 1009 14 10000 5.09 310 12:26 10.09.2022
1850 Clear 33 1011 18 10000 4.83 307 10:26 10.09.2022
1851 Clear 31 1011 21 10000 5.49 319 08:37 10.09.2022
1852 Clear 28 1012 28 10000 5.89 316 08:18 10.09.2022
1853 Clear 24 1011 41 10000 5.13 307 03:42 10.09.2022
1854 Clear 26 1011 36 10000 5.91 322 23:36 09.09.2022
1855 Clear 27 1011 36 10000 6.28 322 22:31 09.09.2022
1856 Clear 28 1011 34 10000 6.15 331 20:49 09.09.2022
1857 Clear 28 1011 33 10000 6.38 329 19:58 09.09.2022
1858 Clear 29 1010 31 10000 6.83 324 19:22 09.09.2022
1859 Clear 35 1008 19 10000 7.55 318 16:52 09.09.2022
1860 Clear 37 1008 14 10000 6.34 315 14:43 09.09.2022
1861 Clear 37 1009 14 10000 4.38 313 13:19 09.09.2022
1862 Clear 34 1010 16 10000 3.82 315 10:41 09.09.2022
1863 Clear 26 1012 34 10000 3.38 312 07:25 09.09.2022
1864 Clear 24 1011 45 10000 4.42 320 03:34 09.09.2022
1865 Clear 26 1010 44 10000 5.1 332 22:34 08.09.2022
1866 Clear 27 1010 45 10000 5.56 332 21:51 08.09.2022
1867 Clear 27 1010 44 10000 6.17 338 20:49 08.09.2022
1868 Clear 27 1011 44 10000 6.8 339 20:25 08.09.2022
1869 Clear 29 1010 31 10000 5.73 323 18:43 08.09.2022
1870 Clear 33 1008 21 10000 5.63 306 17:23 08.09.2022
1871 Clear 34 1008 19 10000 3.74 308 15:35 08.09.2022
1872 Clear 34 1008 19 10000 2.61 292 13:30 08.09.2022
1873 Clear 33 1009 20 10000 2.53 279 12:40 08.09.2022
1874 Clear 31 1010 24 10000 2.18 276 11:23 08.09.2022
1875 Clear 29 1011 28 10000 2.34 284 09:35 08.09.2022
1876 Clear 23 1011 62 10000 3.76 312 07:18 08.09.2022
1877 Clear 21 1010 75 10000 3.56 304 04:43 08.09.2022
1878 Clear 22 1009 73 10000 3.83 312 02:36 08.09.2022
1879 Clear 22 1009 70 10000 4.65 315 02:18 08.09.2022
1880 Clear 24 1010 64 10000 5.24 325 22:58 07.09.2022
1881 Clear 24 1010 62 10000 5.59 330 21:45 07.09.2022
1882 Clear 25 1010 59 10000 6.18 330 21:21 07.09.2022
1883 Clear 26 1010 51 10000 6.43 323 20:28 07.09.2022
1884 Clear 27 1009 35 10000 5.2 305 18:54 07.09.2022
1885 Clear 31 1007 23 10000 5.92 287 16:24 07.09.2022
1886 Clear 29 1009 35 10000 4.42 297 10:52 07.09.2022
1887 Clear 29 1009 35 10000 4.42 297 10:32 07.09.2022
1888 Clear 23 1010 64 10000 5.64 309 08:26 07.09.2022
1889 Clear 20 1010 86 10000 4.38 316 05:46 07.09.2022
1890 Clear 21 1008 77 10000 4.38 311 00:38 07.09.2022
1891 Clear 22 1009 71 10000 5.38 318 21:56 06.09.2022
1892 Clear 22 1009 71 10000 5.38 318 21:33 06.09.2022
1893 Clear 24 1008 57 10000 7.95 319 19:39 06.09.2022
1894 Clear 26 1007 44 10000 7.16 304 18:40 06.09.2022
1895 Clear 28 1007 36 10000 6.9 292 17:50 06.09.2022
1896 Clear 30 1006 30 10000 7.49 291 16:47 06.09.2022
1897 Clear 31 1006 25 10000 7.51 285 16:24 06.09.2022
1898 Clear 33 1006 18 10000 7.33 278 14:27 06.09.2022
1899 Clear 33 1006 18 10000 7.33 278 13:44 06.09.2022
1900 Clear 32 1007 18 10000 7.06 282 13:18 06.09.2022
1901 Clear 30 1008 22 10000 5.96 291 10:55 06.09.2022
1902 Clear 27 1009 32 10000 6.34 297 09:22 06.09.2022
1903 Clear 25 1009 39 10000 6.02 302 08:18 06.09.2022
1904 Clear 21 1009 59 10000 5.33 316 06:20 06.09.2022
1905 Clear 24 1008 44 10000 5.11 318 01:20 06.09.2022
1906 Clear 25 1008 44 10000 5.54 322 22:54 05.09.2022
1907 Clear 26 1008 44 10000 6.45 324 21:38 05.09.2022
1908 Clear 26 1008 43 10000 7.32 332 20:30 05.09.2022
1909 Clear 29 1008 36 10000 7.25 329 18:53 05.09.2022
1910 Clear 31 1007 31 10000 7.27 317 18:26 05.09.2022
1911 Clear 31 1007 31 10000 7.27 317 17:57 05.09.2022
1912 Clear 35 1006 20 10000 7.03 296 15:54 05.09.2022
1913 Clear 36 1006 18 10000 7.16 298 14:48 05.09.2022
1914 Clear 37 1007 16 10000 6.11 301 12:53 05.09.2022
1915 Clear 36 1008 18 10000 5.34 301 11:37 05.09.2022
1916 Clear 29 1010 33 10000 5.96 306 08:58 05.09.2022
1917 Clear 23 1010 60 10000 5.49 326 05:20 05.09.2022
1918 Clear 25 1009 51 10000 6.06 316 01:35 05.09.2022
1919 Clear 28 1010 41 10000 5.78 331 22:29 04.09.2022
1920 Clear 28 1010 41 10000 5.78 331 21:59 04.09.2022
1921 Clear 28 1009 40 10000 6.78 330 20:35 04.09.2022
1922 Clear 30 1009 36 10000 6.94 326 18:39 04.09.2022
1923 Clear 32 1008 31 10000 6.93 320 17:43 04.09.2022
1924 Clear 37 1007 21 10000 7.28 307 16:28 04.09.2022
1925 Clear 39 1007 15 10000 5.57 313 14:25 04.09.2022
1926 Clear 39 1008 16 10000 4.68 308 12:57 04.09.2022
1927 Clear 38 1009 18 10000 4.6 309 11:37 04.09.2022
1928 Clear 33 1010 29 10000 5.68 314 09:50 04.09.2022
1929 Clear 25 1011 62 10000 7.6 318 06:51 04.09.2022
1930 Clear 24 1011 76 10000 6.49 320 03:31 04.09.2022
1931 Clear 27 1010 60 10000 7.15 317 23:40 03.09.2022
1932 Clear 28 1010 52 10000 6.59 324 22:21 03.09.2022
1933 Clear 29 1010 51 10000 6.62 330 21:23 03.09.2022
1934 Clear 29 1010 51 10000 6.62 330 21:23 03.09.2022
1935 Clear 31 1009 45 10000 7.56 334 18:59 03.09.2022
1936 Clear 37 1008 25 10000 7.27 320 17:25 03.09.2022
1937 Clear 39 1007 19 10000 7.6 317 16:26 03.09.2022
1938 Clear 40 1007 15 10000 6.54 310 14:44 03.09.2022
1939 Clear 40 1008 15 10000 4.78 297 13:55 03.09.2022
1940 Clear 38 1009 18 10000 3.3 293 11:51 03.09.2022
1941 Clear 35 1010 24 10000 3 302 09:56 03.09.2022
1942 Clear 29 1011 48 10000 6.01 325 07:57 03.09.2022
1943 Clear 26 1011 62 10000 6.67 322 06:53 03.09.2022
1944 Clear 23 1011 81 10000 7.2 321 04:31 03.09.2022
1945 Clear 29 1009 44 10000 4.99 312 23:49 02.09.2022
1946 Clear 30 1009 40 10000 4.92 317 22:39 02.09.2022
1947 Clear 32 1008 38 10000 4.8 335 20:59 02.09.2022
1948 Clear 32 1008 35 10000 4.86 343 20:59 02.09.2022
1949 Clear 32 1008 37 10000 5.74 348 20:27 02.09.2022
1950 Clear 33 1008 36 10000 6.97 346 19:00 02.09.2022
1951 Clear 35 1007 27 10000 7.31 341 18:28 02.09.2022
1952 Clear 35 1007 27 10000 7.31 341 17:43 02.09.2022
1953 Clear 38 1006 18 10000 6.79 331 16:46 02.09.2022
1954 Clear 40 1007 10 10000 1.78 228 13:55 02.09.2022
1955 Clear 39 1008 15 10000 3.06 270 12:24 02.09.2022
1956 Clear 35 1009 24 10000 3.32 313 10:19 02.09.2022
1957 Clear 35 1009 24 10000 3.32 313 09:39 02.09.2022
1958 Clear 29 1010 41 10000 5.96 317 07:30 02.09.2022
1959 Clear 29 1010 41 10000 5.96 317 07:30 02.09.2022
1960 Clear 26 1010 53 10000 6.16 314 06:36 02.09.2022
1961 Clear 25 1009 50 10000 6.5 323 02:52 02.09.2022
1962 Clear 29 1008 41 10000 5.36 306 22:30 01.09.2022
1963 Clear 30 1007 38 10000 5.13 315 21:43 01.09.2022
1964 Clouds 31 1007 38 10000 5.21 333 21:25 01.09.2022
1965 Clouds 31 1007 38 10000 5.21 333 20:43 01.09.2022
1966 Clear 32 1006 38 10000 7.21 341 18:54 01.09.2022
1967 Clear 38 1005 18 10000 5.38 327 17:22 01.09.2022
1968 Clear 40 1005 9 10000 2.44 193 15:56 01.09.2022
1969 Clear 40 1005 12 10000 2.55 263 14:22 01.09.2022
1970 Clear 39 1006 15 10000 3.31 279 12:58 01.09.2022
1971 Clear 38 1007 19 10000 3.86 293 11:53 01.09.2022
1972 Clear 38 1007 19 10000 3.86 293 11:31 01.09.2022
1973 Clear 34 1008 30 10000 4.62 297 10:23 01.09.2022
1974 Clear 29 1009 43 10000 5.24 322 07:51 01.09.2022
1975 Clear 25 1009 60 10000 5.35 317 06:22 01.09.2022
1976 Clear 27 1008 45 10000 5.05 309 01:32 01.09.2022
1977 Clear 27 1008 45 10000 5.05 309 01:32 01.09.2022
1978 Clear 27 1008 45 10000 5.05 309 01:32 01.09.2022
1979 Clear 27 1008 45 10000 5.05 309 01:32 01.09.2022
1980 Clear 30 1008 39 10000 5.82 331 23:29 31.08.2022
1981 Clear 31 1009 37 10000 5.16 329 21:32 31.08.2022
1982 Clear 32 1008 35 10000 6.17 340 19:50 31.08.2022
1983 Clear 35 1007 24 10000 7.11 341 18:18 31.08.2022
1984 Clear 40 1006 8 10000 0.72 154 15:56 31.08.2022
1985 Clear 40 1007 8 10000 2.69 185 14:27 31.08.2022
1986 Clear 39 1008 11 10000 2.04 222 12:22 31.08.2022
1987 Clear 38 1009 14 10000 1.53 256 11:22 31.08.2022
1988 Clear 34 1010 24 10000 3.9 317 08:36 31.08.2022
1989 Clear 26 1010 45 10000 4.08 315 04:47 31.08.2022
1990 Clear 31 1010 27 10000 3.45 324 23:20 30.08.2022
1991 Clear 32 1010 27 10000 3.9 343 21:41 30.08.2022
1992 Clear 32 1010 29 10000 4.46 354 20:57 30.08.2022
1993 Clear 36 1008 14 10000 2.69 318 18:23 30.08.2022
1994 Clear 40 1008 7 10000 1.8 180 15:23 30.08.2022
1995 Clear 40 1010 7 10000 2.55 191 13:24 30.08.2022
1996 Clear 38 1011 10 10000 2.44 177 11:21 30.08.2022
1997 Clear 38 1011 10 10000 2.44 177 10:49 30.08.2022
1998 Clear 32 1012 31 10000 1.41 313 07:42 30.08.2022
1999 Clear 29 1010 28 10000 3.17 256 02:34 30.08.2022
2000 Clear 31 1010 23 10000 2.28 10 23:20 29.08.2022
2001 Clear 32 1010 22 10000 2.6 356 22:28 29.08.2022
2002 Clear 33 1010 17 10000 2.96 311 21:26 29.08.2022
2003 Clear 33 1009 18 10000 2.67 314 19:54 29.08.2022
2004 Clear 37 1008 9 10000 4.45 126 17:58 29.08.2022
2005 Clear 39 1008 8 10000 4.64 126 17:25 29.08.2022
2006 Clear 39 1007 8 10000 4.37 126 16:40 29.08.2022
2007 Clear 40 1008 7 10000 2.82 140 14:47 29.08.2022
2008 Clear 40 1009 8 10000 3.39 172 13:23 29.08.2022
2009 Clear 38 1010 10 10000 2.48 201 11:20 29.08.2022
2010 Clear 36 1011 14 10000 1.99 214 10:19 29.08.2022
2011 Clear 34 1011 18 10000 1.18 230 08:37 29.08.2022
2012 Clear 28 1011 23 10000 2.16 316 05:52 29.08.2022
2013 Clear 29 1009 16 10000 0.18 63 01:24 29.08.2022
2014 Clear 32 1009 14 10000 1.53 305 22:47 28.08.2022
2015 Clear 32 1008 14 10000 0.41 180 21:44 28.08.2022
2016 Clear 32 1009 15 10000 2.45 328 20:56 28.08.2022
2017 Clear 34 1008 12 10000 1.54 107 19:44 28.08.2022
2018 Clear 36 1007 10 10000 3.67 115 18:22 28.08.2022
2019 Clear 36 1007 10 10000 3.67 115 17:40 28.08.2022
2020 Clear 38 1007 8 10000 2.81 115 16:32 28.08.2022
2021 Clear 39 1007 8 10000 3.12 138 14:44 28.08.2022
2022 Clear 39 1008 9 10000 3.72 150 12:49 28.08.2022
2023 Clear 37 1009 12 10000 3.84 167 10:51 28.08.2022
2024 Clear 36 1009 14 10000 3.6 172 09:57 28.08.2022
2025 Clear 34 1010 15 10000 2.84 151 08:39 28.08.2022
2026 Clear 32 1010 19 10000 2.17 132 07:48 28.08.2022
2027 Clear 26 1009 33 10000 1.46 3 03:44 28.08.2022
2028 Clear 28 1009 35 10000 1.6 335 00:33 28.08.2022
2029 Clear 29 1008 38 10000 4.01 337 22:41 27.08.2022
2030 Clear 30 1008 38 10000 4.68 326 22:18 27.08.2022
2031 Clear 31 1008 35 10000 4.78 354 20:27 27.08.2022
2032 Clear 33 1007 22 10000 3.38 8 18:42 27.08.2022
2033 Clear 38 1006 10 10000 1.44 133 16:25 27.08.2022
2034 Clear 38 1006 10 10000 1.44 133 15:30 27.08.2022
2035 Clear 38 1007 10 10000 3.34 191 12:55 27.08.2022
2036 Clear 37 1007 11 10000 2.1 185 11:56 27.08.2022
2037 Clear 34 1008 15 10000 1.56 100 09:52 27.08.2022
2038 Clear 32 1009 20 10000 1.82 63 09:25 27.08.2022
2039 Clear 23 1008 58 10000 5.47 321 05:24 27.08.2022
2040 Clear 26 1007 47 10000 5.79 318 00:51 27.08.2022
2041 Clear 27 1007 45 10000 5.42 328 23:35 26.08.2022
2042 Clear 28 1007 44 10000 6.25 341 21:45 26.08.2022
2043 Clear 28 1007 44 10000 7.52 333 19:50 26.08.2022
2044 Clear 33 1006 22 10000 5.12 322 17:49 26.08.2022
2045 Clear 36 1005 15 10000 2.43 281 15:45 26.08.2022
2046 Clear 36 1005 15 10000 2.85 263 14:59 26.08.2022
2047 Clear 35 1006 16 10000 1.71 262 12:56 26.08.2022
2048 Clear 35 1007 17 10000 1.53 290 11:47 26.08.2022
2049 Clear 34 1008 18 10000 1.77 316 11:21 26.08.2022
2050 Clear 29 1009 28 10000 3.67 338 08:21 26.08.2022
2051 Clear 25 1008 35 10000 2.48 323 03:51 26.08.2022
2052 Clear 27 1007 33 10000 4.71 315 23:47 25.08.2022
2053 Clear 27 1007 32 10000 5.16 330 22:39 25.08.2022
2054 Clear 29 1007 31 10000 5.31 340 20:54 25.08.2022
2055 Clear 29 1007 31 10000 5.31 340 20:54 25.08.2022
2056 Clear 29 1007 29 10000 6.81 333 19:35 25.08.2022
2057 Clear 32 1006 22 10000 7.42 335 18:29 25.08.2022
2058 Clear 32 1006 22 10000 7.42 335 17:31 25.08.2022
2059 Clear 35 1005 17 10000 6.59 320 16:45 25.08.2022
2060 Clear 36 1005 16 10000 6.27 308 15:30 25.08.2022
2061 Clear 36 1006 15 10000 3.75 318 13:58 25.08.2022
2062 Clear 34 1008 17 10000 4.3 311 11:21 25.08.2022
2063 Clear 34 1008 17 10000 4.3 311 10:42 25.08.2022
2064 Clear 29 1009 21 10000 3.77 318 07:35 25.08.2022
2065 Clear 24 1009 29 10000 3.81 315 03:44 25.08.2022
2066 Clear 24 1009 39 10000 4.36 327 23:37 24.08.2022
2067 Clear 24 1010 37 10000 4.34 325 22:56 24.08.2022
2068 Clear 25 1010 34 10000 4.29 320 21:55 24.08.2022
2069 Clear 26 1010 31 10000 4.33 316 21:28 24.08.2022
2070 Clear 27 1009 27 10000 4.63 312 19:56 24.08.2022
2071 Clear 33 1007 14 10000 7.21 294 17:28 24.08.2022
2072 Clear 34 1007 10 10000 7.15 293 15:54 24.08.2022
2073 Clear 35 1007 9 10000 6.16 290 15:28 24.08.2022
2074 Clear 35 1008 9 10000 5.18 297 12:52 24.08.2022
2075 Clear 35 1008 9 10000 5.18 297 12:52 24.08.2022
2076 Clear 32 1009 15 10000 5.24 300 11:21 24.08.2022
2077 Clear 27 1010 30 10000 5.11 297 08:59 24.08.2022
2078 Clear 22 1011 58 10000 5.26 310 06:40 24.08.2022
2079 Clear 22 1010 64 10000 4.26 309 00:55 24.08.2022
2080 Clear 23 1011 58 10000 4.1 319 22:49 23.08.2022
2081 Clear 24 1011 53 10000 4.39 318 22:18 23.08.2022
2082 Clear 25 1011 46 10000 4.87 311 20:49 23.08.2022
2083 Clear 27 1010 34 10000 6.8 294 19:25 23.08.2022
2084 Clear 29 1009 27 10000 7.75 282 18:21 23.08.2022
2085 Clear 29 1009 27 10000 7.75 282 17:30 23.08.2022
2086 Clear 31 1008 25 10000 8.69 286 16:31 23.08.2022
2087 Clear 33 1008 23 10000 7.7 289 14:54 23.08.2022
2088 Clear 33 1008 23 10000 7.28 292 12:46 23.08.2022
2089 Clear 30 1010 32 10000 5.8 299 11:19 23.08.2022
2090 Clear 30 1010 32 10000 5.8 299 10:33 23.08.2022
2091 Clear 28 1010 39 10000 5.49 298 09:46 23.08.2022
2092 Clear 26 1011 49 10000 5.29 298 08:47 23.08.2022
2093 Clear 24 1011 58 10000 5.3 300 08:19 23.08.2022
2094 Clear 24 1011 58 10000 5.3 300 07:33 23.08.2022
2095 Clear 21 1011 80 10000 4.37 316 06:26 23.08.2022
2096 Clear 22 1009 60 10000 3.47 299 01:55 23.08.2022
2097 Clear 23 1009 59 10000 2.67 304 00:27 23.08.2022
2098 Clear 23 1009 59 10000 2.67 304 23:32 22.08.2022
2099 Clear 24 1009 55 10000 3.35 314 22:29 22.08.2022
2100 Clear 25 1009 51 10000 4.15 311 21:22 22.08.2022
2101 Clear 26 1009 44 10000 5.55 306 19:47 22.08.2022
2102 Clear 27 1008 37 10000 6.64 296 18:38 22.08.2022
2103 Clear 27 1008 37 10000 6.64 296 18:38 22.08.2022
2104 Clear 31 1006 23 10000 7.65 274 16:31 22.08.2022
2105 Clear 32 1006 23 10000 7.27 275 15:38 22.08.2022
2106 Clear 32 1007 21 10000 7.5 271 12:57 22.08.2022
2107 Clear 30 1007 23 10000 6.04 271 10:26 22.08.2022
2108 Clear 27 1008 33 10000 5.6 276 07:41 22.08.2022
2109 Clear 24 1006 42 10000 3.39 291 02:56 22.08.2022
2110 Clear 25 1005 40 10000 3.59 307 00:38 22.08.2022
2111 Clear 25 1005 42 10000 4.15 315 00:18 22.08.2022
2112 Clear 26 1006 45 10000 5.15 329 22:18 21.08.2022
2113 Clear 27 1006 45 10000 5.69 327 21:23 21.08.2022
2114 Clear 26 1006 45 10000 5.52 326 20:36 21.08.2022
2115 Clear 29 1005 39 10000 7.35 305 19:24 21.08.2022
2116 Clear 33 1004 20 10000 6.7 271 16:55 21.08.2022
2117 Clear 34 1004 19 10000 6.99 274 15:53 21.08.2022
2118 Clear 34 1003 19 10000 7.16 277 15:20 21.08.2022
2119 Clear 34 1004 19 10000 7.18 282 13:52 21.08.2022
2120 Clear 34 1004 21 10000 6.91 290 13:26 21.08.2022
2121 Clear 34 1005 23 10000 6.59 297 11:34 21.08.2022
2122 Clear 31 1006 32 10000 6.61 306 09:31 21.08.2022
2123 Clear 29 1006 40 10000 6.78 306 08:56 21.08.2022
2124 Clear 29 1006 37 10000 6.5 305 08:38 21.08.2022
2125 Clear 25 1007 56 10000 5.67 304 07:26 21.08.2022
2126 Clear 23 1006 61 10000 4.41 312 03:40 21.08.2022
2127 Clear 24 1006 57 10000 4.08 307 00:22 21.08.2022
2128 Clear 25 1006 56 10000 3.73 308 22:37 20.08.2022
2129 Clear 25 1006 54 10000 3.91 313 21:34 20.08.2022
2130 Clear 26 1007 51 10000 4.2 316 20:40 20.08.2022
2131 Clear 27 1006 46 10000 4.92 311 19:40 20.08.2022
2132 Clear 27 1006 46 10000 4.92 311 19:40 20.08.2022
2133 Clear 28 1005 42 10000 6.33 301 18:30 20.08.2022
2134 Clear 30 1005 34 10000 7.9 294 17:50 20.08.2022
2135 Clear 31 1004 25 10000 7.84 287 16:52 20.08.2022
2136 Clear 32 1004 20 10000 7.19 289 15:30 20.08.2022
2137 Clear 33 1005 14 10000 6.75 281 13:24 20.08.2022
2138 Clear 32 1005 15 10000 5.99 285 11:49 20.08.2022
2139 Clear 30 1007 20 10000 5.26 287 09:37 20.08.2022
2140 Clear 28 1007 26 10000 5.02 286 08:31 20.08.2022
2141 Clear 21 1007 45 10000 3.18 300 05:52 20.08.2022
2142 Clear 23 1007 56 10000 2.61 301 00:59 20.08.2022
2143 Clear 23 1007 56 10000 2.61 301 00:35 20.08.2022
2144 Clear 24 1007 57 10000 2.43 312 23:18 19.08.2022
2145 Clear 24 1007 54 10000 4.22 316 21:41 19.08.2022
2146 Clear 27 1006 45 10000 6.45 314 20:20 19.08.2022
2147 Clear 30 1004 31 10000 8.02 295 17:35 19.08.2022
2148 Clear 35 1004 15 10000 8.17 279 15:19 19.08.2022
2149 Clear 36 1004 11 10000 7.69 285 13:21 19.08.2022
2150 Clear 33 1005 14 10000 6.33 293 10:53 19.08.2022
2151 Clear 31 1005 18 10000 6.52 298 10:21 19.08.2022
2152 Clouds 24 1006 34 10000 5.36 311 06:37 19.08.2022
2153 Clear 24 1005 36 10000 5.04 321 00:57 19.08.2022
2154 Clear 25 1005 38 10000 4.32 316 00:28 19.08.2022
2155 Clear 25 1005 38 10000 4.32 316 23:38 18.08.2022
2156 Clear 26 1005 38 10000 4.49 322 22:49 18.08.2022
2157 Clear 27 1004 37 10000 5.81 322 21:56 18.08.2022
2158 Clear 27 1004 35 10000 6.02 320 21:26 18.08.2022
2159 Clear 28 1004 32 10000 6.61 323 19:56 18.08.2022
2160 Clear 30 1003 29 10000 6.68 319 19:28 18.08.2022
2161 Clear 33 1003 23 10000 6.77 305 17:50 18.08.2022
2162 Clear 35 1003 19 10000 7.17 296 16:58 18.08.2022
2163 Clear 37 1003 15 10000 7.21 290 14:52 18.08.2022
2164 Clear 37 1003 16 10000 6.81 294 14:19 18.08.2022
2165 Clear 37 1003 15 10000 6.25 299 12:55 18.08.2022
2166 Clear 36 1004 15 10000 6.09 302 11:42 18.08.2022
2167 Clear 33 1005 18 10000 5.93 305 09:43 18.08.2022
2168 Clear 30 1006 22 10000 6.25 310 08:40 18.08.2022
2169 Clear 26 1006 35 10000 5.63 313 07:19 18.08.2022
2170 Clear 23 1006 45 10000 5.43 320 03:57 18.08.2022
2171 Clear 26 1006 37 10000 5.1 317 23:35 17.08.2022
2172 Clear 27 1006 35 10000 6.12 329 21:46 17.08.2022
2173 Clear 29 1006 32 10000 6.12 327 20:19 17.08.2022
2174 Clear 30 1005 31 10000 6.73 324 19:29 17.08.2022
2175 Clear 33 1004 26 10000 6.91 315 17:36 17.08.2022
2176 Clear 35 1004 22 10000 7.45 303 16:35 17.08.2022
2177 Clear 37 1004 18 10000 7.36 300 15:28 17.08.2022
2178 Clear 38 1004 18 10000 6.66 301 13:30 17.08.2022
2179 Clear 36 1005 19 10000 5.49 301 11:38 17.08.2022
2180 Clear 33 1007 23 10000 5.88 307 09:31 17.08.2022
2181 Clear 29 1007 33 10000 6.01 312 08:24 17.08.2022
2182 Clear 24 1007 54 10000 5.87 326 03:39 17.08.2022
2183 Clear 26 1008 43 10000 5.7 319 00:24 17.08.2022
2184 Clear 27 1008 42 10000 4.57 296 22:41 16.08.2022
2185 Clear 28 1008 39 10000 5.76 325 20:59 16.08.2022
2186 Clear 29 1008 38 10000 6.39 327 19:54 16.08.2022
2187 Clear 30 1007 35 10000 7.16 325 18:44 16.08.2022
2188 Clear 33 1006 24 10000 6.89 323 17:53 16.08.2022
2189 Clear 37 1006 15 10000 6.7 314 15:59 16.08.2022
2190 Clear 37 1006 14 10000 5.82 313 14:55 16.08.2022
2191 Clear 37 1006 14 10000 5.82 313 14:37 16.08.2022
2192 Clear 37 1006 14 10000 5.24 308 13:54 16.08.2022
2193 Clear 35 1007 13 10000 4.4 301 11:39 16.08.2022
2194 Clear 32 1009 18 10000 3.81 316 09:52 16.08.2022
2195 Clear 29 1009 24 10000 3.97 313 08:48 16.08.2022
2196 Clear 27 1010 32 10000 4.47 310 08:18 16.08.2022
2197 Clear 22 1009 58 10000 5.19 324 04:25 16.08.2022
2198 Clear 24 1009 50 10000 5.56 320 22:56 15.08.2022
2199 Clear 25 1009 47 10000 5.99 322 21:56 15.08.2022
2200 Clear 25 1009 47 10000 5.99 322 21:36 15.08.2022
2201 Clear 26 1008 39 10000 7.36 327 20:29 15.08.2022
2202 Clear 28 1007 33 10000 7.98 323 18:46 15.08.2022
2203 Clear 31 1007 27 10000 7.89 319 17:56 15.08.2022
2204 Clear 34 1006 20 10000 6.84 300 16:23 15.08.2022
2205 Clear 35 1006 19 10000 6.61 305 14:40 15.08.2022
2206 Clear 34 1006 17 10000 5.83 311 13:19 15.08.2022
2207 Clear 32 1008 21 10000 5.71 313 10:36 15.08.2022
2208 Clear 27 1008 37 10000 6.65 316 08:54 15.08.2022
2209 Clear 22 1008 65 10000 6.9 322 06:49 15.08.2022
2210 Clear 20 1008 79 10000 5.6 320 03:56 15.08.2022
2211 Clear 22 1007 66 10000 7.03 317 23:38 14.08.2022
2212 Clear 22 1007 66 10000 7.03 317 23:38 14.08.2022
2213 Clear 23 1007 62 10000 6.17 317 21:49 14.08.2022
2214 Clear 24 1007 57 10000 6.4 319 20:54 14.08.2022
2215 Clear 25 1007 51 10000 7.31 317 19:45 14.08.2022
2216 Clear 27 1006 44 10000 7.55 309 18:41 14.08.2022
2217 Clear 28 1005 37 10000 8.31 300 17:41 14.08.2022
2218 Clear 30 1005 31 10000 9.76 298 16:30 14.08.2022
2219 Clear 32 1004 28 10000 9.42 295 15:45 14.08.2022
2220 Clear 33 1005 25 10000 8.9 297 13:52 14.08.2022
2221 Clear 33 1005 25 10000 8.9 297 13:34 14.08.2022
2222 Clear 32 1005 27 10000 8.34 298 12:54 14.08.2022
2223 Clear 31 1006 30 10000 7.77 300 11:31 14.08.2022
2224 Clear 28 1007 42 10000 7.48 303 10:26 14.08.2022
2225 Clear 23 1008 65 10000 7.41 306 08:20 14.08.2022
2226 Clear 20 1008 86 10000 5.54 299 06:20 14.08.2022
2227 Clear 20 1007 85 10000 6.01 305 02:35 14.08.2022
2228 Clear 21 1007 78 10000 7.39 311 23:36 13.08.2022
2229 Clear 23 1007 70 10000 7.45 311 22:28 13.08.2022
2230 Clear 24 1007 62 10000 7.49 311 20:58 13.08.2022
2231 Clear 25 1007 52 10000 7.72 311 20:19 13.08.2022
2232 Clear 26 1006 43 10000 8.02 305 19:20 13.08.2022
2233 Clear 29 1005 35 10000 8.63 296 17:36 13.08.2022
2234 Clear 33 1004 24 10000 9.41 293 15:23 13.08.2022
2235 Clear 33 1005 24 10000 8.49 293 14:24 13.08.2022
2236 Clear 33 1004 24 10000 8.63 292 13:38 13.08.2022
2237 Clear 32 1006 23 10000 7.96 299 11:52 13.08.2022
2238 Clear 29 1007 32 10000 7.13 306 09:58 13.08.2022
2239 Clear 24 1008 53 10000 6.87 311 08:23 13.08.2022
2240 Clear 20 1008 80 10000 5.6 320 04:21 13.08.2022
2241 Clear 22 1008 62 10000 6.37 327 23:47 12.08.2022
2242 Clear 24 1008 57 10000 5.98 325 21:42 12.08.2022
2243 Clear 25 1008 50 10000 6.68 325 20:51 12.08.2022
2244 Clear 26 1008 43 10000 7.47 321 19:39 12.08.2022
2245 Clear 28 1007 36 10000 7.37 315 18:46 12.08.2022
2246 Clear 32 1005 24 10000 8.89 296 16:37 12.08.2022
2247 Clear 34 1005 20 10000 8.41 293 15:49 12.08.2022
2248 Clear 35 1005 16 10000 7.37 296 14:29 12.08.2022
2249 Clear 35 1006 15 10000 7.08 304 12:53 12.08.2022
2250 Clear 33 1007 17 10000 6.73 306 10:35 12.08.2022
2251 Clear 26 1009 40 10000 5.95 313 07:50 12.08.2022
2252 Clear 23 1009 50 10000 5.24 314 06:39 12.08.2022
2253 Clear 21 1009 60 10000 3.88 305 02:39 12.08.2022
2254 Clear 23 1008 58 10000 5.56 314 00:26 12.08.2022
2255 Clear 23 1008 58 10000 5.56 314 23:35 11.08.2022
2256 Clear 24 1008 57 10000 5.63 313 22:27 11.08.2022
2257 Clear 24 1008 57 10000 5.63 313 21:43 11.08.2022
2258 Clear 25 1008 54 10000 6.35 315 20:59 11.08.2022
2259 Clear 26 1008 48 10000 7.23 316 20:20 11.08.2022
2260 Clear 26 1008 48 10000 7.56 318 19:32 11.08.2022
2261 Clear 30 1006 33 10000 8.27 304 17:48 11.08.2022
2262 Clear 32 1006 29 10000 9.66 300 16:37 11.08.2022
2263 Clear 34 1005 24 10000 8.83 296 15:25 11.08.2022
2264 Clear 34 1006 24 10000 8.28 293 13:37 11.08.2022
2265 Clear 31 1007 30 10000 6.89 301 10:58 11.08.2022
2266 Clear 24 1009 62 10000 5.13 297 07:49 11.08.2022
2267 Clear 21 1008 84 10000 4.83 309 03:57 11.08.2022
2268 Clear 22 1007 79 10000 6.1 314 01:33 11.08.2022
2269 Clear 23 1007 68 10000 7.39 316 22:36 10.08.2022
2270 Clear 24 1007 65 10000 7.48 316 21:44 10.08.2022
2271 Clear 25 1007 59 10000 7.61 315 20:55 10.08.2022
2272 Clear 26 1007 51 10000 8.56 316 19:32 10.08.2022
2273 Clear 28 1006 42 10000 8.79 310 18:42 10.08.2022
2274 Clear 32 1005 30 10000 9.41 298 16:55 10.08.2022
2275 Clear 34 1005 24 10000 8.27 293 13:36 10.08.2022
2276 Clear 34 1005 24 10000 8.27 293 13:36 10.08.2022
2277 Clear 34 1005 24 10000 8.27 293 13:36 10.08.2022
2278 Clear 34 1005 25 10000 7.96 291 12:48 10.08.2022
2279 Clear 29 1007 37 10000 6.57 297 09:56 10.08.2022
2280 Clear 27 1008 46 10000 7.16 302 08:35 10.08.2022
2281 Clear 23 1008 69 10000 7.36 310 07:21 10.08.2022
2282 Clear 21 1007 79 10000 6.91 318 03:35 10.08.2022
2283 Clear 22 1008 65 10000 7.07 324 00:49 10.08.2022
2284 Clear 24 1008 55 10000 7.32 323 23:25 09.08.2022
2285 Clear 25 1008 50 10000 6.87 319 21:37 09.08.2022
2286 Clear 26 1008 44 10000 6.67 314 20:42 09.08.2022
2287 Clear 29 1007 36 10000 7.85 308 18:48 09.08.2022
2288 Clear 31 1006 31 10000 8.38 298 17:31 09.08.2022
2289 Clear 32 1006 27 10000 9.53 296 16:42 09.08.2022
2290 Clear 34 1005 24 10000 8.81 296 15:59 09.08.2022
2291 Clear 35 1006 21 10000 8.5 290 14:30 09.08.2022
2292 Clear 33 1007 23 10000 6.41 295 10:45 09.08.2022
2293 Clear 28 1008 32 10000 6.59 303 08:52 09.08.2022
2294 Clear 26 1009 42 10000 6.74 307 07:54 09.08.2022
2295 Clear 22 1008 56 10000 6.36 318 04:43 09.08.2022
2296 Clear 24 1009 42 10000 4.46 317 23:58 08.08.2022
2297 Clear 25 1009 41 10000 2.11 296 23:24 08.08.2022
2298 Clear 25 1009 41 10000 2.11 296 22:38 08.08.2022
2299 Clear 25 1008 40 10000 4.7 325 21:40 08.08.2022
2300 Clear 27 1007 34 10000 7.77 321 19:58 08.08.2022
2301 Clear 27 1007 34 10000 7.77 321 19:34 08.08.2022
2302 Clear 32 1006 29 10000 8.26 301 17:56 08.08.2022
2303 Clear 35 1005 23 10000 7.76 291 15:47 08.08.2022
2304 Clear 36 1005 23 10000 7.54 282 14:46 08.08.2022
2305 Clear 35 1005 23 10000 7.29 281 12:30 08.08.2022
2306 Clear 31 1007 32 10000 6.85 295 10:28 08.08.2022
2307 Clear 27 1007 36 10000 6.66 304 07:51 08.08.2022
2308 Clear 23 1006 43 10000 4.56 322 03:42 08.08.2022
2309 Clear 27 1005 35 10000 4.41 324 23:28 07.08.2022
2310 Clear 27 1005 34 10000 5.39 329 21:41 07.08.2022
2311 Clear 28 1005 33 10000 5.92 332 20:55 07.08.2022
2312 Clear 29 1004 32 10000 6.63 328 20:18 07.08.2022
2313 Clear 29 1004 32 10000 6.63 328 19:51 07.08.2022
2314 Clear 31 1003 29 10000 6.38 313 18:49 07.08.2022
2315 Clear 34 1002 24 10000 7.75 299 17:22 07.08.2022
2316 Clear 34 1002 24 10000 7.75 299 16:51 07.08.2022
2317 Clear 36 1002 22 10000 7.7 288 15:29 07.08.2022
2318 Clear 37 1002 21 10000 7.74 288 13:55 07.08.2022
2319 Clear 36 1003 21 10000 7.5 288 12:40 07.08.2022
2320 Clear 34 1004 23 10000 6.84 297 10:48 07.08.2022
2321 Clear 32 1004 27 10000 6.84 302 09:56 07.08.2022
2322 Clear 23 1005 57 10000 6.51 329 04:37 07.08.2022
2323 Clear 25 1005 45 10000 5.91 315 02:18 07.08.2022
2324 Clear 27 1005 41 10000 4.02 301 22:34 06.08.2022
2325 Clear 28 1004 40 10000 6.43 316 21:52 06.08.2022
2326 Clear 29 1004 39 10000 7.79 323 19:46 06.08.2022
2327 Clear 31 1003 34 10000 8.19 323 18:38 06.08.2022
2328 Clear 33 1003 28 10000 8.9 312 17:45 06.08.2022
2329 Clear 37 1002 22 10000 8.68 295 16:24 06.08.2022
2330 Clear 39 1003 20 10000 8.28 288 13:51 06.08.2022
2331 Clear 38 1004 19 10000 6.52 297 12:27 06.08.2022
2332 Clear 37 1004 19 10000 6.35 303 11:21 06.08.2022
2333 Clear 35 1005 20 10000 6.72 314 09:41 06.08.2022
2334 Clear 29 1006 31 10000 6.13 303 07:28 06.08.2022
2335 Clear 28 1006 32 10000 4.27 344 01:47 06.08.2022
2336 Clear 30 1006 38 10000 5.59 311 22:36 05.08.2022
2337 Clouds 30 1006 38 10000 5.57 289 21:34 05.08.2022
2338 Clear 33 1004 33 10000 7.44 320 19:20 05.08.2022
2339 Clear 33 1004 33 10000 7.44 320 18:44 05.08.2022
2340 Clear 38 1003 22 10000 8.52 301 16:55 05.08.2022
2341 Clear 38 1003 22 10000 8.52 301 16:37 05.08.2022
2342 Clear 40 1003 18 10000 7.86 303 15:19 05.08.2022
2343 Clear 41 1003 17 10000 7.93 313 13:39 05.08.2022
2344 Clear 41 1003 18 10000 7.93 318 13:20 05.08.2022
2345 Clear 40 1004 18 10000 7.66 320 12:23 05.08.2022
2346 Clear 37 1005 22 10000 7.04 319 10:30 05.08.2022
2347 Clear 32 1006 31 10000 7.46 318 07:58 05.08.2022
2348 Clear 32 1006 31 10000 7.46 318 07:58 05.08.2022
2349 Clear 28 1006 42 10000 6.85 313 05:30 05.08.2022
2350 Clear 30 1006 33 10000 5.73 321 23:51 04.08.2022
2351 Clear 31 1006 29 10000 7.05 332 22:25 04.08.2022
2352 Clear 32 1006 30 10000 7.49 335 21:25 04.08.2022
2353 Clear 32 1006 30 10000 7.49 335 20:42 04.08.2022
2354 Clear 32 1005 29 10000 8.09 329 19:37 04.08.2022
2355 Clear 33 1005 28 10000 8.67 327 18:36 04.08.2022
2356 Clear 36 1004 21 10000 8.44 331 17:37 04.08.2022
2357 Clear 41 1004 11 10000 3.94 315 13:57 04.08.2022
2358 Clear 40 1005 11 10000 3.18 308 12:44 04.08.2022
2359 Clear 38 1006 13 10000 2.84 304 10:51 04.08.2022
2360 Clear 32 1007 18 10000 3.57 315 07:53 04.08.2022
2361 Clear 27 1007 27 10000 4.25 321 05:46 04.08.2022
2362 Clouds 27 1006 32 10000 5.7 321 02:29 04.08.2022
2363 Clear 28 1006 36 10000 6.34 322 23:45 03.08.2022
2364 Clear 28 1007 39 10000 5.99 327 22:30 03.08.2022
2365 Clouds 29 1006 39 10000 5.88 333 20:50 03.08.2022
2366 Clouds 30 1006 37 10000 6.94 332 19:44 03.08.2022
2367 Clear 33 1005 24 10000 6.27 324 18:36 03.08.2022
2368 Clear 38 1004 11 10000 6.19 294 16:25 03.08.2022
2369 Clear 38 1004 11 10000 6.19 294 15:32 03.08.2022
2370 Clear 38 1005 10 10000 4.94 299 12:41 03.08.2022
2371 Clear 32 1007 17 10000 4.38 303 08:54 03.08.2022
2372 Clear 24 1006 39 10000 4.09 313 04:47 03.08.2022
2373 Clear 24 1006 40 10000 4.16 316 03:52 03.08.2022
2374 Clear 25 1005 40 10000 4.3 320 01:45 03.08.2022
2375 Clear 26 1006 43 10000 4.91 325 23:27 02.08.2022
2376 Clear 27 1005 42 10000 5.06 328 21:59 02.08.2022
2377 Clear 27 1005 42 10000 5.06 328 21:40 02.08.2022
2378 Clear 29 1005 36 10000 6.66 330 19:38 02.08.2022
2379 Clear 35 1003 19 10000 6.8 291 16:42 02.08.2022
2380 Clear 36 1003 17 10000 6.98 296 13:40 02.08.2022
2381 Clear 34 1005 20 10000 5.85 303 10:34 02.08.2022
2382 Clear 27 1006 35 10000 6.22 307 08:29 02.08.2022
2383 Clear 28 1006 33 10000 6.17 305 07:50 02.08.2022
2384 Clear 22 1006 62 10000 4.27 313 04:56 02.08.2022
2385 Clear 24 1005 51 10000 4.36 324 02:20 02.08.2022
2386 Clear 25 1005 52 10000 3.9 322 23:23 01.08.2022
2387 Clear 26 1005 50 10000 4.21 316 21:37 01.08.2022
2388 Clear 28 1004 41 10000 6 304 20:19 01.08.2022
2389 Clouds 30 1004 37 10000 7.16 304 18:55 01.08.2022
2390 Clear 34 1003 21 10000 7.08 287 16:58 01.08.2022
2391 Clear 34 1003 21 10000 7.08 287 16:39 01.08.2022
2392 Clear 35 1002 18 10000 7.09 285 15:45 01.08.2022
2393 Clear 35 1002 16 10000 6.74 285 14:57 01.08.2022
2394 Clear 36 1002 12 10000 5.99 289 13:32 01.08.2022
2395 Clear 32 1004 17 10000 4.07 287 11:18 01.08.2022
2396 Clear 30 1005 19 10000 3.88 293 09:34 01.08.2022
2397 Clear 26 1005 25 10000 4.63 300 07:37 01.08.2022
2398 Clear 21 1004 35 10000 3.97 315 04:37 01.08.2022
2399 Clear 23 1004 35 10000 4.44 317 02:24 01.08.2022
2400 Clear 24 1004 43 10000 6.3 330 22:54 31.07.2022
2401 Clear 24 1004 43 10000 6.3 330 22:35 31.07.2022
2402 Clear 26 1004 39 10000 7.75 332 20:44 31.07.2022
2403 Clear 31 1002 30 10000 7.26 314 18:52 31.07.2022
2404 Clear 33 1002 22 10000 7.03 294 17:34 31.07.2022
2405 Clear 36 1002 17 10000 7.07 292 14:57 31.07.2022
2406 Clear 37 1002 15 10000 6.08 300 13:20 31.07.2022
2407 Clear 36 1003 15 10000 5.91 301 11:44 31.07.2022
2408 Clear 30 1005 21 10000 6.3 307 09:18 31.07.2022
2409 Clouds 25 1006 37 10000 6.28 315 06:31 31.07.2022
2410 Clouds 23 1005 50 10000 7.19 321 02:31 31.07.2022
2411 Clouds 26 1006 38 10000 7.4 326 23:23 30.07.2022
2412 Clouds 26 1006 40 10000 7.37 323 21:55 30.07.2022
2413 Clouds 26 1006 40 10000 7.37 323 21:37 30.07.2022
2414 Clouds 27 1006 39 10000 7.43 321 20:38 30.07.2022
2415 Clear 28 1006 38 10000 7.92 321 19:57 30.07.2022
2416 Clear 32 1004 26 10000 9.14 311 18:23 30.07.2022
2417 Clear 35 1004 19 10000 8.99 301 16:54 30.07.2022
2418 Clear 37 1003 15 10000 8.29 300 15:35 30.07.2022
2419 Clear 38 1003 14 10000 8.1 311 14:32 30.07.2022
2420 Clear 38 1004 12 10000 7.61 321 12:43 30.07.2022
2421 Clear 37 1005 12 10000 7.22 322 11:55 30.07.2022
2422 Clear 34 1006 15 10000 7.52 318 10:25 30.07.2022
2423 Clear 34 1006 15 10000 7.52 318 09:45 30.07.2022
2424 Clear 29 1007 29 10000 7.27 319 07:47 30.07.2022
2425 Clear 25 1006 37 10000 5.78 322 02:34 30.07.2022
2426 Clear 25 1007 40 10000 6.63 319 01:43 30.07.2022
2427 Clear 28 1007 38 10000 7.93 329 21:39 29.07.2022
2428 Clear 28 1007 36 10000 8.33 332 20:59 29.07.2022
2429 Clear 29 1007 34 10000 8.36 330 19:48 29.07.2022
2430 Clear 33 1005 23 10000 9.51 315 17:52 29.07.2022
2431 Clear 40 1003 10 10000 8.41 313 15:19 29.07.2022
2432 Clouds 40 1004 9 10000 4.16 314 12:59 29.07.2022
2433 Clouds 38 1006 11 10000 3.7 323 10:35 29.07.2022
2434 Clouds 34 1007 15 10000 4.77 325 08:49 29.07.2022
2435 Clouds 31 1007 22 10000 4.82 319 07:40 29.07.2022
2436 Clouds 27 1006 33 10000 6.11 318 01:47 29.07.2022
2437 Clear 29 1006 30 10000 5.68 330 22:49 28.07.2022
2438 Clear 30 1007 31 10000 6.79 345 21:00 28.07.2022
2439 Clear 30 1007 31 10000 6.79 345 20:30 28.07.2022
2440 Clear 31 1006 30 10000 6.91 337 19:42 28.07.2022
2441 Clear 33 1005 24 10000 7.02 325 18:48 28.07.2022
2442 Clear 36 1004 14 10000 6.51 303 17:43 28.07.2022
2443 Clear 38 1003 10 10000 4.23 302 16:51 28.07.2022
2444 Clear 38 1003 9 10000 1.85 271 15:30 28.07.2022
2445 Clear 38 1004 10 10000 3.25 275 12:58 28.07.2022
2446 Clear 36 1006 14 10000 2.77 292 10:37 28.07.2022
2447 Clear 27 1007 36 10000 3.51 312 06:42 28.07.2022
2448 Clear 23 1006 48 10000 3.91 315 05:29 28.07.2022
2449 Clear 26 1005 41 10000 4.21 314 00:49 28.07.2022
2450 Clear 27 1005 39 10000 5.59 329 22:40 27.07.2022
2451 Clear 28 1005 36 10000 6.19 332 21:28 27.07.2022
2452 Clear 29 1004 33 10000 6.54 332 19:42 27.07.2022
2453 Clear 34 1003 13 10000 6.45 297 17:50 27.07.2022
2454 Clear 37 1002 8 10000 4.75 284 15:52 27.07.2022
2455 Clear 37 1002 8 10000 3.86 280 14:58 27.07.2022
2456 Clear 37 1002 8 10000 3.86 280 14:35 27.07.2022
2457 Clear 35 1003 11 10000 2.67 266 12:50 27.07.2022
2458 Clear 29 1005 22 10000 1.82 302 08:44 27.07.2022
2459 Clear 25 1005 29 10000 4.26 317 07:24 27.07.2022
2460 Clear 22 1005 37 10000 4.68 318 02:42 27.07.2022
2461 Clear 25 1005 39 10000 5.53 326 22:29 26.07.2022
2462 Clear 26 1005 36 10000 6.31 328 21:23 26.07.2022
2463 Clear 26 1005 36 10000 6.31 328 20:43 26.07.2022
2464 Clear 29 1004 25 10000 7.68 317 18:44 26.07.2022
2465 Clear 31 1003 21 10000 7.96 305 18:19 26.07.2022
2466 Clear 33 1003 16 10000 8.53 297 16:32 26.07.2022
2467 Clear 35 1002 13 10000 7.63 292 15:42 26.07.2022
2468 Clear 35 1002 12 10000 7.54 300 13:47 26.07.2022
2469 Clear 34 1003 13 10000 6.36 300 11:40 26.07.2022
2470 Clear 31 1005 20 10000 5.55 302 09:32 26.07.2022
2471 Clear 27 1005 32 10000 5.48 308 07:31 26.07.2022
2472 Clear 24 1004 48 10000 4.15 305 01:21 26.07.2022
2473 Clear 24 1004 46 10000 3.65 304 23:33 25.07.2022
2474 Clear 25 1004 45 10000 3.91 316 22:33 25.07.2022
2475 Clear 25 1005 43 10000 4.68 320 21:43 25.07.2022
2476 Clear 26 1005 40 10000 6.03 320 20:42 25.07.2022
2477 Clear 28 1004 35 10000 7.06 318 19:51 25.07.2022
2478 Clear 33 1002 20 10000 6.9 296 18:23 25.07.2022
2479 Clear 33 1002 20 10000 6.9 296 17:33 25.07.2022
2480 Clear 35 1002 13 10000 7.12 288 15:37 25.07.2022
2481 Clear 35 1002 15 10000 2.96 282 12:33 25.07.2022
2482 Clear 32 1004 20 10000 2.06 279 10:42 25.07.2022
2483 Clear 25 1005 42 10000 4.33 306 06:52 25.07.2022
2484 Clear 24 1004 44 10000 4.52 303 23:57 24.07.2022
2485 Clear 24 1004 42 10000 4.56 291 23:22 24.07.2022
2486 Clear 24 1004 42 10000 4.56 291 22:41 24.07.2022
2487 Clear 25 1004 42 10000 5.33 293 21:30 24.07.2022
2488 Clear 26 1004 42 10000 5.99 303 20:57 24.07.2022
2489 Clear 26 1004 39 10000 5.9 302 20:32 24.07.2022
2490 Clear 28 1003 32 10000 8.24 306 18:59 24.07.2022
2491 Clear 33 1002 21 10000 9.15 300 16:54 24.07.2022
2492 Clear 35 1001 18 10000 8.45 297 15:54 24.07.2022
2493 Clear 35 1002 17 10000 7.47 304 14:41 24.07.2022
2494 Clear 35 1002 17 10000 7.47 304 14:41 24.07.2022
2495 Clear 35 1002 16 10000 7.36 316 13:43 24.07.2022
2496 Clear 34 1003 19 10000 5.61 308 12:19 24.07.2022
2497 Clear 33 1004 22 10000 5.02 308 11:29 24.07.2022
2498 Clear 31 1005 26 10000 5 311 09:33 24.07.2022
2499 Clear 27 1006 41 10000 6.27 315 07:53 24.07.2022
2500 Clear 24 1006 52 10000 6.42 318 06:55 24.07.2022
2501 Clear 21 1006 65 10000 6.19 315 02:52 24.07.2022
2502 Clear 24 1006 48 10000 5.52 311 22:45 23.07.2022
2503 Clear 25 1007 46 10000 6.2 312 20:47 23.07.2022
2504 Clear 28 1006 34 10000 9.08 310 19:25 23.07.2022
2505 Clear 30 1005 27 10000 9.48 306 18:18 23.07.2022
2506 Clear 33 1004 22 10000 9.84 303 17:27 23.07.2022
2507 Clear 34 1004 19 10000 9.94 305 16:22 23.07.2022
2508 Clear 35 1004 17 10000 9.15 306 15:22 23.07.2022
2509 Clear 35 1004 17 10000 9.15 306 14:52 23.07.2022
2510 Clear 35 1005 17 10000 8.32 310 14:23 23.07.2022
2511 Clear 34 1006 20 10000 6.95 313 11:56 23.07.2022
2512 Clear 32 1007 20 10000 5.69 311 10:41 23.07.2022
2513 Clear 30 1007 23 10000 5.46 312 09:38 23.07.2022
2514 Clear 24 1009 50 10000 5.96 317 07:18 23.07.2022
2515 Clear 21 1008 61 10000 5.25 322 03:37 23.07.2022
2516 Clear 22 1008 52 10000 6.02 321 00:37 23.07.2022
2517 Clear 24 1008 46 10000 5.96 322 21:36 22.07.2022
2518 Clear 25 1008 43 10000 6.45 323 20:31 22.07.2022
2519 Clear 29 1007 31 10000 8.13 317 18:56 22.07.2022
2520 Clear 31 1006 24 10000 7.86 314 17:40 22.07.2022
2521 Clear 35 1005 17 10000 7.92 303 16:26 22.07.2022
2522 Clear 35 1006 17 10000 7.69 316 13:50 22.07.2022
2523 Clear 33 1007 20 10000 7.23 318 10:40 22.07.2022
2524 Clear 28 1008 33 10000 7.29 317 09:25 22.07.2022
2525 Clear 26 1008 42 10000 6.61 316 08:26 22.07.2022
2526 Clear 21 1008 61 10000 4.34 314 04:26 22.07.2022
2527 Clear 23 1008 58 10000 5.63 316 23:45 21.07.2022
2528 Clear 24 1008 56 10000 5.84 315 22:25 21.07.2022
2529 Clear 25 1008 50 10000 6.62 316 20:48 21.07.2022
2530 Clear 28 1006 37 10000 8.27 312 18:54 21.07.2022
2531 Clear 32 1005 23 10000 8.8 295 17:29 21.07.2022
2532 Clear 32 1005 23 10000 8.8 295 16:53 21.07.2022
2533 Clear 34 1005 19 10000 8.15 292 14:52 21.07.2022
2534 Clear 34 1005 18 10000 7.65 290 14:24 21.07.2022
2535 Clear 33 1006 17 10000 7 296 12:27 21.07.2022
2536 Clear 32 1006 18 10000 6.83 301 10:39 21.07.2022
2537 Clear 29 1007 25 10000 7.23 306 09:18 21.07.2022
2538 Clear 29 1007 25 10000 7.23 306 08:45 21.07.2022
2539 Clear 24 1007 46 10000 7.37 308 07:23 21.07.2022
2540 Clear 22 1006 49 10000 8.1 313 03:55 21.07.2022
2541 Clear 24 1007 43 10000 6.76 306 00:24 21.07.2022
2542 Clear 25 1007 40 10000 8.42 317 22:21 20.07.2022
2543 Clear 26 1007 38 10000 8.17 316 20:51 20.07.2022
2544 Clear 27 1007 33 10000 8.39 315 19:50 20.07.2022
2545 Clear 29 1006 28 10000 8.64 314 19:20 20.07.2022
2546 Clear 29 1006 28 10000 8.64 314 18:33 20.07.2022
2547 Clear 31 1006 23 10000 9.48 311 17:55 20.07.2022
2548 Clear 34 1005 20 10000 9.96 306 16:42 20.07.2022
2549 Clear 35 1005 18 10000 9.68 301 15:31 20.07.2022
2550 Clear 37 1005 15 10000 8.48 300 14:18 20.07.2022
2551 Clear 37 1006 12 10000 7.54 309 11:34 20.07.2022
2552 Clear 32 1007 20 10000 6.99 313 08:50 20.07.2022
2553 Clear 25 1007 40 10000 5.66 322 03:47 20.07.2022
2554 Clear 26 1006 40 10000 5.38 314 00:49 20.07.2022
2555 Clear 26 1006 40 10000 5.72 318 23:41 19.07.2022
2556 Clear 27 1006 40 10000 6.69 324 22:33 19.07.2022
2557 Clear 28 1006 39 10000 6.98 327 21:31 19.07.2022
2558 Clear 29 1006 35 10000 7.56 327 20:28 19.07.2022
2559 Clear 32 1005 30 10000 7.41 317 18:58 19.07.2022
2560 Clear 35 1004 21 10000 6.46 297 18:28 19.07.2022
2561 Clear 37 1004 19 10000 7.31 299 16:37 19.07.2022
2562 Clear 39 1004 15 10000 6.02 294 14:57 19.07.2022
2563 Clear 36 1005 15 10000 3.32 290 11:44 19.07.2022
2564 Clear 35 1006 16 10000 3.22 289 10:55 19.07.2022
2565 Clear 31 1006 21 10000 3.97 309 09:26 19.07.2022
2566 Clear 31 1006 21 10000 3.97 309 08:39 19.07.2022
2567 Clear 26 1007 37 10000 4.78 312 07:19 19.07.2022
2568 Clear 24 1007 45 10000 4.52 312 05:48 19.07.2022
2569 Clear 23 1007 46 10000 4.46 313 04:56 19.07.2022
2570 Clear 24 1006 43 10000 4.63 307 01:58 19.07.2022
2571 Clear 25 1005 45 10000 5.76 316 23:50 18.07.2022
2572 Clear 26 1005 45 10000 6.27 321 23:19 18.07.2022
2573 Clear 26 1006 45 10000 6.34 326 22:22 18.07.2022
2574 Clear 27 1006 43 10000 6.55 331 20:57 18.07.2022
2575 Clear 28 1005 39 10000 7.37 329 19:52 18.07.2022
2576 Clear 33 1003 28 10000 7.85 303 17:53 18.07.2022
2577 Clear 36 1003 19 10000 7.35 304 16:28 18.07.2022
2578 Clear 36 1003 18 10000 6.91 307 15:19 18.07.2022
2579 Clear 36 1003 17 10000 6.45 311 13:31 18.07.2022
2580 Clear 35 1004 20 10000 5.09 301 11:34 18.07.2022
2581 Clear 31 1006 32 10000 4.7 304 09:54 18.07.2022
2582 Clear 26 1006 50 10000 5.26 310 07:54 18.07.2022
2583 Clear 21 1006 70 10000 4.42 319 03:32 18.07.2022
2584 Clear 24 1006 56 10000 4.97 315 22:56 17.07.2022
2585 Clear 24 1006 56 10000 4.97 315 22:31 17.07.2022
2586 Clear 25 1006 53 10000 5.27 322 21:39 17.07.2022
2587 Clear 26 1006 49 10000 5.99 324 20:46 17.07.2022
2588 Clear 27 1006 40 10000 6.53 324 19:50 17.07.2022
2589 Clear 29 1005 33 10000 7.36 319 19:22 17.07.2022
2590 Clear 31 1004 25 10000 7.52 308 17:54 17.07.2022
2591 Clear 31 1004 25 10000 7.52 308 17:36 17.07.2022
2592 Clear 33 1004 21 10000 7.68 294 16:33 17.07.2022
2593 Clear 34 1004 19 10000 7.29 288 15:50 17.07.2022
2594 Clear 35 1004 16 10000 6.68 305 13:51 17.07.2022
2595 Clear 35 1005 16 10000 6.2 301 12:56 17.07.2022
2596 Clear 30 1006 24 10000 5.6 304 10:21 17.07.2022
2597 Clear 25 1007 39 10000 5.68 311 07:32 17.07.2022
2598 Clear 20 1007 64 10000 5.75 320 02:35 17.07.2022
2599 Clear 21 1008 64 10000 6.88 328 00:33 17.07.2022
2600 Clear 22 1008 59 10000 6.99 324 22:43 16.07.2022
2601 Clear 23 1008 53 10000 6.91 323 20:45 16.07.2022
2602 Clear 27 1006 38 10000 8.1 316 18:59 16.07.2022
2603 Clear 29 1005 32 10000 8.24 309 17:48 16.07.2022
2604 Clear 33 1005 23 10000 8.05 297 16:22 16.07.2022
2605 Clear 34 1005 18 10000 6.93 308 13:35 16.07.2022
2606 Clear 31 1007 21 10000 6.05 313 10:34 16.07.2022
2607 Clear 27 1008 33 10000 6.33 313 09:28 16.07.2022
2608 Clear 27 1008 33 10000 6.33 313 08:41 16.07.2022
2609 Clear 25 1008 40 10000 6.64 317 07:41 16.07.2022
2610 Clear 19 1008 81 10000 6.16 321 03:39 16.07.2022
2611 Clear 20 1008 76 10000 6.57 323 01:39 16.07.2022
2612 Clear 22 1008 61 10000 6.95 318 23:21 15.07.2022
2613 Clear 22 1008 61 10000 6.95 318 22:37 15.07.2022
2614 Clear 24 1008 54 10000 7.04 318 21:18 15.07.2022
2615 Clear 25 1007 48 10000 7.65 316 19:51 15.07.2022
2616 Clear 27 1006 41 10000 7.71 314 18:35 15.07.2022
2617 Clear 29 1005 34 10000 8.26 304 17:34 15.07.2022
2618 Clear 33 1004 25 10000 9.31 299 14:45 15.07.2022
2619 Clear 33 1005 24 10000 7.85 310 12:48 15.07.2022
2620 Clear 31 1006 29 10000 8.38 314 10:54 15.07.2022
2621 Clear 27 1007 43 10000 7.99 311 08:49 15.07.2022
2622 Clear 21 1006 73 10000 6.48 317 05:55 15.07.2022
2623 Clear 21 1006 61 10000 6.35 318 00:52 15.07.2022
2624 Clear 22 1006 59 10000 6.21 319 23:36 14.07.2022
2625 Clear 23 1006 58 10000 6.06 319 22:42 14.07.2022
2626 Clear 23 1006 56 10000 6.01 322 21:43 14.07.2022
2627 Clear 24 1006 52 10000 6.66 320 21:25 14.07.2022
2628 Clear 24 1006 52 10000 6.66 320 20:43 14.07.2022
2629 Clear 25 1006 47 10000 7.96 319 20:19 14.07.2022
2630 Clear 27 1005 40 10000 8.15 314 18:52 14.07.2022
2631 Clear 33 1004 22 10000 9.57 298 16:22 14.07.2022
2632 Clear 33 1004 22 10000 9.57 298 15:30 14.07.2022
2633 Clear 34 1004 21 10000 8.68 305 13:53 14.07.2022
2634 Clear 34 1004 21 10000 8.51 306 13:53 14.07.2022
2635 Clear 33 1005 24 10000 7.69 311 12:58 14.07.2022
2636 Clear 32 1005 26 10000 7.52 316 11:47 14.07.2022
2637 Clear 31 1006 28 10000 7.26 315 11:23 14.07.2022
2638 Clear 29 1007 32 10000 6.93 312 09:54 14.07.2022
2639 Clear 25 1008 45 10000 7.06 315 07:47 14.07.2022
2640 Clear 22 1008 56 10000 5.77 321 01:26 14.07.2022
2641 Clear 22 1008 56 10000 5.77 321 00:53 14.07.2022
2642 Clear 23 1008 57 10000 5.55 313 22:33 13.07.2022
2643 Clear 23 1008 56 10000 5.35 314 21:59 13.07.2022
2644 Clear 24 1008 54 10000 6.38 317 21:18 13.07.2022
2645 Clear 25 1008 48 10000 7.86 317 19:58 13.07.2022
2646 Clear 30 1006 31 10000 9.06 306 17:52 13.07.2022
2647 Clear 32 1005 26 10000 9.41 300 16:46 13.07.2022
2648 Clear 33 1005 22 10000 9.35 298 15:43 13.07.2022
2649 Clear 35 1006 20 10000 7.38 307 13:24 13.07.2022
2650 Clear 33 1007 23 10000 7.43 315 10:46 13.07.2022
2651 Clear 31 1008 27 10000 7.2 316 10:28 13.07.2022
2652 Clear 31 1008 27 10000 7.2 316 10:28 13.07.2022
2653 Clear 29 1008 36 10000 7.27 317 09:27 13.07.2022
2654 Clear 26 1009 45 10000 6.89 316 07:53 13.07.2022
2655 Clear 21 1009 72 10000 5.6 321 03:34 13.07.2022
2656 Clear 23 1008 62 10000 6.1 321 00:24 13.07.2022
2657 Clear 24 1009 58 10000 5.8 322 22:19 12.07.2022
2658 Clear 24 1009 58 10000 5.8 322 21:36 12.07.2022
2659 Clear 25 1009 54 10000 6.07 322 20:42 12.07.2022
2660 Clear 26 1009 48 10000 6.85 322 19:42 12.07.2022
2661 Clear 31 1007 28 10000 7.76 307 18:25 12.07.2022
2662 Clear 34 1007 18 10000 8 300 16:20 12.07.2022
2663 Clear 35 1007 15 10000 7.88 304 14:31 12.07.2022
2664 Clear 35 1007 14 10000 7.27 304 13:34 12.07.2022
2665 Clear 33 1008 15 10000 5.62 301 11:48 12.07.2022
2666 Clear 29 1010 25 10000 5.27 304 10:25 12.07.2022
2667 Clear 27 1011 33 10000 5.38 307 08:46 12.07.2022
2668 Clear 24 1011 45 10000 5.32 309 07:48 12.07.2022
2669 Clear 20 1011 70 10000 5.46 324 05:45 12.07.2022
2670 Clear 19 1010 74 10000 5.19 327 04:46 12.07.2022
2671 Clear 22 1010 59 10000 5.19 323 00:20 12.07.2022
2672 Clear 22 1009 57 10000 5.36 324 22:43 11.07.2022
2673 Clear 24 1009 51 10000 6.35 328 20:56 11.07.2022
2674 Clear 24 1009 51 10000 6.35 328 20:32 11.07.2022
2675 Clear 24 1009 51 10000 6.35 328 20:32 11.07.2022
2676 Clear 27 1007 37 10000 6.99 318 18:50 11.07.2022
2677 Clear 30 1007 31 10000 7.69 303 18:28 11.07.2022
2678 Clear 31 1006 26 10000 8.03 298 16:30 11.07.2022
2679 Clear 33 1006 21 10000 7.31 295 15:28 11.07.2022
2680 Clear 32 1006 25 10000 6.86 293 13:19 11.07.2022
2681 Clear 30 1008 31 10000 6.58 294 11:23 11.07.2022
2682 Clear 27 1008 36 10000 6.23 297 09:55 11.07.2022
2683 Clear 28 1008 36 10000 6.35 295 09:35 11.07.2022
2684 Clear 25 1008 44 10000 5.94 298 08:32 11.07.2022
2685 Clear 20 1007 78 10000 6.04 316 01:20 11.07.2022
2686 Clear 21 1007 73 10000 5.9 313 23:54 10.07.2022
2687 Clear 22 1007 68 10000 5.86 308 22:45 10.07.2022
2688 Clear 24 1007 51 10000 6.08 302 20:56 10.07.2022
2689 Clear 24 1007 55 10000 6.28 308 20:36 10.07.2022
2690 Clear 25 1006 46 10000 7.38 303 19:38 10.07.2022
2691 Clear 27 1005 38 10000 7.91 295 18:35 10.07.2022
2692 Clear 29 1004 31 10000 8.87 294 17:35 10.07.2022
2693 Clear 32 1003 22 10000 9.27 288 16:24 10.07.2022
2694 Clear 33 1003 20 10000 8.86 286 14:47 10.07.2022
2695 Clear 33 1003 21 10000 8.69 286 13:40 10.07.2022
2696 Clear 32 1004 22 10000 8.38 292 12:26 10.07.2022
2697 Clear 30 1005 28 10000 7.6 297 09:47 10.07.2022
2698 Clear 28 1005 35 10000 7.42 299 08:44 10.07.2022
2699 Clear 23 1005 51 10000 7.4 303 07:24 10.07.2022
2700 Clear 22 1005 48 10000 5.49 310 01:23 10.07.2022
2701 Clear 24 1006 46 10000 5.55 309 22:27 09.07.2022
2702 Clear 24 1006 46 10000 5.55 309 21:56 09.07.2022
2703 Clear 26 1006 41 10000 7.46 315 20:23 09.07.2022
2704 Clear 28 1004 33 10000 8.23 313 18:35 09.07.2022
2705 Clear 31 1003 25 10000 8.98 302 17:33 09.07.2022
2706 Clear 32 1003 21 10000 9.55 297 16:44 09.07.2022
2707 Clear 34 1003 18 10000 8.87 295 15:40 09.07.2022
2708 Clear 35 1003 15 10000 7.65 296 14:27 09.07.2022
2709 Clear 35 1003 15 10000 7.65 296 13:49 09.07.2022
2710 Clear 35 1004 14 10000 7.31 300 12:45 09.07.2022
2711 Clear 33 1005 15 10000 6.25 299 11:22 09.07.2022
2712 Clear 31 1006 17 10000 5.96 301 10:22 09.07.2022
2713 Clear 27 1007 23 10000 5.74 308 07:45 09.07.2022
2714 Clear 21 1007 35 10000 4.06 315 04:58 09.07.2022
2715 Clear 22 1006 38 10000 4.86 315 01:50 09.07.2022
2716 Clear 24 1007 41 10000 4.75 319 22:54 08.07.2022
2717 Clear 25 1007 41 10000 5.11 326 21:58 08.07.2022
2718 Clear 26 1007 39 10000 5.83 328 20:41 08.07.2022
2719 Clear 27 1006 35 10000 6.79 321 19:53 08.07.2022
2720 Clear 32 1005 14 10000 6.53 295 18:24 08.07.2022
2721 Clear 34 1004 10 10000 6.94 286 16:48 08.07.2022
2722 Clear 35 1004 9 10000 6.93 291 14:53 08.07.2022
2723 Clear 36 1005 8 10000 6.18 291 13:41 08.07.2022
2724 Clear 34 1006 9 10000 4.79 292 11:51 08.07.2022
2725 Clear 33 1007 10 10000 4.78 296 10:37 08.07.2022
2726 Clear 29 1008 16 10000 5.24 305 08:37 08.07.2022
2727 Clear 25 1008 26 10000 5.12 308 06:50 08.07.2022
2728 Clear 22 1007 42 10000 4.57 312 01:31 08.07.2022
2729 Clear 24 1008 46 10000 5.41 317 23:22 07.07.2022
2730 Clear 24 1008 46 10000 5.41 317 22:35 07.07.2022
2731 Clear 25 1008 43 10000 6.71 318 20:36 07.07.2022
2732 Clear 30 1005 28 10000 9.08 301 18:22 07.07.2022
2733 Clear 32 1005 24 10000 9.49 300 16:57 07.07.2022
2734 Clear 34 1005 18 10000 7.34 304 14:56 07.07.2022
2735 Clear 33 1005 17 10000 5.52 305 13:25 07.07.2022
2736 Clear 33 1005 17 10000 5.52 305 12:37 07.07.2022
2737 Clear 33 1006 18 10000 5.98 306 12:18 07.07.2022
2738 Clear 31 1006 21 10000 6.45 308 11:29 07.07.2022
2739 Clear 31 1006 21 10000 6.45 308 10:42 07.07.2022
2740 Clear 30 1007 25 10000 6.92 310 10:24 07.07.2022
2741 Clear 23 1008 50 10000 7.2 313 07:22 07.07.2022
2742 Clear 20 1007 52 10000 4.73 320 02:55 07.07.2022
2743 Clear 22 1007 50 10000 4.84 298 23:37 06.07.2022
2744 Clear 23 1007 50 10000 4.61 295 23:18 06.07.2022
2745 Clear 23 1007 50 10000 4.61 295 22:56 06.07.2022
2746 Clear 23 1007 50 10000 4.61 295 22:38 06.07.2022
2747 Clear 24 1007 47 10000 5.63 306 21:27 06.07.2022
2748 Clear 25 1006 42 10000 7.41 306 19:35 06.07.2022
2749 Clear 29 1005 31 10000 9.11 300 18:21 06.07.2022
2750 Clear 31 1004 24 10000 9.26 292 16:19 06.07.2022
2751 Clear 32 1005 23 10000 9.5 292 14:46 06.07.2022
2752 Clear 32 1005 22 10000 8.49 298 12:40 06.07.2022
2753 Clear 32 1005 22 10000 8.26 304 11:49 06.07.2022
2754 Clear 29 1006 23 10000 7.5 304 10:18 06.07.2022
2755 Clear 25 1006 34 10000 6.43 300 07:46 06.07.2022
2756 Clear 23 1006 45 10000 5.85 300 07:23 06.07.2022
2757 Clear 21 1007 53 10000 4.23 299 03:24 06.07.2022
2758 Clear 23 1007 47 10000 5.01 293 22:45 05.07.2022
2759 Clear 24 1007 47 10000 5.1 299 21:53 05.07.2022
2760 Clear 25 1007 44 10000 5.95 303 20:39 05.07.2022
2761 Clear 26 1007 37 10000 7.04 305 19:43 05.07.2022
2762 Clear 27 1006 32 10000 8.58 304 19:22 05.07.2022
2763 Clear 29 1005 27 10000 9.56 304 17:47 05.07.2022
2764 Clear 31 1005 23 10000 9.42 299 16:54 05.07.2022
2765 Clear 32 1005 21 10000 9.63 297 15:31 05.07.2022
2766 Clear 33 1005 19 10000 8.56 291 14:28 05.07.2022
2767 Clear 33 1005 20 10000 8.06 289 12:43 05.07.2022
2768 Clear 32 1006 20 10000 8.12 289 11:33 05.07.2022
2769 Clear 32 1006 19 10000 7.69 291 10:40 05.07.2022
2770 Clear 29 1007 25 10000 7.49 302 09:22 05.07.2022
2771 Clear 27 1007 32 10000 6.84 304 07:47 05.07.2022
2772 Clear 21 1007 55 10000 4.14 302 04:51 05.07.2022
2773 Clear 21 1007 55 10000 4.12 305 04:23 05.07.2022
2774 Clear 23 1006 50 10000 5.24 301 00:26 05.07.2022
2775 Clear 23 1006 50 10000 5.24 301 23:31 04.07.2022
2776 Clear 24 1007 48 10000 5.78 296 22:27 04.07.2022
2777 Clear 24 1007 48 10000 5.78 296 21:41 04.07.2022
2778 Clear 25 1007 46 10000 6.5 300 20:53 04.07.2022
2779 Clear 25 1007 46 10000 6.5 300 20:34 04.07.2022
2780 Clear 26 1006 42 10000 8.1 308 19:55 04.07.2022
2781 Clear 26 1006 42 10000 8.53 310 19:35 04.07.2022
2782 Clear 31 1004 29 10000 9.59 303 17:58 04.07.2022
2783 Clear 34 1003 22 10000 8.78 290 15:58 04.07.2022
2784 Clear 34 1003 22 10000 8.78 290 15:33 04.07.2022
2785 Clear 35 1003 20 10000 4.65 285 13:29 04.07.2022
2786 Clear 35 1003 20 10000 4.65 285 12:30 04.07.2022
2787 Clear 32 1005 28 10000 3.89 299 10:34 04.07.2022
2788 Clear 30 1005 32 10000 4.42 305 09:52 04.07.2022
2789 Clear 26 1006 44 10000 5.69 308 07:37 04.07.2022
2790 Clear 21 1006 70 10000 4.98 318 04:48 04.07.2022
2791 Clear 23 1005 60 10000 4.58 312 00:39 04.07.2022
2792 Clear 24 1006 59 10000 5.08 301 22:59 03.07.2022
2793 Clear 25 1006 55 10000 6.27 309 20:58 03.07.2022
2794 Clear 25 1006 55 10000 6.27 309 20:31 03.07.2022
2795 Clear 28 1004 44 10000 8.7 303 19:28 03.07.2022
2796 Clear 28 1004 44 10000 8.7 303 18:43 03.07.2022
2797 Clear 30 1003 37 10000 9 298 17:44 03.07.2022
2798 Clear 32 1003 28 10000 9.54 293 15:54 03.07.2022
2799 Clear 33 1003 25 10000 8.64 292 14:59 03.07.2022
2800 Clear 33 1003 26 10000 8.18 297 14:20 03.07.2022
2801 Clear 33 1003 26 10000 8.13 298 13:48 03.07.2022
2802 Clear 33 1003 27 10000 7.62 307 12:33 03.07.2022
2803 Clear 31 1004 29 10000 7.47 310 11:29 03.07.2022
2804 Clear 31 1004 29 10000 7.47 310 10:39 03.07.2022
2805 Clear 30 1005 32 10000 7.34 309 09:55 03.07.2022
2806 Clear 26 1006 42 10000 6.97 308 07:35 03.07.2022
2807 Clear 21 1006 66 10000 4.57 309 04:22 03.07.2022
2808 Clear 22 1007 61 10000 4.76 303 00:22 03.07.2022
2809 Clear 23 1007 60 10000 5.05 300 22:34 02.07.2022
2810 Clear 23 1007 59 10000 5.14 297 21:38 02.07.2022
2811 Clear 25 1006 51 10000 7.34 308 19:52 02.07.2022
2812 Clear 27 1006 44 10000 8.3 305 19:23 02.07.2022
2813 Clear 29 1005 37 10000 9.03 303 17:51 02.07.2022
2814 Clear 29 1005 37 10000 9.03 303 17:33 02.07.2022
2815 Clear 32 1005 27 10000 9.79 294 15:28 02.07.2022
2816 Clear 32 1006 27 10000 8.27 314 12:22 02.07.2022
2817 Clear 31 1006 30 10000 8.19 314 11:27 02.07.2022
2818 Clear 31 1006 30 10000 8.19 314 10:46 02.07.2022
2819 Clear 29 1007 34 10000 7.87 311 09:37 02.07.2022
2820 Clear 27 1007 39 10000 7.28 309 08:36 02.07.2022
2821 Clear 25 1008 44 10000 6.51 308 08:18 02.07.2022
2822 Clear 20 1007 55 10000 4.88 315 02:52 02.07.2022
2823 Clear 22 1007 52 10000 6.32 321 00:27 02.07.2022
2824 Clear 22 1008 52 10000 5.87 323 22:59 01.07.2022
2825 Clear 23 1008 49 10000 5.91 322 22:19 01.07.2022
2826 Clear 23 1008 49 10000 5.91 322 21:37 01.07.2022
2827 Clear 24 1008 45 10000 6.46 319 20:57 01.07.2022
2828 Clear 26 1007 38 10000 6.87 312 19:47 01.07.2022
2829 Clear 27 1006 33 10000 7.46 303 18:42 01.07.2022
2830 Clear 31 1005 25 10000 9.01 295 16:35 01.07.2022
2831 Clear 32 1005 20 10000 8.04 288 14:21 01.07.2022
2832 Clear 33 1006 20 10000 7.97 287 13:22 01.07.2022
2833 Clear 31 1007 20 10000 6.74 290 10:46 01.07.2022
2834 Clear 30 1007 21 10000 6.69 295 10:18 01.07.2022
2835 Clear 22 1008 37 10000 3.33 307 06:20 01.07.2022
2836 Clear 22 1007 44 10000 3.71 315 01:57 01.07.2022
2837 Clear 22 1008 43 10000 5.17 323 23:33 30.06.2022
2838 Clear 23 1008 42 10000 5.33 333 22:47 30.06.2022
2839 Clear 24 1008 41 10000 5.8 331 22:27 30.06.2022
2840 Clear 24 1008 41 10000 5.8 331 21:51 30.06.2022
2841 Clear 25 1008 39 10000 6.28 324 20:41 30.06.2022
2842 Clear 26 1007 33 10000 7.23 319 20:18 30.06.2022
2843 Clear 26 1007 33 10000 7.33 319 19:47 30.06.2022
2844 Clear 28 1006 27 10000 7.21 312 18:49 30.06.2022
2845 Clear 30 1006 24 10000 8.29 303 17:49 30.06.2022
2846 Clear 32 1005 19 10000 7.83 295 16:56 30.06.2022
2847 Clear 33 1005 16 10000 7.49 288 15:56 30.06.2022
2848 Clear 34 1005 13 10000 7.12 283 13:58 30.06.2022
2849 Clear 34 1005 13 10000 5.79 288 13:19 30.06.2022
2850 Clear 34 1005 13 10000 5.79 288 12:33 30.06.2022
2851 Clear 31 1007 16 10000 4.17 290 10:49 30.06.2022
2852 Clear 30 1007 20 10000 3.91 289 09:47 30.06.2022
2853 Clear 28 1008 25 10000 4.01 297 08:31 30.06.2022
2854 Clear 26 1008 32 10000 4.38 304 07:41 30.06.2022
2855 Clear 22 1008 49 10000 3.96 315 05:45 30.06.2022
2856 Clear 22 1007 56 10000 5.51 312 23:39 29.06.2022
2857 Clear 23 1007 54 10000 5.95 318 22:42 29.06.2022
2858 Clear 23 1008 51 10000 6.51 323 22:19 29.06.2022
2859 Clear 24 1008 48 10000 6.95 325 20:54 29.06.2022
2860 Clear 24 1008 48 10000 6.95 325 20:32 29.06.2022
2861 Clear 25 1007 40 10000 7.87 323 19:31 29.06.2022
2862 Clear 30 1005 28 10000 8.67 303 17:39 29.06.2022
2863 Clear 32 1005 18 10000 7.31 292 16:31 29.06.2022
2864 Clear 34 1005 15 10000 6.93 293 13:58 29.06.2022
2865 Clear 34 1005 15 10000 5.88 292 12:38 29.06.2022
2866 Clear 30 1007 20 10000 4.58 304 10:20 29.06.2022
2867 Clear 30 1007 20 10000 4.58 304 09:31 29.06.2022
2868 Clear 24 1008 35 10000 4.36 317 07:23 29.06.2022
2869 Clear 21 1008 46 10000 3.51 317 04:48 29.06.2022
2870 Clear 23 1007 49 10000 5.09 316 00:55 29.06.2022
2871 Clear 23 1007 49 10000 5.09 316 00:35 29.06.2022
2872 Clear 24 1008 47 10000 5.31 330 22:53 28.06.2022
2873 Clear 25 1008 45 10000 5.68 331 22:21 28.06.2022
2874 Clear 25 1008 45 10000 5.68 331 21:50 28.06.2022
2875 Clear 25 1008 45 10000 5.68 331 21:30 28.06.2022
2876 Clear 26 1007 44 10000 8.01 320 20:20 28.06.2022
2877 Clear 26 1007 41 10000 7.85 323 19:32 28.06.2022
2878 Clear 26 1007 41 10000 7.85 323 19:32 28.06.2022
2879 Clear 28 1006 38 10000 8.27 315 18:42 28.06.2022
2880 Clear 31 1005 21 10000 6.9 300 17:38 28.06.2022
2881 Clear 33 1005 15 10000 6.9 272 15:56 28.06.2022
2882 Clear 33 1005 15 10000 6.9 272 15:56 28.06.2022
2883 Clear 33 1005 15 10000 7.04 266 14:59 28.06.2022
2884 Clear 34 1005 15 10000 6.73 263 14:20 28.06.2022
2885 Clear 34 1005 15 10000 6.73 263 13:49 28.06.2022
2886 Clear 33 1005 15 10000 5.25 272 12:54 28.06.2022
2887 Clear 30 1007 20 10000 3.85 284 10:57 28.06.2022
2888 Clear 27 1008 28 10000 2.8 284 09:25 28.06.2022
2889 Clear 27 1008 28 10000 2.8 284 08:43 28.06.2022
2890 Clear 23 1009 41 10000 1.8 297 07:26 28.06.2022
2891 Clear 22 1009 46 10000 1.58 305 05:58 28.06.2022
2892 Clear 23 1008 46 10000 2.77 311 00:00 28.06.2022
2893 Clear 23 1008 46 10000 2.77 311 23:36 27.06.2022
2894 Clear 23 1008 46 10000 2.87 326 22:51 27.06.2022
2895 Clear 24 1009 43 10000 3.61 331 21:33 27.06.2022
2896 Clear 25 1009 39 10000 4.73 321 20:48 27.06.2022
2897 Clear 27 1008 32 10000 6.75 301 18:58 27.06.2022
2898 Clear 29 1007 27 10000 7.63 287 18:19 27.06.2022
2899 Clear 31 1007 22 10000 6.76 284 16:19 27.06.2022
2900 Clear 32 1007 22 10000 7.11 287 14:45 27.06.2022
2901 Clear 32 1007 22 10000 7.54 288 13:35 27.06.2022
2902 Clear 31 1008 21 10000 7.54 287 12:52 27.06.2022
2903 Clear 28 1009 27 10000 6.39 295 10:23 27.06.2022
2904 Clear 27 1010 31 10000 6.13 296 09:18 27.06.2022
2905 Clear 24 1010 38 10000 5.59 294 08:19 27.06.2022
2906 Clear 22 1010 48 10000 4.74 295 06:38 27.06.2022
2907 Clear 20 1010 61 10000 3.65 306 03:24 27.06.2022
2908 Clear 21 1010 55 10000 4.79 298 23:56 26.06.2022
2909 Clear 23 1010 47 10000 5.95 304 21:59 26.06.2022
2910 Clear 23 1010 47 10000 6.19 302 20:44 26.06.2022
2911 Clear 24 1009 43 10000 7.17 302 19:40 26.06.2022
2912 Clear 25 1009 36 10000 8.41 302 18:31 26.06.2022
2913 Clear 29 1008 28 10000 10.63 297 16:45 26.06.2022
2914 Clear 31 1007 25 10000 9.46 292 14:42 26.06.2022
2915 Clear 31 1007 25 10000 8.64 292 13:41 26.06.2022
2916 Clear 31 1008 24 10000 7.8 293 13:20 26.06.2022
2917 Clear 29 1009 29 10000 6.15 298 11:26 26.06.2022
2918 Clear 27 1010 36 10000 5.78 302 10:28 26.06.2022
2919 Clear 27 1010 36 10000 5.78 302 09:34 26.06.2022
2920 Clear 23 1010 50 10000 5.96 305 07:45 26.06.2022
2921 Clear 19 1009 64 10000 5.47 317 02:28 26.06.2022
2922 Clear 20 1009 57 10000 5.1 305 00:21 26.06.2022
2923 Clear 20 1009 57 10000 5.1 305 23:50 25.06.2022
2924 Clear 21 1009 54 10000 5.24 301 23:23 25.06.2022
2925 Clear 21 1008 51 10000 5.46 300 22:27 25.06.2022
2926 Clear 21 1008 51 10000 5.46 300 21:46 25.06.2022
2927 Clear 22 1008 49 10000 6.18 293 21:20 25.06.2022
2928 Clear 22 1008 49 10000 6.18 293 20:30 25.06.2022
2929 Clear 23 1007 47 10000 7.82 295 19:54 25.06.2022
2930 Clear 26 1005 40 10000 11.28 299 18:19 25.06.2022
2931 Clear 28 1004 35 10000 12.41 292 17:25 25.06.2022
2932 Clear 30 1004 30 10000 12.32 285 15:42 25.06.2022
2933 Clear 32 1004 24 10000 12.24 275 13:48 25.06.2022
2934 Clear 32 1004 26 10000 10.15 268 12:38 25.06.2022
2935 Clear 31 1006 26 10000 8.79 269 10:58 25.06.2022
2936 Clear 29 1006 26 10000 8.34 275 09:22 25.06.2022
2937 Clear 29 1006 26 10000 8.34 275 08:46 25.06.2022
2938 Clear 29 1006 26 10000 8.34 275 08:46 25.06.2022
2939 Clear 28 1006 28 10000 7.36 274 08:19 25.06.2022
2940 Clear 22 1007 47 10000 2.79 306 05:26 25.06.2022
2941 Clear 24 1006 41 10000 4.7 316 00:44 25.06.2022
2942 Clear 24 1006 41 10000 4.7 316 00:44 25.06.2022
2943 Clear 25 1007 38 10000 5.05 318 23:18 24.06.2022
2944 Clear 26 1007 38 10000 5.37 318 21:57 24.06.2022
2945 Clear 26 1007 36 10000 6.02 317 21:21 24.06.2022
2946 Clear 28 1007 33 10000 6.54 314 20:20 24.06.2022
2947 Clear 28 1007 33 10000 6.54 314 20:20 24.06.2022
2948 Clear 29 1006 29 10000 7.62 309 19:22 24.06.2022
2949 Clear 29 1006 29 10000 7.62 309 18:50 24.06.2022
2950 Clear 29 1006 29 10000 7.62 309 18:30 24.06.2022
2951 Clear 31 1005 26 10000 8.87 300 17:46 24.06.2022
2952 Clear 34 1005 20 10000 8.56 296 15:56 24.06.2022
2953 Clear 34 1005 18 10000 8.55 305 14:29 24.06.2022
2954 Clear 35 1006 16 10000 7.9 297 13:55 24.06.2022
2955 Clear 33 1007 17 10000 5.38 291 12:26 24.06.2022
2956 Clear 33 1007 17 10000 5.38 291 11:40 24.06.2022
2957 Clear 30 1008 21 10000 4.55 300 10:22 24.06.2022
2958 Clear 30 1008 21 10000 4.55 300 09:41 24.06.2022
2959 Clear 29 1009 25 10000 4.26 299 08:52 24.06.2022
2960 Clear 25 1009 35 10000 3.57 309 07:20 24.06.2022
2961 Clear 25 1009 35 10000 3.57 309 06:42 24.06.2022
2962 Clear 23 1009 39 10000 2.76 320 06:18 24.06.2022
2963 Clear 23 1009 39 10000 4 322 02:44 24.06.2022
2964 Clear 24 1008 40 10000 5.84 319 22:58 23.06.2022
2965 Clear 24 1008 40 10000 5.84 319 22:40 23.06.2022
2966 Clear 26 1008 40 10000 7.13 309 20:58 23.06.2022
2967 Clear 26 1008 40 10000 7.13 309 20:35 23.06.2022
2968 Clear 27 1008 34 10000 7.05 310 19:34 23.06.2022
2969 Clear 30 1006 29 10000 9.72 310 17:52 23.06.2022
2970 Clear 32 1006 26 10000 10.29 304 17:23 23.06.2022
2971 Clear 33 1005 22 10000 9.25 301 15:50 23.06.2022
2972 Clear 34 1005 21 10000 7.18 296 15:24 23.06.2022
2973 Clear 34 1005 21 10000 5.04 289 13:40 23.06.2022
2974 Clear 31 1007 29 10000 4.45 299 11:27 23.06.2022
2975 Clear 31 1007 29 10000 4.45 299 10:37 23.06.2022
2976 Clear 27 1008 40 10000 4.66 306 09:18 23.06.2022
2977 Clear 19 1007 75 10000 4.75 311 03:39 23.06.2022
2978 Clear 21 1007 61 10000 5 310 00:26 23.06.2022
2979 Clear 21 1007 61 10000 5 310 23:41 22.06.2022
2980 Clear 21 1007 60 10000 4.87 306 22:48 22.06.2022
2981 Clear 21 1007 60 10000 4.87 306 22:48 22.06.2022
2982 Clear 22 1007 56 10000 5.67 299 21:22 22.06.2022
2983 Clear 22 1007 56 10000 5.67 299 20:45 22.06.2022
2984 Clear 23 1006 50 10000 6.55 299 19:58 22.06.2022
2985 Clear 25 1005 45 10000 7.85 298 18:50 22.06.2022
2986 Clear 27 1004 37 10000 10.41 294 17:29 22.06.2022
2987 Clear 27 1004 37 10000 10.41 294 16:37 22.06.2022
2988 Clear 29 1003 31 10000 10.85 292 15:27 22.06.2022
2989 Clear 29 1003 31 10000 10.85 292 14:31 22.06.2022
2990 Clear 30 1003 30 10000 10.58 289 13:44 22.06.2022
2991 Clear 29 1004 32 10000 10.16 287 13:23 22.06.2022
2992 Clear 28 1004 35 10000 10.11 289 11:50 22.06.2022
2993 Clear 27 1005 39 10000 9.96 290 10:58 22.06.2022
2994 Clear 25 1005 42 10000 9.4 288 10:20 22.06.2022
2995 Clear 24 1005 46 10000 8.99 288 08:48 22.06.2022
2996 Clear 19 1006 71 10000 7.44 284 05:59 22.06.2022
2997 Clear 17 1006 79 10000 7.01 286 01:50 22.06.2022
2998 Clear 18 1006 77 10000 7.31 284 00:39 22.06.2022
2999 Clear 18 1007 73 10000 7.23 288 22:37 21.06.2022
3000 Clear 20 1007 65 10000 8.04 291 20:40 21.06.2022
3001 Clear 22 1006 50 10000 9.7 291 18:53 21.06.2022
3002 Clear 24 1006 41 10000 10.86 290 17:42 21.06.2022
3003 Clear 26 1006 36 10000 11.55 290 16:34 21.06.2022
3004 Clear 29 1007 26 10000 10.37 293 11:56 21.06.2022
3005 Clear 27 1008 30 10000 9.84 299 10:27 21.06.2022
3006 Clear 25 1009 37 10000 9.68 301 08:51 21.06.2022
3007 Clear 22 1009 48 10000 9.34 302 07:35 21.06.2022
3008 Clear 17 1010 79 10000 7.49 315 04:40 21.06.2022
3009 Clear 20 1010 47 10000 6.93 317 23:45 20.06.2022
3010 Clear 22 1011 44 10000 6.85 321 22:21 20.06.2022
3011 Clear 22 1011 44 10000 6.85 321 21:32 20.06.2022
3012 Clear 24 1010 38 10000 7.33 324 20:25 20.06.2022
3013 Clear 27 1009 29 10000 7.38 317 19:23 20.06.2022
3014 Clear 29 1008 24 10000 8.15 306 18:25 20.06.2022
3015 Clear 29 1008 24 10000 8.15 306 17:44 20.06.2022
3016 Clear 33 1008 17 10000 9.11 296 16:24 20.06.2022
3017 Clear 34 1008 14 10000 8.41 296 14:41 20.06.2022
3018 Clear 34 1009 12 10000 7.51 309 11:47 20.06.2022
3019 Clear 30 1010 15 10000 6.74 311 09:55 20.06.2022
3020 Clear 28 1011 20 10000 6.93 313 08:46 20.06.2022
3021 Clear 25 1011 25 10000 7.05 315 07:36 20.06.2022
3022 Clear 19 1011 46 10000 5.32 312 04:56 20.06.2022
3023 Clear 21 1010 34 10000 6.17 320 01:32 20.06.2022
3024 Clear 23 1010 34 10000 6.44 321 23:49 19.06.2022
3025 Clear 24 1010 37 10000 6.89 329 22:25 19.06.2022
3026 Clear 24 1010 37 10000 6.89 329 21:42 19.06.2022
3027 Clear 25 1010 36 10000 6.33 331 20:55 19.06.2022
3028 Clear 26 1009 34 10000 7.41 332 20:25 19.06.2022
3029 Clear 26 1009 34 10000 7.41 332 19:45 19.06.2022
3030 Clear 28 1009 30 10000 6.99 327 18:33 19.06.2022
3031 Clear 31 1008 26 10000 7.09 317 17:48 19.06.2022
3032 Clear 32 1008 24 10000 8.05 305 17:21 19.06.2022
3033 Clear 32 1008 24 10000 8.05 305 16:34 19.06.2022
3034 Clear 34 1007 21 10000 8.52 300 15:37 19.06.2022
3035 Clear 35 1007 17 10000 7.85 301 14:51 19.06.2022
3036 Clear 35 1007 17 10000 7.54 305 13:54 19.06.2022
3037 Clear 35 1008 16 10000 7.88 307 12:56 19.06.2022
3038 Clear 33 1008 16 10000 7.8 308 10:54 19.06.2022
3039 Clear 31 1009 20 10000 7.69 307 09:40 19.06.2022
3040 Clear 29 1009 26 10000 7.73 307 08:47 19.06.2022
3041 Clear 26 1010 35 10000 7.99 310 07:51 19.06.2022
3042 Clear 22 1010 56 10000 6.26 328 05:36 19.06.2022
3043 Clear 23 1008 48 10000 7.56 312 01:29 19.06.2022
3044 Clear 24 1008 48 10000 7.06 310 00:24 19.06.2022
3045 Clear 24 1008 48 10000 7.06 310 23:36 18.06.2022
3046 Clear 24 1008 48 10000 6.85 310 22:36 18.06.2022
3047 Clear 26 1007 45 10000 8.22 329 20:56 18.06.2022
3048 Clear 26 1007 45 10000 8.22 329 20:38 18.06.2022
3049 Clear 27 1007 42 10000 8.67 332 19:38 18.06.2022
3050 Clear 29 1006 34 10000 8.06 325 18:45 18.06.2022
3051 Clear 32 1005 28 10000 8.18 308 17:35 18.06.2022
3052 Clear 34 1005 25 10000 8.28 296 16:47 18.06.2022
3053 Clear 35 1005 23 10000 8.45 291 15:33 18.06.2022
3054 Clear 36 1005 21 10000 8.46 292 14:45 18.06.2022
3055 Clear 36 1005 20 10000 6.49 305 13:23 18.06.2022
3056 Clear 36 1005 21 10000 6.76 315 11:45 18.06.2022
3057 Clear 35 1006 22 10000 6.19 318 10:55 18.06.2022
3058 Clear 31 1006 27 10000 6.63 308 09:27 18.06.2022
3059 Clear 31 1006 27 10000 6.63 308 08:30 18.06.2022
3060 Clear 27 1007 35 10000 6.71 324 07:20 18.06.2022
3061 Clear 24 1007 46 10000 5.98 306 03:47 18.06.2022
3062 Clear 26 1007 42 10000 6.15 312 01:26 18.06.2022
3063 Clear 26 1007 42 10000 6.15 312 01:26 18.06.2022
3064 Clear 26 1007 42 10000 6.15 312 00:48 18.06.2022
3065 Clear 27 1007 42 10000 5.88 308 23:59 17.06.2022
3066 Clear 27 1006 41 10000 6.42 308 23:24 17.06.2022
3067 Clear 28 1006 39 10000 7.61 300 21:33 17.06.2022
3068 Clear 31 1005 33 10000 8.22 332 20:26 17.06.2022
3069 Clear 32 1005 31 10000 9.06 331 18:52 17.06.2022
3070 Clear 35 1004 24 10000 9.15 326 17:46 17.06.2022
3071 Clear 38 1004 17 10000 7.12 307 16:43 17.06.2022
3072 Clear 39 1004 14 10000 4.16 289 16:19 17.06.2022
3073 Clear 39 1004 14 10000 4.16 289 15:37 17.06.2022
3074 Clear 39 1005 13 10000 2.24 226 14:21 17.06.2022
3075 Clear 39 1005 13 10000 2.24 226 13:51 17.06.2022
3076 Clear 39 1005 13 10000 2.33 216 13:31 17.06.2022
3077 Clear 38 1006 14 10000 2.32 220 11:59 17.06.2022
3078 Clear 38 1006 14 10000 2.32 220 11:39 17.06.2022
3079 Clear 37 1006 15 10000 1.2 256 11:21 17.06.2022
3080 Clear 33 1007 21 10000 3.58 332 08:38 17.06.2022
3081 Clear 30 1008 25 10000 4.61 329 07:53 17.06.2022
3082 Clear 28 1009 32 10000 5.62 326 06:35 17.06.2022
3083 Clear 25 1009 44 10000 5.74 319 03:25 17.06.2022
3084 Clear 27 1008 37 10000 4.74 312 01:27 17.06.2022
3085 Clear 27 1008 35 10000 4.66 321 23:34 16.06.2022
3086 Clear 28 1008 34 10000 5.06 331 22:40 16.06.2022
3087 Clear 28 1009 36 10000 6.4 344 21:21 16.06.2022
3088 Clear 28 1009 36 10000 6.4 344 20:50 16.06.2022
3089 Clear 29 1009 34 10000 7.58 340 20:21 16.06.2022
3090 Clear 31 1008 24 10000 6.86 329 18:51 16.06.2022
3091 Clear 35 1007 15 10000 4.49 309 17:54 16.06.2022
3092 Clear 36 1007 14 10000 4.17 294 17:27 16.06.2022
3093 Clear 36 1007 14 10000 3.84 288 16:24 16.06.2022
3094 Clear 36 1007 14 10000 3.24 282 15:21 16.06.2022
3095 Clear 36 1008 15 10000 2.91 282 14:27 16.06.2022
3096 Clear 36 1008 16 10000 1.58 255 12:56 16.06.2022
3097 Clear 36 1008 16 10000 1.58 255 12:34 16.06.2022
3098 Clear 34 1009 17 10000 0.85 218 11:49 16.06.2022
3099 Clear 33 1010 19 10000 0.51 139 10:42 16.06.2022
3100 Clear 31 1010 22 10000 0.59 70 09:43 16.06.2022
3101 Clear 29 1011 26 10000 0.61 44 09:20 16.06.2022
3102 Clear 26 1011 31 10000 1.08 354 07:57 16.06.2022
3103 Clear 26 1011 31 10000 1.08 354 07:57 16.06.2022
3104 Clear 24 1011 40 10000 2.51 321 06:51 16.06.2022
3105 Clear 21 1011 59 10000 3.84 322 04:28 16.06.2022
3106 Clear 21 1011 59 10000 4.86 318 01:53 16.06.2022
3107 Clear 21 1011 59 10000 4.86 318 01:34 16.06.2022
3108 Clear 22 1011 57 10000 4.96 318 00:36 16.06.2022
3109 Clear 23 1012 53 10000 5.18 327 23:23 15.06.2022
3110 Clear 24 1012 52 10000 5.72 336 22:28 15.06.2022
3111 Clear 24 1012 50 10000 6.44 337 21:21 15.06.2022
3112 Clear 24 1012 50 10000 6.44 337 20:38 15.06.2022
3113 Clear 25 1011 47 10000 7.12 334 20:19 15.06.2022
3114 Clear 27 1010 42 10000 8.11 327 18:51 15.06.2022
3115 Clear 30 1010 27 10000 6.57 310 17:55 15.06.2022
3116 Clear 31 1009 18 10000 6.3 294 16:40 15.06.2022
3117 Clear 32 1009 15 10000 6.81 285 15:35 15.06.2022
3118 Clear 33 1009 15 10000 5.74 285 13:43 15.06.2022
3119 Clear 32 1010 16 10000 4.67 289 12:53 15.06.2022
3120 Clear 30 1011 19 10000 4.03 292 11:52 15.06.2022
3121 Clear 27 1012 27 10000 3.81 296 10:24 15.06.2022
3122 Clear 27 1012 27 10000 3.81 296 09:39 15.06.2022
3123 Clear 25 1012 34 10000 3.6 296 08:30 15.06.2022
3124 Clear 21 1013 50 10000 2.89 310 06:34 15.06.2022
3125 Clear 18 1012 66 10000 2.12 312 03:59 15.06.2022
3126 Clear 19 1011 64 10000 3.98 323 01:54 15.06.2022
3127 Clear 20 1011 60 10000 4.42 323 00:50 15.06.2022
3128 Clear 21 1011 60 10000 5.52 324 23:39 14.06.2022
3129 Clear 21 1011 59 10000 6.26 327 23:19 14.06.2022
3130 Clear 22 1011 58 10000 6.8 326 22:21 14.06.2022
3131 Clear 22 1011 58 10000 6.8 326 21:36 14.06.2022
3132 Clear 23 1011 53 10000 7.62 323 20:54 14.06.2022
3133 Clear 24 1011 46 10000 7.76 316 20:28 14.06.2022
3134 Clear 26 1010 40 10000 8.44 305 18:56 14.06.2022
3135 Clear 28 1009 29 10000 7.3 283 17:54 14.06.2022
3136 Clear 29 1009 26 10000 7.15 275 16:43 14.06.2022
3137 Clear 30 1008 22 10000 7.18 273 15:50 14.06.2022
3138 Clear 31 1008 20 10000 6.91 275 15:24 14.06.2022
3139 Clear 31 1008 20 10000 6.91 275 14:33 14.06.2022
3140 Clear 31 1009 20 10000 6.4 282 13:42 14.06.2022
3141 Clear 30 1009 22 10000 5.19 283 12:44 14.06.2022
3142 Clear 29 1010 25 10000 4.03 283 11:32 14.06.2022
3143 Clear 27 1011 30 10000 3.56 284 10:47 14.06.2022
3144 Clear 25 1011 36 10000 3.25 283 10:20 14.06.2022
3145 Clear 24 1012 45 10000 3.16 285 08:48 14.06.2022
3146 Clear 22 1012 54 10000 3.17 292 07:34 14.06.2022
3147 Clear 17 1011 82 10000 3.34 313 05:28 14.06.2022
3148 Clear 18 1010 80 10000 3.29 308 02:58 14.06.2022
3149 Clear 19 1010 73 10000 3.94 320 00:53 14.06.2022
3150 Clear 19 1010 71 10000 4.3 320 23:41 13.06.2022
3151 Clear 21 1010 66 10000 4.98 316 22:26 13.06.2022
3152 Clear 21 1010 66 10000 4.98 316 21:52 13.06.2022
3153 Clear 21 1010 61 10000 5.92 312 20:42 13.06.2022
3154 Clear 22 1009 56 10000 7.08 306 19:35 13.06.2022
3155 Clear 24 1008 49 10000 7.85 299 18:31 13.06.2022
3156 Clear 25 1008 43 10000 8.9 294 17:48 13.06.2022
3157 Clear 27 1007 37 10000 9.67 292 16:53 13.06.2022
3158 Clear 28 1006 34 10000 10.12 284 15:41 13.06.2022
3159 Clear 29 1007 32 10000 8.65 279 14:47 13.06.2022
3160 Clear 29 1007 32 10000 8.19 279 13:55 13.06.2022
3161 Clear 29 1007 33 10000 7.81 280 12:59 13.06.2022
3162 Clear 28 1008 36 10000 7.66 280 11:38 13.06.2022
3163 Clear 26 1009 42 10000 7.44 278 10:28 13.06.2022
3164 Clear 26 1009 42 10000 7.44 278 09:42 13.06.2022
3165 Clear 23 1009 53 10000 6.74 280 08:27 13.06.2022
3166 Clear 21 1009 62 10000 6.01 280 06:34 13.06.2022
3167 Clear 18 1008 81 10000 4.77 289 04:18 13.06.2022
3168 Clear 19 1007 74 10000 6.49 299 01:44 13.06.2022
3169 Clear 20 1007 70 10000 6.37 298 00:59 13.06.2022
3170 Clear 20 1007 66 10000 6.32 300 23:37 12.06.2022
3171 Clear 22 1008 57 10000 6.04 303 22:29 12.06.2022
3172 Clear 22 1008 57 10000 6.04 303 21:41 12.06.2022
3173 Clear 23 1007 50 10000 5.7 304 20:49 12.06.2022
3174 Clear 24 1007 46 10000 6.69 304 19:43 12.06.2022
3175 Clear 25 1006 43 10000 8.74 300 18:53 12.06.2022
3176 Clear 29 1005 30 10000 10.36 289 17:20 12.06.2022
3177 Clear 32 1004 26 10000 10.66 283 15:34 12.06.2022
3178 Clear 33 1004 22 10000 11.03 278 14:50 12.06.2022
3179 Clear 35 1004 19 10000 9.92 274 14:18 12.06.2022
3180 Clear 35 1004 19 10000 9.92 274 13:44 12.06.2022
3181 Clear 35 1005 15 10000 8.07 270 12:22 12.06.2022
3182 Clear 35 1006 14 10000 6.95 274 10:46 12.06.2022
3183 Clear 34 1006 14 10000 5.77 278 09:42 12.06.2022
3184 Clear 33 1007 15 10000 4.72 287 08:50 12.06.2022
3185 Clear 31 1007 16 10000 3.78 295 07:52 12.06.2022
3186 Clear 27 1007 21 10000 2.59 301 06:27 12.06.2022
3187 Clear 26 1007 23 10000 3.12 310 03:54 12.06.2022
3188 Clear 27 1007 23 10000 3.41 306 02:27 12.06.2022
3189 Clear 27 1007 23 10000 3.53 310 01:35 12.06.2022
3190 Clear 27 1008 23 10000 3.61 316 00:48 12.06.2022
3191 Clear 27 1008 23 10000 4.06 318 00:19 12.06.2022
3192 Clear 27 1009 24 10000 4.34 321 23:21 11.06.2022
3193 Clear 27 1009 24 10000 4.34 321 22:37 11.06.2022
3194 Clear 28 1009 23 10000 4.87 324 21:31 11.06.2022
3195 Clear 30 1009 21 10000 4.94 316 20:27 11.06.2022
3196 Clear 30 1009 21 10000 5.23 319 19:36 11.06.2022
3197 Clear 31 1008 19 10000 5.39 313 18:45 11.06.2022
3198 Clear 34 1007 16 10000 7.27 306 18:27 11.06.2022
3199 Clear 34 1007 16 10000 7.27 306 17:48 11.06.2022
3200 Clear 35 1007 14 10000 8.62 303 17:26 11.06.2022
3201 Clear 35 1007 14 10000 8.62 303 16:44 11.06.2022
3202 Clear 36 1007 12 10000 9.07 306 16:18 11.06.2022
3203 Clear 37 1007 10 10000 8.35 299 14:57 11.06.2022
3204 Clear 37 1007 10 10000 7.6 293 13:52 11.06.2022
3205 Clear 35 1009 10 10000 4.31 292 12:19 11.06.2022
3206 Clear 33 1010 12 10000 3.49 290 10:32 11.06.2022
3207 Clear 31 1010 13 10000 3.06 287 09:42 11.06.2022
3208 Clear 30 1011 15 10000 2.74 279 08:45 11.06.2022
3209 Clear 26 1012 19 10000 2.35 297 06:34 11.06.2022
3210 Clear 23 1012 23 10000 1.92 299 05:53 11.06.2022
3211 Clear 22 1011 27 10000 3.5 318 03:45 11.06.2022
3212 Clear 23 1010 27 10000 4.49 314 01:52 11.06.2022
3213 Clear 23 1011 28 10000 4.03 314 01:26 11.06.2022
3214 Clear 24 1011 27 10000 4.45 325 23:28 10.06.2022
3215 Clear 25 1012 26 10000 4.44 328 22:27 10.06.2022
3216 Clear 25 1012 26 10000 4.44 328 21:47 10.06.2022
3217 Clear 26 1012 24 10000 4.94 331 20:39 10.06.2022
3218 Clear 27 1011 22 10000 5.59 330 20:20 10.06.2022
3219 Clear 28 1011 21 10000 6.55 320 19:19 10.06.2022
3220 Clear 28 1011 21 10000 6.55 320 19:19 10.06.2022
3221 Clear 28 1011 21 10000 6.55 320 18:46 10.06.2022
3222 Clear 31 1010 17 10000 7.23 305 17:54 10.06.2022
3223 Clear 31 1010 17 10000 7.23 305 17:32 10.06.2022
3224 Clear 33 1009 14 10000 8.54 297 16:36 10.06.2022
3225 Clear 34 1009 12 10000 8.6 293 15:40 10.06.2022
3226 Clear 35 1009 12 10000 8.33 289 14:29 10.06.2022
3227 Clear 35 1010 11 10000 8.73 288 13:20 10.06.2022
3228 Clear 35 1010 10 10000 8.61 283 11:59 10.06.2022
3229 Clear 34 1010 11 10000 8.14 279 10:59 10.06.2022
3230 Clear 33 1011 15 10000 6.66 284 10:24 10.06.2022
3231 Clear 31 1012 21 10000 4.86 285 09:21 10.06.2022
3232 Clear 28 1012 25 10000 2.52 282 07:51 10.06.2022
3233 Clear 27 1012 28 10000 1.85 294 06:47 10.06.2022
3234 Clear 25 1012 32 10000 2.11 307 06:28 10.06.2022
3235 Clear 23 1012 36 10000 2.54 310 04:55 10.06.2022
3236 Clear 23 1011 35 10000 3.05 318 02:46 10.06.2022
3237 Clear 23 1011 36 10000 2.49 318 01:37 10.06.2022
3238 Clear 24 1011 36 10000 2.28 332 23:58 09.06.2022
3239 Clear 24 1011 35 10000 2.66 333 22:43 09.06.2022
3240 Clear 25 1012 34 10000 3.84 330 21:44 09.06.2022
3241 Clear 26 1012 34 10000 4.49 328 21:25 09.06.2022
3242 Clear 26 1012 34 10000 4.49 328 20:38 09.06.2022
3243 Clear 26 1011 31 10000 5.06 328 19:46 09.06.2022
3244 Clear 28 1010 28 10000 6.57 323 18:41 09.06.2022
3245 Clear 30 1010 22 10000 7.79 314 17:33 09.06.2022
3246 Clear 33 1009 17 10000 9.41 302 16:28 09.06.2022
3247 Clear 33 1009 17 10000 9.41 302 15:40 09.06.2022
3248 Clear 33 1009 17 10000 8.85 298 14:33 09.06.2022
3249 Clear 34 1009 17 10000 9.2 302 13:44 09.06.2022
3250 Clear 34 1009 15 10000 8.92 299 13:20 09.06.2022
3251 Clear 33 1009 15 10000 8.11 297 11:43 09.06.2022
3252 Clear 32 1010 16 10000 7.01 299 10:34 09.06.2022
3253 Clear 31 1011 18 10000 6.36 303 09:40 09.06.2022
3254 Clear 29 1011 21 10000 5.53 297 09:21 09.06.2022
3255 Clear 24 1012 33 10000 4.14 300 07:29 09.06.2022
3256 Clear 20 1012 43 10000 3.22 309 04:47 09.06.2022
3257 Clear 21 1011 39 10000 4.05 315 01:42 09.06.2022
3258 Clear 22 1011 41 10000 4.81 320 23:24 08.06.2022
3259 Clear 22 1011 41 10000 4.81 320 22:45 08.06.2022
3260 Clear 23 1011 42 10000 4.97 323 22:25 08.06.2022
3261 Clear 23 1011 42 10000 4.97 323 21:45 08.06.2022
3262 Clear 24 1011 41 10000 5.28 321 20:33 08.06.2022
3263 Clear 25 1010 39 10000 7.19 319 19:47 08.06.2022
3264 Clear 27 1010 34 10000 7.8 307 18:49 08.06.2022
3265 Clear 29 1009 29 10000 8.85 292 17:48 08.06.2022
3266 Clear 31 1008 22 10000 8.13 280 16:30 08.06.2022
3267 Clear 33 1008 17 10000 7.93 280 14:49 08.06.2022
3268 Clear 33 1008 16 10000 7.21 280 12:55 08.06.2022
3269 Clear 33 1008 16 10000 7.21 280 12:55 08.06.2022
3270 Clear 32 1009 16 10000 6.13 281 11:50 08.06.2022
3271 Clear 31 1009 17 10000 5.3 283 11:22 08.06.2022
3272 Clear 30 1010 18 10000 4.84 286 09:46 08.06.2022
3273 Clear 28 1010 21 10000 4.63 287 09:19 08.06.2022
3274 Clear 26 1010 28 10000 4.65 287 07:30 08.06.2022
3275 Clear 20 1009 51 10000 1.66 300 05:20 08.06.2022
3276 Clear 21 1008 52 10000 3.18 312 02:28 08.06.2022
3277 Clear 22 1008 53 10000 4.02 320 23:42 07.06.2022
3278 Clear 23 1008 51 10000 4.07 323 23:24 07.06.2022
3279 Clear 23 1008 51 10000 4.07 323 22:39 07.06.2022
3280 Clear 24 1008 49 10000 3.83 323 21:52 07.06.2022
3281 Clear 25 1008 46 10000 4.33 324 21:27 07.06.2022
3282 Clear 25 1008 46 10000 4.33 324 20:46 07.06.2022
3283 Clear 26 1007 42 10000 5.17 314 20:23 07.06.2022
3284 Clear 27 1006 38 10000 6.93 304 18:51 07.06.2022
3285 Clear 29 1006 31 10000 6.97 295 17:55 07.06.2022
3286 Clear 31 1005 25 10000 6.74 286 16:56 07.06.2022
3287 Clear 31 1005 25 10000 6.74 286 16:33 07.06.2022
3288 Clouds 31 1006 22 10000 6.96 280 15:40 07.06.2022
3289 Clouds 32 1006 21 10000 7.2 281 15:22 07.06.2022
3290 Clouds 32 1006 21 10000 7.2 281 14:46 07.06.2022
3291 Clouds 32 1006 21 10000 6.99 280 13:50 07.06.2022
3292 Clouds 32 1006 22 10000 6.17 284 13:29 07.06.2022
3293 Clouds 32 1006 22 10000 6.17 284 12:39 07.06.2022
3294 Clouds 30 1007 25 10000 5.04 291 10:57 07.06.2022
3295 Clouds 29 1008 26 10000 5.1 294 09:58 07.06.2022
3296 Clouds 27 1008 29 10000 5.11 294 08:36 07.06.2022
3297 Clouds 22 1009 40 10000 4.47 303 07:22 07.06.2022
3298 Clear 21 1009 45 10000 4.04 312 05:48 07.06.2022
3299 Clear 20 1009 45 10000 3.93 321 02:48 07.06.2022
3300 Clouds 21 1009 44 10000 4.01 325 00:35 07.06.2022
3301 Clouds 22 1009 43 10000 4.26 321 23:34 06.06.2022
3302 Clouds 22 1009 41 10000 5.05 318 22:41 06.06.2022
3303 Clouds 23 1009 41 10000 6.15 319 21:41 06.06.2022
3304 Clouds 25 1008 37 10000 8.07 321 19:59 06.06.2022
3305 Clouds 26 1007 33 10000 8.06 316 19:21 06.06.2022
3306 Clouds 26 1007 33 10000 8.06 316 18:46 06.06.2022
3307 Clouds 29 1007 25 10000 8.14 302 17:51 06.06.2022
3308 Clouds 31 1007 16 10000 7.24 282 16:39 06.06.2022
3309 Clear 32 1007 13 10000 7.67 276 15:40 06.06.2022
3310 Clear 33 1007 11 10000 7.98 278 14:56 06.06.2022
3311 Clear 33 1007 11 10000 7.65 279 13:31 06.06.2022
3312 Clear 33 1007 11 10000 6.64 282 12:44 06.06.2022
3313 Clear 32 1008 13 10000 5.2 286 12:26 06.06.2022
3314 Clear 32 1008 13 10000 5.2 286 11:45 06.06.2022
3315 Clear 29 1010 16 10000 3.28 275 09:43 06.06.2022
3316 Clear 27 1010 18 10000 2.97 279 08:36 06.06.2022
3317 Clouds 26 1010 20 10000 3.25 313 07:41 06.06.2022
3318 Clouds 24 1011 22 10000 2.89 317 06:43 06.06.2022
3319 Clear 21 1010 27 10000 4.13 312 04:28 06.06.2022
3320 Clear 22 1010 26 10000 4.27 313 01:30 06.06.2022
3321 Clear 22 1009 26 10000 3.83 312 00:47 06.06.2022
3322 Clear 23 1010 26 10000 3.54 312 00:28 06.06.2022
3323 Clear 23 1010 26 10000 4.43 324 22:58 05.06.2022
3324 Clear 24 1010 27 10000 5.89 325 21:59 05.06.2022
3325 Clear 26 1010 24 10000 6.52 318 20:23 05.06.2022
3326 Clear 28 1009 21 10000 7.15 312 18:57 05.06.2022
3327 Clear 30 1008 17 10000 7.84 300 17:59 05.06.2022
3328 Clear 30 1008 17 10000 7.84 300 17:38 05.06.2022
3329 Clear 32 1008 13 10000 7.07 290 17:20 05.06.2022
3330 Clear 32 1008 13 10000 7.07 290 16:47 05.06.2022
3331 Clear 34 1008 11 10000 8.2 273 15:25 05.06.2022
3332 Clouds 34 1008 9 10000 8.1 275 14:21 05.06.2022
3333 Clear 34 1009 11 10000 5.9 288 11:58 05.06.2022
3334 Clear 32 1010 13 10000 5.92 295 10:45 05.06.2022
3335 Clear 30 1011 15 10000 5.27 296 10:24 05.06.2022
3336 Clear 30 1011 15 10000 5.27 296 09:34 05.06.2022
3337 Clouds 27 1012 19 10000 3.36 304 08:23 05.06.2022
3338 Clouds 23 1012 26 10000 4.36 323 06:25 05.06.2022
3339 Clouds 22 1011 28 10000 4.92 313 05:19 05.06.2022
3340 Clouds 23 1011 26 10000 5.2 310 02:48 05.06.2022
3341 Clouds 23 1011 27 10000 4.45 326 01:24 05.06.2022
3342 Clouds 24 1011 28 10000 4.35 327 23:36 04.06.2022
3343 Clouds 25 1011 32 10000 6.14 332 21:30 04.06.2022
3344 Clouds 27 1011 29 10000 7.14 332 19:46 04.06.2022
3345 Clear 33 1009 14 10000 6.77 284 17:28 04.06.2022
3346 Clear 34 1009 13 10000 7.3 284 16:22 04.06.2022
3347 Clear 34 1009 13 10000 7.3 284 15:51 04.06.2022
3348 Clear 35 1009 12 10000 6.47 281 14:22 04.06.2022
3349 Clear 33 1010 14 10000 5.33 288 11:45 04.06.2022
3350 Clear 32 1011 15 10000 5.23 292 10:56 04.06.2022
3351 Clear 30 1011 16 10000 5.27 298 10:20 04.06.2022
3352 Clear 30 1011 16 10000 5.27 298 09:41 04.06.2022
3353 Clear 29 1011 18 10000 5.66 300 08:40 04.06.2022
3354 Clear 24 1012 21 10000 6.05 314 07:27 04.06.2022
3355 Clear 21 1011 23 10000 5.42 318 04:33 04.06.2022
3356 Clear 21 1011 23 10000 5.42 318 04:33 04.06.2022
3357 Clear 21 1011 23 10000 5.42 318 04:33 04.06.2022
3358 Clear 21 1011 23 10000 5.42 318 04:33 04.06.2022
3359 Clear 23 1010 27 10000 6.69 323 00:48 04.06.2022
3360 Clear 23 1010 29 10000 7.01 318 23:31 03.06.2022
3361 Clear 24 1011 33 10000 7.54 325 22:28 03.06.2022
3362 Clear 25 1011 32 10000 7.43 332 20:52 03.06.2022
3363 Clear 26 1010 31 10000 7.99 333 20:27 03.06.2022
3364 Clear 31 1008 22 10000 7.23 310 17:39 03.06.2022
3365 Clear 33 1008 16 10000 6.43 289 16:37 03.06.2022
3366 Clear 34 1008 15 10000 6.1 286 14:53 03.06.2022
3367 Clear 34 1008 15 10000 5.15 294 12:56 03.06.2022
3368 Clear 32 1009 16 10000 5.63 300 10:54 03.06.2022
3369 Clear 30 1010 17 10000 5.79 305 09:38 03.06.2022
3370 Clear 29 1010 18 10000 5.99 307 08:32 03.06.2022
3371 Clear 24 1010 23 10000 5.7 308 07:26 03.06.2022
3372 Clear 24 1010 23 10000 5.7 308 06:32 03.06.2022
3373 Clear 21 1010 29 10000 4.4 316 05:19 03.06.2022
3374 Clear 22 1008 39 10000 6.92 320 00:25 03.06.2022
3375 Clear 23 1008 39 10000 6.96 323 22:41 02.06.2022
3376 Clear 23 1008 39 10000 6.96 323 22:41 02.06.2022
3377 Clear 24 1008 37 10000 6.91 322 21:38 02.06.2022
3378 Clear 26 1008 32 10000 5.72 314 20:22 02.06.2022
3379 Clear 26 1008 32 10000 5.72 314 19:46 02.06.2022
3380 Clear 28 1006 29 10000 6.29 316 19:28 02.06.2022
3381 Clear 31 1006 22 10000 6.56 306 17:32 02.06.2022
3382 Clear 33 1005 16 10000 6.61 281 16:27 02.06.2022
3383 Clear 34 1006 14 10000 7.67 284 14:19 02.06.2022
3384 Clear 34 1005 14 10000 7.62 290 13:29 02.06.2022
3385 Clear 34 1005 13 10000 7.48 295 11:36 02.06.2022
3386 Clear 31 1006 15 10000 6.88 307 10:20 02.06.2022
3387 Clear 29 1006 16 10000 6.25 309 09:28 02.06.2022
3388 Clear 27 1006 20 10000 6.65 307 08:27 02.06.2022
3389 Clear 24 1007 26 10000 7.06 308 07:25 02.06.2022
3390 Clear 21 1007 33 10000 6.5 323 04:52 02.06.2022
3391 Clear 21 1007 34 10000 6.61 318 02:38 02.06.2022
3392 Clear 23 1007 39 10000 6.66 310 23:50 01.06.2022
3393 Clear 24 1007 36 10000 7.16 325 22:32 01.06.2022
3394 Clear 24 1007 34 10000 8.21 332 21:37 01.06.2022
3395 Clear 24 1007 35 10000 9.34 329 20:59 01.06.2022
3396 Clear 24 1007 35 10000 9.34 329 20:37 01.06.2022
3397 Clear 26 1006 38 10000 9.38 333 19:28 01.06.2022
3398 Clear 31 1006 26 10000 8.97 328 17:46 01.06.2022
3399 Clear 34 1005 15 10000 8.41 321 16:40 01.06.2022
3400 Clear 36 1005 9 10000 3.18 269 15:18 01.06.2022
3401 Clear 36 1005 10 10000 2.62 274 13:54 01.06.2022
3402 Clear 34 1007 11 10000 2.66 295 12:28 01.06.2022
3403 Clear 31 1008 16 10000 4.12 310 10:25 01.06.2022
3404 Clear 29 1009 21 10000 4.81 309 09:24 01.06.2022
3405 Clear 24 1010 33 10000 5.59 322 07:25 01.06.2022
3406 Clear 24 1010 33 10000 5.59 322 06:40 01.06.2022
3407 Clear 23 1009 35 10000 7.06 327 01:29 01.06.2022
3408 Clear 23 1009 35 10000 7.62 322 23:41 31.05.2022
3409 Clear 24 1009 34 10000 7.15 319 22:37 31.05.2022
3410 Clear 24 1009 34 10000 7.08 326 21:46 31.05.2022
3411 Clear 25 1010 33 10000 6.57 329 20:52 31.05.2022
3412 Clear 25 1010 33 10000 6.57 329 20:31 31.05.2022
3413 Clear 28 1009 26 10000 7.57 324 18:54 31.05.2022
3414 Clear 31 1008 20 10000 7.68 319 17:51 31.05.2022
3415 Clear 31 1008 20 10000 7.68 319 17:31 31.05.2022
3416 Clear 35 1007 12 10000 8.07 294 15:42 31.05.2022
3417 Clear 36 1007 10 10000 7.54 293 14:34 31.05.2022
3418 Clear 36 1008 8 10000 5.45 299 12:22 31.05.2022
3419 Clear 36 1008 8 10000 5.45 299 11:42 31.05.2022
3420 Clear 33 1010 10 10000 5.11 298 09:50 31.05.2022
3421 Clear 28 1011 18 10000 6.34 319 07:41 31.05.2022
3422 Clear 28 1011 18 10000 6.34 319 07:41 31.05.2022
3423 Clear 23 1011 29 10000 4.47 312 05:24 31.05.2022
3424 Clear 24 1010 28 10000 5.39 310 02:33 31.05.2022
3425 Clear 26 1010 28 10000 5.71 321 23:29 30.05.2022
3426 Clear 26 1010 28 10000 5.71 321 22:59 30.05.2022
3427 Clear 26 1010 28 10000 5.71 321 22:31 30.05.2022
3428 Clear 27 1011 28 10000 6.06 325 21:35 30.05.2022
3429 Clear 28 1011 28 10000 6.26 324 20:31 30.05.2022
3430 Clear 28 1010 28 10000 6.61 321 19:38 30.05.2022
3431 Clear 32 1009 21 10000 9.21 318 17:44 30.05.2022
3432 Clear 34 1008 17 10000 9.95 303 17:18 30.05.2022
3433 Clear 36 1007 13 10000 9.99 297 15:44 30.05.2022
3434 Clear 38 1008 7 10000 3.61 285 12:58 30.05.2022
3435 Clear 37 1009 8 10000 2.63 284 11:30 30.05.2022
3436 Clear 34 1010 11 10000 0.97 327 09:41 30.05.2022
3437 Clear 28 1011 22 10000 3.95 322 07:29 30.05.2022
3438 Clear 25 1011 25 10000 3.71 309 05:52 30.05.2022
3439 Clear 25 1010 27 10000 4.49 321 03:22 30.05.2022
3440 Clear 26 1010 29 10000 5.51 313 23:58 29.05.2022
3441 Clear 27 1010 29 10000 6.49 319 22:40 29.05.2022
3442 Clear 27 1010 29 10000 6.94 324 21:44 29.05.2022
3443 Clear 29 1010 26 10000 7.69 332 20:21 29.05.2022
3444 Clear 30 1009 25 10000 7.94 325 19:28 29.05.2022
3445 Clear 33 1008 20 10000 8.49 311 17:56 29.05.2022
3446 Clear 37 1007 7 10000 0.91 219 16:20 29.05.2022
3447 Clear 37 1007 7 10000 0.91 219 15:41 29.05.2022
3448 Clear 37 1007 7 10000 1.58 185 14:54 29.05.2022
3449 Clear 37 1008 7 10000 3.61 162 12:33 29.05.2022
3450 Clear 36 1009 8 10000 5.26 127 11:19 29.05.2022
3451 Clear 35 1009 9 10000 5.19 112 10:29 29.05.2022
3452 Clouds 31 1010 16 10000 2.99 56 07:59 29.05.2022
3453 Clouds 24 1010 26 10000 3.96 336 04:58 29.05.2022
3454 Clouds 24 1010 26 10000 3.96 336 04:33 29.05.2022
3455 Clouds 26 1009 23 10000 3.96 315 01:28 29.05.2022
3456 Clouds 26 1009 23 10000 2.54 331 23:48 28.05.2022
3457 Clouds 27 1009 23 10000 3.99 350 23:19 28.05.2022
3458 Clouds 28 1009 23 10000 3.49 352 21:53 28.05.2022
3459 Clear 28 1009 23 10000 4.1 354 20:58 28.05.2022
3460 Clouds 30 1007 22 10000 7.41 343 19:20 28.05.2022
3461 Clouds 33 1006 16 10000 6.51 340 18:24 28.05.2022
3462 Clouds 33 1006 16 10000 6.51 340 17:33 28.05.2022
3463 Clouds 36 1006 10 10000 2.28 252 15:56 28.05.2022
3464 Clouds 36 1006 10 10000 2.28 252 15:38 28.05.2022
3465 Clouds 36 1006 9 10000 3.11 174 13:38 28.05.2022
3466 Clouds 35 1007 10 10000 3.79 185 12:43 28.05.2022
3467 Clouds 35 1008 10 10000 4.2 187 11:37 28.05.2022
3468 Clouds 34 1008 11 10000 3.01 178 10:39 28.05.2022
3469 Clouds 32 1009 13 10000 1.03 147 09:55 28.05.2022
3470 Clouds 31 1009 15 10000 0.23 12 08:33 28.05.2022
3471 Clouds 28 1010 18 10000 0.82 12 06:50 28.05.2022
3472 Clouds 25 1009 22 10000 1.22 327 05:18 28.05.2022
3473 Clouds 26 1008 22 10000 2.21 331 02:26 28.05.2022
3474 Clouds 27 1009 21 10000 2.99 7 23:58 27.05.2022
3475 Clouds 27 1009 22 10000 2.95 356 22:48 27.05.2022
3476 Clouds 28 1010 21 10000 3.32 351 21:29 27.05.2022
3477 Clouds 28 1010 21 10000 3.32 351 20:45 27.05.2022
3478 Clouds 29 1009 20 10000 3.1 340 20:21 27.05.2022
3479 Clouds 28 1009 21 10000 5.33 330 19:38 27.05.2022
3480 Clouds 29 1009 20 10000 7.56 335 19:20 27.05.2022
3481 Clouds 34 1007 11 10000 4.38 316 17:26 27.05.2022
3482 Clear 34 1007 9 10000 1.02 181 15:57 27.05.2022
3483 Clear 34 1008 9 10000 1.63 208 14:58 27.05.2022
3484 Clear 34 1008 10 10000 1.97 204 13:41 27.05.2022
3485 Clear 34 1010 10 10000 4.08 164 12:28 27.05.2022
3486 Clear 34 1010 10 10000 4.08 164 11:31 27.05.2022
3487 Clear 33 1011 11 10000 4.87 147 10:47 27.05.2022
3488 Clear 32 1011 12 10000 5.22 121 10:22 27.05.2022
3489 Clear 32 1011 12 10000 5.22 121 09:31 27.05.2022
3490 Clouds 29 1012 17 10000 6.63 97 07:41 27.05.2022
3491 Clouds 23 1013 25 10000 2.34 350 05:25 27.05.2022
3492 Clear 23 1012 27 10000 2.52 332 01:47 27.05.2022
3493 Clear 24 1012 25 10000 3.17 340 23:55 26.05.2022
3494 Clear 25 1012 26 10000 4.94 346 22:29 26.05.2022
3495 Clear 25 1012 26 10000 4.94 346 21:33 26.05.2022
3496 Clear 27 1012 24 10000 6.7 340 19:49 26.05.2022
3497 Clear 29 1011 18 10000 5.9 335 19:18 26.05.2022
3498 Clear 29 1011 18 10000 5.9 335 19:18 26.05.2022
3499 Clear 31 1011 13 10000 3.61 336 17:36 26.05.2022
3500 Clear 31 1011 13 10000 3.61 336 17:36 26.05.2022
3501 Clear 32 1011 11 10000 1.26 345 16:35 26.05.2022
3502 Clear 33 1011 11 10000 1.31 291 15:41 26.05.2022
3503 Clear 32 1012 11 10000 2.11 224 14:21 26.05.2022
3504 Clear 32 1013 12 10000 2.32 175 12:35 26.05.2022
3505 Clear 30 1014 14 10000 4.59 133 11:21 26.05.2022
3506 Clear 29 1014 15 10000 5.57 120 09:40 26.05.2022
3507 Clear 28 1015 17 10000 6.3 110 08:57 26.05.2022
3508 Clear 27 1015 19 10000 6.77 101 07:51 26.05.2022
3509 Clear 20 1015 33 10000 1.62 54 03:35 26.05.2022
3510 Clear 22 1014 33 10000 4.05 336 00:21 26.05.2022
3511 Clear 22 1014 33 10000 4.05 336 23:39 25.05.2022
3512 Clear 23 1015 35 10000 5.4 342 21:47 25.05.2022
3513 Clear 24 1015 36 10000 6.28 338 21:28 25.05.2022
3514 Clear 24 1015 36 10000 6.28 338 20:34 25.05.2022
3515 Clear 27 1013 26 10000 6.8 326 19:21 25.05.2022
3516 Clear 29 1012 18 10000 5.88 310 17:40 25.05.2022
3517 Clear 30 1011 15 10000 5.46 308 16:37 25.05.2022
3518 Clear 31 1012 13 10000 3.29 315 15:54 25.05.2022
3519 Clear 31 1012 13 10000 2.45 296 14:51 25.05.2022
3520 Clear 31 1012 13 10000 2.45 296 14:32 25.05.2022
3521 Clear 30 1012 13 10000 3.04 282 13:42 25.05.2022
3522 Clear 30 1013 15 10000 2.71 267 12:37 25.05.2022
3523 Clear 27 1014 19 10000 0.57 196 10:43 25.05.2022
3524 Clear 26 1015 22 10000 0.96 117 09:54 25.05.2022
3525 Clear 25 1015 25 10000 1.69 113 08:37 25.05.2022
3526 Clear 21 1015 33 10000 1.44 110 07:23 25.05.2022
3527 Clear 18 1014 43 10000 2.19 19 03:34 25.05.2022
3528 Clear 19 1013 45 10000 3.85 312 00:19 25.05.2022
3529 Clear 19 1013 45 10000 3.85 312 23:43 24.05.2022
3530 Clear 20 1014 47 10000 4.07 321 22:32 24.05.2022
3531 Clear 20 1014 47 10000 4.22 326 21:40 24.05.2022
3532 Clear 21 1013 45 10000 4.54 326 21:21 24.05.2022
3533 Clear 22 1013 41 10000 5.19 318 19:48 24.05.2022
3534 Clear 23 1012 35 10000 6.9 314 18:56 24.05.2022
3535 Clear 23 1012 35 10000 6.9 314 18:56 24.05.2022
3536 Clear 27 1010 26 10000 8.96 295 16:53 24.05.2022
3537 Clear 28 1010 24 10000 8.54 292 16:23 24.05.2022
3538 Clear 28 1010 22 10000 8.87 291 14:59 24.05.2022
3539 Clear 29 1010 20 10000 8.53 288 14:21 24.05.2022
3540 Clear 29 1010 21 10000 7.6 290 12:50 24.05.2022
3541 Clear 28 1011 21 10000 7.07 291 11:40 24.05.2022
3542 Clear 26 1012 25 10000 5.97 300 09:46 24.05.2022
3543 Clear 24 1012 28 10000 5.71 300 08:50 24.05.2022
3544 Clear 20 1012 39 10000 5.39 297 06:58 24.05.2022
3545 Clear 16 1012 47 10000 4.25 300 04:59 24.05.2022
3546 Clear 16 1011 46 10000 3.96 301 02:42 24.05.2022
3547 Clear 16 1011 45 10000 3.82 301 01:43 24.05.2022
3548 Clear 17 1012 42 10000 3.54 286 23:43 23.05.2022
3549 Clear 18 1012 40 10000 3.15 296 22:22 23.05.2022
3550 Clear 18 1012 40 10000 3.15 296 21:41 23.05.2022
3551 Clear 19 1011 37 10000 3.95 301 20:45 23.05.2022
3552 Clear 20 1011 36 10000 5.47 303 19:41 23.05.2022
3553 Clear 21 1010 33 10000 7.45 298 19:00 23.05.2022
3554 Clear 21 1010 33 10000 7.45 298 18:37 23.05.2022
3555 Clear 23 1009 30 10000 9.04 293 17:55 23.05.2022
3556 Clear 25 1009 27 10000 11.99 291 15:53 23.05.2022
3557 Clear 26 1009 24 10000 12.21 287 13:44 23.05.2022
3558 Clear 26 1009 24 10000 12.69 283 11:40 23.05.2022
3559 Clear 24 1009 29 10000 12.29 279 10:44 23.05.2022
3560 Clear 23 1010 37 10000 11.83 280 09:47 23.05.2022
3561 Clear 21 1010 46 10000 12.54 281 08:46 23.05.2022
3562 Clear 17 1010 64 10000 10.01 276 06:49 23.05.2022
3563 Clear 17 1010 64 10000 10.01 276 06:31 23.05.2022
3564 Clear 15 1010 77 10000 8.87 277 02:55 23.05.2022
3565 Clear 15 1010 68 10000 8.84 281 01:50 23.05.2022
3566 Clear 16 1010 57 10000 9.39 280 01:26 23.05.2022
3567 Clear 17 1010 48 10000 7.82 285 22:49 22.05.2022
3568 Clear 18 1011 41 10000 8.4 292 22:22 22.05.2022
3569 Clear 18 1011 41 10000 8.4 292 21:51 22.05.2022
3570 Clear 19 1011 37 10000 8.05 294 20:43 22.05.2022
3571 Clouds 19 1010 35 10000 8 297 20:21 22.05.2022
3572 Clouds 19 1010 31 10000 9.03 301 19:19 22.05.2022
3573 Clouds 19 1010 31 10000 9.03 301 18:46 22.05.2022
3574 Clouds 21 1010 27 10000 10.8 296 18:21 22.05.2022
3575 Clouds 22 1009 27 10000 11.77 290 16:57 22.05.2022
3576 Clouds 24 1009 25 10000 11.83 288 15:34 22.05.2022
3577 Clouds 26 1009 26 10000 11.61 285 14:47 22.05.2022
3578 Clouds 26 1009 28 10000 9.67 284 12:55 22.05.2022
3579 Clouds 26 1009 28 10000 9.67 284 12:33 22.05.2022
3580 Clouds 25 1010 39 10000 9.33 288 10:55 22.05.2022
3581 Clouds 24 1010 45 10000 8.66 293 09:38 22.05.2022
3582 Clouds 22 1010 52 10000 8.62 306 07:52 22.05.2022
3583 Clouds 21 1010 54 10000 8.56 311 07:20 22.05.2022
3584 Clouds 21 1010 47 10000 8.47 297 04:49 22.05.2022
3585 Clouds 25 1009 28 10000 1.99 318 01:20 22.05.2022
3586 Clouds 26 1009 24 10000 0.93 17 00:26 22.05.2022
3587 Clouds 26 1009 24 10000 0.93 17 23:47 21.05.2022
3588 Clouds 28 1010 18 10000 0.79 354 22:24 21.05.2022
3589 Clouds 28 1010 18 10000 0.79 354 21:39 21.05.2022
3590 Clouds 29 1009 18 10000 1.78 62 20:48 21.05.2022
3591 Clouds 30 1009 16 10000 3.13 43 20:19 21.05.2022
3592 Clouds 31 1008 14 10000 2.67 62 19:24 21.05.2022
3593 Clouds 32 1008 13 10000 3.96 63 17:38 21.05.2022
3594 Clouds 34 1008 12 10000 3.87 97 15:38 21.05.2022
3595 Clouds 34 1009 12 10000 5.17 139 14:37 21.05.2022
3596 Clouds 34 1010 12 10000 6.37 146 13:41 21.05.2022
3597 Clouds 33 1010 13 10000 7.41 137 12:41 21.05.2022
3598 Clouds 32 1011 14 10000 7.62 128 11:56 21.05.2022
3599 Clouds 29 1013 15 10000 9.47 109 10:22 21.05.2022
3600 Clouds 29 1013 15 10000 9.47 109 09:38 21.05.2022
3601 Clouds 28 1013 16 10000 10.23 98 08:52 21.05.2022
3602 Clouds 22 1014 22 10000 9.03 74 06:28 21.05.2022
3603 Clouds 22 1013 26 10000 8 68 03:48 21.05.2022
3604 Clouds 24 1012 21 10000 6.97 51 23:50 20.05.2022
3605 Clouds 25 1012 18 10000 3.3 25 22:42 20.05.2022
3606 Clouds 25 1012 18 10000 3.3 25 22:42 20.05.2022
3607 Clouds 25 1013 19 10000 3.35 359 22:23 20.05.2022
3608 Clouds 25 1013 19 10000 3.35 359 21:40 20.05.2022
3609 Clouds 27 1012 13 10000 3.91 336 20:54 20.05.2022
3610 Clouds 27 1011 11 10000 2.4 323 19:58 20.05.2022
3611 Clouds 28 1011 10 10000 2.16 280 19:26 20.05.2022
3612 Clouds 28 1011 10 10000 2.16 280 18:36 20.05.2022
3613 Clouds 31 1011 8 10000 2.72 228 16:53 20.05.2022
3614 Clouds 32 1011 7 10000 2.7 216 16:19 20.05.2022
3615 Clouds 32 1011 7 10000 2.7 216 15:44 20.05.2022
3616 Clouds 32 1011 8 10000 2.7 209 14:30 20.05.2022
3617 Clouds 32 1011 8 10000 2.23 197 13:55 20.05.2022
3618 Clouds 30 1013 10 10000 2.18 129 11:33 20.05.2022
3619 Clouds 28 1014 13 10000 2.71 102 09:51 20.05.2022
3620 Clouds 26 1015 15 10000 3.16 104 08:44 20.05.2022
3621 Clouds 22 1015 23 10000 1.55 30 06:50 20.05.2022
3622 Clouds 22 1015 23 10000 1.55 30 06:31 20.05.2022
3623 Clouds 18 1015 33 10000 2.69 317 04:31 20.05.2022
3624 Clouds 19 1014 35 10000 3.8 326 00:43 20.05.2022
3625 Clear 20 1014 37 10000 3.64 314 22:47 19.05.2022
3626 Clear 21 1014 37 10000 4.4 323 22:19 19.05.2022
3627 Clear 21 1014 37 10000 4.4 323 21:42 19.05.2022
3628 Clear 22 1014 35 10000 4.93 326 21:22 19.05.2022
3629 Clear 22 1014 35 10000 4.93 326 20:32 19.05.2022
3630 Clear 22 1013 32 10000 5.54 324 19:50 19.05.2022
3631 Clear 26 1012 21 10000 7.85 318 18:22 19.05.2022
3632 Clear 28 1012 18 10000 8.84 309 16:35 19.05.2022
3633 Clear 30 1011 13 10000 8.6 296 15:19 19.05.2022
3634 Clear 31 1012 10 10000 8.05 289 14:25 19.05.2022
3635 Clear 31 1012 10 10000 6.45 290 13:23 19.05.2022
3636 Clear 29 1013 13 10000 5.33 298 11:29 19.05.2022
3637 Clear 25 1014 21 10000 4.86 305 09:29 19.05.2022
3638 Clear 23 1015 26 10000 4.17 314 07:52 19.05.2022
3639 Clear 19 1015 39 10000 3.19 312 06:18 19.05.2022
3640 Clear 19 1015 39 10000 3.19 312 06:18 19.05.2022
3641 Clear 19 1014 42 10000 4.32 331 02:27 19.05.2022
3642 Clear 19 1013 41 10000 4.52 322 00:40 19.05.2022
3643 Clear 20 1013 41 10000 4.17 318 22:50 18.05.2022
3644 Clear 21 1014 39 10000 4.37 318 22:24 18.05.2022
3645 Clear 21 1014 39 10000 4.37 318 21:30 18.05.2022
3646 Clear 22 1014 36 10000 5.43 327 20:50 18.05.2022
3647 Clear 23 1013 33 10000 6.43 328 20:18 18.05.2022
3648 Clear 23 1013 33 10000 6.43 328 20:18 18.05.2022
3649 Clear 24 1012 29 10000 7.18 325 18:33 18.05.2022
3650 Clear 27 1011 22 10000 6.87 310 17:41 18.05.2022
3651 Clear 29 1011 16 10000 7.05 300 17:23 18.05.2022
3652 Clear 29 1011 16 10000 7.05 300 16:34 18.05.2022
3653 Clear 30 1011 13 10000 7.23 298 15:42 18.05.2022
3654 Clear 30 1011 12 10000 6.55 297 14:48 18.05.2022
3655 Clear 31 1011 12 10000 5.68 299 13:44 18.05.2022
3656 Clear 30 1012 12 10000 4.8 302 12:49 18.05.2022
3657 Clear 29 1012 13 10000 4.54 304 11:37 18.05.2022
3658 Clear 28 1013 16 10000 4.48 307 11:19 18.05.2022
3659 Clear 26 1014 20 10000 4.24 314 09:56 18.05.2022
3660 Clear 22 1014 29 10000 3.38 316 07:54 18.05.2022
3661 Clear 20 1015 36 10000 3.55 321 06:49 18.05.2022
3662 Clear 17 1014 47 10000 4.05 321 02:23 18.05.2022
3663 Clear 18 1014 46 10000 5.2 306 00:26 18.05.2022
3664 Clear 19 1014 45 10000 5.38 309 22:47 17.05.2022
3665 Clear 20 1014 44 10000 6.16 319 21:20 17.05.2022
3666 Clear 21 1014 42 10000 6.62 322 20:29 17.05.2022
3667 Clear 22 1013 37 10000 7.6 320 19:28 17.05.2022
3668 Clear 25 1012 30 10000 8.53 316 17:53 17.05.2022
3669 Clear 27 1011 24 10000 9.23 309 17:22 17.05.2022
3670 Clear 27 1011 24 10000 9.23 309 16:34 17.05.2022
3671 Clear 29 1011 19 10000 8.31 303 15:43 17.05.2022
3672 Clear 29 1011 17 10000 8.33 306 14:31 17.05.2022
3673 Clouds 30 1012 15 10000 7.56 304 13:54 17.05.2022
3674 Clouds 30 1012 15 10000 6.66 305 12:32 17.05.2022
3675 Clouds 26 1014 23 10000 6.2 312 09:53 17.05.2022
3676 Clouds 24 1015 29 10000 6.58 314 08:44 17.05.2022
3677 Clouds 19 1016 46 10000 6.15 319 07:18 17.05.2022
3678 Clouds 17 1015 55 10000 5.73 324 04:33 17.05.2022
3679 Clouds 19 1015 45 10000 5.66 323 00:47 17.05.2022
3680 Clouds 20 1016 43 10000 5.67 314 22:45 16.05.2022
3681 Clouds 20 1016 43 10000 4.09 329 22:18 16.05.2022
3682 Clouds 20 1017 43 10000 6.32 322 20:50 16.05.2022
3683 Clouds 21 1016 42 10000 6.52 321 20:24 16.05.2022
3684 Clouds 22 1016 39 10000 7.16 308 18:39 16.05.2022
3685 Clouds 25 1015 31 10000 9.61 305 16:37 16.05.2022
3686 Clouds 27 1014 25 10000 8.95 312 14:47 16.05.2022
3687 Clouds 27 1015 23 10000 8.47 316 13:27 16.05.2022
3688 Clouds 27 1015 23 10000 8.73 314 11:42 16.05.2022
3689 Clouds 26 1016 25 10000 8.42 312 10:30 16.05.2022
3690 Clouds 19 1018 41 10000 6.56 305 07:45 16.05.2022
3691 Clear 15 1018 59 10000 4.29 308 05:40 16.05.2022
3692 Clear 16 1017 51 10000 5.83 298 00:35 16.05.2022
3693 Clear 17 1017 46 10000 6.87 303 22:39 15.05.2022
3694 Clear 17 1017 44 10000 7.52 302 21:54 15.05.2022
3695 Clear 17 1017 44 10000 7.52 302 21:34 15.05.2022
3696 Clear 18 1017 42 10000 8.56 304 20:35 15.05.2022
3697 Clear 21 1015 36 10000 9.34 302 18:37 15.05.2022
3698 Clear 24 1013 32 10000 11.14 300 16:52 15.05.2022
3699 Clouds 29 1012 30 10000 11.57 285 14:26 15.05.2022
3700 Clouds 29 1012 30 10000 11.57 285 13:44 15.05.2022
3701 Clouds 29 1012 30 10000 8.88 281 11:55 15.05.2022
3702 Clouds 28 1012 31 10000 8.1 278 10:47 15.05.2022
3703 Clouds 28 1012 28 10000 8.01 274 09:46 15.05.2022
3704 Clouds 27 1011 17 10000 7.83 106 07:22 15.05.2022
3705 Clouds 27 1011 17 10000 7.83 106 06:42 15.05.2022
3706 Clouds 27 1010 17 10000 6.41 100 02:54 15.05.2022
3707 Clouds 29 1011 16 10000 6.27 119 00:24 15.05.2022
3708 Clouds 29 1011 16 10000 6.27 119 23:36 14.05.2022
3709 Clouds 30 1011 17 10000 7.02 93 21:50 14.05.2022
3710 Clouds 30 1012 18 10000 5.64 86 21:26 14.05.2022
3711 Clouds 31 1011 17 10000 4.64 109 20:26 14.05.2022
3712 Clouds 32 1010 13 10000 3.11 94 19:20 14.05.2022
3713 Clouds 32 1010 13 10000 3.11 94 18:57 14.05.2022
3714 Clouds 33 1009 13 10000 3.33 115 17:47 14.05.2022
3715 Clouds 36 1009 10 10000 8.17 123 15:58 14.05.2022
3716 Clouds 36 1009 10 10000 8.12 126 14:39 14.05.2022
3717 Clouds 36 1011 11 10000 8.03 132 14:18 14.05.2022
3718 Clouds 35 1012 11 10000 7.41 145 11:46 14.05.2022
3719 Clouds 33 1013 12 10000 8.33 135 10:45 14.05.2022
3720 Clouds 32 1014 13 10000 7.3 133 10:19 14.05.2022
3721 Clear 29 1015 15 10000 6.5 135 09:25 14.05.2022
3722 Clear 27 1015 18 10000 6.05 120 07:34 14.05.2022
3723 Clear 22 1015 23 10000 4.01 116 04:49 14.05.2022
3724 Clear 22 1016 22 10000 2.06 84 01:42 14.05.2022
3725 Clear 24 1017 23 10000 1.81 359 23:28 13.05.2022
3726 Clear 24 1017 23 10000 1.81 359 22:56 13.05.2022
3727 Clear 24 1017 22 10000 2.8 335 22:22 13.05.2022
3728 Clear 25 1017 21 10000 4.35 338 21:19 13.05.2022
3729 Clear 25 1017 21 10000 4.35 338 20:43 13.05.2022
3730 Clouds 25 1017 19 10000 4.4 338 20:22 13.05.2022
3731 Clouds 27 1015 17 10000 4.57 336 19:19 13.05.2022
3732 Clouds 29 1015 14 10000 5.09 328 17:50 13.05.2022
3733 Clear 31 1014 13 10000 5.62 315 17:24 13.05.2022
3734 Clear 31 1014 12 10000 4.21 320 15:53 13.05.2022
3735 Clear 31 1014 12 10000 4.32 320 14:47 13.05.2022
3736 Clear 30 1016 12 10000 5.12 317 12:55 13.05.2022
3737 Clear 28 1017 12 10000 3.22 288 12:25 13.05.2022
3738 Clear 27 1018 12 10000 2.1 259 10:35 13.05.2022
3739 Clear 23 1018 16 10000 0.72 180 09:29 13.05.2022
3740 Clear 21 1019 19 10000 0.53 225 08:20 13.05.2022
3741 Clear 21 1019 19 10000 1.7 297 07:31 13.05.2022
3742 Clear 17 1019 30 10000 2.62 310 05:58 13.05.2022
3743 Clear 17 1018 37 10000 3.36 321 01:49 13.05.2022
3744 Clear 17 1019 40 10000 4.43 324 23:44 12.05.2022
3745 Clear 18 1019 40 10000 4.64 337 22:43 12.05.2022
3746 Clear 18 1019 39 10000 4.57 329 21:46 12.05.2022
3747 Clear 20 1018 34 10000 5.06 335 20:23 12.05.2022
3748 Clouds 21 1018 30 10000 6.02 322 18:31 12.05.2022
3749 Clouds 25 1017 20 10000 8.47 296 16:57 12.05.2022
3750 Clear 26 1016 18 10000 7.42 297 15:49 12.05.2022
3751 Clear 26 1017 14 10000 7.48 288 14:20 12.05.2022
3752 Clear 26 1017 14 10000 5.46 294 13:24 12.05.2022
3753 Clear 23 1019 21 10000 5.02 296 10:41 12.05.2022
3754 Clear 21 1020 28 10000 4.73 290 09:19 12.05.2022
3755 Clear 21 1020 28 10000 4.73 290 08:41 12.05.2022
3756 Clear 19 1020 37 10000 3.8 306 07:37 12.05.2022
3757 Clear 16 1019 46 10000 3.29 308 05:35 12.05.2022
3758 Clear 16 1018 42 10000 4.84 310 02:49 12.05.2022
3759 Clouds 17 1017 44 10000 4.15 299 00:33 12.05.2022
3760 Clouds 18 1018 43 10000 3.81 303 22:33 11.05.2022
3761 Clouds 19 1017 41 10000 4.15 308 21:33 11.05.2022
3762 Clouds 20 1017 39 10000 4.56 313 20:55 11.05.2022
3763 Clouds 23 1015 25 10000 7.17 307 18:27 11.05.2022
3764 Clouds 24 1015 22 10000 8.75 301 16:51 11.05.2022
3765 Clouds 24 1015 22 10000 8.75 301 16:51 11.05.2022
3766 Clouds 25 1015 19 10000 7.93 293 14:58 11.05.2022
3767 Clouds 25 1015 19 10000 7.93 293 14:38 11.05.2022
3768 Clouds 26 1015 16 10000 8.17 288 14:18 11.05.2022
3769 Clouds 25 1015 14 10000 6.9 283 11:52 11.05.2022
3770 Clouds 25 1016 16 10000 5.53 283 10:32 11.05.2022
3771 Clouds 22 1017 25 10000 3.77 304 08:40 11.05.2022
3772 Clouds 15 1016 42 10000 2.79 314 05:27 11.05.2022
3773 Clear 17 1015 43 10000 3.69 309 00:43 11.05.2022
3774 Clear 18 1015 43 10000 3.91 308 22:31 10.05.2022
3775 Clear 18 1015 42 10000 4.25 310 21:56 10.05.2022
3776 Clear 19 1015 41 10000 5.1 317 20:57 10.05.2022
3777 Clear 20 1014 38 10000 6.3 319 19:37 10.05.2022
3778 Clear 23 1013 28 10000 7.76 310 17:58 10.05.2022
3779 Clear 24 1013 24 10000 8.33 304 17:21 10.05.2022
3780 Clear 26 1012 20 10000 8.3 299 15:28 10.05.2022
3781 Clear 26 1013 17 10000 8.39 306 12:45 10.05.2022
3782 Clear 26 1013 15 10000 8.19 310 11:51 10.05.2022
3783 Clear 26 1013 15 10000 7.5 314 11:20 10.05.2022
3784 Clear 25 1013 16 10000 6.63 312 10:26 10.05.2022
3785 Clear 23 1013 19 10000 6.11 310 09:26 10.05.2022
3786 Clear 20 1013 26 10000 5.01 310 07:22 10.05.2022
3787 Clear 18 1011 29 10000 3.84 324 03:57 10.05.2022
3788 Clear 20 1011 27 10000 4.41 324 00:57 10.05.2022
3789 Clear 22 1011 26 10000 3.7 317 22:57 09.05.2022
3790 Clear 22 1011 27 10000 4.46 317 21:51 09.05.2022
3791 Clear 23 1010 26 10000 5.84 323 20:54 09.05.2022
3792 Clear 25 1008 22 10000 7.17 337 19:29 09.05.2022
3793 Clear 27 1007 19 10000 7.1 324 17:52 09.05.2022
3794 Clear 30 1007 14 10000 5.3 288 16:38 09.05.2022
3795 Clear 30 1007 14 10000 3.01 279 15:52 09.05.2022
3796 Clouds 30 1008 15 10000 1.7 260 15:27 09.05.2022
3797 Clear 30 1009 15 10000 2.92 295 14:31 09.05.2022
3798 Clear 29 1010 15 10000 3.15 299 13:50 09.05.2022
3799 Clear 28 1012 14 10000 3.77 286 12:26 09.05.2022
3800 Clear 28 1012 14 10000 3.77 286 11:37 09.05.2022
3801 Clear 27 1012 15 10000 2.4 263 10:43 09.05.2022
3802 Clear 25 1013 15 10000 2.2 238 09:38 09.05.2022
3803 Clear 21 1014 20 10000 1.21 223 07:54 09.05.2022
3804 Clear 15 1014 44 10000 1.28 294 03:40 09.05.2022
3805 Clear 16 1015 45 10000 3.26 314 00:20 09.05.2022
3806 Clear 17 1015 45 10000 3.35 320 22:57 08.05.2022
3807 Clear 17 1016 43 10000 3.92 327 22:22 08.05.2022
3808 Clear 18 1016 40 10000 4.24 331 20:37 08.05.2022
3809 Clear 19 1015 36 10000 5.35 328 19:53 08.05.2022
3810 Clear 21 1014 29 10000 5.9 310 18:57 08.05.2022
3811 Clear 23 1013 23 10000 6.02 298 18:19 08.05.2022
3812 Clear 24 1013 19 10000 6.13 298 16:58 08.05.2022
3813 Clear 25 1013 17 10000 5.97 297 15:41 08.05.2022
3814 Clear 25 1013 15 10000 5.82 293 15:20 08.05.2022
3815 Clear 25 1013 15 10000 5.82 293 15:20 08.05.2022
3816 Clear 23 1014 18 10000 4.11 295 12:39 08.05.2022
3817 Clear 21 1016 23 10000 4.83 302 10:32 08.05.2022
3818 Clear 20 1016 25 10000 4.39 301 09:59 08.05.2022
3819 Clear 20 1016 25 10000 4.39 301 09:33 08.05.2022
3820 Clouds 17 1017 34 10000 4.11 309 07:33 08.05.2022
3821 Clear 12 1016 60 10000 4.06 313 04:20 08.05.2022
3822 Clear 13 1016 59 10000 4.18 321 03:19 08.05.2022
3823 Clear 14 1016 58 10000 5.3 319 00:28 08.05.2022
3824 Clear 14 1016 58 10000 5.3 319 23:53 07.05.2022
3825 Clear 14 1016 56 10000 5.76 318 22:57 07.05.2022
3826 Clear 14 1016 56 10000 5.76 318 22:33 07.05.2022
3827 Clear 15 1016 53 10000 6.58 313 21:43 07.05.2022
3828 Clear 16 1016 49 10000 6.61 314 20:55 07.05.2022
3829 Clear 16 1015 47 10000 7.25 312 19:58 07.05.2022
3830 Clear 19 1013 35 10000 8.4 299 17:51 07.05.2022
3831 Clear 21 1012 29 10000 8.32 281 15:53 07.05.2022
3832 Clouds 22 1012 29 10000 8.34 289 14:44 07.05.2022
3833 Clouds 20 1014 31 10000 7.46 288 10:59 07.05.2022
3834 Clouds 18 1014 37 10000 6.59 292 09:38 07.05.2022
3835 Clear 15 1015 54 10000 6.55 294 07:52 07.05.2022
3836 Clear 13 1015 66 10000 5.93 282 06:44 07.05.2022
3837 Clear 11 1014 77 10000 3.5 291 05:22 07.05.2022
3838 Clear 11 1013 75 10000 3.53 292 03:32 07.05.2022
3839 Clear 13 1013 60 10000 5.96 288 23:38 06.05.2022
3840 Clear 13 1013 57 10000 6.79 292 22:32 06.05.2022
3841 Clear 14 1013 54 10000 7.39 294 21:45 06.05.2022
3842 Clear 14 1013 51 10000 7.8 298 20:35 06.05.2022
3843 Clear 15 1013 45 10000 8.33 303 19:41 06.05.2022
3844 Clear 16 1011 38 10000 8.52 310 19:18 06.05.2022
3845 Clear 18 1010 38 10000 8.47 298 18:23 06.05.2022
3846 Clear 19 1010 36 10000 9.26 285 16:57 06.05.2022
3847 Clear 20 1010 32 10000 9.49 285 15:47 06.05.2022
3848 Clear 21 1010 31 10000 9.52 281 14:54 06.05.2022
3849 Clouds 19 1011 41 10000 9.68 279 13:26 06.05.2022
3850 Clouds 19 1011 41 10000 9.68 279 12:40 06.05.2022
3851 Clouds 19 1011 44 10000 9.08 271 11:45 06.05.2022
3852 Rain 18 1012 51 10000 8.36 263 10:30 06.05.2022
3853 Rain 17 1013 52 10000 8.53 273 09:46 06.05.2022
3854 Rain 16 1012 57 10000 7.64 288 08:43 06.05.2022
3855 Clouds 14 1012 65 10000 6.97 269 06:50 06.05.2022
3856 Clouds 13 1012 70 10000 6.18 274 05:37 06.05.2022
3857 Clouds 13 1012 70 10000 8.52 277 02:50 06.05.2022
3858 Clouds 13 1012 66 10000 8.63 277 01:31 06.05.2022
3859 Clear 12 1013 75 10000 7.26 285 22:32 05.05.2022
3860 Clear 14 1013 65 10000 7.02 285 21:22 05.05.2022
3861 Clear 15 1013 58 10000 7.39 283 19:55 05.05.2022
3862 Clear 15 1013 53 10000 8.22 281 18:34 05.05.2022
3863 Clear 19 1012 39 10000 11.62 278 16:35 05.05.2022
3864 Clear 21 1011 32 10000 11.78 275 14:51 05.05.2022
3865 Clear 21 1012 33 10000 10.01 269 13:24 05.05.2022
3866 Clear 21 1012 33 10000 10.01 269 12:49 05.05.2022
3867 Clear 19 1014 42 10000 9.53 272 10:52 05.05.2022
3868 Clear 18 1014 45 10000 9.85 273 09:40 05.05.2022
3869 Clear 16 1014 54 10000 9.97 279 07:36 05.05.2022
3870 Clouds 13 1014 76 10000 8.3 283 05:19 05.05.2022
3871 Clear 13 1013 79 10000 7.96 292 01:59 05.05.2022
3872 Clear 13 1013 76 10000 7.87 292 01:29 05.05.2022
3873 Clear 14 1013 75 10000 8.06 289 23:53 04.05.2022
3874 Clear 15 1013 72 10000 8.56 283 22:46 04.05.2022
3875 Clear 16 1013 71 10000 8.75 284 21:54 04.05.2022
3876 Clear 16 1013 72 10000 9.04 287 21:29 04.05.2022
3877 Clear 17 1012 68 10000 9.19 290 20:27 04.05.2022
3878 Clear 17 1012 68 10000 9.19 290 19:55 04.05.2022
3879 Clear 18 1011 63 10000 9.51 295 19:24 04.05.2022
3880 Clear 19 1010 55 10000 10.74 294 18:22 04.05.2022
3881 Clear 19 1010 55 10000 10.74 294 17:51 04.05.2022
3882 Clear 23 1009 40 10000 12.19 291 15:42 04.05.2022
3883 Clear 25 1009 36 10000 11.96 286 15:24 04.05.2022
3884 Clear 25 1009 36 10000 11.62 279 14:21 04.05.2022
3885 Clear 25 1009 36 10000 11.22 282 13:49 04.05.2022
3886 Clear 25 1010 36 10000 11.03 283 12:33 04.05.2022
3887 Clear 24 1010 40 10000 10.89 279 10:43 04.05.2022
3888 Clear 22 1010 42 10000 10.65 278 09:45 04.05.2022
3889 Clear 21 1011 47 10000 10.53 274 08:48 04.05.2022
3890 Clouds 20 1011 52 10000 10.12 271 07:33 04.05.2022
3891 Clouds 18 1009 45 10000 7.33 261 02:59 04.05.2022
3892 Clear 19 1009 38 10000 6.61 251 01:24 04.05.2022
3893 Clouds 21 1009 33 10000 5.48 256 22:50 03.05.2022
3894 Clouds 22 1009 31 10000 4.68 261 21:47 03.05.2022
3895 Clouds 23 1008 29 10000 4.73 275 21:20 03.05.2022
3896 Clouds 23 1008 29 10000 4.73 275 20:31 03.05.2022
3897 Clouds 25 1007 20 10000 5.12 296 18:55 03.05.2022
3898 Clouds 25 1007 20 10000 5.12 296 18:37 03.05.2022
3899 Clouds 28 1005 18 10000 10.78 281 17:19 03.05.2022
3900 Clouds 31 1004 14 10000 10.82 271 15:48 03.05.2022
3901 Clouds 34 1003 10 10000 10 253 14:22 03.05.2022
3902 Clouds 34 1004 10 10000 10.24 240 12:31 03.05.2022
3903 Clouds 31 1006 14 10000 7.82 159 11:23 03.05.2022
3904 Clouds 29 1008 18 10000 9.45 150 10:25 03.05.2022
3905 Clouds 25 1009 27 10000 7.17 136 08:18 03.05.2022
3906 Clouds 23 1009 29 10000 6.88 136 06:45 03.05.2022
3907 Clouds 22 1009 33 10000 2.24 171 01:56 03.05.2022
3908 Clouds 22 1011 35 10000 4.52 350 22:47 02.05.2022
3909 Clouds 22 1012 36 10000 6.94 343 22:28 02.05.2022
3910 Clouds 22 1012 36 10000 9.16 339 21:26 02.05.2022
3911 Clouds 27 1010 21 10000 6.46 322 19:22 02.05.2022
3912 Clouds 28 1009 15 10000 6.14 292 18:25 02.05.2022
3913 Clouds 28 1009 15 10000 6.14 292 17:38 02.05.2022
3914 Clouds 29 1008 13 10000 5.52 288 16:37 02.05.2022
3915 Clouds 30 1008 13 10000 6.01 294 15:41 02.05.2022
3916 Clear 30 1009 13 10000 3.97 297 14:27 02.05.2022
3917 Clear 29 1010 15 10000 4.1 295 13:19 02.05.2022
3918 Clear 27 1010 17 10000 3.48 295 11:41 02.05.2022
3919 Clear 23 1012 28 10000 3.5 300 09:32 02.05.2022
3920 Clouds 19 1013 46 10000 5.5 304 08:20 02.05.2022
3921 Clouds 17 1013 60 10000 5.55 314 06:31 02.05.2022
3922 Clear 15 1012 67 10000 5.2 315 00:44 02.05.2022
3923 Clear 16 1012 64 10000 5.17 324 00:21 02.05.2022
3924 Clear 17 1012 60 10000 4.92 325 22:53 01.05.2022
3925 Clear 17 1012 55 10000 4.86 316 21:42 01.05.2022
3926 Clear 18 1012 50 10000 4.94 303 20:30 01.05.2022
3927 Clear 20 1011 40 10000 7.34 285 19:21 01.05.2022
3928 Clear 20 1011 40 10000 7.34 285 18:52 01.05.2022
3929 Clear 21 1010 34 10000 8.39 279 17:49 01.05.2022
3930 Clear 23 1009 31 10000 9.7 282 16:37 01.05.2022
3931 Clear 24 1009 29 10000 11.43 282 15:51 01.05.2022
3932 Clear 25 1009 29 10000 10.59 280 14:45 01.05.2022
3933 Clear 25 1011 29 10000 9.24 281 12:24 01.05.2022
3934 Clear 22 1012 37 10000 7.86 291 10:22 01.05.2022
3935 Clear 20 1012 44 10000 7.41 294 08:50 01.05.2022
3936 Clear 17 1012 62 10000 6.9 301 06:50 01.05.2022
3937 Clear 16 1010 59 10000 7.52 282 01:56 01.05.2022
3938 Clear 19 1009 54 10000 7.61 301 22:18 30.04.2022
3939 Clear 19 1009 54 10000 7.61 301 21:32 30.04.2022
3940 Clear 21 1008 45 10000 9.92 286 19:54 30.04.2022
3941 Clear 23 1006 36 10000 10.76 281 19:25 30.04.2022
3942 Clear 25 1005 30 10000 11.04 277 17:31 30.04.2022
3943 Clear 30 1004 16 10000 13.5 270 15:52 30.04.2022
3944 Clear 32 1004 8 10000 12.66 265 15:18 30.04.2022
3945 Clear 33 1004 8 10000 11.46 261 13:59 30.04.2022
3946 Clear 33 1005 9 10000 9.78 253 11:58 30.04.2022
3947 Clear 33 1005 9 10000 9.78 253 11:31 30.04.2022
3948 Clear 33 1006 12 10000 6.05 221 10:23 30.04.2022
3949 Clear 27 1008 26 10000 7.98 141 07:47 30.04.2022
3950 Clear 21 1008 37 10000 5.77 110 04:58 30.04.2022
3951 Clouds 25 1008 24 10000 6.16 130 00:25 30.04.2022
3952 Clouds 26 1009 24 10000 5.71 141 22:56 29.04.2022
3953 Clouds 26 1010 23 10000 4.68 131 22:21 29.04.2022
3954 Clouds 27 1010 22 10000 3.74 136 21:26 29.04.2022
3955 Clear 27 1010 21 10000 4.34 130 20:24 29.04.2022
3956 Clear 28 1009 21 10000 4.83 123 19:28 29.04.2022
3957 Clear 29 1008 19 10000 6.8 112 17:37 29.04.2022
3958 Clear 31 1008 16 10000 6.8 117 16:43 29.04.2022
3959 Clear 32 1008 15 10000 5.74 123 14:38 29.04.2022
3960 Clear 32 1009 16 10000 5.46 128 13:51 29.04.2022
3961 Clear 32 1009 15 10000 5.45 154 12:38 29.04.2022
3962 Clear 30 1011 22 10000 5.76 155 10:44 29.04.2022
3963 Clear 24 1012 40 10000 4.6 138 07:58 29.04.2022
3964 Clear 22 1012 47 10000 4.74 122 07:26 29.04.2022
3965 Clear 22 1012 47 10000 4.74 122 06:33 29.04.2022
3966 Clear 20 1011 55 10000 1.69 134 02:50 29.04.2022
3967 Clear 22 1012 46 10000 2.59 110 00:18 29.04.2022
3968 Clear 22 1012 42 10000 2.95 98 23:26 28.04.2022
3969 Clear 22 1012 42 10000 2.95 98 22:37 28.04.2022
3970 Clear 22 1012 40 10000 3.31 80 21:44 28.04.2022
3971 Clouds 23 1012 36 10000 3.9 74 20:49 28.04.2022
3972 Clear 24 1011 28 10000 3.93 350 19:57 28.04.2022
3973 Clear 24 1011 28 10000 3.93 350 19:39 28.04.2022
3974 Clear 24 1009 28 10000 6.18 7 19:19 28.04.2022
3975 Clear 26 1008 26 10000 7.19 6 17:56 28.04.2022
3976 Clear 28 1007 19 10000 7.84 321 16:59 28.04.2022
3977 Clear 30 1006 18 10000 8.76 303 16:21 28.04.2022
3978 Clear 30 1006 18 10000 8.76 303 15:56 28.04.2022
3979 Clear 31 1006 16 10000 6.1 283 15:21 28.04.2022
3980 Clouds 32 1006 15 10000 4 235 13:43 28.04.2022
3981 Clouds 31 1007 16 10000 3.87 201 12:34 28.04.2022
3982 Clouds 31 1008 17 10000 4.52 172 11:51 28.04.2022
3983 Clouds 28 1009 22 10000 4.89 132 10:29 28.04.2022
3984 Clouds 28 1009 22 10000 4.89 132 09:51 28.04.2022
3985 Clouds 24 1009 28 10000 1.6 91 07:45 28.04.2022
3986 Clouds 22 1010 33 10000 1.1 3 06:54 28.04.2022
3987 Clouds 21 1010 36 10000 2.43 349 05:54 28.04.2022
3988 Clouds 19 1009 41 10000 3.47 339 04:44 28.04.2022
3989 Clouds 20 1009 37 10000 4.02 313 03:28 28.04.2022
3990 Clouds 22 1009 32 10000 3.82 334 23:52 27.04.2022
3991 Clouds 23 1009 30 10000 3.03 354 22:30 27.04.2022
3992 Clouds 24 1010 29 10000 2.56 1 21:50 27.04.2022
3993 Clouds 25 1010 29 10000 3.14 22 20:51 27.04.2022
3994 Clouds 25 1010 29 10000 3.14 22 20:32 27.04.2022
3995 Clouds 26 1009 27 10000 2.23 354 19:37 27.04.2022
3996 Clouds 26 1009 27 10000 4.63 19 18:52 27.04.2022
3997 Clouds 28 1008 23 10000 5.56 31 18:21 27.04.2022
3998 Clouds 30 1006 16 10000 2.89 293 16:23 27.04.2022
3999 Clouds 32 1007 13 10000 4.19 244 14:26 27.04.2022
4000 Clouds 31 1009 17 10000 3.38 168 11:45 27.04.2022
4001 Clouds 30 1010 18 10000 3.9 157 11:20 27.04.2022
4002 Clouds 27 1011 23 10000 2.96 149 08:58 27.04.2022
4003 Clouds 24 1011 29 10000 2.45 110 07:18 27.04.2022
4004 Clouds 21 1010 34 10000 2.02 107 04:21 27.04.2022
4005 Clear 22 1010 34 10000 1.1 14 01:31 27.04.2022
4006 Clear 22 1010 33 10000 2.13 349 00:36 27.04.2022
4007 Clear 22 1010 33 10000 2.13 349 00:36 27.04.2022
4008 Clear 23 1011 31 10000 2.13 340 23:25 26.04.2022
4009 Clear 23 1011 31 10000 2.13 340 22:58 26.04.2022
4010 Clear 23 1011 31 10000 2.13 340 22:39 26.04.2022
4011 Clear 24 1011 29 10000 2.63 7 21:26 26.04.2022
4012 Clear 24 1011 29 10000 2.63 7 20:41 26.04.2022
4013 Clouds 25 1011 31 10000 5.2 24 19:53 26.04.2022
4014 Clouds 25 1010 26 10000 4.51 341 19:32 26.04.2022
4015 Clouds 25 1010 27 10000 4.99 9 18:44 26.04.2022
4016 Clouds 26 1009 26 10000 7.7 349 17:59 26.04.2022
4017 Clouds 28 1008 22 10000 7.3 328 16:49 26.04.2022
4018 Clear 31 1008 14 10000 4.04 287 13:59 26.04.2022
4019 Clear 30 1008 15 10000 3.58 295 13:33 26.04.2022
4020 Clear 29 1009 17 10000 2.19 274 11:55 26.04.2022
4021 Clear 29 1010 18 10000 1.69 240 10:37 26.04.2022
4022 Clear 26 1011 22 10000 1.73 143 09:25 26.04.2022
4023 Clear 23 1011 31 10000 0.85 138 07:22 26.04.2022
4024 Clear 20 1010 39 10000 1.22 318 04:33 26.04.2022
4025 Clouds 22 1010 38 10000 1.35 266 01:25 26.04.2022
4026 Clouds 23 1010 37 10000 1.82 299 00:26 26.04.2022
4027 Clouds 24 1010 33 10000 2.83 329 22:36 25.04.2022
4028 Clouds 25 1010 29 10000 3.44 338 21:40 25.04.2022
4029 Clouds 25 1010 28 10000 4.56 346 20:40 25.04.2022
4030 Clouds 26 1009 24 10000 4.07 0 18:58 25.04.2022
4031 Clouds 28 1008 17 10000 2.39 102 17:54 25.04.2022
4032 Clouds 29 1008 15 10000 3.35 70 16:59 25.04.2022
4033 Clouds 30 1008 15 10000 4.22 93 15:29 25.04.2022
4034 Clouds 30 1008 15 10000 4.22 93 14:42 25.04.2022
4035 Clouds 29 1009 17 10000 2.7 119 13:33 25.04.2022
4036 Clouds 28 1010 22 10000 4.47 111 11:38 25.04.2022
4037 Clouds 26 1011 33 10000 4.63 105 10:26 25.04.2022
4038 Clouds 24 1011 38 10000 5.4 105 08:39 25.04.2022
4039 Clouds 20 1011 54 10000 3.23 118 06:45 25.04.2022
4040 Clouds 17 1010 62 10000 2.26 82 04:27 25.04.2022
4041 Clouds 18 1010 67 10000 3.1 100 00:57 25.04.2022
4042 Clouds 18 1011 66 10000 3.65 103 23:51 24.04.2022
4043 Clouds 18 1011 63 10000 5.19 122 22:45 24.04.2022
4044 Clouds 19 1011 56 10000 6.4 143 22:26 24.04.2022
4045 Clouds 21 1010 55 10000 5.03 112 21:26 24.04.2022
4046 Clouds 21 1010 55 10000 5.03 112 20:54 24.04.2022
4047 Clouds 20 1010 47 10000 2.65 84 20:35 24.04.2022
4048 Clouds 19 1010 47 10000 0.54 159 19:48 24.04.2022
4049 Rain 23 1007 45 6636 5.43 337 18:20 24.04.2022
4050 Rain 27 1004 28 10000 10.05 83 17:29 24.04.2022
4051 Rain 27 1004 28 10000 10.05 83 16:59 24.04.2022
4052 Rain 27 1004 28 10000 10.05 83 16:35 24.04.2022
4053 Rain 30 1004 21 10000 4.25 32 15:55 24.04.2022
4054 Rain 30 1004 21 10000 4.25 32 15:31 24.04.2022
4055 Rain 30 1004 21 10000 4.25 32 15:31 24.04.2022
4056 Clouds 30 1005 20 10000 5.08 56 13:58 24.04.2022
4057 Clouds 30 1005 20 10000 5.39 54 13:25 24.04.2022
4058 Clouds 30 1005 20 10000 5.39 54 13:25 24.04.2022
4059 Clouds 30 1005 20 10000 5.39 54 12:32 24.04.2022
4060 Clouds 29 1006 21 10000 5.81 64 11:33 24.04.2022
4061 Clouds 26 1007 28 10000 6.14 78 10:27 24.04.2022
4062 Clouds 25 1007 31 10000 5.44 83 09:26 24.04.2022
4063 Clouds 22 1007 38 10000 6.39 62 06:45 24.04.2022
4064 Clouds 21 1007 42 10000 3.86 64 03:55 24.04.2022
4065 Clouds 21 1006 50 10000 2.37 88 01:38 24.04.2022
4066 Clouds 21 1006 50 10000 2.37 88 01:38 24.04.2022
4067 Clouds 20 1007 52 10000 3.31 113 00:29 24.04.2022
4068 Clouds 20 1007 52 10000 3.31 113 23:44 23.04.2022
4069 Clouds 21 1008 52 10000 2.21 117 23:21 23.04.2022
4070 Rain 20 1008 54 10000 4.19 112 21:51 23.04.2022
4071 Rain 20 1008 54 10000 4.19 112 21:33 23.04.2022
4072 Rain 21 1008 50 10000 3.74 126 20:45 23.04.2022
4073 Rain 21 1008 50 10000 3.74 126 20:45 23.04.2022
4074 Clouds 21 1007 49 10000 7.3 113 19:47 23.04.2022
4075 Clouds 24 1005 38 10000 7.57 82 19:19 23.04.2022
4076 Clouds 24 1005 38 10000 7.57 82 18:52 23.04.2022
4077 Clouds 28 1002 19 10000 1.15 194 17:51 23.04.2022
4078 Clouds 31 1002 15 10000 2.27 192 17:20 23.04.2022
4079 Clouds 31 1002 15 10000 2.27 192 16:40 23.04.2022
4080 Clouds 32 1003 15 10000 4.74 140 15:20 23.04.2022
4081 Clouds 32 1004 16 10000 7.5 104 12:44 23.04.2022
4082 Clouds 30 1006 13 10000 8.21 119 10:43 23.04.2022
4083 Clouds 29 1007 11 10000 8.17 120 09:33 23.04.2022
4084 Clouds 24 1008 13 10000 6.71 101 06:31 23.04.2022
4085 Clouds 21 1008 17 10000 4.69 88 03:54 23.04.2022
4086 Clouds 23 1008 17 10000 7.2 99 00:57 23.04.2022
4087 Clouds 24 1008 16 10000 6.71 71 23:29 22.04.2022
4088 Clouds 25 1008 16 10000 5.43 71 22:20 22.04.2022
4089 Clouds 25 1008 16 10000 5.43 71 21:42 22.04.2022
4090 Clouds 26 1009 16 10000 4.85 56 20:47 22.04.2022
4091 Clouds 26 1009 16 10000 4.64 51 20:27 22.04.2022
4092 Clouds 27 1008 14 10000 5.1 60 19:20 22.04.2022
4093 Clouds 27 1008 14 10000 5.1 60 18:41 22.04.2022
4094 Clouds 28 1008 13 10000 4.46 64 17:40 22.04.2022
4095 Clouds 29 1008 12 10000 3.74 70 16:46 22.04.2022
4096 Clouds 29 1009 11 10000 2.61 85 15:42 22.04.2022
4097 Clouds 29 1009 11 10000 2.52 120 14:46 22.04.2022
4098 Clouds 29 1009 11 10000 3.46 129 13:49 22.04.2022
4099 Clouds 28 1010 12 10000 4.46 138 12:58 22.04.2022
4100 Clouds 28 1011 11 10000 4.81 144 11:50 22.04.2022
4101 Clouds 27 1012 10 10000 4.65 130 11:21 22.04.2022
4102 Clouds 27 1012 10 10000 4.65 130 10:50 22.04.2022
4103 Clouds 27 1012 10 10000 4.65 130 10:30 22.04.2022
4104 Clouds 26 1013 9 10000 5.38 123 09:50 22.04.2022
4105 Clouds 24 1013 13 10000 6.09 113 08:50 22.04.2022
4106 Clouds 19 1013 24 10000 2.43 100 07:20 22.04.2022
4107 Clouds 16 1013 35 10000 1.33 304 03:30 22.04.2022
4108 Clouds 16 1013 38 10000 2.61 327 00:51 22.04.2022
4109 Clear 17 1014 38 10000 3.56 331 23:25 21.04.2022
4110 Clear 18 1014 36 10000 3.93 335 22:29 21.04.2022
4111 Clear 19 1014 32 10000 4.12 339 20:43 21.04.2022
4112 Clear 20 1014 28 10000 4.21 337 20:24 21.04.2022
4113 Clear 20 1012 26 10000 5.19 340 18:44 21.04.2022
4114 Clear 22 1012 19 10000 4.74 334 18:18 21.04.2022
4115 Clear 25 1011 11 10000 4.15 325 16:44 21.04.2022
4116 Clear 25 1012 8 10000 4.28 307 15:22 21.04.2022
4117 Clear 25 1012 8 10000 4.28 307 14:49 21.04.2022
4118 Clear 24 1013 13 10000 3.43 293 13:23 21.04.2022
4119 Clear 24 1013 13 10000 3.43 293 12:59 21.04.2022
4120 Clear 22 1015 21 10000 2.42 302 10:57 21.04.2022
4121 Clear 18 1016 29 10000 2.14 316 08:57 21.04.2022
4122 Clear 16 1016 37 10000 2.77 318 07:32 21.04.2022
4123 Clear 11 1016 63 10000 3.54 313 05:44 21.04.2022
4124 Clear 11 1016 69 10000 4.4 311 03:32 21.04.2022
4125 Clear 11 1015 68 10000 4.85 315 02:47 21.04.2022
4126 Clear 12 1015 64 10000 5.5 321 01:41 21.04.2022
4127 Clear 13 1015 60 10000 6.42 320 23:51 20.04.2022
4128 Clear 13 1016 61 10000 6.43 323 23:23 20.04.2022
4129 Clear 13 1016 61 10000 6.43 323 22:51 20.04.2022
4130 Clear 13 1016 61 10000 6.43 323 22:32 20.04.2022
4131 Clear 14 1016 59 10000 6.21 328 21:33 20.04.2022
4132 Clear 14 1016 56 10000 6.03 325 20:41 20.04.2022
4133 Clear 15 1015 51 10000 6.82 318 19:53 20.04.2022
4134 Clear 16 1014 46 10000 7.38 316 19:22 20.04.2022
4135 Clear 18 1014 40 10000 7.62 312 18:23 20.04.2022
4136 Clear 20 1013 34 10000 8.33 309 16:57 20.04.2022
4137 Clear 20 1013 34 10000 8.33 309 16:38 20.04.2022
4138 Clear 22 1013 29 10000 8.66 306 14:26 20.04.2022
4139 Clear 21 1014 30 10000 7.58 308 11:55 20.04.2022
4140 Clear 20 1014 34 10000 7.18 305 11:25 20.04.2022
4141 Clear 18 1015 41 10000 6.99 300 10:27 20.04.2022
4142 Clear 16 1016 48 10000 7.13 302 09:26 20.04.2022
4143 Clear 14 1016 57 10000 6.39 308 08:24 20.04.2022
4144 Clear 14 1016 57 10000 6.39 308 07:42 20.04.2022
4145 Clear 14 1016 57 10000 6.39 308 07:42 20.04.2022
4146 Clear 11 1015 71 10000 3.94 323 04:37 20.04.2022
4147 Clear 13 1014 54 10000 6.83 307 00:55 20.04.2022
4148 Clear 13 1014 52 10000 7.43 308 00:20 20.04.2022
4149 Clear 14 1014 52 10000 7.46 311 22:40 19.04.2022
4150 Clear 14 1014 52 10000 7.96 314 22:19 19.04.2022
4151 Clear 14 1014 52 10000 7.96 314 21:38 19.04.2022
4152 Clear 15 1014 52 10000 9.27 313 20:56 19.04.2022
4153 Clear 15 1014 52 10000 9.27 313 20:34 19.04.2022
4154 Clear 16 1012 45 10000 9.74 309 19:25 19.04.2022
4155 Clear 18 1011 37 10000 10.33 305 18:18 19.04.2022
4156 Clear 20 1011 34 10000 11.22 299 16:46 19.04.2022
4157 Clear 22 1010 32 10000 10.61 294 16:24 19.04.2022
4158 Clear 23 1010 32 10000 10.96 293 15:20 19.04.2022
4159 Clear 23 1010 32 10000 10.96 293 14:32 19.04.2022
4160 Clouds 24 1010 36 10000 10.29 293 12:52 19.04.2022
4161 Clouds 25 1010 36 10000 11.37 293 12:26 19.04.2022
4162 Clouds 25 1009 30 10000 8.67 294 11:23 19.04.2022
4163 Clouds 23 1009 37 10000 8.41 305 09:27 19.04.2022
4164 Clouds 21 1009 40 10000 7.2 325 07:37 19.04.2022
4165 Clouds 21 1006 38 10000 5.03 322 04:23 19.04.2022
4166 Clouds 23 1006 26 10000 3.55 319 01:18 19.04.2022
4167 Clouds 24 1007 23 10000 3.51 313 23:44 18.04.2022
4168 Clouds 26 1007 19 10000 2.85 299 21:57 18.04.2022
4169 Clouds 27 1007 18 10000 2.55 324 21:25 18.04.2022
4170 Clouds 27 1007 18 10000 2.55 324 20:39 18.04.2022
4171 Clouds 28 1007 19 10000 2.73 325 19:59 18.04.2022
4172 Clouds 28 1007 19 10000 2.73 325 19:30 18.04.2022
4173 Clouds 29 1006 16 10000 3.9 341 18:43 18.04.2022
4174 Clouds 31 1006 10 10000 3.74 314 17:40 18.04.2022
4175 Clouds 33 1005 8 10000 5.2 273 17:19 18.04.2022
4176 Clouds 33 1005 8 10000 5.2 273 16:38 18.04.2022
4177 Clouds 35 1005 7 10000 7.24 253 15:30 18.04.2022
4178 Clouds 36 1006 6 10000 11.03 208 14:22 18.04.2022
4179 Clouds 36 1006 6 10000 9.73 208 12:54 18.04.2022
4180 Clouds 36 1007 6 10000 8.71 187 12:23 18.04.2022
4181 Clouds 34 1008 6 10000 8.58 162 10:46 18.04.2022
4182 Clouds 31 1009 6 10000 8.32 148 09:32 18.04.2022
4183 Clouds 28 1010 8 10000 7.73 141 08:46 18.04.2022
4184 Clouds 22 1011 13 10000 7.47 115 06:52 18.04.2022
4185 Clear 21 1011 13 10000 4.65 112 02:29 18.04.2022
4186 Clear 23 1011 11 10000 4.56 117 23:23 17.04.2022
4187 Clear 23 1011 11 10000 4.56 117 22:37 17.04.2022
4188 Clear 24 1011 11 10000 4.49 120 21:34 17.04.2022
4189 Clear 25 1011 11 10000 4.64 117 20:52 17.04.2022
4190 Clear 26 1011 11 10000 4.79 114 20:19 17.04.2022
4191 Clear 27 1009 10 10000 5.17 106 18:58 17.04.2022
4192 Clear 28 1009 9 10000 4.87 106 17:31 17.04.2022
4193 Clear 31 1009 7 10000 3.5 130 15:37 17.04.2022
4194 Clear 31 1009 7 10000 3.42 143 14:46 17.04.2022
4195 Clear 30 1010 6 10000 4.24 144 13:37 17.04.2022
4196 Clouds 30 1010 7 10000 5.75 139 12:49 17.04.2022
4197 Clear 27 1012 8 10000 6.4 132 10:59 17.04.2022
4198 Clear 27 1012 8 10000 6.4 132 10:30 17.04.2022
4199 Clear 25 1013 9 10000 6.69 133 09:57 17.04.2022
4200 Clear 23 1014 11 10000 6.77 131 09:21 17.04.2022
4201 Clear 23 1014 11 10000 6.77 131 08:41 17.04.2022
4202 Clouds 19 1013 15 10000 5.81 117 06:32 17.04.2022
4203 Clear 17 1013 18 10000 3.19 106 02:31 17.04.2022
4204 Clear 18 1013 19 10000 2.39 83 00:43 17.04.2022
4205 Clear 19 1013 20 10000 2.77 24 23:41 16.04.2022
4206 Clear 20 1013 23 10000 3.26 345 21:54 16.04.2022
4207 Clear 20 1014 22 10000 3.89 343 21:19 16.04.2022
4208 Clear 21 1013 21 10000 4.21 336 19:33 16.04.2022
4209 Clear 22 1012 18 10000 4.53 320 18:45 16.04.2022
4210 Clear 25 1011 9 10000 3.6 308 17:21 16.04.2022
4211 Clear 25 1011 9 10000 3.6 308 16:31 16.04.2022
4212 Clear 26 1011 6 10000 3.96 304 15:23 16.04.2022
4213 Clear 26 1011 6 10000 3.96 304 14:43 16.04.2022
4214 Clear 26 1011 6 10000 3.59 298 13:55 16.04.2022
4215 Clear 25 1012 6 10000 2.64 295 13:24 16.04.2022
4216 Clear 24 1012 7 10000 1.97 281 11:58 16.04.2022
4217 Clear 23 1013 8 10000 0.93 284 10:37 16.04.2022
4218 Clear 22 1014 11 10000 0.26 164 09:39 16.04.2022
4219 Clear 20 1014 14 10000 0.72 145 08:54 16.04.2022
4220 Clouds 18 1014 17 10000 0.26 345 07:31 16.04.2022
4221 Clouds 14 1014 26 10000 1.87 311 06:18 16.04.2022
4222 Clouds 15 1013 30 10000 3.05 350 01:53 16.04.2022
4223 Clear 16 1013 37 10000 4.21 328 00:19 16.04.2022
4224 Clear 17 1014 39 10000 5 323 22:52 15.04.2022
4225 Clear 17 1014 39 10000 5 323 22:31 15.04.2022
4226 Clear 17 1013 39 10000 4.97 328 21:35 15.04.2022
4227 Clear 18 1013 36 10000 5.63 332 20:55 15.04.2022
4228 Clear 19 1013 32 10000 6.12 333 19:52 15.04.2022
4229 Clear 19 1013 32 10000 5.48 327 19:33 15.04.2022
4230 Clear 20 1012 27 10000 6.51 328 18:45 15.04.2022
4231 Clear 22 1012 22 10000 7.44 319 18:23 15.04.2022
4232 Clear 24 1011 15 10000 8.04 299 17:29 15.04.2022
4233 Clear 25 1011 12 10000 7.57 296 16:26 15.04.2022
4234 Clear 25 1011 12 10000 7.57 296 15:54 15.04.2022
4235 Clear 26 1011 12 10000 5.93 293 14:30 15.04.2022
4236 Clear 26 1012 12 10000 4.61 265 13:23 15.04.2022
4237 Clear 26 1012 12 10000 4.61 265 12:40 15.04.2022
4238 Clear 25 1012 13 10000 2.88 237 11:54 15.04.2022
4239 Clear 23 1013 16 10000 1.65 181 10:53 15.04.2022
4240 Clear 22 1014 17 10000 2.83 124 10:24 15.04.2022
4241 Clear 22 1014 17 10000 2.83 124 09:38 15.04.2022
4242 Clear 20 1014 19 10000 5.06 106 09:18 15.04.2022
4243 Clear 17 1015 23 10000 6.17 83 06:56 15.04.2022
4244 Clear 14 1014 27 10000 4.14 76 05:57 15.04.2022
4245 Clear 15 1014 26 10000 3.77 41 01:49 15.04.2022
4246 Clear 16 1014 34 10000 3.63 353 23:30 14.04.2022
4247 Clear 17 1014 37 10000 3.57 346 22:47 14.04.2022
4248 Clear 17 1014 41 10000 4.77 333 22:28 14.04.2022
4249 Clear 17 1014 39 10000 5.11 334 21:54 14.04.2022
4250 Clear 17 1014 40 10000 5.86 334 20:35 14.04.2022
4251 Clear 19 1012 30 10000 7.38 320 19:22 14.04.2022
4252 Clear 22 1011 16 10000 6.35 313 18:18 14.04.2022
4253 Clear 23 1011 14 10000 6.73 313 17:28 14.04.2022
4254 Clear 23 1011 14 10000 6.73 313 16:33 14.04.2022
4255 Clear 25 1010 14 10000 5.17 304 14:28 14.04.2022
4256 Clear 24 1010 15 10000 5.26 305 13:45 14.04.2022
4257 Clear 24 1011 17 10000 4.4 302 12:51 14.04.2022
4258 Clear 24 1011 17 10000 4.4 302 12:31 14.04.2022
4259 Clouds 21 1012 23 10000 2.33 313 11:24 14.04.2022
4260 Clouds 21 1012 23 10000 2.33 313 10:41 14.04.2022
4261 Clouds 20 1013 27 10000 1.26 343 09:57 14.04.2022
4262 Clear 18 1013 32 10000 1.75 349 08:44 14.04.2022
4263 Clear 14 1013 45 10000 3.39 320 06:53 14.04.2022
4264 Clear 13 1013 57 10000 4.37 319 03:28 14.04.2022
4265 Clouds 15 1013 54 10000 4.68 323 23:25 13.04.2022
4266 Clouds 16 1013 52 10000 5.2 328 22:19 13.04.2022
4267 Clouds 16 1013 52 10000 5.2 328 21:34 13.04.2022
4268 Clouds 17 1012 37 10000 4.99 334 20:22 13.04.2022
4269 Clouds 17 1012 38 10000 5.47 333 19:36 13.04.2022
4270 Clouds 20 1011 27 10000 4.84 318 18:27 13.04.2022
4271 Clouds 21 1010 24 10000 4.41 309 17:24 13.04.2022
4272 Clouds 21 1010 24 10000 4.41 309 16:34 13.04.2022
4273 Clouds 22 1010 23 10000 4.12 305 15:40 13.04.2022
4274 Clouds 21 1011 24 10000 4.18 300 14:51 13.04.2022
4275 Clouds 21 1011 24 10000 3.72 297 14:28 13.04.2022
4276 Clouds 20 1012 26 10000 3.58 299 13:29 13.04.2022
4277 Clear 19 1013 30 10000 3.55 305 12:28 13.04.2022
4278 Clear 17 1014 36 10000 3.16 309 10:55 13.04.2022
4279 Clear 15 1014 43 10000 2.79 322 09:44 13.04.2022
4280 Clear 13 1015 52 10000 3.04 334 08:43 13.04.2022
4281 Clear 10 1015 71 10000 3.43 335 07:18 13.04.2022
4282 Clear 10 1015 71 10000 3.43 335 06:46 13.04.2022
4283 Clear 9 1015 79 10000 2.89 331 06:18 13.04.2022
4284 Clear 10 1014 77 10000 7.26 318 00:24 13.04.2022
4285 Clear 10 1014 77 10000 7.26 318 23:46 12.04.2022
4286 Clear 11 1014 71 10000 7.34 315 22:19 12.04.2022
4287 Clear 11 1014 71 10000 7.34 315 21:39 12.04.2022
4288 Clear 11 1014 67 10000 7.57 315 20:42 12.04.2022
4289 Clear 12 1014 62 10000 7.95 316 19:54 12.04.2022
4290 Clear 12 1014 62 10000 7.95 316 19:33 12.04.2022
4291 Clear 13 1013 56 10000 8.08 315 18:50 12.04.2022
4292 Clear 13 1013 56 10000 8.08 315 18:50 12.04.2022
4293 Clear 15 1013 49 10000 8.2 304 17:34 12.04.2022
4294 Clear 16 1012 41 10000 9.35 297 16:32 12.04.2022
4295 Clear 18 1012 35 10000 9.91 293 15:33 12.04.2022
4296 Clear 19 1012 33 10000 9.7 289 14:33 12.04.2022
4297 Clear 19 1012 33 10000 9.95 289 13:39 12.04.2022
4298 Clear 19 1013 33 10000 9.88 289 12:59 12.04.2022
4299 Clear 18 1013 35 10000 9.49 291 11:47 12.04.2022
4300 Clear 17 1014 40 10000 9.33 294 11:24 12.04.2022
4301 Clear 14 1015 49 10000 9.11 293 09:25 12.04.2022
4302 Clear 12 1015 57 10000 8.93 292 08:26 12.04.2022
4303 Clear 11 1015 65 10000 8.16 294 06:33 12.04.2022
4304 Clear 10 1014 72 10000 7.44 293 05:36 12.04.2022
4305 Clear 10 1013 74 10000 10.77 300 01:47 12.04.2022
4306 Clear 13 1013 65 10000 9.26 290 23:20 11.04.2022
4307 Clear 14 1013 53 10000 8.55 290 21:50 11.04.2022
4308 Clear 15 1013 47 10000 8.21 295 21:18 11.04.2022
4309 Clear 15 1013 47 10000 8.21 295 20:30 11.04.2022
4310 Clear 15 1013 47 10000 8.21 295 20:30 11.04.2022
4311 Clear 16 1012 45 10000 8.78 303 19:58 11.04.2022
4312 Clear 17 1011 42 10000 9.91 308 19:25 11.04.2022
4313 Clear 17 1011 42 10000 9.91 308 18:52 11.04.2022
4314 Clear 20 1010 31 10000 9.41 301 17:57 11.04.2022
4315 Clear 20 1010 31 10000 9.41 301 17:30 11.04.2022
4316 Clear 24 1009 22 10000 10.82 289 16:25 11.04.2022
4317 Clear 26 1008 18 10000 9.89 289 14:40 11.04.2022
4318 Clear 28 1008 9 10000 9.03 280 13:19 11.04.2022
4319 Clear 28 1008 9 10000 9.03 280 12:36 11.04.2022
4320 Clear 28 1008 9 10000 7.47 280 11:42 11.04.2022
4321 Clear 27 1009 8 10000 6.24 283 10:35 11.04.2022
4322 Clear 26 1010 9 10000 5.7 288 09:34 11.04.2022
4323 Clouds 20 1010 25 10000 4.06 299 07:24 11.04.2022
4324 Clouds 18 1010 35 10000 3.58 310 02:36 11.04.2022
4325 Clouds 20 1011 37 10000 4.29 315 23:22 10.04.2022
4326 Clear 21 1011 36 10000 4.9 315 22:26 10.04.2022
4327 Clear 21 1011 36 10000 4.9 315 21:35 10.04.2022
4328 Clear 22 1011 34 10000 5.46 325 20:50 10.04.2022
4329 Clear 22 1011 36 10000 6.24 331 19:53 10.04.2022
4330 Clear 22 1011 36 10000 6.24 331 19:30 10.04.2022
4331 Clear 23 1010 33 10000 7.33 332 18:46 10.04.2022
4332 Clear 26 1009 24 10000 7.29 316 17:58 10.04.2022
4333 Clear 26 1009 24 10000 7.29 316 17:39 10.04.2022
4334 Clear 29 1008 16 10000 7.15 297 16:44 10.04.2022
4335 Clear 31 1008 9 10000 4.18 278 15:37 10.04.2022
4336 Clear 31 1008 8 10000 2.25 240 14:34 10.04.2022
4337 Clear 29 1010 10 10000 2.92 171 12:40 10.04.2022
4338 Clear 28 1011 12 10000 3.75 161 12:21 10.04.2022
4339 Clear 27 1012 15 10000 3.9 156 11:29 10.04.2022
4340 Clear 27 1012 15 10000 3.9 156 10:56 10.04.2022
4341 Clear 26 1013 20 10000 4.43 150 10:20 10.04.2022
4342 Clear 26 1013 20 10000 4.43 150 09:39 10.04.2022
4343 Clear 22 1013 34 10000 4.06 138 08:24 10.04.2022
4344 Clear 21 1013 33 10000 2.93 141 07:42 10.04.2022
4345 Clear 16 1014 55 10000 1.75 329 06:19 10.04.2022
4346 Clear 16 1013 60 10000 2.4 298 02:37 10.04.2022
4347 Clear 17 1013 60 10000 2.18 291 00:34 10.04.2022
4348 Clear 18 1013 57 10000 2.37 292 23:49 09.04.2022
4349 Clear 18 1013 55 10000 2.45 313 22:50 09.04.2022
4350 Clear 19 1013 54 10000 3.16 325 21:48 09.04.2022
4351 Clear 19 1014 51 10000 3.69 330 20:57 09.04.2022
4352 Clear 20 1013 43 10000 4.28 336 20:26 09.04.2022
4353 Clear 20 1013 42 10000 4.21 342 19:42 09.04.2022
4354 Clear 22 1012 35 10000 4.21 346 19:18 09.04.2022
4355 Clear 22 1012 35 10000 4.21 346 19:18 09.04.2022
4356 Clear 23 1011 27 10000 2.69 333 18:21 09.04.2022
4357 Clear 23 1011 27 10000 2.69 333 17:39 09.04.2022
4358 Clear 25 1011 22 10000 2.9 311 16:53 09.04.2022
4359 Clear 25 1011 21 10000 3.39 299 15:59 09.04.2022
4360 Clear 25 1011 21 10000 3.39 299 15:41 09.04.2022
4361 Clear 25 1011 21 10000 3.59 294 14:44 09.04.2022
4362 Clear 25 1012 23 10000 3.24 296 14:23 09.04.2022
4363 Clear 24 1012 25 10000 2.1 298 13:21 09.04.2022
4364 Clear 24 1012 25 10000 2.1 298 12:51 09.04.2022
4365 Clear 22 1013 29 10000 1.73 321 11:40 09.04.2022
4366 Clear 19 1015 43 10000 3.15 326 10:21 09.04.2022
4367 Clear 19 1015 43 10000 3.15 326 09:47 09.04.2022
4368 Clear 17 1015 51 10000 3.78 315 08:56 09.04.2022
4369 Clear 15 1015 57 10000 4.02 321 07:32 09.04.2022
4370 Clear 11 1014 78 10000 8.43 311 02:58 09.04.2022
4371 Clear 13 1013 65 10000 9.43 304 00:25 09.04.2022
4372 Clear 14 1013 63 10000 9.64 295 22:57 08.04.2022
4373 Clear 15 1013 59 10000 8.74 296 21:34 08.04.2022
4374 Clear 16 1013 53 10000 8.32 302 20:41 08.04.2022
4375 Clouds 18 1013 45 10000 9.02 299 19:39 08.04.2022
4376 Clouds 18 1012 46 10000 7.6 300 18:31 08.04.2022
4377 Clouds 20 1011 44 10000 8.92 304 17:55 08.04.2022
4378 Clouds 22 1010 34 10000 10.73 297 17:26 08.04.2022
4379 Clouds 22 1010 34 10000 10.73 297 16:51 08.04.2022
4380 Clouds 25 1009 25 10000 10.44 279 16:20 08.04.2022
4381 Clouds 27 1009 20 10000 10.67 268 15:27 08.04.2022
4382 Clouds 27 1009 20 10000 10.67 268 14:40 08.04.2022
4383 Clouds 29 1009 16 10000 10.84 272 13:55 08.04.2022
4384 Clouds 29 1009 16 10000 10.84 272 13:30 08.04.2022
4385 Clouds 30 1008 13 10000 10.64 269 12:42 08.04.2022
4386 Clouds 31 1009 10 10000 11.19 255 10:55 08.04.2022
4387 Clouds 31 1009 10 10000 10.27 250 09:41 08.04.2022
4388 Clouds 30 1010 11 10000 9.16 243 08:58 08.04.2022
4389 Clouds 26 1010 15 10000 2.94 227 07:42 08.04.2022
4390 Clouds 23 1010 20 10000 0.89 136 06:44 08.04.2022
4391 Clouds 21 1011 24 10000 1.49 144 02:29 08.04.2022
4392 Clouds 21 1013 25 10000 1.53 175 00:28 08.04.2022
4393 Clouds 21 1013 25 10000 1.53 175 23:41 07.04.2022
4394 Clouds 22 1013 26 10000 1.85 163 22:41 07.04.2022
4395 Clouds 22 1014 27 10000 1.38 178 22:22 07.04.2022
4396 Clouds 22 1014 27 10000 1.38 178 21:56 07.04.2022
4397 Clouds 22 1014 28 10000 1.18 217 21:23 07.04.2022
4398 Clouds 22 1014 28 10000 1.18 217 20:42 07.04.2022
4399 Clouds 23 1013 29 10000 2.99 259 19:25 07.04.2022
4400 Clouds 26 1013 24 10000 6.66 275 17:28 07.04.2022
4401 Clouds 26 1013 24 10000 6.66 275 16:51 07.04.2022
4402 Clouds 26 1013 24 10000 6.66 275 16:33 07.04.2022
4403 Clouds 27 1012 22 10000 7.09 277 15:39 07.04.2022
4404 Clear 27 1012 19 10000 8.03 292 13:52 07.04.2022
4405 Clear 27 1013 18 10000 8.58 291 13:23 07.04.2022
4406 Clear 26 1013 20 10000 7.3 291 11:49 07.04.2022
4407 Clear 24 1014 25 10000 6.23 292 10:46 07.04.2022
4408 Clear 20 1015 36 10000 5.25 290 08:43 07.04.2022
4409 Clear 14 1014 62 10000 3.28 291 06:59 07.04.2022
4410 Clear 13 1014 68 10000 3.24 299 05:21 07.04.2022
4411 Clear 14 1013 63 10000 4.61 293 02:34 07.04.2022
4412 Clear 15 1012 61 10000 5.49 290 00:43 07.04.2022
4413 Clear 16 1012 55 10000 6.25 290 23:36 06.04.2022
4414 Clear 16 1012 50 10000 6.98 287 22:44 06.04.2022
4415 Clear 18 1012 43 10000 7.26 283 22:20 06.04.2022
4416 Clear 19 1011 37 10000 7.51 279 20:47 06.04.2022
4417 Clear 20 1011 33 10000 7.65 279 20:00 06.04.2022
4418 Clear 21 1010 29 10000 8.44 278 19:24 06.04.2022
4419 Clear 21 1010 29 10000 8.44 278 18:48 06.04.2022
4420 Clear 23 1009 24 10000 9.61 280 17:36 06.04.2022
4421 Clear 25 1008 20 10000 11.12 276 16:58 06.04.2022
4422 Clear 25 1008 20 10000 11.12 276 16:34 06.04.2022
4423 Clear 26 1008 18 10000 13.71 275 15:44 06.04.2022
4424 Clear 30 1008 12 10000 15.31 272 13:48 06.04.2022
4425 Clear 32 1008 9 10000 13.43 259 12:30 06.04.2022
4426 Clear 32 1009 8 10000 13.61 249 11:44 06.04.2022
4427 Clear 33 1010 7 10000 12.28 249 10:37 06.04.2022
4428 Clouds 32 1010 7 10000 10.22 235 10:18 06.04.2022
4429 Clouds 30 1011 9 10000 6.23 221 09:25 06.04.2022
4430 Clouds 26 1012 12 10000 2.29 190 08:18 06.04.2022
4431 Clouds 24 1012 15 10000 1.56 167 06:40 06.04.2022
4432 Clouds 23 1013 16 10000 2.65 232 01:26 06.04.2022
4433 Clouds 23 1013 16 10000 2.15 222 23:50 05.04.2022
4434 Clouds 24 1013 16 10000 1.45 182 21:59 05.04.2022
4435 Clouds 24 1014 17 10000 1.32 250 21:18 05.04.2022
4436 Clouds 25 1014 16 10000 1.3 281 20:24 05.04.2022
4437 Clouds 26 1013 15 10000 2.36 312 18:45 05.04.2022
4438 Clouds 29 1013 10 10000 1.95 305 17:30 05.04.2022
4439 Clouds 29 1013 10 10000 1.95 305 16:44 05.04.2022
4440 Clouds 30 1013 9 10000 1.68 267 15:52 05.04.2022
4441 Clouds 30 1013 9 10000 1.68 267 15:31 05.04.2022
4442 Clouds 29 1014 10 10000 1.92 181 13:59 05.04.2022
4443 Clouds 28 1015 11 10000 3.14 160 12:55 05.04.2022
4444 Clouds 28 1016 12 10000 4.41 147 11:43 05.04.2022
4445 Clouds 27 1017 13 10000 5.36 136 11:25 05.04.2022
4446 Clear 25 1018 15 10000 6.22 123 09:41 05.04.2022
4447 Clear 23 1018 16 10000 6.72 114 08:52 05.04.2022
4448 Clear 19 1019 24 10000 3.79 109 06:43 05.04.2022
4449 Clouds 19 1018 27 10000 1.96 70 00:39 05.04.2022
4450 Clouds 20 1018 27 10000 3.06 27 22:41 04.04.2022
4451 Clouds 21 1018 28 10000 3.38 349 21:57 04.04.2022
4452 Clouds 21 1018 28 10000 4.18 332 21:21 04.04.2022
4453 Clouds 21 1018 28 10000 4.18 332 20:49 04.04.2022
4454 Clouds 21 1017 29 10000 5.06 326 19:40 04.04.2022
4455 Clear 22 1017 27 10000 6.07 322 18:59 04.04.2022
4456 Clear 24 1016 23 10000 6.7 317 17:55 04.04.2022
4457 Clear 26 1015 17 10000 6.71 319 16:36 04.04.2022
4458 Clear 26 1015 17 10000 6.71 319 16:36 04.04.2022
4459 Clear 28 1015 13 10000 6.19 324 15:43 04.04.2022
4460 Clear 28 1015 10 10000 6.49 323 15:25 04.04.2022
4461 Clear 28 1015 10 10000 6.49 323 14:45 04.04.2022
4462 Clear 29 1015 8 10000 4.45 325 13:22 04.04.2022
4463 Clear 28 1016 8 10000 3.58 327 11:55 04.04.2022
4464 Clear 27 1017 10 10000 2.85 344 11:28 04.04.2022
4465 Clear 23 1018 15 10000 2.96 352 08:36 04.04.2022
4466 Clear 17 1016 23 10000 4.42 331 03:52 04.04.2022
4467 Clouds 19 1016 24 10000 4.15 315 00:41 04.04.2022
4468 Clouds 20 1016 29 10000 4.59 314 22:40 03.04.2022
4469 Clouds 20 1016 32 10000 5.17 316 21:45 03.04.2022
4470 Clouds 21 1016 34 10000 5.17 324 20:54 03.04.2022
4471 Clouds 21 1015 33 10000 6.28 325 19:49 03.04.2022
4472 Clouds 22 1014 31 10000 6.63 327 18:32 03.04.2022
4473 Clouds 24 1014 25 10000 7.8 326 17:47 03.04.2022
4474 Clouds 26 1013 16 10000 7.34 323 16:57 03.04.2022
4475 Clouds 26 1013 16 10000 7.34 323 16:39 03.04.2022
4476 Clear 29 1012 10 10000 8.54 320 14:48 03.04.2022
4477 Clouds 29 1012 9 10000 7.23 318 13:53 03.04.2022
4478 Clouds 29 1013 9 10000 6.62 320 12:46 03.04.2022
4479 Clouds 28 1015 9 10000 6.76 312 11:29 03.04.2022
4480 Clouds 27 1015 9 10000 5.35 313 09:38 03.04.2022
4481 Clouds 25 1015 10 10000 5.13 314 08:36 03.04.2022
4482 Clouds 20 1014 19 10000 3.64 322 05:42 03.04.2022
4483 Clouds 21 1013 24 10000 3.44 308 02:53 03.04.2022
4484 Clouds 22 1014 29 10000 3.99 312 23:21 02.04.2022
4485 Clouds 22 1014 29 10000 3.99 312 22:38 02.04.2022
4486 Clouds 22 1014 31 10000 4.21 321 21:49 02.04.2022
4487 Clouds 23 1014 32 10000 4.3 328 21:19 02.04.2022
4488 Clouds 23 1014 32 10000 4.72 335 20:29 02.04.2022
4489 Clouds 26 1012 19 10000 5.29 305 18:27 02.04.2022
4490 Clouds 26 1012 19 10000 5.29 305 17:53 02.04.2022
4491 Clouds 29 1012 13 10000 4.97 298 16:30 02.04.2022
4492 Clouds 31 1012 10 10000 3.82 292 15:23 02.04.2022
4493 Clouds 31 1012 10 10000 3.82 292 14:51 02.04.2022
4494 Clouds 30 1012 11 10000 3.91 299 13:57 02.04.2022
4495 Clouds 30 1013 11 10000 3.12 292 13:22 02.04.2022
4496 Clouds 28 1014 12 10000 1.61 268 11:54 02.04.2022
4497 Clouds 25 1015 14 10000 2.5 130 09:48 02.04.2022
4498 Clouds 20 1015 19 10000 3.31 109 06:58 02.04.2022
4499 Clouds 20 1014 19 10000 3.99 101 03:59 02.04.2022
4500 Clouds 22 1015 18 10000 2.03 154 00:27 02.04.2022
4501 Clouds 22 1015 18 10000 2.03 154 23:53 01.04.2022
4502 Clouds 23 1015 16 10000 2.95 139 22:24 01.04.2022
4503 Clouds 24 1015 15 10000 3.3 115 20:54 01.04.2022
4504 Clouds 24 1015 15 10000 3.3 115 20:32 01.04.2022
4505 Clouds 24 1015 14 10000 3.37 106 19:39 01.04.2022
4506 Clouds 25 1014 13 10000 3.87 100 19:18 01.04.2022
4507 Clouds 25 1014 13 10000 3.87 100 18:35 01.04.2022
4508 Clouds 26 1014 12 10000 4.63 95 17:36 01.04.2022
4509 Clouds 30 1014 9 10000 5 126 15:46 01.04.2022
4510 Clouds 30 1014 8 10000 5.43 144 14:47 01.04.2022
4511 Clear 29 1014 9 10000 5.86 142 13:38 01.04.2022
4512 Clear 28 1015 10 10000 6.05 137 12:33 01.04.2022
4513 Clear 27 1016 10 10000 6.64 134 11:45 01.04.2022
4514 Clouds 25 1018 10 10000 6.73 135 10:49 01.04.2022
4515 Clouds 24 1019 12 10000 6.9 130 09:35 01.04.2022
4516 Clear 18 1019 26 10000 5.09 101 07:24 01.04.2022
4517 Clear 16 1018 29 10000 4.36 99 04:57 01.04.2022
4518 Clear 16 1018 29 10000 4.36 99 04:39 01.04.2022
4519 Clear 17 1017 28 10000 3.92 97 02:37 01.04.2022
4520 Clouds 17 1018 27 10000 3.99 91 01:33 01.04.2022
4521 Clouds 20 1018 23 10000 3.55 85 22:27 31.03.2022
4522 Clouds 20 1018 23 10000 3.55 85 21:38 31.03.2022
4523 Clouds 21 1018 20 10000 2.51 79 20:51 31.03.2022
4524 Clouds 21 1017 22 10000 0.87 90 20:28 31.03.2022
4525 Clouds 21 1017 22 10000 0.57 83 19:21 31.03.2022
4526 Clouds 21 1017 22 10000 0.57 83 18:33 31.03.2022
4527 Clouds 24 1016 16 10000 0.76 83 16:47 31.03.2022
4528 Clouds 24 1016 14 10000 0.68 72 15:55 31.03.2022
4529 Clouds 24 1016 14 10000 0.63 106 15:26 31.03.2022
4530 Clouds 24 1016 14 10000 0.63 106 14:45 31.03.2022
4531 Clear 23 1017 15 10000 1.07 120 13:42 31.03.2022
4532 Clear 22 1018 18 10000 3.02 126 11:31 31.03.2022
4533 Clear 20 1019 25 10000 3.33 114 10:26 31.03.2022
4534 Clear 20 1019 25 10000 3.33 114 09:39 31.03.2022
4535 Clear 16 1020 28 10000 1.72 94 07:48 31.03.2022
4536 Clear 12 1017 43 10000 2.83 332 02:33 31.03.2022
4537 Clear 14 1017 49 10000 3.96 319 23:24 30.03.2022
4538 Clear 14 1017 51 10000 4.17 324 21:57 30.03.2022
4539 Clear 14 1017 51 10000 4.17 324 21:31 30.03.2022
4540 Clear 15 1017 52 10000 4.15 330 20:44 30.03.2022
4541 Clouds 16 1016 51 10000 4.68 331 19:47 30.03.2022
4542 Clouds 17 1016 47 10000 5.46 322 18:41 30.03.2022
4543 Clouds 18 1015 39 10000 7.27 307 17:51 30.03.2022
4544 Clear 20 1014 29 10000 8.07 297 17:20 30.03.2022
4545 Clear 20 1014 29 10000 8.07 297 16:40 30.03.2022
4546 Clear 22 1014 23 10000 8.58 294 15:59 30.03.2022
4547 Clear 23 1013 17 10000 7.63 288 14:36 30.03.2022
4548 Clouds 24 1013 16 10000 7.15 294 13:22 30.03.2022
4549 Clouds 23 1014 17 10000 5.72 297 12:22 30.03.2022
4550 Clouds 22 1014 17 10000 4.51 288 10:48 30.03.2022
4551 Clouds 21 1015 19 10000 2.98 283 09:55 30.03.2022
4552 Clouds 17 1015 24 10000 1.24 270 08:21 30.03.2022
4553 Clouds 15 1015 28 10000 0.16 25 06:50 30.03.2022
4554 Clouds 13 1014 32 10000 0.74 70 05:40 30.03.2022
4555 Clear 14 1014 31 10000 2.11 91 02:32 30.03.2022
4556 Clear 16 1015 26 10000 3.72 111 22:42 29.03.2022
4557 Clear 17 1015 25 10000 3.38 116 21:49 29.03.2022
4558 Clear 18 1015 24 10000 3.65 123 21:28 29.03.2022
4559 Clouds 19 1015 23 10000 4.14 117 20:25 29.03.2022
4560 Clouds 19 1015 23 10000 4.14 117 19:32 29.03.2022
4561 Clouds 20 1014 21 10000 6.38 102 18:53 29.03.2022
4562 Clouds 21 1014 20 10000 7.04 101 17:52 29.03.2022
4563 Clouds 23 1014 17 10000 7.52 115 17:18 29.03.2022
4564 Clouds 23 1014 17 10000 7.52 115 16:52 29.03.2022
4565 Clouds 23 1016 16 10000 8.62 137 15:29 29.03.2022
4566 Clouds 23 1016 16 10000 8.62 137 14:43 29.03.2022
4567 Clouds 23 1016 16 10000 8.62 137 14:43 29.03.2022
4568 Clouds 22 1017 17 10000 8.76 138 13:34 29.03.2022
4569 Clouds 20 1019 18 10000 9.18 131 12:22 29.03.2022
4570 Clouds 19 1021 19 10000 8.81 128 11:18 29.03.2022
4571 Clouds 17 1022 22 10000 8.47 127 09:58 29.03.2022
4572 Clouds 15 1023 25 10000 7.83 126 08:44 29.03.2022
4573 Clouds 11 1024 33 10000 5.04 109 06:48 29.03.2022
4574 Clear 12 1023 33 10000 4.44 96 02:27 29.03.2022
4575 Clear 13 1024 34 10000 5.04 86 23:37 28.03.2022
4576 Clear 14 1024 32 10000 4.77 86 22:57 28.03.2022
4577 Clear 14 1024 32 10000 4.77 86 22:33 28.03.2022
4578 Clear 14 1025 28 10000 4.01 92 21:43 28.03.2022
4579 Clear 15 1024 26 10000 3.4 107 20:35 28.03.2022
4580 Clear 16 1024 25 10000 4.08 90 19:48 28.03.2022
4581 Clear 16 1024 25 10000 4.08 90 19:30 28.03.2022
4582 Clear 17 1023 23 10000 3.1 90 18:50 28.03.2022
4583 Clear 17 1023 22 10000 3 98 17:41 28.03.2022
4584 Clear 19 1023 19 10000 3.57 100 16:56 28.03.2022
4585 Clear 19 1024 18 10000 3.63 102 15:22 28.03.2022
4586 Clear 19 1024 20 10000 3.89 105 14:24 28.03.2022
4587 Clear 18 1025 23 10000 4.75 112 13:19 28.03.2022
4588 Clear 17 1026 26 10000 5.16 108 11:52 28.03.2022
4589 Clear 15 1027 36 10000 5.96 98 09:55 28.03.2022
4590 Clear 13 1028 41 10000 6.34 92 09:21 28.03.2022
4591 Clear 13 1028 41 10000 6.34 92 08:39 28.03.2022
4592 Clear 11 1028 45 10000 5.4 93 08:18 28.03.2022
4593 Clear 10 1028 53 10000 2.93 78 06:31 28.03.2022
4594 Clear 9 1027 76 10000 3.16 325 02:20 28.03.2022
4595 Clear 10 1028 81 10000 4.33 331 22:36 27.03.2022
4596 Clear 10 1027 80 10000 5.28 334 21:47 27.03.2022
4597 Clear 11 1027 76 10000 5.5 331 21:25 27.03.2022
4598 Clear 11 1027 76 10000 5.5 331 20:41 27.03.2022
4599 Clear 12 1027 71 10000 5.52 325 19:37 27.03.2022
4600 Clear 12 1026 64 10000 5.87 316 18:44 27.03.2022
4601 Clear 13 1025 57 10000 6.41 308 18:23 27.03.2022
4602 Clear 13 1025 57 10000 6.41 308 18:23 27.03.2022
4603 Clear 13 1025 57 10000 6.41 308 18:23 27.03.2022
4604 Clear 13 1025 57 10000 6.41 308 17:36 27.03.2022
4605 Clear 15 1024 42 10000 6.71 300 15:51 27.03.2022
4606 Clear 16 1024 35 10000 6.65 297 13:58 27.03.2022
4607 Clear 16 1025 33 10000 6.44 293 13:21 27.03.2022
4608 Clear 15 1025 35 10000 6.02 293 11:35 27.03.2022
4609 Clear 13 1027 42 10000 5.47 287 09:37 27.03.2022
4610 Clear 10 1027 55 10000 4.07 272 07:39 27.03.2022
4611 Clear 7 1026 64 10000 3.57 291 04:24 27.03.2022
4612 Clear 8 1026 54 10000 3.52 270 00:26 27.03.2022
4613 Clear 9 1026 55 10000 3.49 268 22:52 26.03.2022
4614 Clear 9 1026 58 10000 3.04 283 22:22 26.03.2022
4615 Clear 9 1026 58 10000 3.04 283 21:30 26.03.2022
4616 Clear 10 1026 60 10000 3.3 302 19:38 26.03.2022
4617 Clear 10 1026 56 10000 4.32 307 18:44 26.03.2022
4618 Clear 11 1025 51 10000 6.22 306 17:41 26.03.2022
4619 Clear 12 1024 47 10000 7.39 299 16:40 26.03.2022
4620 Clear 14 1023 41 10000 7.81 296 15:42 26.03.2022
4621 Clear 15 1023 31 10000 7.69 308 13:56 26.03.2022
4622 Clear 15 1023 31 10000 7.69 308 13:36 26.03.2022
4623 Clear 15 1023 29 10000 6.45 308 12:18 26.03.2022
4624 Clear 14 1024 31 10000 5.26 301 10:48 26.03.2022
4625 Clear 11 1026 45 10000 4.39 306 09:19 26.03.2022
4626 Clear 9 1025 64 10000 4.54 296 06:56 26.03.2022
4627 Clear 7 1025 74 10000 3.44 281 05:31 26.03.2022
4628 Clear 6 1023 80 10000 3.5 269 02:24 26.03.2022
4629 Clear 6 1023 73 10000 4.09 287 22:47 25.03.2022
4630 Clouds 7 1023 71 10000 4.59 289 20:58 25.03.2022
4631 Clear 7 1022 71 10000 4.95 294 20:26 25.03.2022
4632 Clouds 8 1022 69 10000 5.77 299 19:19 25.03.2022
4633 Clouds 8 1022 69 10000 5.77 299 18:36 25.03.2022
4634 Clouds 8 1021 68 10000 6.87 299 17:34 25.03.2022
4635 Clouds 10 1018 54 10000 10.19 293 16:27 25.03.2022
4636 Clouds 10 1018 54 10000 10.19 293 15:37 25.03.2022
4637 Clouds 11 1017 47 10000 11.67 290 13:32 25.03.2022
4638 Clouds 10 1018 56 10000 9.85 276 11:25 25.03.2022
4639 Clouds 8 1018 73 10000 8.87 270 09:37 25.03.2022
4640 Clouds 7 1018 79 10000 8.89 271 08:56 25.03.2022
4641 Clouds 7 1018 82 10000 9.17 264 07:46 25.03.2022
4642 Clouds 6 1018 87 10000 8.14 242 07:19 25.03.2022
4643 Clouds 6 1016 80 10000 7.88 243 03:45 25.03.2022
4644 Clouds 7 1017 77 10000 6.93 244 23:49 24.03.2022
4645 Clear 7 1017 74 10000 4.52 251 22:24 24.03.2022
4646 Clear 7 1017 75 10000 3.84 260 20:58 24.03.2022
4647 Clouds 8 1017 74 10000 4.73 261 19:49 24.03.2022
4648 Clouds 7 1017 73 10000 5.08 271 18:45 24.03.2022
4649 Clouds 8 1017 73 10000 6.14 282 17:36 24.03.2022
4650 Clouds 8 1016 70 10000 7.37 286 16:33 24.03.2022
4651 Clouds 9 1015 64 10000 11.08 275 14:53 24.03.2022
4652 Clouds 9 1015 64 10000 11.08 275 14:32 24.03.2022
4653 Clouds 10 1015 64 10000 12.78 266 13:36 24.03.2022
4654 Clouds 11 1014 56 10000 13.32 261 12:29 24.03.2022
4655 Clouds 12 1014 38 10000 12.39 250 11:27 24.03.2022
4656 Clouds 12 1014 36 10000 11 243 09:34 24.03.2022
4657 Clouds 11 1015 39 10000 11.01 243 08:38 24.03.2022
4658 Clouds 6 1016 70 10000 2.95 247 05:44 24.03.2022
4659 Clear 6 1016 63 10000 4.58 269 00:47 24.03.2022
4660 Clear 7 1016 53 10000 3.78 287 22:23 23.03.2022
4661 Clear 8 1017 50 10000 4.12 279 21:24 23.03.2022
4662 Clear 8 1017 50 10000 4.12 279 20:45 23.03.2022
4663 Clear 7 1017 52 10000 4.62 275 19:33 23.03.2022
4664 Clouds 8 1016 48 10000 6.21 287 18:19 23.03.2022
4665 Clouds 9 1016 44 10000 6.65 282 17:26 23.03.2022
4666 Clouds 9 1016 50 10000 8.07 280 16:18 23.03.2022
4667 Clouds 11 1015 46 10000 9.55 277 14:49 23.03.2022
4668 Clouds 12 1015 36 10000 10.25 269 13:34 23.03.2022
4669 Clouds 12 1015 39 10000 9.68 261 11:38 23.03.2022
4670 Clear 11 1016 39 10000 4.9 260 08:51 23.03.2022
4671 Clear 7 1017 57 10000 2.46 300 06:26 23.03.2022
4672 Clear 6 1016 64 10000 1.96 297 03:52 23.03.2022
4673 Clouds 7 1017 65 10000 2.28 324 00:28 23.03.2022
4674 Clouds 7 1017 65 10000 2.28 324 00:28 23.03.2022
4675 Clouds 7 1016 62 10000 4.75 326 21:56 22.03.2022
4676 Clear 8 1016 61 10000 5.68 329 21:26 22.03.2022
4677 Clear 8 1016 61 10000 5.68 329 20:34 22.03.2022
4678 Clear 8 1016 58 10000 6.17 330 19:31 22.03.2022
4679 Clouds 9 1016 54 10000 6.38 330 18:54 22.03.2022
4680 Clouds 9 1015 50 10000 7.24 325 17:44 22.03.2022
4681 Clouds 11 1014 44 10000 6.95 314 17:18 22.03.2022
4682 Clouds 12 1014 40 10000 6.68 302 15:52 22.03.2022
4683 Clear 13 1013 39 10000 6.21 297 15:21 22.03.2022
4684 Clear 13 1013 39 10000 6.21 297 14:46 22.03.2022
4685 Clear 13 1013 37 10000 6.24 300 14:24 22.03.2022
4686 Clear 13 1013 34 10000 5.83 296 12:41 22.03.2022
4687 Clear 12 1014 37 10000 4.97 299 11:26 22.03.2022
4688 Clear 11 1015 40 10000 5 299 10:23 22.03.2022
4689 Clear 9 1015 52 10000 5.16 313 07:48 22.03.2022
4690 Clear 5 1016 74 10000 4.52 301 05:19 22.03.2022
4691 Clear 6 1015 74 10000 4.38 303 03:38 22.03.2022
4692 Clouds 8 1014 73 10000 4.95 320 23:41 21.03.2022
4693 Clouds 10 1013 68 10000 4.48 316 21:58 21.03.2022
4694 Clouds 10 1013 64 10000 4.05 304 20:45 21.03.2022
4695 Clouds 11 1013 60 10000 3.22 299 20:26 21.03.2022
4696 Clouds 11 1013 60 10000 3.22 299 19:53 21.03.2022
4697 Clouds 11 1014 60 10000 4.51 303 19:24 21.03.2022
4698 Clouds 12 1013 53 10000 6.05 315 17:53 21.03.2022
4699 Clouds 13 1012 49 10000 7.02 300 17:18 21.03.2022
4700 Clouds 13 1012 49 10000 7.02 300 16:42 21.03.2022
4701 Clouds 14 1011 44 10000 7.48 293 15:48 21.03.2022
4702 Clouds 16 1010 34 10000 5.64 289 14:56 21.03.2022
4703 Clouds 16 1010 29 10000 3.57 287 13:58 21.03.2022
4704 Clouds 16 1011 28 10000 2.17 259 12:35 21.03.2022
4705 Clouds 15 1012 28 10000 1.04 204 11:45 21.03.2022
4706 Clouds 14 1013 29 10000 1.49 125 10:36 21.03.2022
4707 Clouds 12 1015 31 10000 2.6 99 08:30 21.03.2022
4708 Clouds 9 1016 43 10000 1.67 80 06:48 21.03.2022
4709 Clouds 7 1016 56 10000 1.33 15 02:51 21.03.2022
4710 Clouds 7 1017 55 10000 2.21 325 00:19 21.03.2022
4711 Clouds 7 1017 54 10000 2.51 328 22:44 20.03.2022
4712 Clouds 8 1017 51 10000 2.84 325 21:52 20.03.2022
4713 Clouds 8 1017 51 10000 2.84 325 21:52 20.03.2022
4714 Clear 8 1017 51 10000 3.02 338 21:25 20.03.2022
4715 Clear 8 1017 51 10000 3.02 338 20:43 20.03.2022
4716 Clear 9 1017 50 10000 4.72 332 19:59 20.03.2022
4717 Clear 9 1017 50 10000 4.72 332 19:34 20.03.2022
4718 Clouds 9 1016 46 10000 5.45 330 18:34 20.03.2022
4719 Clouds 10 1016 42 10000 4.88 340 17:33 20.03.2022
4720 Clouds 12 1015 37 10000 5.16 318 16:57 20.03.2022
4721 Clouds 13 1015 31 10000 4.81 312 15:35 20.03.2022
4722 Clouds 14 1014 28 10000 4.26 305 14:35 20.03.2022
4723 Clouds 13 1015 30 10000 3.93 298 12:42 20.03.2022
4724 Clouds 12 1016 33 10000 4.11 297 11:32 20.03.2022
4725 Clouds 9 1019 43 10000 3.12 298 09:30 20.03.2022
4726 Clouds 6 1021 54 10000 3.31 331 07:49 20.03.2022
4727 Clouds 4 1021 63 10000 3.77 342 05:48 20.03.2022
4728 Clouds 4 1019 76 10000 4.57 325 02:45 20.03.2022
4729 Clouds 4 1019 75 10000 5.18 317 00:48 20.03.2022
4730 Clouds 5 1020 75 10000 6.36 315 23:20 19.03.2022
4731 Clear 5 1020 75 10000 7.16 318 21:32 19.03.2022
4732 Clear 6 1020 75 10000 6.61 312 20:58 19.03.2022
4733 Clear 7 1019 66 10000 6.49 314 18:59 19.03.2022
4734 Clear 9 1018 62 10000 6.63 310 18:25 19.03.2022
4735 Clear 9 1018 62 10000 6.63 310 17:41 19.03.2022
4736 Clouds 11 1017 52 10000 8.94 290 16:24 19.03.2022
4737 Clouds 12 1016 47 10000 9.99 285 15:20 19.03.2022
4738 Clear 13 1016 45 10000 10.27 289 13:35 19.03.2022
4739 Clouds 14 1016 44 10000 11.04 281 12:41 19.03.2022
4740 Clouds 14 1016 43 10000 10.85 277 11:54 19.03.2022
4741 Clouds 14 1016 43 10000 10.85 277 11:33 19.03.2022
4742 Clouds 11 1019 59 10000 8.02 276 08:23 19.03.2022
4743 Clouds 8 1018 79 10000 4.94 267 04:23 19.03.2022
4744 Clouds 8 1018 85 10000 4.76 266 02:30 19.03.2022
4745 Clear 8 1019 90 10000 3.34 275 23:46 18.03.2022
4746 Clear 9 1020 89 10000 3.1 280 22:36 18.03.2022
4747 Clouds 9 1020 88 10000 3.03 299 21:56 18.03.2022
4748 Clouds 10 1020 82 10000 3.06 312 19:57 18.03.2022
4749 Clouds 10 1020 79 10000 3.44 308 19:22 18.03.2022
4750 Clouds 10 1020 79 10000 3.18 310 18:34 18.03.2022
4751 Clouds 11 1019 70 10000 5.53 294 16:52 18.03.2022
4752 Clouds 12 1018 64 10000 6.79 289 15:52 18.03.2022
4753 Clouds 14 1018 56 10000 7.59 295 14:25 18.03.2022
4754 Clouds 14 1018 51 10000 7.27 296 13:18 18.03.2022
4755 Clouds 13 1019 53 10000 6.5 283 11:28 18.03.2022
4756 Clouds 12 1020 57 10000 6.42 282 09:41 18.03.2022
4757 Clouds 12 1021 59 10000 6.04 289 08:45 18.03.2022
4758 Clear 8 1022 67 10000 3.74 290 06:45 18.03.2022
4759 Clear 6 1022 80 10000 2.97 292 04:38 18.03.2022
4760 Clear 6 1022 80 10000 2.97 292 04:38 18.03.2022
4761 Clear 6 1022 79 10000 3.54 309 00:55 18.03.2022
4762 Clear 6 1022 78 10000 3.66 311 23:52 17.03.2022
4763 Clear 6 1022 78 10000 3.66 311 23:52 17.03.2022
4764 Clear 6 1022 78 10000 3.66 311 23:52 17.03.2022
4765 Clear 6 1022 78 10000 3.66 311 23:52 17.03.2022
4766 Clear 7 1022 76 10000 3.84 317 22:43 17.03.2022
4767 Clear 7 1022 74 10000 4.35 322 22:18 17.03.2022
4768 Clear 8 1023 71 10000 5.16 321 21:27 17.03.2022
4769 Clear 8 1023 71 10000 5.16 321 20:52 17.03.2022
4770 Clear 8 1023 69 10000 5.9 321 20:19 17.03.2022
4771 Clear 8 1023 69 10000 5.9 321 19:37 17.03.2022
4772 Clear 8 1023 68 10000 6.97 321 18:51 17.03.2022
4773 Clear 11 1021 47 10000 6.69 306 17:28 17.03.2022
4774 Clear 12 1020 32 10000 7.17 297 16:19 17.03.2022
4775 Clear 12 1020 32 10000 7.17 297 16:19 17.03.2022
4776 Clear 12 1020 32 10000 7.17 297 15:42 17.03.2022
4777 Clear 13 1020 23 10000 7.2 290 14:59 17.03.2022
4778 Clear 14 1020 23 10000 5.64 277 13:35 17.03.2022
4779 Clear 14 1020 22 10000 4.68 262 12:44 17.03.2022
4780 Clear 13 1021 24 10000 4.18 253 11:32 17.03.2022
4781 Clear 12 1022 27 10000 3.62 244 10:43 17.03.2022
4782 Clear 11 1024 31 10000 2.94 235 09:36 17.03.2022
4783 Clear 7 1025 47 10000 1.85 253 08:19 17.03.2022
4784 Clear 5 1026 60 10000 1.64 311 05:51 17.03.2022
4785 Clear 3 1026 66 10000 1.49 306 04:30 17.03.2022
4786 Clear 4 1026 66 10000 2.84 338 00:27 17.03.2022
4787 Clear 5 1026 66 10000 3.49 326 22:56 16.03.2022
4788 Clear 5 1026 66 10000 3.49 326 22:36 16.03.2022
4789 Clear 5 1026 65 10000 3.74 323 21:56 16.03.2022
4790 Clear 6 1026 64 10000 4.22 318 20:40 16.03.2022
4791 Clear 7 1025 59 10000 5.38 322 19:23 16.03.2022
4792 Clear 7 1025 59 10000 5.38 322 18:42 16.03.2022
4793 Clear 8 1025 53 10000 5.83 315 17:49 16.03.2022
4794 Clear 8 1025 53 10000 5.83 315 17:31 16.03.2022
4795 Clear 10 1023 38 10000 5.92 320 16:21 16.03.2022
4796 Clear 10 1023 34 10000 5.95 323 14:58 16.03.2022
4797 Clear 11 1023 32 10000 6.14 322 13:36 16.03.2022
4798 Clouds 10 1023 31 10000 5.91 319 12:55 16.03.2022
4799 Clouds 9 1024 34 10000 6.3 326 11:23 16.03.2022
4800 Clouds 9 1024 34 10000 6.3 326 10:37 16.03.2022
4801 Clouds 8 1025 37 10000 6.94 320 09:57 16.03.2022
4802 Clear 6 1026 49 10000 5.34 306 08:24 16.03.2022
4803 Clear 2 1025 71 10000 3.01 305 02:46 16.03.2022
4804 Clear 2 1025 57 10000 5.71 321 22:58 15.03.2022
4805 Clear 2 1025 57 10000 5.71 321 22:36 15.03.2022
4806 Clear 3 1026 58 10000 6.2 311 21:19 15.03.2022
4807 Clear 4 1025 62 10000 6.44 310 19:46 15.03.2022
4808 Clouds 4 1024 53 10000 7.9 299 17:47 15.03.2022
4809 Clouds 5 1023 47 10000 9.41 299 16:42 15.03.2022
4810 Clouds 6 1022 39 10000 10.46 299 15:42 15.03.2022
4811 Clouds 7 1022 42 10000 10.89 292 14:54 15.03.2022
4812 Clouds 7 1022 48 10000 11.93 300 13:57 15.03.2022
4813 Clouds 9 1021 39 10000 10.23 290 13:24 15.03.2022
4814 Clouds 9 1021 41 10000 9.36 286 11:34 15.03.2022
4815 Clouds 8 1022 45 10000 8.9 288 10:55 15.03.2022
4816 Clear 7 1023 52 10000 7.03 293 09:29 15.03.2022
4817 Clouds 6 1024 57 10000 6.11 289 08:27 15.03.2022
4818 Clouds 6 1024 57 10000 6.11 289 07:38 15.03.2022
4819 Clear 5 1024 59 10000 5.24 283 06:32 15.03.2022
4820 Clear 3 1023 66 10000 3.34 305 01:57 15.03.2022
4821 Clear 3 1024 63 10000 5.71 307 23:31 14.03.2022
4822 Clear 3 1024 62 10000 5.93 308 22:52 14.03.2022
4823 Clear 4 1024 61 10000 5.98 306 21:56 14.03.2022
4824 Clear 4 1024 60 10000 5.9 304 21:18 14.03.2022
4825 Clear 4 1024 60 10000 5.9 304 20:30 14.03.2022
4826 Clear 5 1024 59 10000 6.17 305 19:33 14.03.2022
4827 Clouds 6 1023 55 10000 7.41 311 17:59 14.03.2022
4828 Clouds 6 1023 55 10000 7.41 311 17:41 14.03.2022
4829 Clouds 7 1022 52 10000 7.66 304 16:37 14.03.2022
4830 Clouds 9 1021 44 10000 9.08 300 14:58 14.03.2022
4831 Clouds 10 1020 42 10000 9.03 299 13:58 14.03.2022
4832 Clouds 9 1021 41 10000 7.16 302 11:27 14.03.2022
4833 Clouds 8 1022 45 10000 6.6 301 09:58 14.03.2022
4834 Clouds 8 1022 45 10000 6.6 301 09:58 14.03.2022
4835 Clouds 8 1022 45 10000 6.6 301 09:38 14.03.2022
4836 Clouds 7 1023 52 10000 6.03 301 09:18 14.03.2022
4837 Clouds 7 1023 52 10000 6.03 301 08:46 14.03.2022
4838 Clouds 5 1024 64 10000 5.57 305 07:19 14.03.2022
4839 Clouds 3 1022 73 10000 4.4 298 03:36 14.03.2022
4840 Clouds 4 1021 70 10000 5.71 298 01:46 14.03.2022
4841 Clouds 4 1021 68 10000 6.61 299 00:35 14.03.2022
4842 Clouds 5 1021 70 10000 6.52 291 21:55 13.03.2022
4843 Clouds 6 1021 73 10000 7.1 299 21:26 13.03.2022
4844 Clouds 6 1021 73 10000 7.1 299 20:46 13.03.2022
4845 Clouds 6 1021 76 10000 7.45 303 20:23 13.03.2022
4846 Clouds 6 1021 76 10000 7.45 303 19:42 13.03.2022
4847 Clouds 7 1020 73 10000 7.44 296 19:23 13.03.2022
4848 Clouds 7 1020 73 10000 7.44 296 19:23 13.03.2022
4849 Clouds 7 1020 73 10000 7.44 296 19:23 13.03.2022
4850 Clouds 7 1020 73 10000 7.44 296 19:23 13.03.2022
4851 Clouds 7 1020 73 10000 7.44 296 18:45 13.03.2022
4852 Clouds 7 1020 70 10000 7.43 294 18:26 13.03.2022
4853 Clouds 7 1020 70 10000 7.43 294 17:39 13.03.2022
4854 Clouds 8 1019 64 10000 8.11 288 16:48 13.03.2022
4855 Clouds 9 1019 59 10000 9.41 284 16:27 13.03.2022
4856 Clouds 9 1019 59 10000 9.41 284 15:43 13.03.2022
4857 Clear 11 1018 47 10000 9.78 278 14:49 13.03.2022
4858 Clear 12 1018 43 10000 8.64 273 13:30 13.03.2022
4859 Clear 12 1018 38 10000 7.04 271 12:26 13.03.2022
4860 Clear 12 1018 38 10000 7.04 271 11:45 13.03.2022
4861 Clear 11 1018 40 10000 6 273 11:25 13.03.2022
4862 Clear 11 1018 40 10000 6 273 10:44 13.03.2022
4863 Clear 10 1019 44 10000 5.06 274 09:43 13.03.2022
4864 Clear 8 1020 49 10000 3.99 269 09:20 13.03.2022
4865 Clear 8 1020 49 10000 3.99 269 08:39 13.03.2022
4866 Clear 7 1021 56 10000 2.68 261 07:37 13.03.2022
4867 Clear 4 1021 74 10000 2 284 05:39 13.03.2022
4868 Clear 4 1020 80 10000 4.43 311 01:48 13.03.2022
4869 Clear 4 1020 76 10000 4.95 305 23:30 12.03.2022
4870 Clear 5 1020 73 10000 5.67 292 21:48 12.03.2022
4871 Clear 6 1020 72 10000 6.11 296 20:27 12.03.2022
4872 Clear 6 1020 72 10000 6.11 296 19:46 12.03.2022
4873 Clouds 6 1021 73 10000 7.06 296 18:47 12.03.2022
4874 Clouds 7 1020 68 10000 7.75 289 18:20 12.03.2022
4875 Clouds 7 1019 68 10000 7.2 288 16:32 12.03.2022
4876 Clouds 8 1018 60 10000 7.77 277 15:55 12.03.2022
4877 Clouds 9 1018 59 10000 7.7 276 15:22 12.03.2022
4878 Clouds 9 1018 59 10000 7.7 276 15:22 12.03.2022
4879 Clouds 9 1018 58 10000 8.02 266 13:54 12.03.2022
4880 Clouds 10 1018 50 10000 7.83 277 12:33 12.03.2022
4881 Clouds 9 1018 50 10000 7.73 277 11:55 12.03.2022
4882 Clouds 9 1018 50 10000 7.73 277 11:34 12.03.2022
4883 Clouds 9 1018 50 10000 7.73 277 11:34 12.03.2022
4884 Clouds 9 1019 52 10000 7.87 276 10:43 12.03.2022
4885 Clouds 9 1019 53 10000 8.16 275 09:44 12.03.2022
4886 Clouds 8 1019 53 10000 8.27 278 08:41 12.03.2022
4887 Clouds 7 1020 67 10000 7.07 279 06:44 12.03.2022
4888 Clouds 4 1018 82 10000 8.06 281 01:44 12.03.2022
4889 Clouds 5 1019 71 10000 8.66 281 23:51 11.03.2022
4890 Clouds 5 1019 64 10000 9.45 284 22:45 11.03.2022
4891 Clouds 5 1019 60 10000 9.92 285 21:26 11.03.2022
4892 Clouds 5 1019 60 10000 9.92 285 20:51 11.03.2022
4893 Clouds 6 1019 59 10000 10.61 284 20:28 11.03.2022
4894 Clouds 6 1019 59 10000 10.61 284 19:36 11.03.2022
4895 Clouds 6 1018 57 10000 11.18 286 18:43 11.03.2022
4896 Clouds 7 1017 63 10000 11.5 285 17:26 11.03.2022
4897 Clouds 8 1016 61 10000 12.13 284 16:26 11.03.2022
4898 Clouds 8 1016 61 10000 12.13 284 15:51 11.03.2022
4899 Clouds 9 1015 49 10000 14.39 278 14:18 11.03.2022
4900 Clouds 10 1014 46 10000 14.86 272 12:43 11.03.2022
4901 Clouds 10 1014 49 10000 15.26 273 12:20 11.03.2022
4902 Clouds 10 1014 49 10000 15.26 273 11:40 11.03.2022
4903 Clouds 8 1014 55 10000 12.9 268 09:37 11.03.2022
4904 Clouds 7 1013 80 10000 11.22 268 08:29 11.03.2022
4905 Clouds 7 1013 80 10000 11.22 268 07:48 11.03.2022
4906 Clouds 7 1013 78 10000 11.23 265 06:59 11.03.2022
4907 Clouds 7 1011 76 10000 10.43 261 05:20 11.03.2022
4908 Clouds 7 1011 76 10000 10.38 258 02:45 11.03.2022
4909 Clouds 8 1011 69 10000 9.02 265 22:51 10.03.2022
4910 Clouds 9 1011 71 10000 9.39 269 22:27 10.03.2022
4911 Clear 9 1011 75 10000 8.44 274 21:26 10.03.2022
4912 Clear 9 1011 75 10000 8.44 274 20:39 10.03.2022
4913 Clouds 11 1009 58 10000 6.93 278 19:22 10.03.2022
4914 Clouds 11 1009 55 10000 5.83 275 18:30 10.03.2022
4915 Clouds 12 1009 49 10000 7.28 279 16:53 10.03.2022
4916 Clouds 13 1008 46 10000 10.41 274 15:41 10.03.2022
4917 Clouds 15 1008 37 10000 11.43 263 14:23 10.03.2022
4918 Clouds 15 1008 37 10000 11.02 261 12:46 10.03.2022
4919 Clouds 13 1008 39 10000 10.04 257 11:37 10.03.2022
4920 Clouds 12 1010 49 10000 8.03 255 10:19 10.03.2022
4921 Clouds 11 1011 55 10000 6.46 258 08:48 10.03.2022
4922 Clouds 9 1012 80 10000 3.09 265 05:50 10.03.2022
4923 Clouds 9 1011 86 10000 3.63 292 03:33 10.03.2022
4924 Clear 11 1011 82 10000 3.23 289 00:23 10.03.2022
4925 Clear 11 1011 82 10000 3.63 303 22:45 09.03.2022
4926 Clear 12 1011 79 10000 4.32 303 21:48 09.03.2022
4927 Clear 12 1011 76 10000 5.21 297 20:59 09.03.2022
4928 Clear 12 1009 73 10000 6.66 298 19:28 09.03.2022
4929 Clear 12 1008 71 10000 6.94 314 18:19 09.03.2022
4930 Clear 13 1007 67 10000 8.26 315 17:26 09.03.2022
4931 Clear 16 1006 59 10000 8.57 302 16:23 09.03.2022
4932 Clear 17 1005 40 10000 8.13 292 14:27 09.03.2022
4933 Clear 19 1005 40 10000 8.13 292 13:51 09.03.2022
4934 Clouds 18 1005 41 10000 6.4 292 12:27 09.03.2022
4935 Clouds 18 1005 41 10000 6.4 292 11:48 09.03.2022
4936 Clouds 17 1006 42 10000 5.23 291 10:59 09.03.2022
4937 Clouds 16 1007 43 10000 4.73 292 09:41 09.03.2022
4938 Clouds 15 1007 44 10000 4.26 295 08:47 09.03.2022
4939 Clouds 14 1007 50 10000 1.09 300 06:27 09.03.2022
4940 Clouds 13 1006 49 10000 2.35 192 01:53 09.03.2022
4941 Clouds 13 1008 45 10000 2.16 245 00:26 09.03.2022
4942 Clouds 14 1008 42 10000 3.93 159 22:46 08.03.2022
4943 Clouds 14 1008 33 10000 4.62 139 21:52 08.03.2022
4944 Clouds 14 1007 31 10000 3.43 101 21:21 08.03.2022
4945 Clouds 14 1007 32 10000 4.49 112 20:22 08.03.2022
4946 Clouds 14 1008 32 10000 4.09 93 19:24 08.03.2022
4947 Clouds 16 1008 29 10000 4.31 94 18:22 08.03.2022
4948 Clouds 18 1007 26 10000 3.02 83 16:44 08.03.2022
4949 Clouds 17 1008 22 10000 1.26 198 14:58 08.03.2022
4950 Clear 17 1009 24 10000 1.9 210 13:48 08.03.2022
4951 Clouds 16 1011 32 10000 1.36 271 12:23 08.03.2022
4952 Clouds 16 1011 32 10000 1.36 271 11:42 08.03.2022
4953 Clouds 15 1013 44 10000 1.81 297 10:29 08.03.2022
4954 Clouds 11 1014 53 10000 1.9 303 08:57 08.03.2022
4955 Clouds 11 1014 53 10000 1.9 303 08:57 08.03.2022
4956 Clouds 10 1015 71 10000 3.44 304 06:30 08.03.2022
4957 Clouds 9 1013 80 10000 4.03 317 02:50 08.03.2022
4958 Clouds 11 1014 72 10000 4.33 294 22:53 07.03.2022
4959 Clouds 12 1014 73 10000 4.41 291 21:45 07.03.2022
4960 Clouds 12 1014 72 10000 4.64 294 21:23 07.03.2022
4961 Clouds 13 1014 72 10000 4.64 294 20:38 07.03.2022
4962 Clouds 13 1014 70 10000 4.66 297 19:50 07.03.2022
4963 Clouds 13 1013 66 10000 4.56 301 19:24 07.03.2022
4964 Clouds 13 1013 66 10000 4.53 297 18:33 07.03.2022
4965 Clouds 15 1013 61 10000 5.45 294 17:33 07.03.2022
4966 Clouds 15 1012 56 10000 6.75 295 16:55 07.03.2022
4967 Clouds 16 1011 46 10000 8.28 295 14:57 07.03.2022
4968 Clouds 17 1011 37 10000 7.83 303 12:48 07.03.2022
4969 Clouds 17 1011 40 10000 6.96 306 12:20 07.03.2022
4970 Clear 16 1011 44 10000 6.57 307 10:35 07.03.2022
4971 Clear 14 1013 58 10000 4.98 303 08:35 07.03.2022
4972 Clear 12 1009 68 10000 4.08 332 02:58 07.03.2022
4973 Clear 14 1007 58 10000 8.96 279 00:21 07.03.2022
4974 Clear 14 1007 44 10000 9.87 272 23:28 06.03.2022
4975 Clear 15 1007 44 10000 9.87 272 22:30 06.03.2022
4976 Clear 15 1007 37 10000 10.21 271 21:45 06.03.2022
4977 Clear 16 1007 31 10000 9.96 272 20:30 06.03.2022
4978 Clear 17 1006 31 10000 8.24 268 19:48 06.03.2022
4979 Clouds 19 1005 32 10000 8.05 261 18:51 06.03.2022
4980 Clouds 19 1005 31 10000 7.5 257 17:53 06.03.2022
4981 Clouds 19 1003 31 10000 5.26 248 17:20 06.03.2022
4982 Clouds 20 1003 31 10000 5.26 248 16:40 06.03.2022
4983 Clouds 20 1003 31 10000 5.26 248 16:40 06.03.2022
4984 Clouds 21 1003 27 10000 4.97 255 15:37 06.03.2022
4985 Clouds 20 1003 23 10000 6.53 260 14:49 06.03.2022
4986 Clouds 20 1002 20 10000 8.02 249 14:28 06.03.2022
4987 Clouds 18 1003 21 10000 4.48 222 12:44 06.03.2022
4988 Clouds 17 1005 25 10000 4.7 147 11:56 06.03.2022
4989 Clouds 16 1008 26 10000 8.21 168 10:45 06.03.2022
4990 Clouds 13 1008 31 10000 9.45 128 09:43 06.03.2022
4991 Clouds 10 1013 39 10000 3.48 84 08:29 06.03.2022
4992 Clouds 10 1013 39 10000 3.48 84 07:34 06.03.2022
4993 Clouds 9 1013 50 10000 3.28 110 04:45 06.03.2022
4994 Clear 10 1014 47 10000 4.46 101 00:44 06.03.2022
4995 Clear 10 1014 46 10000 4.14 89 00:25 06.03.2022
4996 Clear 10 1015 46 10000 3.82 91 23:20 05.03.2022
4997 Clear 11 1015 46 10000 3.82 91 22:43 05.03.2022
4998 Clear 12 1015 45 10000 3.78 88 21:45 05.03.2022
4999 Clear 12 1015 45 10000 2.17 66 21:20 05.03.2022
5000 Clear 13 1015 45 10000 1.96 353 19:24 05.03.2022
5001 Clear 14 1015 45 10000 1.96 353 18:51 05.03.2022
5002 Clear 15 1015 44 10000 2.97 2 17:43 05.03.2022
5003 Clear 16 1014 38 10000 2.82 337 16:26 05.03.2022
5004 Clear 16 1014 38 10000 2.82 337 15:31 05.03.2022
5005 Clear 16 1014 36 10000 2.97 319 14:44 05.03.2022
5006 Clear 16 1015 35 10000 3.71 304 14:26 05.03.2022
5007 Clear 16 1015 36 10000 3.61 298 13:20 05.03.2022
5008 Clear 14 1015 37 10000 3.06 294 11:48 05.03.2022
5009 Clear 14 1017 41 10000 3.06 299 11:18 05.03.2022
5010 Clear 11 1018 46 10000 2.8 301 09:59 05.03.2022
5011 Clear 11 1019 53 10000 3 303 08:59 05.03.2022
5012 Clear 9 1019 61 10000 2.75 309 07:37 05.03.2022
5013 Clouds 6 1019 78 10000 2.32 320 05:43 05.03.2022
5014 Clouds 7 1017 77 10000 3.76 317 02:27 05.03.2022
5015 Clouds 8 1018 76 10000 4.09 324 23:37 04.03.2022
5016 Clouds 7 1018 75 10000 4.72 320 22:42 04.03.2022
5017 Clouds 9 1018 73 10000 5.05 320 21:48 04.03.2022
5018 Clouds 9 1018 73 10000 5.43 324 20:52 04.03.2022
5019 Clouds 9 1018 72 10000 4.88 324 20:24 04.03.2022
5020 Clouds 9 1018 72 10000 4.88 324 19:36 04.03.2022
5021 Clear 10 1018 68 10000 4.97 321 18:44 04.03.2022
5022 Clear 11 1018 62 10000 5.12 306 17:32 04.03.2022
5023 Clear 12 1016 56 10000 4.2 293 16:46 04.03.2022
5024 Clear 12 1016 46 10000 6.61 284 15:29 04.03.2022
5025 Clear 12 1016 44 10000 7.24 280 14:29 04.03.2022
5026 Clear 12 1016 43 10000 7.45 281 13:26 04.03.2022
5027 Clear 11 1016 45 10000 7.96 282 11:41 04.03.2022
5028 Clear 11 1017 47 10000 8 280 10:52 04.03.2022
5029 Clear 10 1018 50 10000 8.22 278 09:52 04.03.2022
5030 Clear 10 1018 53 10000 8.84 278 08:39 04.03.2022
5031 Clear 9 1018 59 10000 9.53 282 07:36 04.03.2022
5032 Clear 8 1017 75 10000 8.88 286 03:56 04.03.2022
5033 Clear 8 1017 70 10000 8.88 286 00:28 04.03.2022
5034 Clear 8 1017 70 10000 9.83 283 22:28 03.03.2022
5035 Clear 8 1017 70 10000 9.83 283 21:44 03.03.2022
5036 Clear 8 1016 67 10000 11.13 282 21:26 03.03.2022
5037 Clear 8 1016 69 10000 11.84 284 19:55 03.03.2022
5038 Clouds 8 1015 68 10000 12.67 285 18:55 03.03.2022
5039 Clouds 8 1014 69 10000 12.08 282 18:24 03.03.2022
5040 Clouds 8 1014 69 10000 12.08 282 17:31 03.03.2022
5041 Clouds 8 1014 69 10000 12.08 282 17:31 03.03.2022
5042 Clouds 9 1013 64 10000 13.79 282 16:25 03.03.2022
5043 Clouds 9 1013 64 10000 13.79 282 15:32 03.03.2022
5044 Clouds 9 1012 60 10000 14.54 280 14:43 03.03.2022
5045 Clouds 10 1011 65 10000 14.53 275 14:24 03.03.2022
5046 Clouds 8 1011 58 10000 15.9 270 12:27 03.03.2022
5047 Clouds 13 1011 54 10000 16.2 263 10:49 03.03.2022
5048 Clouds 13 1010 54 10000 15.55 263 09:45 03.03.2022
5049 Clouds 12 1011 50 10000 15.02 265 08:34 03.03.2022
5050 Clouds 13 1009 74 10000 12.23 273 06:38 03.03.2022
5051 Clouds 15 1008 69 10000 6.69 269 04:47 03.03.2022
5052 Clouds 17 1007 31 10000 3.99 252 23:45 02.03.2022
5053 Clouds 17 1008 29 10000 3.68 254 22:54 02.03.2022
5054 Clouds 17 1008 29 10000 3.68 254 22:31 02.03.2022
5055 Clouds 18 1009 27 10000 3.51 256 20:59 02.03.2022
5056 Clouds 18 1009 28 10000 1.89 237 20:25 02.03.2022
5057 Clouds 18 1009 28 10000 1.89 237 19:37 02.03.2022
5058 Clouds 18 1009 29 10000 0.98 198 19:18 02.03.2022
5059 Clouds 20 1010 31 10000 2.19 245 18:31 02.03.2022
5060 Clouds 21 1010 33 10000 2.03 258 17:41 02.03.2022
5061 Clouds 22 1010 31 10000 3.1 281 16:52 02.03.2022
5062 Clouds 23 1009 23 10000 3.49 268 15:59 02.03.2022
5063 Clouds 25 1009 17 10000 5.22 181 14:29 02.03.2022
5064 Clouds 25 1010 22 10000 5.16 157 12:56 02.03.2022
5065 Clouds 24 1010 22 10000 5.16 157 12:34 02.03.2022
5066 Clouds 22 1013 31 10000 6.53 149 11:27 02.03.2022
5067 Clouds 21 1013 31 10000 6.53 149 10:39 02.03.2022
5068 Clouds 19 1014 35 10000 6.57 137 09:37 02.03.2022
5069 Clouds 16 1015 39 10000 6.05 125 08:36 02.03.2022
5070 Clouds 13 1017 48 10000 2.81 116 07:23 02.03.2022
5071 Clouds 11 1016 55 10000 1.01 104 05:42 02.03.2022
5072 Clouds 14 1017 61 10000 3.14 344 00:42 02.03.2022
5073 Clouds 14 1018 65 10000 2.48 353 23:35 01.03.2022
5074 Clouds 14 1018 66 10000 2.47 344 22:40 01.03.2022
5075 Clouds 15 1019 66 10000 2.71 343 21:53 01.03.2022
5076 Clouds 15 1019 65 10000 3.11 338 20:41 01.03.2022
5077 Clouds 15 1019 63 10000 2.75 335 20:21 01.03.2022
5078 Clouds 16 1018 61 10000 2.82 336 18:59 01.03.2022
5079 Clouds 16 1018 58 10000 4.11 322 18:25 01.03.2022
5080 Clouds 16 1018 58 10000 4.11 322 17:55 01.03.2022
5081 Clouds 18 1017 51 10000 4.62 303 16:39 01.03.2022
5082 Clouds 21 1017 44 10000 5.7 296 15:49 01.03.2022
5083 Clouds 21 1017 38 10000 6.34 293 14:54 01.03.2022
5084 Clouds 21 1017 38 10000 6.34 293 14:33 01.03.2022
5085 Clouds 20 1017 32 10000 5.23 296 13:26 01.03.2022
5086 Clouds 20 1017 33 10000 5.27 298 12:38 01.03.2022
5087 Clouds 20 1017 32 10000 4.51 303 11:44 01.03.2022
5088 Clouds 18 1019 35 10000 3.15 295 09:53 01.03.2022
5089 Clouds 14 1020 38 10000 3.59 308 08:31 01.03.2022
5090 Clouds 12 1020 45 10000 3.5 306 07:35 01.03.2022
5091 Clouds 11 1019 75 10000 2.24 307 03:29 01.03.2022
5092 Clouds 10 1020 72 10000 3.53 309 00:58 01.03.2022
5093 Clouds 10 1020 68 10000 2.93 303 23:47 28.02.2022
5094 Clouds 11 1020 66 10000 2.97 303 22:52 28.02.2022
5095 Clouds 12 1019 64 10000 3.06 312 21:48 28.02.2022
5096 Clouds 12 1019 64 10000 3.06 312 21:48 28.02.2022
5097 Clouds 12 1020 62 10000 3.53 317 21:24 28.02.2022
5098 Clouds 13 1020 61 10000 3.78 322 19:52 28.02.2022
5099 Clouds 13 1020 57 10000 4.25 327 19:22 28.02.2022
5100 Clouds 14 1020 59 10000 4 329 18:36 28.02.2022
5101 Clouds 17 1019 41 10000 4.22 315 17:23 28.02.2022
5102 Clouds 17 1019 41 10000 4.22 315 16:32 28.02.2022
5103 Clouds 19 1018 27 10000 3.15 298 15:23 28.02.2022
5104 Clouds 19 1018 27 10000 3.15 298 14:30 28.02.2022
5105 Clear 19 1018 27 10000 2.99 285 13:34 28.02.2022
5106 Clear 18 1018 28 10000 2.71 275 12:37 28.02.2022
5107 Clear 18 1018 32 10000 2 273 11:44 28.02.2022
5108 Clear 16 1019 39 10000 1.68 265 10:48 28.02.2022
5109 Clear 16 1020 46 10000 1.86 277 10:19 28.02.2022
5110 Clear 14 1020 46 10000 1.86 277 09:31 28.02.2022
5111 Clear 13 1021 57 10000 1.32 297 08:29 28.02.2022
5112 Clear 11 1021 63 10000 1.41 312 07:20 28.02.2022
5113 Clear 8 1020 74 10000 2.49 308 04:44 28.02.2022
5114 Clear 8 1020 73 10000 2.16 306 04:23 28.02.2022
5115 Clear 11 1020 65 10000 1.42 309 23:27 27.02.2022
5116 Clear 11 1020 65 10000 1.42 309 22:33 27.02.2022
5117 Clear 11 1021 60 10000 0.68 298 21:51 27.02.2022
5118 Clear 11 1020 57 10000 0.96 109 20:59 27.02.2022
5119 Clear 12 1020 55 10000 2.27 83 20:27 27.02.2022
5120 Clear 12 1020 55 10000 2.27 83 19:57 27.02.2022
5121 Clouds 13 1020 53 10000 2.89 58 19:26 27.02.2022
5122 Clouds 14 1020 53 10000 2.78 52 18:47 27.02.2022
5123 Clouds 15 1020 50 10000 2.94 32 17:56 27.02.2022
5124 Clouds 15 1019 47 10000 2.35 11 16:54 27.02.2022
5125 Clouds 16 1019 43 10000 1.22 324 16:21 27.02.2022
5126 Clear 16 1020 45 10000 1.67 229 13:25 27.02.2022
5127 Clouds 15 1020 43 10000 1.64 236 12:32 27.02.2022
5128 Clouds 14 1022 50 10000 2.02 207 10:59 27.02.2022
5129 Clear 14 1023 56 10000 1.71 196 10:20 27.02.2022
5130 Clear 13 1023 56 10000 1.71 196 09:50 27.02.2022
5131 Clear 12 1023 63 10000 0.89 233 09:20 27.02.2022
5132 Clear 9 1024 69 10000 0.96 298 07:54 27.02.2022
5133 Clear 7 1023 85 10000 2.36 336 05:38 27.02.2022
5134 Clear 7 1023 85 10000 2.36 336 05:38 27.02.2022
5135 Clear 8 1022 90 10000 3.07 320 02:35 27.02.2022
5136 Clear 9 1022 89 10000 2.9 298 23:30 26.02.2022
5137 Clear 9 1022 89 10000 2.9 298 23:30 26.02.2022
5138 Clear 10 1022 89 10000 2.98 293 22:31 26.02.2022
5139 Clear 10 1022 86 10000 3.22 298 21:18 26.02.2022
5140 Clear 10 1022 84 10000 3.24 292 20:27 26.02.2022
5141 Clear 10 1022 84 10000 3.24 292 19:52 26.02.2022
5142 Clear 10 1022 84 10000 3.24 292 19:31 26.02.2022
5143 Clouds 10 1021 77 10000 4.22 278 17:55 26.02.2022
5144 Clouds 10 1020 71 10000 4.54 282 17:29 26.02.2022
5145 Clouds 10 1020 71 10000 4.54 282 17:29 26.02.2022
5146 Clouds 10 1020 71 10000 4.54 282 16:33 26.02.2022
5147 Clouds 10 1019 58 10000 7.12 290 15:26 26.02.2022
5148 Clouds 11 1019 58 10000 7.12 290 14:57 26.02.2022
5149 Clouds 11 1019 58 10000 7.12 290 14:38 26.02.2022
5150 Clouds 11 1018 55 10000 7.2 285 13:46 26.02.2022
5151 Clouds 10 1018 55 10000 6.46 286 12:53 26.02.2022
5152 Clouds 10 1018 57 10000 6.14 288 11:39 26.02.2022
5153 Clouds 10 1019 60 10000 6.19 283 10:59 26.02.2022
5154 Clouds 10 1020 67 10000 5.08 267 09:22 26.02.2022
5155 Clouds 9 1020 73 10000 4.77 261 08:21 26.02.2022
5156 Clouds 8 1017 87 10000 3.96 263 04:22 26.02.2022
5157 Clouds 9 1016 83 10000 6.66 255 23:50 25.02.2022
5158 Clouds 9 1016 82 10000 6.22 249 22:31 25.02.2022
5159 Clouds 9 1016 84 10000 6.24 249 21:30 25.02.2022
5160 Clear 9 1017 83 10000 6.1 254 20:34 25.02.2022
5161 Clear 9 1016 79 10000 6.57 262 19:56 25.02.2022
5162 Clouds 9 1016 74 10000 6.86 258 17:54 25.02.2022
5163 Clouds 9 1015 73 10000 7.85 262 16:48 25.02.2022
5164 Clouds 9 1015 68 10000 8.29 263 15:50 25.02.2022
5165 Clouds 9 1014 65 10000 9.41 261 15:23 25.02.2022
5166 Clouds 9 1014 65 10000 9.41 261 14:55 25.02.2022
5167 Clouds 9 1014 73 10000 9.87 257 14:19 25.02.2022
5168 Clouds 9 1014 73 10000 9.87 257 13:30 25.02.2022
5169 Clouds 8 1013 72 10000 9.76 246 12:21 25.02.2022
5170 Clouds 11 1013 60 10000 11.47 241 11:21 25.02.2022
5171 Clouds 11 1013 50 10000 11.18 239 10:23 25.02.2022
5172 Clouds 10 1013 50 10000 11.18 239 09:45 25.02.2022
5173 Clear 11 1013 60 10000 8.84 234 08:22 25.02.2022
5174 Clear 10 1013 69 10000 7.18 242 06:56 25.02.2022
5175 Clouds 9 1013 74 10000 4.85 245 05:41 25.02.2022
5176 Clear 9 1013 74 10000 4.78 252 02:43 25.02.2022
5177 Clear 10 1013 68 10000 6.5 263 22:47 24.02.2022
5178 Clear 11 1012 63 10000 5.4 267 21:51 24.02.2022
5179 Clear 11 1012 63 10000 5.4 267 21:30 24.02.2022
5180 Clear 11 1012 62 10000 4.47 279 20:47 24.02.2022
5181 Clear 11 1011 64 10000 5.15 300 19:32 24.02.2022
5182 Clouds 12 1011 66 10000 8.34 302 18:21 24.02.2022
5183 Clouds 12 1011 66 10000 8.34 302 17:58 24.02.2022
5184 Clouds 12 1010 69 10000 9.11 289 17:21 24.02.2022
5185 Clouds 13 1010 65 10000 9.14 282 16:28 24.02.2022
5186 Clouds 14 1010 65 10000 9.14 282 15:44 24.02.2022
5187 Clear 16 1009 53 10000 8.6 281 14:50 24.02.2022
5188 Clear 16 1009 46 10000 8.24 268 14:19 24.02.2022
5189 Clear 16 1009 46 10000 8.24 268 13:39 24.02.2022
5190 Clear 16 1009 46 10000 8.24 268 13:39 24.02.2022
5191 Clear 16 1009 36 10000 6.87 265 11:56 24.02.2022
5192 Clear 16 1009 32 10000 6.18 268 10:39 24.02.2022
5193 Clear 16 1010 30 10000 2.41 255 08:46 24.02.2022
5194 Clear 16 1010 33 10000 0.93 111 08:22 24.02.2022
5195 Clouds 13 1010 39 10000 2.3 108 05:50 24.02.2022
5196 Clouds 19 1011 33 10000 4.27 101 00:32 24.02.2022
5197 Clouds 19 1011 30 10000 3.44 108 22:38 23.02.2022
5198 Clouds 19 1011 29 10000 3.81 110 21:34 23.02.2022
5199 Clouds 20 1011 29 10000 3.37 102 20:30 23.02.2022
5200 Clear 20 1011 29 10000 3.6 106 19:44 23.02.2022
5201 Clouds 20 1011 24 10000 4.82 104 18:32 23.02.2022
5202 Clouds 21 1011 23 10000 4.9 101 17:21 23.02.2022
5203 Clouds 23 1011 19 10000 5.13 128 14:34 23.02.2022
5204 Clouds 22 1011 18 10000 5.67 129 12:37 23.02.2022
5205 Clouds 21 1013 20 10000 5.52 124 11:24 23.02.2022
5206 Clouds 18 1013 20 10000 5.52 124 10:31 23.02.2022
5207 Clear 17 1015 26 10000 5.07 116 08:58 23.02.2022
5208 Clouds 15 1015 32 10000 5.16 112 07:58 23.02.2022
5209 Clouds 10 1014 38 10000 3.23 115 03:48 23.02.2022
5210 Clouds 12 1014 37 10000 1.49 92 00:28 23.02.2022
5211 Clouds 11 1014 37 10000 1.49 92 23:36 22.02.2022
5212 Clouds 12 1014 39 10000 1.27 104 22:31 22.02.2022
5213 Clouds 12 1014 40 10000 0.95 119 21:49 22.02.2022
5214 Clouds 12 1014 40 10000 0.95 119 21:30 22.02.2022
5215 Clouds 12 1014 40 10000 0.95 119 21:30 22.02.2022
5216 Clouds 12 1014 41 10000 0.95 91 20:55 22.02.2022
5217 Clouds 13 1015 43 10000 1.7 19 20:29 22.02.2022
5218 Clouds 14 1015 43 10000 1.7 19 19:42 22.02.2022
5219 Clouds 14 1014 45 10000 3.12 353 19:19 22.02.2022
5220 Clouds 16 1014 46 10000 5 339 17:48 22.02.2022
5221 Clouds 16 1014 33 10000 3.19 344 17:21 22.02.2022
5222 Clouds 19 1014 33 10000 3.19 344 16:37 22.02.2022
5223 Clouds 20 1013 29 10000 2.44 343 15:44 22.02.2022
5224 Clouds 20 1013 29 10000 2.44 343 15:44 22.02.2022
5225 Clouds 21 1013 25 10000 2.48 315 14:44 22.02.2022
5226 Clouds 20 1014 25 10000 3.01 272 12:31 22.02.2022
5227 Clouds 16 1015 31 10000 2.08 234 10:52 22.02.2022
5228 Clear 15 1017 44 10000 1.68 235 08:41 22.02.2022
5229 Clouds 10 1018 65 10000 0.88 236 07:27 22.02.2022
5230 Clouds 8 1018 77 10000 1.47 284 05:57 22.02.2022
5231 Clouds 10 1017 85 10000 1.63 298 02:45 22.02.2022
5232 Clouds 11 1019 87 10000 2.8 323 22:46 21.02.2022
5233 Clouds 11 1019 85 10000 3.01 314 21:42 21.02.2022
5234 Clouds 12 1019 83 10000 3.1 317 20:36 21.02.2022
5235 Clear 14 1019 77 10000 3.93 313 18:46 21.02.2022
5236 Clear 14 1019 72 10000 4.62 299 17:36 21.02.2022
5237 Clear 15 1018 51 10000 6.86 297 15:22 21.02.2022
5238 Clear 15 1018 47 10000 6.99 296 14:22 21.02.2022
5239 Clear 16 1018 47 10000 6.99 296 13:30 21.02.2022
5240 Clouds 15 1019 48 10000 6.66 296 12:24 21.02.2022
5241 Clouds 15 1020 53 10000 6 292 11:20 21.02.2022
5242 Clouds 12 1021 59 10000 6.31 293 09:50 21.02.2022
5243 Clouds 10 1022 87 10000 5.69 296 05:35 21.02.2022
5244 Clear 10 1022 89 10000 5.47 292 00:18 21.02.2022
5245 Clear 10 1023 86 10000 6.24 291 22:27 20.02.2022
5246 Clear 10 1023 86 10000 6.24 291 21:42 20.02.2022
5247 Clear 10 1023 84 10000 6.99 290 20:59 20.02.2022
5248 Clear 11 1023 84 10000 6.99 290 20:41 20.02.2022
5249 Clear 11 1022 82 10000 7.27 289 19:36 20.02.2022
5250 Clear 11 1022 79 10000 6.9 285 18:51 20.02.2022
5251 Clear 11 1022 79 10000 6.9 285 18:32 20.02.2022
5252 Clear 12 1021 77 10000 7.56 284 17:52 20.02.2022
5253 Clear 13 1020 63 10000 8.51 293 15:54 20.02.2022
5254 Clear 14 1020 57 10000 9.62 297 14:52 20.02.2022
5255 Clear 15 1020 54 10000 10.32 300 13:33 20.02.2022
5256 Clouds 14 1019 51 10000 9.79 304 12:34 20.02.2022
5257 Clouds 12 1019 53 10000 8.86 308 10:47 20.02.2022
5258 Clouds 12 1020 60 10000 8.57 308 10:20 20.02.2022
5259 Clouds 11 1020 68 10000 7.85 308 08:51 20.02.2022
5260 Clouds 10 1018 90 10000 5.74 314 00:54 20.02.2022
5261 Clouds 10 1017 88 10000 5.08 317 00:30 20.02.2022
5262 Clouds 10 1017 83 10000 6.7 317 23:18 19.02.2022
5263 Clouds 10 1016 77 10000 6.01 317 22:22 19.02.2022
5264 Clouds 10 1016 77 10000 6.01 317 21:34 19.02.2022
5265 Clouds 10 1015 67 10000 6.68 316 19:54 19.02.2022
5266 Clouds 10 1015 67 10000 6.68 316 19:33 19.02.2022
5267 Clouds 10 1014 80 10000 8.66 297 18:35 19.02.2022
5268 Clouds 11 1013 73 10000 7.9 301 17:37 19.02.2022
5269 Clouds 11 1011 68 10000 7.67 293 16:28 19.02.2022
5270 Clouds 12 1010 56 10000 6.39 296 15:18 19.02.2022
5271 Clouds 12 1010 56 10000 6.39 296 14:49 19.02.2022
5272 Clouds 13 1009 51 10000 5.83 322 13:45 19.02.2022
5273 Clouds 12 1008 54 10000 5.78 319 11:39 19.02.2022
5274 Clouds 11 1009 54 10000 4.79 324 09:57 19.02.2022
5275 Clouds 10 1010 61 10000 7.94 329 07:55 19.02.2022
5276 Clouds 11 1009 58 10000 5.95 332 04:32 19.02.2022
5277 Clouds 12 1009 52 10000 3.51 352 23:38 18.02.2022
5278 Clouds 12 1009 49 10000 4.23 338 21:53 18.02.2022
5279 Clouds 13 1010 49 10000 3.79 333 20:57 18.02.2022
5280 Clouds 14 1010 49 10000 4.25 341 19:54 18.02.2022
5281 Clouds 14 1010 44 10000 4.39 342 18:50 18.02.2022
5282 Clouds 14 1009 36 10000 3.79 336 18:22 18.02.2022
5283 Clouds 14 1009 36 10000 3.79 336 17:55 18.02.2022
5284 Clouds 19 1008 26 10000 1.99 313 15:22 18.02.2022
5285 Clouds 19 1008 26 10000 1.05 312 13:55 18.02.2022
5286 Clear 18 1009 28 10000 0.61 319 12:55 18.02.2022
5287 Clouds 18 1009 28 10000 0.47 327 12:36 18.02.2022
5288 Clouds 17 1009 31 10000 0.32 14 11:40 18.02.2022
5289 Clouds 17 1011 36 10000 0.8 104 10:23 18.02.2022
5290 Clouds 8 1011 46 10000 1 95 06:58 18.02.2022
5291 Clouds 8 1011 53 10000 0.6 3 05:41 18.02.2022
5292 Clouds 11 1010 47 10000 2.67 129 23:43 17.02.2022
5293 Clouds 13 1011 44 10000 3.42 113 21:46 17.02.2022
5294 Clouds 13 1012 43 10000 3.27 109 21:20 17.02.2022
5295 Clouds 13 1012 43 10000 3.27 109 20:39 17.02.2022
5296 Clouds 12 1012 42 10000 3.13 89 19:50 17.02.2022
5297 Clouds 15 1012 44 10000 3.04 88 18:52 17.02.2022
5298 Clouds 15 1011 42 10000 3.38 83 17:55 17.02.2022
5299 Clouds 17 1011 40 10000 3.67 80 16:43 17.02.2022
5300 Clouds 17 1011 37 10000 2.42 78 15:38 17.02.2022
5301 Clouds 17 1011 34 10000 2.11 143 14:28 17.02.2022
5302 Clouds 16 1012 35 10000 2.33 162 12:50 17.02.2022
5303 Clouds 15 1014 42 10000 2.88 152 11:27 17.02.2022
5304 Clouds 12 1016 54 10000 3.08 142 09:18 17.02.2022
5305 Clouds 7 1017 75 10000 1.61 319 04:20 17.02.2022
5306 Clouds 8 1018 75 10000 3.67 324 23:21 16.02.2022
5307 Clouds 9 1018 74 10000 3.99 315 21:45 16.02.2022
5308 Clouds 10 1019 71 10000 4.47 319 19:57 16.02.2022
5309 Clouds 11 1018 66 10000 4.54 323 18:43 16.02.2022
5310 Clear 11 1018 60 10000 4.36 323 17:53 16.02.2022
5311 Clear 13 1017 47 10000 4.59 316 15:55 16.02.2022
5312 Clear 13 1017 41 10000 4.7 323 15:19 16.02.2022
5313 Clear 14 1017 39 10000 4.27 312 13:31 16.02.2022
5314 Clear 13 1018 42 10000 3.91 306 12:20 16.02.2022
5315 Clear 12 1018 42 10000 3.91 306 11:31 16.02.2022
5316 Clear 12 1019 45 10000 3.81 310 10:34 16.02.2022
5317 Clear 10 1021 56 10000 4.19 322 08:58 16.02.2022
5318 Clear 9 1022 74 10000 4.42 322 06:43 16.02.2022
5319 Clear 9 1021 82 10000 5.18 326 23:45 15.02.2022
5320 Clear 10 1021 81 10000 5.39 328 22:34 15.02.2022
5321 Clear 10 1021 81 10000 5.79 330 21:49 15.02.2022
5322 Clear 10 1021 81 10000 6.08 330 21:29 15.02.2022
5323 Clear 10 1021 81 10000 6.08 330 20:56 15.02.2022
5324 Clear 11 1021 81 10000 6.22 330 19:59 15.02.2022
5325 Clear 11 1021 81 10000 6.22 330 19:33 15.02.2022
5326 Clear 11 1020 74 10000 6.26 322 18:24 15.02.2022
5327 Clear 12 1020 74 10000 6.26 322 17:52 15.02.2022
5328 Clear 12 1019 60 10000 6.03 323 17:26 15.02.2022
5329 Clear 14 1018 51 10000 6.01 323 15:34 15.02.2022
5330 Clear 16 1018 48 10000 3.96 304 13:29 15.02.2022
5331 Clear 16 1018 47 10000 4.03 306 12:59 15.02.2022
5332 Clear 14 1018 50 10000 4.02 308 11:41 15.02.2022
5333 Clear 14 1018 50 10000 4.02 308 11:41 15.02.2022
5334 Clear 13 1020 58 10000 2.73 311 09:54 15.02.2022
5335 Clear 8 1022 81 10000 2.03 341 07:00 15.02.2022
5336 Clear 8 1022 81 10000 2.47 342 06:36 15.02.2022
5337 Clear 8 1021 85 10000 3.81 316 23:34 14.02.2022
5338 Clear 9 1021 82 10000 4.15 310 21:55 14.02.2022
5339 Clear 10 1021 81 10000 4.27 315 20:52 14.02.2022
5340 Clear 10 1021 79 10000 4.37 311 19:46 14.02.2022
5341 Clear 10 1021 76 10000 4.56 316 19:28 14.02.2022
5342 Clear 11 1020 71 10000 4.93 314 18:23 14.02.2022
5343 Clear 12 1020 66 10000 5.7 313 17:27 14.02.2022
5344 Clear 12 1019 59 10000 6.66 308 16:27 14.02.2022
5345 Clear 14 1018 53 10000 7.32 304 14:43 14.02.2022
5346 Clear 14 1018 50 10000 7.36 304 13:34 14.02.2022
5347 Clear 14 1017 49 10000 7.06 298 12:58 14.02.2022
5348 Clear 13 1017 50 10000 6.55 296 11:57 14.02.2022
5349 Clear 13 1017 50 10000 6.55 296 11:38 14.02.2022
5350 Clouds 12 1020 58 10000 6.56 296 10:18 14.02.2022
5351 Clear 10 1020 70 10000 6.39 295 07:49 14.02.2022
5352 Clear 10 1020 81 10000 5.29 288 07:24 14.02.2022
5353 Clear 10 1019 46 10000 3.98 292 22:48 13.02.2022
5354 Clear 10 1019 46 10000 3.98 292 22:30 13.02.2022
5355 Clear 10 1019 41 10000 2.31 283 21:57 13.02.2022
5356 Clear 12 1019 36 10000 0.88 228 21:23 13.02.2022
5357 Clear 13 1019 34 10000 1.66 150 20:27 13.02.2022
5358 Clear 13 1018 28 10000 1.7 132 19:18 13.02.2022
5359 Clear 14 1018 28 10000 1.7 132 18:41 13.02.2022
5360 Clear 16 1018 27 10000 0.34 195 17:22 13.02.2022
5361 Clear 20 1017 25 10000 0.54 178 15:51 13.02.2022
5362 Clear 19 1018 18 10000 1.61 180 14:50 13.02.2022
5363 Clear 19 1019 19 10000 3.07 152 13:29 13.02.2022
5364 Clear 18 1019 20 10000 2.75 165 12:42 13.02.2022
5365 Clear 15 1021 26 10000 3.83 156 10:44 13.02.2022
5366 Clear 15 1022 31 10000 3.84 153 10:25 13.02.2022
5367 Clear 12 1023 35 10000 3.5 151 08:56 13.02.2022
5368 Clear 6 1024 50 10000 2.47 152 02:50 13.02.2022
5369 Clear 8 1024 49 10000 1.8 142 00:33 13.02.2022
5370 Clear 8 1024 49 10000 1.11 139 22:56 12.02.2022
5371 Clear 8 1024 49 10000 1.11 139 22:32 12.02.2022
5372 Clear 8 1025 49 10000 0.86 178 21:18 12.02.2022
5373 Clear 11 1025 48 10000 1.06 197 20:24 12.02.2022
5374 Clear 11 1025 46 10000 1.44 188 18:54 12.02.2022
5375 Clear 11 1025 46 10000 1.44 188 18:36 12.02.2022
5376 Clear 13 1024 44 10000 1.89 190 17:55 12.02.2022
5377 Clear 15 1024 43 10000 2.1 184 16:54 12.02.2022
5378 Clear 15 1024 40 10000 1.68 169 16:18 12.02.2022
5379 Clear 16 1024 34 10000 1.73 151 15:23 12.02.2022
5380 Clear 15 1024 34 10000 1.73 151 14:30 12.02.2022
5381 Clear 15 1024 39 10000 1.78 142 12:26 12.02.2022
5382 Clear 13 1025 42 10000 1.9 135 10:34 12.02.2022
5383 Clear 12 1026 47 10000 2.21 132 09:38 12.02.2022
5384 Clear 9 1027 51 10000 2.53 137 08:48 12.02.2022
5385 Clear 9 1027 51 10000 2.53 137 08:48 12.02.2022
5386 Clear 6 1027 56 10000 2.16 137 07:50 12.02.2022
5387 Clear 5 1026 68 10000 1.09 129 05:31 12.02.2022
5388 Clear 6 1025 72 10000 0.85 350 02:20 12.02.2022
5389 Clear 7 1025 72 10000 1.16 27 00:31 12.02.2022
5390 Clear 7 1025 75 10000 2.46 353 22:27 11.02.2022
5391 Clear 8 1025 75 10000 2.46 353 21:45 11.02.2022
5392 Clear 8 1025 76 10000 2.86 343 20:38 11.02.2022
5393 Clear 9 1024 75 10000 3.5 330 19:33 11.02.2022
5394 Clouds 9 1024 72 10000 4.19 319 18:58 11.02.2022
5395 Clouds 11 1022 61 10000 4.4 310 17:28 11.02.2022
5396 Clouds 11 1022 61 10000 4.4 310 16:58 11.02.2022
5397 Clouds 11 1022 54 10000 4.62 320 15:55 11.02.2022
5398 Clouds 12 1021 48 10000 5.6 327 14:38 11.02.2022
5399 Clouds 12 1021 46 10000 5.83 325 14:20 11.02.2022
5400 Clouds 12 1021 46 10000 5.83 325 13:50 11.02.2022
5401 Clouds 12 1021 46 10000 5.83 325 13:31 11.02.2022
5402 Clear 11 1020 45 10000 4.54 325 11:32 11.02.2022
5403 Clear 9 1022 57 10000 4.9 321 09:45 11.02.2022
5404 Clear 9 1022 63 10000 4.89 318 08:40 11.02.2022
5405 Clear 9 1022 70 10000 4.47 320 08:22 11.02.2022
5406 Clouds 5 1022 79 10000 3.36 314 06:33 11.02.2022
5407 Clouds 7 1019 87 10000 3.13 309 02:26 11.02.2022
5408 Clouds 7 1019 87 10000 3.16 298 00:47 11.02.2022
5409 Clear 7 1019 88 10000 2.64 258 22:45 10.02.2022
5410 Clear 7 1019 89 10000 3.04 261 21:45 10.02.2022
5411 Clear 7 1019 88 10000 3.58 263 20:57 10.02.2022
5412 Clear 7 1019 88 10000 3.58 263 20:30 10.02.2022
5413 Clouds 7 1018 89 10000 4.12 268 19:25 10.02.2022
5414 Clouds 7 1018 85 10000 4.68 273 18:44 10.02.2022
5415 Clouds 7 1017 85 10000 4.96 273 17:26 10.02.2022
5416 Clouds 7 1017 85 10000 4.96 273 16:50 10.02.2022
5417 Clouds 6 1017 82 10000 5.59 267 15:49 10.02.2022
5418 Clouds 6 1016 82 10000 6.66 254 15:29 10.02.2022
5419 Clouds 8 1016 82 10000 6.66 254 14:47 10.02.2022
5420 Clouds 8 1016 82 10000 7.45 247 14:23 10.02.2022
5421 Clouds 7 1016 83 10000 8.61 245 13:26 10.02.2022
5422 Clouds 7 1016 83 10000 8.13 241 12:27 10.02.2022
5423 Clouds 7 1016 83 10000 8.13 241 11:33 10.02.2022
5424 Clouds 6 1016 84 10000 8.58 237 10:44 10.02.2022
5425 Clouds 6 1017 87 10000 8.63 233 09:57 10.02.2022
5426 Clouds 6 1017 88 10000 7.93 229 09:23 10.02.2022
5427 Clouds 6 1016 84 10000 8.55 236 07:19 10.02.2022
5428 Clouds 6 1014 79 10000 7.36 246 04:23 10.02.2022
5429 Clouds 7 1014 75 10000 7.99 258 01:48 10.02.2022
5430 Clouds 8 1014 76 10000 7.81 251 00:47 10.02.2022
5431 Clouds 8 1015 77 10000 7.9 258 00:27 10.02.2022
5432 Clouds 8 1015 73 10000 7.67 262 23:22 09.02.2022
5433 Clouds 8 1015 73 10000 7.67 262 22:35 09.02.2022
5434 Clouds 9 1015 72 10000 7.58 269 21:50 09.02.2022
5435 Clouds 9 1015 70 10000 7.29 272 21:28 09.02.2022
5436 Clouds 9 1015 70 10000 7.29 272 20:47 09.02.2022
5437 Clouds 9 1014 70 10000 7.75 279 20:24 09.02.2022
5438 Clouds 9 1014 70 10000 7.75 279 19:45 09.02.2022
5439 Clear 9 1014 74 10000 6.16 276 19:27 09.02.2022
5440 Clouds 11 1014 73 10000 7.51 279 17:37 09.02.2022
5441 Clouds 12 1014 74 10000 8.27 280 16:34 09.02.2022
5442 Clouds 14 1013 69 10000 9.14 274 15:40 09.02.2022
5443 Clear 14 1012 37 10000 9.15 271 14:28 09.02.2022
5444 Clear 16 1012 27 10000 8.66 260 12:28 09.02.2022
5445 Clear 16 1012 27 10000 8.66 260 12:28 09.02.2022
5446 Clear 17 1012 25 10000 7.07 255 10:51 09.02.2022
5447 Clear 17 1013 26 10000 4.52 248 10:26 09.02.2022
5448 Clear 16 1013 26 10000 4.52 248 09:35 09.02.2022
5449 Clear 15 1014 30 10000 2.07 218 08:59 09.02.2022
5450 Clear 10 1014 34 10000 1.14 154 07:53 09.02.2022
5451 Clear 8 1015 44 10000 1.27 111 05:30 09.02.2022
5452 Clear 8 1015 44 10000 1.74 95 03:50 09.02.2022
5453 Clouds 8 1015 42 10000 1.57 112 00:39 09.02.2022
5454 Clouds 9 1016 42 10000 0.95 114 23:31 08.02.2022
5455 Clouds 9 1016 43 10000 0.21 34 22:46 08.02.2022
5456 Clouds 9 1017 43 10000 0.22 355 22:21 08.02.2022
5457 Clouds 9 1017 43 10000 0.22 355 22:21 08.02.2022
5458 Clouds 9 1017 43 10000 0.22 355 22:21 08.02.2022
5459 Clouds 11 1017 43 10000 0.22 355 21:39 08.02.2022
5460 Clouds 11 1017 44 10000 0.21 148 21:20 08.02.2022
5461 Clouds 11 1017 44 10000 0.21 148 20:42 08.02.2022
5462 Clear 12 1018 43 10000 0.31 332 19:46 08.02.2022
5463 Clear 13 1017 39 10000 2.23 312 18:38 08.02.2022
5464 Clouds 16 1017 35 10000 2.41 296 17:40 08.02.2022
5465 Clouds 18 1017 31 10000 1.93 263 16:29 08.02.2022
5466 Clouds 19 1017 26 10000 2.03 244 15:29 08.02.2022
5467 Clouds 19 1017 26 10000 2.03 244 14:31 08.02.2022
5468 Clouds 19 1017 26 10000 2.39 220 13:20 08.02.2022
5469 Clouds 17 1018 32 10000 2.32 205 11:33 08.02.2022
5470 Clouds 16 1020 40 10000 2.19 178 10:23 08.02.2022
5471 Clouds 16 1020 40 10000 2.19 178 10:23 08.02.2022
5472 Clouds 14 1020 40 10000 2.19 178 09:44 08.02.2022
5473 Clouds 8 1022 51 10000 1.74 153 07:51 08.02.2022
5474 Clear 7 1022 68 10000 0.82 161 05:40 08.02.2022
5475 Clear 7 1021 69 10000 1.1 182 04:39 08.02.2022
5476 Clear 7 1021 70 10000 0.79 190 04:21 08.02.2022
5477 Clear 7 1021 70 10000 0.79 190 03:36 08.02.2022
5478 Clear 7 1021 71 10000 1.1 214 03:18 08.02.2022
5479 Clear 7 1021 71 10000 1.1 214 02:58 08.02.2022
5480 Clear 7 1021 71 10000 1.1 214 02:36 08.02.2022
5481 Clear 7 1021 71 10000 1.32 221 02:18 08.02.2022
5482 Clear 8 1021 71 10000 1.32 221 01:44 08.02.2022
5483 Clear 8 1022 71 10000 1.47 226 01:24 08.02.2022
5484 Clouds 9 1022 74 10000 1.4 224 00:54 08.02.2022
5485 Clouds 9 1022 75 10000 1.41 230 23:55 07.02.2022
5486 Clouds 9 1022 75 10000 1.41 230 23:37 07.02.2022
5487 Clouds 9 1022 77 10000 1.51 255 23:18 07.02.2022
5488 Clouds 9 1022 78 10000 1.57 274 22:19 07.02.2022
5489 Clouds 10 1022 78 10000 1.57 274 21:55 07.02.2022
5490 Clouds 10 1022 76 10000 2.19 295 21:29 07.02.2022
5491 Clouds 11 1022 76 10000 2.19 295 20:59 07.02.2022
5492 Clouds 11 1022 76 10000 2.19 295 20:40 07.02.2022
5493 Clouds 12 1022 73 10000 2.4 300 19:51 07.02.2022
5494 Clouds 12 1022 73 10000 2.4 300 19:32 07.02.2022
5495 Clouds 14 1022 66 10000 3.12 301 17:52 07.02.2022
5496 Clouds 14 1021 60 10000 2.88 293 16:53 07.02.2022
5497 Clouds 15 1021 55 10000 2.63 275 15:49 07.02.2022
5498 Clouds 15 1021 52 10000 2.84 269 14:56 07.02.2022
5499 Clear 15 1021 52 10000 3 281 13:28 07.02.2022
5500 Clear 15 1021 52 10000 3 281 12:52 07.02.2022
5501 Clear 14 1021 53 10000 3.31 280 11:58 07.02.2022
5502 Clear 14 1021 53 10000 3.31 280 11:36 07.02.2022
5503 Clear 13 1022 55 10000 3.15 278 10:51 07.02.2022
5504 Clear 13 1022 55 10000 3.15 278 10:31 07.02.2022
5505 Clear 12 1023 58 10000 2.85 281 09:53 07.02.2022
5506 Clear 12 1024 64 10000 3.04 288 09:18 07.02.2022
5507 Clear 10 1024 64 10000 3.04 288 08:39 07.02.2022
5508 Clouds 9 1025 74 10000 2.68 292 07:19 07.02.2022
5509 Clouds 9 1024 72 10000 3.01 282 06:34 07.02.2022
5510 Clouds 9 1024 78 10000 3.08 267 03:27 07.02.2022
5511 Clouds 9 1024 84 10000 3.57 271 00:45 07.02.2022
5512 Clouds 7 1025 84 10000 3.71 266 23:49 06.02.2022
5513 Clouds 9 1025 83 10000 3.86 269 22:49 06.02.2022
5514 Clouds 9 1025 77 10000 4.03 272 21:56 06.02.2022
5515 Clouds 9 1025 77 10000 4.03 272 21:35 06.02.2022
5516 Clouds 9 1025 76 10000 3.52 277 20:55 06.02.2022
5517 Clouds 9 1025 76 10000 3.52 277 20:32 06.02.2022
5518 Clouds 9 1024 78 10000 3.45 274 19:40 06.02.2022
5519 Clouds 10 1024 80 10000 4.08 272 18:41 06.02.2022
5520 Clouds 10 1024 77 10000 4.58 278 17:56 06.02.2022
5521 Clouds 10 1024 72 10000 5.69 280 17:21 06.02.2022
5522 Clouds 11 1024 72 10000 5.69 280 16:48 06.02.2022
5523 Clouds 11 1023 64 10000 5.98 280 15:49 06.02.2022
5524 Clouds 12 1022 57 10000 5.94 287 15:27 06.02.2022
5525 Clouds 11 1022 57 10000 5.94 287 14:47 06.02.2022
5526 Clouds 12 1022 54 10000 6.03 288 13:28 06.02.2022
5527 Clouds 10 1022 54 10000 6.03 288 12:59 06.02.2022
5528 Clouds 10 1022 55 10000 6.76 284 11:39 06.02.2022
5529 Clouds 10 1023 56 10000 6.69 282 10:31 06.02.2022
5530 Clouds 10 1023 56 10000 6.69 282 10:31 06.02.2022
5531 Clouds 10 1025 64 10000 6.12 288 09:25 06.02.2022
5532 Clouds 9 1025 64 10000 6.12 288 08:40 06.02.2022
5533 Clear 8 1024 85 10000 2.83 278 05:36 06.02.2022
5534 Clouds 8 1023 81 10000 4.3 279 03:31 06.02.2022
5535 Clouds 8 1023 79 10000 6.58 269 02:24 06.02.2022
5536 Clouds 8 1023 76 10000 6.92 261 00:30 06.02.2022
5537 Clouds 8 1023 78 10000 6.22 259 23:18 05.02.2022
5538 Clouds 8 1023 80 10000 6.2 262 21:38 05.02.2022
5539 Clouds 8 1022 78 10000 6.25 258 20:25 05.02.2022
5540 Clouds 8 1022 78 10000 6.25 258 19:50 05.02.2022
5541 Clouds 8 1022 79 10000 6.07 255 19:27 05.02.2022
5542 Clouds 8 1021 73 10000 6.38 260 18:23 05.02.2022
5543 Clouds 8 1021 73 10000 6.38 260 17:31 05.02.2022
5544 Clouds 9 1020 68 10000 6.77 270 15:43 05.02.2022
5545 Clouds 9 1019 61 10000 7.84 273 15:25 05.02.2022
5546 Clouds 8 1018 56 10000 8.88 277 13:22 05.02.2022
5547 Clouds 9 1018 56 10000 8.88 277 12:42 05.02.2022
5548 Clouds 8 1018 55 10000 8.5 282 10:57 05.02.2022
5549 Clouds 8 1018 55 10000 8.5 282 10:38 05.02.2022
5550 Clouds 8 1019 59 10000 8.62 281 09:47 05.02.2022
5551 Clear 9 1019 70 10000 8.43 281 08:21 05.02.2022
5552 Clear 9 1019 70 10000 8.43 281 08:21 05.02.2022
5553 Clouds 8 1018 76 10000 6.89 285 06:58 05.02.2022
5554 Clouds 7 1017 84 10000 6.79 283 05:38 05.02.2022
5555 Clouds 8 1015 80 10000 8.95 273 01:47 05.02.2022
5556 Clouds 8 1015 84 10000 7.64 266 01:18 05.02.2022
5557 Clouds 7 1015 84 10000 6.66 265 00:36 05.02.2022
5558 Clouds 7 1015 82 10000 6.68 268 23:33 04.02.2022
5559 Clouds 8 1015 81 10000 5.39 259 22:28 04.02.2022
5560 Clouds 7 1015 81 10000 5.39 259 21:36 04.02.2022
5561 Clouds 7 1016 79 10000 6.01 252 21:18 04.02.2022
5562 Clear 7 1015 79 10000 5.85 255 20:21 04.02.2022
5563 Clouds 8 1015 77 10000 5.72 270 18:30 04.02.2022
5564 Clouds 8 1013 62 10000 8.94 265 15:57 04.02.2022
5565 Clouds 9 1012 47 10000 9.97 265 14:56 04.02.2022
5566 Clouds 8 1012 46 10000 10.2 261 14:26 04.02.2022
5567 Clouds 10 1012 45 10000 10.42 258 12:43 04.02.2022
5568 Clouds 10 1012 47 10000 10.43 257 11:44 04.02.2022
5569 Clouds 9 1012 51 10000 10.11 256 10:51 04.02.2022
5570 Clear 9 1013 54 10000 9.43 254 09:31 04.02.2022
5571 Clear 8 1014 57 10000 7.61 262 07:35 04.02.2022
5572 Clouds 8 1012 68 10000 2.98 254 02:54 04.02.2022
5573 Clouds 8 1012 68 10000 2.98 254 02:33 04.02.2022
5574 Clouds 9 1013 67 10000 4.13 265 23:34 03.02.2022
5575 Clouds 9 1013 65 10000 5.64 266 22:48 03.02.2022
5576 Clouds 11 1013 60 10000 5.88 273 21:51 03.02.2022
5577 Clear 11 1012 55 10000 6.2 269 21:18 03.02.2022
5578 Clear 11 1012 49 10000 3.53 278 20:21 03.02.2022
5579 Clear 11 1012 49 10000 3.53 278 19:34 03.02.2022
5580 Clear 12 1011 55 10000 2.7 313 18:50 03.02.2022
5581 Clear 13 1012 52 10000 3.2 313 17:51 03.02.2022
5582 Clear 13 1011 49 10000 3.68 299 16:46 03.02.2022
5583 Clear 16 1011 38 10000 6.6 258 14:54 03.02.2022
5584 Clear 16 1010 31 10000 8.3 249 13:19 03.02.2022
5585 Clear 16 1010 31 10000 7.92 255 11:44 03.02.2022
5586 Clear 10 1013 40 10000 1.44 221 08:55 03.02.2022
5587 Clear 7 1013 45 10000 2.28 148 07:40 03.02.2022
5588 Clouds 12 1014 48 10000 4.86 98 00:34 03.02.2022
5589 Clouds 12 1015 47 10000 5.04 98 23:45 02.02.2022
5590 Clouds 13 1016 46 10000 5.01 98 22:38 02.02.2022
5591 Clouds 11 1016 44 10000 4.37 104 21:42 02.02.2022
5592 Clouds 11 1016 43 10000 4.52 113 21:24 02.02.2022
5593 Clouds 12 1016 41 10000 5.42 114 20:19 02.02.2022
5594 Clouds 13 1016 41 10000 5.42 114 19:45 02.02.2022
5595 Clouds 13 1016 41 10000 6.38 108 18:53 02.02.2022
5596 Clouds 13 1017 40 10000 6.54 105 18:23 02.02.2022
5597 Clouds 14 1016 40 10000 6.4 101 17:20 02.02.2022
5598 Clouds 14 1016 40 10000 6.4 101 17:20 02.02.2022
5599 Clouds 16 1016 40 10000 6.4 101 16:48 02.02.2022
5600 Clouds 16 1017 32 10000 7.83 130 14:21 02.02.2022
5601 Clear 16 1017 35 10000 8.15 134 12:26 02.02.2022
5602 Clear 14 1017 35 10000 8.15 134 11:42 02.02.2022
5603 Clear 14 1019 39 10000 7.51 137 11:23 02.02.2022
5604 Clear 5 1022 61 10000 6.68 123 07:59 02.02.2022
5605 Clear 8 1022 72 10000 4 108 01:37 02.02.2022
5606 Clear 7 1022 63 10000 3.33 124 22:29 01.02.2022
5607 Clear 11 1022 60 10000 3.11 91 20:49 01.02.2022
5608 Clouds 8 1021 63 10000 1.02 14 18:55 01.02.2022
5609 Clouds 12 1020 57 10000 1.62 259 16:46 01.02.2022
5610 Clouds 13 1020 53 10000 2.06 262 15:44 01.02.2022
5611 Clouds 12 1019 49 10000 3.03 273 12:49 01.02.2022
5612 Clouds 12 1019 53 10000 2.96 274 11:51 01.02.2022
5613 Clouds 8 1021 70 10000 3.99 288 08:37 01.02.2022
5614 Clouds 7 1017 84 10000 2.59 252 02:20 01.02.2022
5615 Clear 7 1016 73 10000 2.81 271 23:37 31.01.2022
5616 Clear 7 1016 72 10000 2.33 284 22:33 31.01.2022
5617 Clear 9 1016 72 10000 2.49 293 21:34 31.01.2022
5618 Clear 9 1015 72 10000 2.57 303 20:34 31.01.2022
5619 Clear 9 1015 72 10000 2.57 303 20:34 31.01.2022
5620 Clear 9 1015 71 10000 3.19 312 19:52 31.01.2022
5621 Clouds 9 1015 71 10000 4.91 291 18:32 31.01.2022
5622 Clouds 9 1014 67 10000 5.19 285 17:55 31.01.2022
5623 Clouds 10 1013 62 10000 5.37 282 17:18 31.01.2022
5624 Clouds 10 1013 54 10000 5.79 278 16:21 31.01.2022
5625 Clouds 10 1012 46 10000 6.05 287 14:50 31.01.2022
5626 Clouds 10 1011 41 10000 3.81 301 13:29 31.01.2022
5627 Clouds 10 1011 41 10000 3.81 301 12:37 31.01.2022
5628 Clouds 10 1013 42 10000 1.07 255 11:20 31.01.2022
5629 Clouds 12 1013 42 10000 1.07 255 10:47 31.01.2022
5630 Clouds 10 1015 43 10000 1.63 147 09:36 31.01.2022
5631 Clouds 9 1016 46 10000 2.46 131 08:56 31.01.2022
5632 Clouds 9 1016 50 10000 2.96 122 08:20 31.01.2022
5633 Clouds 6 1016 50 10000 2.96 122 07:37 31.01.2022
5634 Clear 4 1016 59 10000 3.41 106 05:25 31.01.2022
5635 Clear 6 1016 47 10000 2.69 128 00:24 31.01.2022
5636 Clear 7 1017 46 10000 1.98 129 22:33 30.01.2022
5637 Clear 7 1017 46 10000 1.71 119 21:46 30.01.2022
5638 Clear 7 1017 46 10000 1.7 101 21:26 30.01.2022
5639 Clear 7 1017 46 10000 2 96 20:54 30.01.2022
5640 Clear 7 1017 46 10000 2 96 20:31 30.01.2022
5641 Clear 7 1017 45 10000 2.77 87 19:56 30.01.2022
5642 Clear 9 1018 44 10000 3.08 80 18:52 30.01.2022
5643 Clear 9 1017 44 10000 3.22 83 18:22 30.01.2022
5644 Clear 11 1017 44 10000 3.22 83 17:31 30.01.2022
5645 Clear 11 1017 44 10000 3.22 83 17:31 30.01.2022
5646 Clear 11 1017 44 10000 3.22 83 17:31 30.01.2022
5647 Clear 12 1017 44 10000 2.98 90 16:44 30.01.2022
5648 Clear 12 1017 42 10000 3.08 106 16:23 30.01.2022
5649 Clear 13 1017 42 10000 3.08 106 15:55 30.01.2022
5650 Clear 13 1017 42 10000 3.08 106 15:37 30.01.2022
5651 Clear 13 1017 37 10000 3.3 120 15:19 30.01.2022
5652 Clear 14 1017 37 10000 3.3 120 14:44 30.01.2022
5653 Clear 13 1017 37 10000 3.4 133 12:46 30.01.2022
5654 Clear 11 1018 39 10000 4.16 137 11:52 30.01.2022
5655 Clear 9 1020 43 10000 4.94 129 10:26 30.01.2022
5656 Clear 8 1020 43 10000 4.94 129 09:41 30.01.2022
5657 Clear 6 1021 48 10000 5.14 125 08:44 30.01.2022
5658 Clear 4 1021 68 10000 2.23 110 02:58 30.01.2022
5659 Clear 4 1021 68 10000 2.58 107 01:55 30.01.2022
5660 Clouds 5 1021 68 10000 2.52 107 23:50 29.01.2022
5661 Clouds 5 1021 68 10000 2.88 115 22:58 29.01.2022
5662 Clouds 5 1022 67 10000 3.19 122 21:46 29.01.2022
5663 Clouds 5 1022 65 10000 3.45 120 21:22 29.01.2022
5664 Clouds 6 1022 61 10000 3.59 114 20:22 29.01.2022
5665 Clouds 6 1022 61 10000 3.59 114 19:33 29.01.2022
5666 Clouds 7 1022 59 10000 2.91 109 18:51 29.01.2022
5667 Clouds 7 1022 65 10000 1.91 86 18:18 29.01.2022
5668 Clouds 9 1022 60 10000 2.29 341 17:27 29.01.2022
5669 Clouds 10 1021 52 10000 1.48 239 15:44 29.01.2022
5670 Clouds 10 1020 52 10000 2.11 224 13:58 29.01.2022
5671 Clouds 10 1020 52 10000 2.11 224 13:38 29.01.2022
5672 Clouds 10 1020 54 10000 2.09 222 13:20 29.01.2022
5673 Clouds 9 1021 57 10000 1.95 226 11:40 29.01.2022
5674 Clouds 8 1022 60 10000 1.85 227 10:46 29.01.2022
5675 Clouds 6 1024 69 10000 1.64 222 08:42 29.01.2022
5676 Clouds 5 1024 84 10000 2.14 234 06:37 29.01.2022
5677 Clouds 4 1023 87 10000 2.64 270 00:34 29.01.2022
5678 Clear 4 1023 88 10000 3.44 267 23:44 28.01.2022
5679 Clear 4 1023 88 10000 3.58 268 22:48 28.01.2022
5680 Clear 4 1023 87 10000 3.77 266 22:20 28.01.2022
5681 Clear 5 1023 87 10000 3.62 260 20:42 28.01.2022
5682 Clouds 5 1023 86 10000 3.66 256 20:23 28.01.2022
5683 Clouds 5 1023 85 10000 3.77 249 19:28 28.01.2022
5684 Clouds 5 1023 85 10000 3.77 249 18:42 28.01.2022
5685 Clouds 6 1023 82 10000 4.9 245 16:45 28.01.2022
5686 Clouds 5 1022 73 10000 6.21 256 15:18 28.01.2022
5687 Clouds 6 1022 72 10000 6.13 251 13:37 28.01.2022
5688 Clouds 5 1022 68 10000 6.81 253 12:27 28.01.2022
5689 Clouds 5 1023 70 10000 6.79 252 10:49 28.01.2022
5690 Clouds 5 1023 69 10000 6.97 255 09:49 28.01.2022
5691 Clouds 4 1024 81 10000 5.9 249 07:43 28.01.2022
5692 Clouds 4 1024 87 10000 5.93 242 06:44 28.01.2022
5693 Clouds 4 1022 85 10000 4.29 252 03:56 28.01.2022
5694 Clouds 4 1022 86 10000 4.48 247 02:31 28.01.2022
5695 Clouds 5 1022 88 10000 4.46 241 01:59 28.01.2022
5696 Clouds 5 1022 88 10000 4.46 241 01:30 28.01.2022
5697 Clouds 4 1022 87 10000 3.67 253 22:48 27.01.2022
5698 Clouds 4 1022 87 10000 4.12 259 21:46 27.01.2022
5699 Clouds 4 1022 85 10000 4.5 251 21:28 27.01.2022
5700 Clouds 4 1022 82 10000 4.02 243 20:24 27.01.2022
5701 Clouds 4 1022 76 10000 3.16 279 18:24 27.01.2022
5702 Clouds 5 1022 76 10000 3.16 279 17:34 27.01.2022
5703 Clouds 4 1019 63 10000 9.07 291 14:35 27.01.2022
5704 Clouds 4 1018 57 10000 12.45 287 13:24 27.01.2022
5705 Clouds 4 1018 62 10000 11.81 284 12:39 27.01.2022
5706 Clouds 3 1019 82 10000 9.15 281 09:56 27.01.2022
5707 Clouds 2 1019 95 320 8.6 270 08:49 27.01.2022
5708 Clouds 2 1018 96 105 9.2 269 08:28 27.01.2022
5709 Clouds 1 1017 85 10000 9.24 265 05:49 27.01.2022
5710 Clouds 1 1015 95 357 10.34 274 01:45 27.01.2022
5711 Clouds 1 1015 95 130 7.14 259 22:39 26.01.2022
5712 Clouds 2 1015 93 5241 8.93 244 21:55 26.01.2022
5713 Clouds 2 1015 93 5241 8.93 244 21:31 26.01.2022
5714 Clouds 2 1014 90 10000 12.1 245 20:35 26.01.2022
5715 Clouds 2 1014 86 10000 10.78 246 19:55 26.01.2022
5716 Clouds 5 1014 83 10000 9.91 233 19:20 26.01.2022
5717 Clouds 6 1014 82 10000 9.53 240 18:26 26.01.2022
5718 Clouds 6 1014 82 10000 9.53 240 17:49 26.01.2022
5719 Clouds 6 1013 83 10000 9.15 237 17:21 26.01.2022
5720 Clouds 7 1013 70 10000 7.82 254 16:27 26.01.2022
5721 Clouds 8 1013 70 10000 7.82 254 15:47 26.01.2022
5722 Clear 10 1013 47 10000 9.42 248 13:24 26.01.2022
5723 Clear 9 1013 47 10000 8.67 251 11:40 26.01.2022
5724 Clear 9 1016 53 10000 7.96 254 10:20 26.01.2022
5725 Clear 7 1016 53 10000 7.96 254 09:43 26.01.2022
5726 Clear 5 1016 61 10000 6.86 248 07:37 26.01.2022
5727 Clear 6 1018 77 10000 3.4 272 01:53 26.01.2022
5728 Clear 6 1019 82 10000 3.57 288 23:54 25.01.2022
5729 Clear 6 1019 80 10000 3.65 294 22:56 25.01.2022
5730 Clear 5 1019 78 10000 3.66 306 22:21 25.01.2022
5731 Clear 6 1019 78 10000 3.66 306 21:52 25.01.2022
5732 Clear 7 1019 75 10000 4.15 308 20:46 25.01.2022
5733 Clear 7 1019 72 10000 4.74 303 20:22 25.01.2022
5734 Clear 7 1019 72 10000 4.74 303 19:46 25.01.2022
5735 Clouds 7 1019 67 10000 4.84 296 18:32 25.01.2022
5736 Clouds 8 1019 63 10000 4.86 297 17:43 25.01.2022
5737 Clouds 10 1018 59 10000 4.55 305 16:35 25.01.2022
5738 Clouds 11 1017 51 10000 2.46 327 15:49 25.01.2022
5739 Clouds 11 1017 51 10000 2.46 327 15:31 25.01.2022
5740 Clouds 11 1017 44 10000 0.68 271 14:57 25.01.2022
5741 Clear 12 1017 44 10000 1.55 191 13:40 25.01.2022
5742 Clear 9 1019 53 10000 3.01 145 10:39 25.01.2022
5743 Clear 6 1022 62 10000 3.2 129 08:37 25.01.2022
5744 Clear 4 1023 73 10000 2.04 119 07:29 25.01.2022
5745 Clear 3 1023 72 10000 2.19 120 06:47 25.01.2022
5746 Clear 3 1023 77 10000 2.41 136 05:22 25.01.2022
5747 Clouds 4 1023 75 10000 1.49 349 23:37 24.01.2022
5748 Clouds 4 1024 76 10000 2.07 4 23:18 24.01.2022
5749 Clouds 4 1024 76 10000 2.07 4 22:59 24.01.2022
5750 Clouds 4 1024 76 10000 2.07 4 22:41 24.01.2022
5751 Clouds 4 1024 78 10000 2.52 6 21:52 24.01.2022
5752 Clouds 4 1024 80 10000 2.52 1 21:28 24.01.2022
5753 Clouds 4 1024 80 10000 2.52 1 21:28 24.01.2022
5754 Clouds 5 1024 80 10000 2.78 352 20:29 24.01.2022
5755 Clouds 5 1024 80 10000 2.78 352 19:44 24.01.2022
5756 Clouds 5 1023 79 10000 3.37 343 19:24 24.01.2022
5757 Clouds 5 1023 77 10000 3.02 320 17:59 24.01.2022
5758 Clouds 5 1023 79 10000 3.62 305 17:23 24.01.2022
5759 Clouds 5 1023 79 10000 3.62 305 16:41 24.01.2022
5760 Clouds 5 1022 78 10000 3.83 299 16:18 24.01.2022
5761 Clouds 6 1022 82 10000 4.2 304 14:38 24.01.2022
5762 Clouds 6 1021 88 10000 4.82 308 12:58 24.01.2022
5763 Clouds 6 1020 87 10000 5.26 292 12:23 24.01.2022
5764 Clouds 6 1020 83 10000 6.7 285 10:30 24.01.2022
5765 Clouds 6 1021 84 10000 6.65 290 09:48 24.01.2022
5766 Clouds 7 1020 75 10000 9.36 257 08:34 24.01.2022
5767 Clouds 6 1020 77 10000 7.23 247 06:40 24.01.2022
5768 Clouds 6 1018 90 10000 1.17 299 01:30 24.01.2022
5769 Clouds 6 1019 89 10000 2.63 299 00:36 24.01.2022
5770 Clouds 6 1018 87 10000 3.63 306 23:52 23.01.2022
5771 Clouds 6 1018 88 10000 3.82 311 22:32 23.01.2022
5772 Clouds 6 1018 88 10000 4.67 323 21:50 23.01.2022
5773 Clouds 6 1018 87 10000 5.41 327 21:26 23.01.2022
5774 Clouds 6 1018 87 10000 5.41 327 20:45 23.01.2022
5775 Clouds 7 1017 84 10000 5.45 320 19:52 23.01.2022
5776 Clouds 7 1017 82 10000 5.92 302 18:52 23.01.2022
5777 Clouds 9 1016 80 10000 8.59 267 17:49 23.01.2022
5778 Clear 10 1016 68 10000 8.03 257 16:48 23.01.2022
5779 Clouds 11 1015 56 10000 9.48 250 15:18 23.01.2022
5780 Clouds 12 1015 56 10000 9.48 250 14:31 23.01.2022
5781 Clouds 12 1015 56 10000 9.48 250 14:31 23.01.2022
5782 Clear 12 1015 43 10000 10.11 253 13:22 23.01.2022
5783 Clear 11 1015 43 10000 10.11 253 12:36 23.01.2022
5784 Clear 11 1015 40 10000 9.15 250 12:18 23.01.2022
5785 Clear 11 1016 42 10000 8.44 249 11:24 23.01.2022
5786 Clear 10 1016 42 10000 8.44 249 10:43 23.01.2022
5787 Clear 10 1017 49 10000 7.74 244 10:19 23.01.2022
5788 Clear 9 1018 58 10000 7.14 249 09:19 23.01.2022
5789 Clear 5 1018 81 10000 2.64 253 05:58 23.01.2022
5790 Clear 6 1018 80 10000 2.94 274 01:54 23.01.2022
5791 Clear 5 1018 80 10000 2.94 274 01:34 23.01.2022
5792 Clear 5 1018 80 10000 3.31 282 00:31 23.01.2022
5793 Clear 6 1019 78 10000 3.38 277 23:57 22.01.2022
5794 Clear 6 1019 73 10000 3.18 277 22:47 22.01.2022
5795 Clear 6 1020 67 10000 2.76 285 21:38 22.01.2022
5796 Clear 7 1020 59 10000 3.69 298 20:24 22.01.2022
5797 Clear 7 1019 53 10000 3.61 285 19:27 22.01.2022
5798 Clear 7 1019 50 10000 3.53 281 18:29 22.01.2022
5799 Clear 8 1019 50 10000 3.53 281 17:41 22.01.2022
5800 Clear 10 1018 44 10000 2.79 290 16:57 22.01.2022
5801 Clear 10 1018 38 10000 0.88 313 16:20 22.01.2022
5802 Clear 13 1018 38 10000 0.88 313 15:42 22.01.2022
5803 Clear 12 1018 29 10000 1.7 153 13:59 22.01.2022
5804 Clear 12 1018 30 10000 2.63 151 13:27 22.01.2022
5805 Clear 10 1018 30 10000 2.63 151 12:32 22.01.2022
5806 Clear 9 1019 32 10000 2.82 151 11:58 22.01.2022
5807 Clear 6 1020 34 10000 3.98 144 10:39 22.01.2022
5808 Clear 6 1022 37 10000 4.82 135 10:19 22.01.2022
5809 Clear 3 1023 42 10000 5.21 128 08:54 22.01.2022
5810 Clear 3 1023 42 10000 5.21 128 08:31 22.01.2022
5811 Clear 1 1024 62 10000 3.66 108 05:20 22.01.2022
5812 Clear 4 1024 62 10000 3.96 108 02:27 22.01.2022
5813 Clouds 6 1025 61 10000 4.17 104 23:49 21.01.2022
5814 Clouds 6 1026 61 10000 4.06 108 22:58 21.01.2022
5815 Clouds 6 1026 62 10000 3.91 112 20:48 21.01.2022
5816 Clear 6 1026 63 10000 4.15 111 19:30 21.01.2022
5817 Clear 8 1026 59 10000 4.39 94 17:50 21.01.2022
5818 Clear 10 1025 50 10000 3.91 96 15:54 21.01.2022
5819 Clear 11 1025 44 10000 3.21 116 14:41 21.01.2022
5820 Clear 10 1025 43 10000 2.45 149 12:43 21.01.2022
5821 Clear 10 1028 50 10000 2.98 156 11:29 21.01.2022
5822 Clear 8 1028 50 10000 2.98 156 10:33 21.01.2022
5823 Clear 8 1030 61 10000 2.47 147 08:58 21.01.2022
5824 Clear 6 1031 67 10000 1.8 154 07:58 21.01.2022
5825 Clear 3 1029 80 10000 1.42 301 01:51 21.01.2022
5826 Clear 4 1030 77 10000 2.76 303 22:47 20.01.2022
5827 Clear 4 1030 76 10000 3.04 302 21:49 20.01.2022
5828 Clear 4 1030 74 10000 3.36 312 21:25 20.01.2022
5829 Clear 4 1029 72 10000 3.02 307 19:54 20.01.2022
5830 Clear 4 1029 70 10000 3.27 301 19:18 20.01.2022
5831 Clear 5 1028 68 10000 4.76 306 17:37 20.01.2022
5832 Clear 6 1027 57 10000 6.35 300 16:24 20.01.2022
5833 Clear 6 1027 57 10000 6.35 300 15:31 20.01.2022
5834 Clear 7 1026 47 10000 8.62 298 14:20 20.01.2022
5835 Clear 6 1026 44 10000 8.9 299 12:53 20.01.2022
5836 Clear 6 1026 45 10000 9.22 296 12:29 20.01.2022
5837 Clear 6 1027 44 10000 9.49 296 11:19 20.01.2022
5838 Clear 5 1027 45 10000 9.12 295 10:18 20.01.2022
5839 Clear 5 1028 47 10000 8.67 297 09:18 20.01.2022
5840 Clear 3 1027 59 10000 6.12 296 07:23 20.01.2022
5841 Clouds 2 1024 74 10000 7.64 276 00:40 20.01.2022
5842 Clouds 2 1024 75 10000 7.54 310 22:40 19.01.2022
5843 Clouds 3 1024 84 10000 8.81 304 21:40 19.01.2022
5844 Clouds 3 1023 84 10000 8.54 304 21:21 19.01.2022
5845 Clouds 3 1023 84 10000 8.54 304 20:45 19.01.2022
5846 Clouds 4 1021 92 4871 9.38 308 19:18 19.01.2022
5847 Clouds 5 1019 63 10000 12.64 293 17:51 19.01.2022
5848 Clouds 5 1018 59 10000 12.49 290 17:28 19.01.2022
5849 Clouds 5 1018 60 10000 12.31 282 15:36 19.01.2022
5850 Clouds 7 1017 63 10000 12.18 265 13:38 19.01.2022
5851 Clouds 7 1017 89 10000 9.09 248 12:20 19.01.2022
5852 Clouds 6 1017 89 10000 9.09 248 11:38 19.01.2022
5853 Clouds 4 1019 81 10000 10.24 244 09:52 19.01.2022
5854 Clouds 4 1019 81 10000 10.24 244 09:33 19.01.2022
5855 Clouds 5 1018 70 10000 11.4 248 06:34 19.01.2022
5856 Clear 4 1020 46 10000 3.25 237 01:40 19.01.2022
5857 Clear 5 1022 45 10000 3.7 251 23:18 18.01.2022
5858 Clear 5 1022 41 10000 3.94 252 21:56 18.01.2022
5859 Clear 5 1022 39 10000 3.96 254 20:47 18.01.2022
5860 Clear 5 1023 37 10000 3.57 240 19:54 18.01.2022
5861 Clear 5 1022 37 10000 3.55 243 19:35 18.01.2022
5862 Clear 5 1022 34 10000 3.42 229 18:36 18.01.2022
5863 Clear 5 1022 31 10000 3.09 220 17:51 18.01.2022
5864 Clear 9 1022 28 10000 2.83 211 16:35 18.01.2022
5865 Clear 10 1022 26 10000 2.68 199 15:39 18.01.2022
5866 Clear 10 1022 20 10000 4.02 187 15:19 18.01.2022
5867 Clear 7 1024 20 10000 3.82 179 11:53 18.01.2022
5868 Clear 6 1025 22 10000 4.18 176 10:43 18.01.2022
5869 Clear 4 1027 25 10000 3.01 167 08:49 18.01.2022
5870 Clear 2 1028 27 10000 2.32 162 07:46 18.01.2022
5871 Clear 1 1026 37 10000 1.5 149 02:31 18.01.2022
5872 Clear 2 1025 33 10000 2.21 160 23:22 17.01.2022
5873 Clear 3 1025 35 10000 2.55 159 22:23 17.01.2022
5874 Clear 3 1025 35 10000 2.55 159 21:33 17.01.2022
5875 Clear 4 1025 39 10000 0.51 200 19:56 17.01.2022
5876 Clear 5 1023 39 10000 1.81 273 18:29 17.01.2022
5877 Clear 6 1023 38 10000 2.21 277 17:25 17.01.2022
5878 Clear 6 1023 38 10000 2.21 277 16:35 17.01.2022
5879 Clear 7 1022 30 10000 2.17 272 15:18 17.01.2022
5880 Clear 7 1022 30 10000 2.17 272 14:43 17.01.2022
5881 Clouds 7 1021 29 10000 1.62 262 13:20 17.01.2022
5882 Clouds 7 1021 29 10000 0.96 278 12:55 17.01.2022
5883 Clouds 6 1021 29 10000 0.12 175 11:48 17.01.2022
5884 Clouds 5 1022 29 10000 2.19 109 10:21 17.01.2022
5885 Clouds 5 1022 29 10000 2.19 109 09:34 17.01.2022
5886 Clouds 3 1022 36 10000 4.26 62 07:24 17.01.2022
5887 Clouds 3 1019 39 10000 4.86 51 02:59 17.01.2022
5888 Clouds 4 1018 40 10000 4.73 57 00:55 17.01.2022
5889 Clouds 4 1017 68 10000 3.19 61 22:22 16.01.2022
5890 Clouds 6 1017 74 10000 3.18 34 20:35 16.01.2022
5891 Clouds 6 1016 80 10000 2.7 339 18:51 16.01.2022
5892 Clouds 6 1014 76 10000 3.87 306 17:59 16.01.2022
5893 Clouds 7 1013 74 10000 6.13 307 16:59 16.01.2022
5894 Clouds 7 1013 74 10000 6.13 307 16:31 16.01.2022
5895 Clouds 8 1011 70 10000 5.73 292 14:31 16.01.2022
5896 Clouds 7 1011 75 10000 4.9 281 13:46 16.01.2022
5897 Clouds 7 1011 85 10000 5.82 263 12:46 16.01.2022
5898 Clouds 7 1011 86 10000 7.45 252 11:41 16.01.2022
5899 Clouds 7 1011 82 10000 8.93 243 10:54 16.01.2022
5900 Clouds 7 1012 80 10000 10.9 241 10:19 16.01.2022
5901 Clouds 7 1012 80 10000 10.9 241 09:40 16.01.2022
5902 Clouds 7 1012 81 10000 11.01 240 09:22 16.01.2022
5903 Clouds 7 1012 82 10000 10 248 07:30 16.01.2022
5904 Clouds 7 1011 90 10000 4.73 255 00:42 16.01.2022
5905 Clouds 7 1011 89 10000 5.23 260 23:40 15.01.2022
5906 Clouds 8 1012 84 10000 6.23 262 21:37 15.01.2022
5907 Clouds 8 1012 81 10000 5.8 264 21:19 15.01.2022
5908 Clouds 8 1012 81 10000 5.8 264 20:39 15.01.2022
5909 Clouds 7 1012 83 10000 5.45 259 19:29 15.01.2022
5910 Clouds 7 1012 83 10000 5.45 259 18:37 15.01.2022
5911 Clouds 8 1012 80 10000 6 262 16:58 15.01.2022
5912 Clouds 8 1011 77 10000 7.14 261 15:42 15.01.2022
5913 Clouds 8 1012 70 10000 9.15 258 13:52 15.01.2022
5914 Clouds 9 1011 73 10000 10.54 252 11:46 15.01.2022
5915 Clouds 8 1013 70 10000 8.72 255 10:25 15.01.2022
5916 Clouds 6 1013 74 10000 7.81 255 07:48 15.01.2022
5917 Clouds 7 1013 80 10000 5.67 254 23:50 14.01.2022
5918 Clouds 8 1014 78 10000 6.71 267 21:41 14.01.2022
5919 Clouds 8 1014 82 10000 6.43 273 20:37 14.01.2022
5920 Clouds 8 1014 82 10000 5.56 279 19:58 14.01.2022
5921 Clouds 8 1014 83 10000 6.12 278 18:48 14.01.2022
5922 Clouds 8 1014 79 10000 6.97 274 17:57 14.01.2022
5923 Clouds 9 1013 78 10000 7.12 275 16:48 14.01.2022
5924 Clouds 9 1012 76 10000 7.4 272 15:34 14.01.2022
5925 Clouds 9 1012 71 10000 9.42 272 14:38 14.01.2022
5926 Clouds 9 1012 67 10000 9.89 268 13:34 14.01.2022
5927 Clouds 9 1011 66 10000 11.62 272 12:24 14.01.2022
5928 Clouds 9 1012 64 10000 11.67 268 10:50 14.01.2022
5929 Clouds 9 1014 73 10000 9.3 261 08:54 14.01.2022
5930 Clouds 9 1014 76 10000 7.87 265 08:20 14.01.2022
5931 Clouds 8 1013 87 10000 6.49 268 03:55 14.01.2022
5932 Clouds 10 1013 78 10000 5.68 255 00:50 14.01.2022
5933 Clouds 11 1014 67 10000 5.53 272 22:35 13.01.2022
5934 Clouds 11 1014 68 10000 4.97 257 21:31 13.01.2022
5935 Clouds 11 1014 68 10000 5.06 258 20:56 13.01.2022
5936 Clouds 11 1014 67 10000 5.43 265 19:32 13.01.2022
5937 Clouds 12 1015 63 10000 5.92 266 18:57 13.01.2022
5938 Clouds 13 1014 58 10000 5.47 273 17:48 13.01.2022
5939 Clouds 13 1013 47 10000 6.33 274 16:20 13.01.2022
5940 Clouds 16 1013 47 10000 6.33 274 15:37 13.01.2022
5941 Clouds 16 1013 28 10000 7.35 266 13:48 13.01.2022
5942 Clouds 16 1013 26 10000 7.14 264 12:25 13.01.2022
5943 Clouds 14 1015 26 10000 5.38 255 10:23 13.01.2022
5944 Clouds 12 1016 27 10000 4.72 258 08:57 13.01.2022
5945 Clouds 12 1016 30 10000 3.62 263 08:26 13.01.2022
5946 Clouds 12 1016 35 10000 2.8 271 07:22 13.01.2022
5947 Clouds 10 1016 36 10000 3.55 271 05:59 13.01.2022
5948 Clouds 10 1016 37 10000 3.28 271 05:19 13.01.2022
5949 Clouds 10 1016 37 10000 3.16 268 01:56 13.01.2022
5950 Clouds 11 1016 38 10000 3.25 273 00:49 13.01.2022
5951 Clouds 10 1017 38 10000 3.69 269 23:46 12.01.2022
5952 Clouds 12 1016 39 10000 2.74 267 22:59 12.01.2022
5953 Clouds 11 1017 39 10000 3.1 269 21:57 12.01.2022
5954 Clouds 11 1017 39 10000 3.1 269 21:57 12.01.2022
5955 Clouds 11 1017 39 10000 3.49 267 21:22 12.01.2022
5956 Clouds 12 1017 39 10000 3.49 267 20:56 12.01.2022
5957 Clouds 13 1017 38 10000 3.28 269 19:43 12.01.2022
5958 Clouds 13 1017 38 10000 3.24 275 18:30 12.01.2022
5959 Clouds 14 1017 36 10000 3.5 271 17:20 12.01.2022
5960 Clouds 15 1017 36 10000 3.5 271 16:32 12.01.2022
5961 Clouds 16 1016 28 10000 4.47 261 14:48 12.01.2022
5962 Clouds 17 1015 23 10000 3.66 246 13:19 12.01.2022
5963 Clouds 17 1016 25 10000 2.58 243 10:48 12.01.2022
5964 Clear 13 1018 33 10000 0.68 221 08:43 12.01.2022
5965 Clear 8 1018 40 10000 0.67 176 07:50 12.01.2022
5966 Clear 8 1018 40 10000 0.67 176 07:31 12.01.2022
5967 Clear 8 1018 47 10000 1.5 157 23:53 11.01.2022
5968 Clear 8 1018 44 10000 1.13 164 22:56 11.01.2022
5969 Clear 9 1018 42 10000 0.88 155 22:23 11.01.2022
5970 Clear 9 1018 40 10000 0.77 172 20:56 11.01.2022
5971 Clear 10 1018 38 10000 0.78 191 20:20 11.01.2022
5972 Clear 12 1018 34 10000 1.95 300 18:43 11.01.2022
5973 Clear 13 1018 33 10000 2.12 291 17:35 11.01.2022
5974 Clear 16 1017 31 10000 2.76 280 16:38 11.01.2022
5975 Clear 16 1016 29 10000 2.74 265 15:56 11.01.2022
5976 Clear 18 1016 25 10000 2.64 255 14:43 11.01.2022
5977 Clear 18 1016 24 10000 2.83 245 13:56 11.01.2022
5978 Clear 17 1016 24 10000 2.83 245 13:36 11.01.2022
5979 Clear 17 1016 24 10000 2.79 239 12:51 11.01.2022
5980 Clear 17 1016 25 10000 3 248 12:20 11.01.2022
5981 Clear 14 1017 30 10000 2.08 266 10:24 11.01.2022
5982 Clear 7 1018 37 10000 2.49 299 07:35 11.01.2022
5983 Clear 6 1016 48 10000 1.94 300 01:47 11.01.2022
5984 Clear 7 1016 49 10000 1.38 297 00:22 11.01.2022
5985 Clear 7 1016 49 10000 1.38 297 23:37 10.01.2022
5986 Clear 8 1016 48 10000 0.72 315 22:19 10.01.2022
5987 Clear 8 1016 48 10000 0.72 315 21:54 10.01.2022
5988 Clear 9 1016 48 10000 0.72 315 21:31 10.01.2022
5989 Clear 8 1016 48 10000 0.43 341 20:58 10.01.2022
5990 Clear 8 1016 48 10000 0.43 341 20:58 10.01.2022
5991 Clear 8 1016 47 10000 1.24 332 20:29 10.01.2022
5992 Clear 10 1016 47 10000 1.24 332 19:47 10.01.2022
5993 Clear 10 1015 43 10000 2.97 313 19:22 10.01.2022
5994 Clear 10 1016 45 10000 2.82 312 18:54 10.01.2022
5995 Clear 11 1016 45 10000 2.82 312 18:34 10.01.2022
5996 Clear 12 1015 40 10000 3.42 303 16:43 10.01.2022
5997 Clear 14 1014 35 10000 3.59 291 15:55 10.01.2022
5998 Clear 14 1014 27 10000 5.49 276 14:39 10.01.2022
5999 Clear 15 1013 23 10000 4.9 243 12:31 10.01.2022
6000 Clear 14 1013 24 10000 4.5 225 11:40 10.01.2022
6001 Clear 13 1014 27 10000 4.58 231 10:45 10.01.2022
6002 Clear 12 1016 36 10000 4.6 246 08:57 10.01.2022
6003 Clear 8 1016 54 10000 3.91 275 05:51 10.01.2022
6004 Clear 10 1015 66 10000 4.31 280 01:35 10.01.2022
6005 Clouds 10 1015 71 10000 3.36 272 00:44 10.01.2022
6006 Clouds 10 1015 68 10000 2.67 249 00:19 10.01.2022
6007 Clouds 12 1015 69 10000 2.6 251 22:43 09.01.2022
6008 Clouds 12 1015 66 10000 3 291 21:47 09.01.2022
6009 Clouds 12 1015 66 10000 3.13 281 21:25 09.01.2022
6010 Clouds 12 1015 66 10000 3.13 281 20:58 09.01.2022
6011 Clouds 12 1015 66 10000 3.13 281 20:39 09.01.2022
6012 Clouds 12 1015 64 10000 3.57 276 20:21 09.01.2022
6013 Clouds 13 1015 64 10000 3.57 276 19:38 09.01.2022
6014 Clouds 13 1014 64 10000 5.07 268 19:18 09.01.2022
6015 Clouds 13 1014 59 10000 5.99 279 18:37 09.01.2022
6016 Clouds 14 1014 57 10000 5.39 291 17:48 09.01.2022
6017 Clouds 14 1013 51 10000 6.31 279 17:29 09.01.2022
6018 Clouds 16 1013 51 10000 6.31 279 16:43 09.01.2022
6019 Clouds 17 1013 46 10000 5.41 278 15:42 09.01.2022
6020 Clouds 17 1013 46 10000 5.41 278 15:42 09.01.2022
6021 Clouds 18 1011 39 10000 4.88 271 14:58 09.01.2022
6022 Clouds 18 1011 39 10000 4.88 271 14:39 09.01.2022
6023 Clouds 19 1012 34 10000 6.33 249 13:48 09.01.2022
6024 Clouds 19 1012 28 10000 3.51 224 11:58 09.01.2022
6025 Clouds 19 1012 30 10000 2.68 188 11:28 09.01.2022
6026 Clear 18 1014 35 10000 2.52 155 09:55 09.01.2022
6027 Clear 17 1015 41 10000 2.75 131 09:20 09.01.2022
6028 Clouds 9 1015 55 10000 2.75 106 06:57 09.01.2022
6029 Clouds 11 1014 54 10000 3.76 109 01:30 09.01.2022
6030 Clouds 12 1015 51 10000 3.37 104 00:50 09.01.2022
6031 Clouds 15 1015 48 10000 3.42 112 23:36 08.01.2022
6032 Clouds 14 1015 46 10000 3.62 107 22:56 08.01.2022
6033 Clouds 12 1015 44 10000 3.09 121 21:32 08.01.2022
6034 Clouds 13 1015 42 10000 3.58 107 20:44 08.01.2022
6035 Clouds 13 1016 41 10000 3.35 122 20:23 08.01.2022
6036 Clear 13 1016 40 10000 3.54 127 19:22 08.01.2022
6037 Clear 16 1015 38 10000 3.4 109 17:43 08.01.2022
6038 Clear 19 1015 36 10000 4.42 95 16:57 08.01.2022
6039 Clear 19 1015 34 10000 4.16 96 15:35 08.01.2022
6040 Clear 20 1015 30 10000 3.67 117 14:33 08.01.2022
6041 Clear 20 1015 25 10000 4.51 139 12:35 08.01.2022
6042 Clear 17 1016 27 10000 4.11 125 10:43 08.01.2022
6043 Clear 17 1017 30 10000 4.1 120 10:23 08.01.2022
6044 Clear 17 1017 30 10000 4.1 120 10:23 08.01.2022
6045 Clear 15 1017 30 10000 4.1 120 09:34 08.01.2022
6046 Clear 15 1017 30 10000 4.1 120 09:34 08.01.2022
6047 Clear 8 1019 44 10000 2.71 110 07:18 08.01.2022
6048 Clear 9 1017 43 10000 1.85 76 01:49 08.01.2022
6049 Clear 9 1018 45 10000 0.43 47 00:25 08.01.2022
6050 Clear 10 1018 44 10000 0.51 289 22:39 07.01.2022
6051 Clear 11 1018 43 10000 0.71 14 20:40 07.01.2022
6052 Clear 11 1018 42 10000 0.57 344 19:34 07.01.2022
6053 Clear 13 1018 41 10000 1.23 317 18:50 07.01.2022
6054 Clear 13 1018 41 10000 1.23 317 18:30 07.01.2022
6055 Clear 14 1017 38 10000 1.29 319 17:25 07.01.2022
6056 Clear 15 1017 36 10000 1.65 324 16:22 07.01.2022
6057 Clear 15 1016 28 10000 0.8 320 13:53 07.01.2022
6058 Clear 18 1016 29 10000 0.27 253 13:18 07.01.2022
6059 Clear 15 1016 30 10000 0.44 238 12:35 07.01.2022
6060 Clouds 7 1020 51 10000 4.39 116 07:31 07.01.2022
6061 Clouds 9 1019 63 10000 3.52 109 02:54 07.01.2022
6062 Clouds 10 1019 63 10000 3.86 108 01:52 07.01.2022
6063 Clouds 10 1019 62 10000 3.97 111 01:27 07.01.2022
6064 Clouds 11 1019 62 10000 3.97 111 00:57 07.01.2022
6065 Clouds 12 1020 56 10000 3.25 114 22:46 06.01.2022
6066 Clouds 12 1020 55 10000 3.81 118 21:23 06.01.2022
6067 Clouds 12 1020 53 10000 4.08 115 20:20 06.01.2022
6068 Clouds 13 1020 53 10000 4.08 115 19:41 06.01.2022
6069 Clouds 15 1019 51 10000 4.71 100 17:53 06.01.2022
6070 Clouds 15 1019 51 10000 4.71 100 17:34 06.01.2022
6071 Clouds 17 1019 49 10000 5.17 94 16:40 06.01.2022
6072 Clouds 19 1019 45 10000 4.97 98 15:45 06.01.2022
6073 Clear 19 1018 37 10000 5.19 113 15:24 06.01.2022
6074 Clear 19 1018 37 10000 5.19 113 14:43 06.01.2022
6075 Clear 19 1018 34 10000 5.36 127 14:18 06.01.2022
6076 Clear 18 1019 36 10000 5.28 133 12:43 06.01.2022
6077 Clear 16 1019 36 10000 5.03 137 11:42 06.01.2022
6078 Clear 16 1019 36 10000 5.03 137 11:42 06.01.2022
6079 Clear 16 1020 40 10000 5.26 137 11:22 06.01.2022
6080 Clear 11 1023 55 10000 5.66 126 08:51 06.01.2022
6081 Clear 9 1023 71 10000 2.58 130 00:52 06.01.2022
6082 Clear 10 1023 73 10000 2.61 145 23:37 05.01.2022
6083 Clear 10 1023 74 10000 2.8 148 22:56 05.01.2022
6084 Clear 10 1023 74 10000 2.8 148 22:31 05.01.2022
6085 Clear 12 1023 74 10000 2.68 141 21:48 05.01.2022
6086 Clear 12 1023 73 10000 1.66 137 20:57 05.01.2022
6087 Clear 12 1023 74 10000 0.15 155 20:18 05.01.2022
6088 Clear 13 1022 71 10000 0.73 284 18:42 05.01.2022
6089 Clouds 13 1023 68 10000 2.05 312 17:23 05.01.2022
6090 Clouds 14 1023 68 10000 2.05 312 16:50 05.01.2022
6091 Clouds 14 1022 58 10000 2.64 314 15:26 05.01.2022
6092 Clouds 14 1022 57 10000 2.64 318 13:51 05.01.2022
6093 Clouds 14 1022 58 10000 3.24 321 12:59 05.01.2022
6094 Clouds 12 1023 62 10000 3.18 314 10:34 05.01.2022
6095 Clouds 11 1024 73 10000 3.06 291 07:47 05.01.2022
6096 Clouds 11 1024 73 10000 3.06 291 07:47 05.01.2022
6097 Clouds 10 1024 84 10000 3.07 283 06:25 05.01.2022
6098 Clear 11 1023 88 10000 3.41 263 00:58 05.01.2022
6099 Clouds 11 1022 84 10000 4.17 273 23:28 04.01.2022
6100 Clouds 11 1022 84 10000 4.17 273 23:28 04.01.2022
6101 Clouds 11 1022 84 10000 4.17 273 22:55 04.01.2022
6102 Clouds 11 1023 85 10000 4.34 273 21:31 04.01.2022
6103 Clouds 12 1021 83 10000 6.26 282 19:20 04.01.2022
6104 Clear 12 1021 77 10000 5.8 275 17:52 04.01.2022
6105 Clear 12 1021 73 10000 6 281 16:44 04.01.2022
6106 Clear 12 1021 69 10000 6.66 284 16:24 04.01.2022
6107 Clear 12 1021 63 10000 7.26 285 14:54 04.01.2022
6108 Clear 13 1021 63 10000 7.26 285 14:35 04.01.2022
6109 Clear 14 1020 58 10000 8.45 285 13:29 04.01.2022
6110 Clear 12 1021 57 10000 7.1 287 10:41 04.01.2022
6111 Clear 12 1022 62 10000 6.65 290 09:47 04.01.2022
6112 Clear 11 1023 68 10000 5.68 289 08:34 04.01.2022
6113 Clear 9 1021 83 10000 3.87 290 02:52 04.01.2022
6114 Clear 9 1022 81 10000 3.7 291 00:42 04.01.2022
6115 Clear 9 1021 81 10000 3.56 294 23:41 03.01.2022
6116 Clear 9 1022 79 10000 3.53 308 22:21 03.01.2022
6117 Clear 10 1022 79 10000 3.53 308 21:34 03.01.2022
6118 Clear 10 1021 76 10000 4.12 321 20:26 03.01.2022
6119 Clouds 11 1020 75 10000 4.79 315 18:54 03.01.2022
6120 Clouds 12 1020 72 10000 5.19 313 18:28 03.01.2022
6121 Clouds 12 1019 69 10000 5.71 305 16:59 03.01.2022
6122 Clouds 14 1018 63 10000 5.17 291 15:50 03.01.2022
6123 Clouds 14 1017 54 10000 6.03 297 14:31 03.01.2022
6124 Clouds 14 1016 49 10000 5.89 310 12:48 03.01.2022
6125 Clouds 14 1016 50 10000 5.93 306 11:39 03.01.2022
6126 Clouds 12 1016 52 10000 5.88 304 10:37 03.01.2022
6127 Clear 11 1017 65 10000 4.16 301 08:48 03.01.2022
6128 Clear 10 1018 76 10000 2.54 304 07:51 03.01.2022
6129 Clouds 10 1015 90 10000 4.86 284 01:55 03.01.2022
6130 Clouds 10 1015 82 10000 5 276 23:22 02.01.2022
6131 Clouds 10 1015 82 10000 5 276 22:55 02.01.2022
6132 Clouds 11 1015 80 10000 4.59 275 21:52 02.01.2022
6133 Clear 11 1016 78 10000 4.21 280 20:45 02.01.2022
6134 Clear 11 1016 76 10000 3.68 283 20:24 02.01.2022
6135 Clear 11 1016 76 10000 3.68 283 19:31 02.01.2022
6136 Clouds 11 1015 73 10000 3.56 292 18:51 02.01.2022
6137 Clouds 11 1015 70 10000 3.87 288 17:56 02.01.2022
6138 Clouds 12 1015 70 10000 3.87 288 17:38 02.01.2022
6139 Clouds 12 1015 64 10000 3.01 290 17:19 02.01.2022
6140 Clouds 13 1014 61 10000 2.25 289 16:27 02.01.2022
6141 Clouds 14 1014 56 10000 2.97 286 14:38 02.01.2022
6142 Clouds 13 1014 55 10000 1.94 234 13:25 02.01.2022
6143 Clouds 13 1014 54 10000 2.04 234 12:31 02.01.2022
6144 Clouds 13 1014 56 10000 1.36 170 11:36 02.01.2022
6145 Clouds 11 1014 58 10000 2.23 130 10:50 02.01.2022
6146 Clouds 10 1015 60 10000 3.12 120 09:52 02.01.2022
6147 Clouds 10 1015 71 10000 3.69 93 07:29 02.01.2022
6148 Clouds 10 1014 74 10000 4.69 81 02:20 02.01.2022
6149 Clouds 10 1014 72 10000 4.95 77 23:41 01.01.2022
6150 Clouds 10 1014 73 10000 6.11 79 23:22 01.01.2022
6151 Clouds 10 1014 71 10000 6.34 78 22:24 01.01.2022
6152 Clouds 9 1014 71 10000 6.34 78 21:44 01.01.2022
6153 Clouds 10 1014 66 10000 7.2 81 20:56 01.01.2022
6154 Clouds 10 1014 65 10000 7.46 78 20:19 01.01.2022
6155 Clouds 11 1014 65 10000 7.46 78 19:32 01.01.2022
6156 Clouds 11 1014 65 10000 7.12 57 18:29 01.01.2022
6157 Clouds 11 1013 63 10000 7.13 52 16:55 01.01.2022
6158 Clouds 11 1013 63 10000 7.13 52 16:34 01.01.2022
6159 Clouds 11 1013 56 10000 5.36 76 15:33 01.01.2022
6160 Clouds 11 1013 53 10000 3.94 110 14:22 01.01.2022
6161 Clouds 11 1013 54 10000 4.05 124 13:28 01.01.2022
6162 Clouds 11 1014 58 10000 4.52 122 11:59 01.01.2022
6163 Clouds 11 1015 59 10000 5.94 117 11:24 01.01.2022
6164 Clouds 11 1015 59 10000 5.94 117 10:52 01.01.2022
6165 Clouds 10 1016 61 10000 7.05 108 09:47 01.01.2022
6166 Clouds 10 1017 67 10000 7.69 96 08:27 01.01.2022
6167 Clouds 9 1017 67 10000 7.69 96 07:56 01.01.2022
6168 Clouds 9 1017 67 10000 7.69 96 07:37 01.01.2022
6169 Clouds 9 1017 75 10000 6.37 87 06:43 01.01.2022
6170 Clouds 10 1017 78 10000 5.52 86 04:39 01.01.2022
6171 Clouds 11 1016 76 10000 5.62 76 03:50 01.01.2022
6172 Clouds 12 1017 62 10000 4.73 99 23:53 31.12.2021
6173 Clouds 12 1017 60 10000 4.98 106 22:24 31.12.2021
6174 Clouds 12 1017 60 10000 4.98 106 21:39 31.12.2021
6175 Clouds 12 1017 59 10000 4.47 111 19:43 31.12.2021
6176 Clouds 12 1016 57 10000 5.01 113 18:50 31.12.2021
6177 Clouds 12 1016 55 10000 5.17 103 17:49 31.12.2021
6178 Clouds 12 1016 55 10000 5.24 107 17:26 31.12.2021
6179 Clouds 12 1016 55 10000 5.24 107 16:52 31.12.2021
6180 Clouds 12 1016 54 10000 5.23 114 16:18 31.12.2021
6181 Clouds 15 1016 54 10000 5.23 114 15:45 31.12.2021
6182 Clouds 15 1015 51 10000 6.01 125 15:26 31.12.2021
6183 Clouds 15 1015 51 10000 6.01 125 15:26 31.12.2021
6184 Clouds 15 1015 51 10000 6.01 125 14:39 31.12.2021
6185 Clouds 15 1015 50 10000 6.94 128 13:51 31.12.2021
6186 Clouds 15 1016 51 10000 7.27 132 12:51 31.12.2021
6187 Clouds 15 1015 52 10000 7.55 131 12:21 31.12.2021
6188 Clouds 12 1015 52 10000 7.55 131 11:42 31.12.2021
6189 Clouds 11 1016 53 10000 7.87 126 10:55 31.12.2021
6190 Clouds 11 1017 56 10000 7.79 128 10:28 31.12.2021
6191 Clouds 10 1017 56 10000 7.79 128 09:34 31.12.2021
6192 Clouds 8 1018 60 10000 7.77 126 08:54 31.12.2021
6193 Clouds 8 1018 65 10000 7.44 119 07:59 31.12.2021
6194 Clouds 9 1018 78 10000 5.24 106 04:55 31.12.2021
6195 Clouds 11 1017 65 10000 3.37 111 23:19 30.12.2021
6196 Clouds 11 1017 65 10000 3.37 111 22:32 30.12.2021
6197 Clouds 12 1017 63 10000 3.48 122 21:40 30.12.2021
6198 Clouds 12 1017 61 10000 3.28 129 21:20 30.12.2021
6199 Clouds 12 1017 61 10000 3.28 129 20:40 30.12.2021
6200 Clouds 12 1017 58 10000 3.56 119 19:58 30.12.2021
6201 Clouds 12 1017 58 10000 3.56 119 19:34 30.12.2021
6202 Clouds 12 1016 46 10000 4.32 103 18:29 30.12.2021
6203 Clouds 13 1016 46 10000 4.32 103 17:34 30.12.2021
6204 Clouds 13 1015 49 10000 3.74 102 15:55 30.12.2021
6205 Clouds 14 1015 49 10000 3.74 102 15:36 30.12.2021
6206 Clouds 15 1015 46 10000 3.03 118 14:37 30.12.2021
6207 Clouds 15 1014 45 10000 2.96 137 13:32 30.12.2021
6208 Clouds 15 1014 49 10000 2.5 160 11:59 30.12.2021
6209 Clouds 14 1015 53 10000 2.6 165 10:44 30.12.2021
6210 Clouds 14 1016 56 10000 2.58 172 09:54 30.12.2021
6211 Clouds 11 1017 59 10000 2.47 153 08:49 30.12.2021
6212 Clouds 7 1017 68 10000 1.15 180 06:51 30.12.2021
6213 Clouds 9 1016 74 10000 1.7 240 03:41 30.12.2021
6214 Clouds 10 1016 77 10000 3.45 254 02:42 30.12.2021
6215 Clouds 10 1016 77 10000 2.39 286 23:42 29.12.2021
6216 Clouds 10 1016 74 10000 2.6 277 23:22 29.12.2021
6217 Clouds 11 1016 70 10000 2.38 259 22:19 29.12.2021
6218 Clouds 11 1016 65 10000 2.16 245 21:27 29.12.2021
6219 Clouds 11 1016 65 10000 2.16 245 20:38 29.12.2021
6220 Clouds 11 1016 59 10000 1.59 224 19:48 29.12.2021
6221 Clouds 11 1016 54 10000 0.96 186 18:52 29.12.2021
6222 Clouds 11 1016 50 10000 0.41 84 17:56 29.12.2021
6223 Clouds 11 1015 48 10000 0.75 54 17:28 29.12.2021
6224 Clouds 12 1015 46 10000 0.54 62 16:25 29.12.2021
6225 Clouds 13 1015 46 10000 0.54 62 15:59 29.12.2021
6226 Clouds 14 1015 39 10000 1.23 208 14:24 29.12.2021
6227 Clouds 14 1015 39 10000 1.4 187 12:39 29.12.2021
6228 Clouds 13 1015 39 10000 1.72 159 11:49 29.12.2021
6229 Clouds 11 1017 42 10000 2.46 138 09:59 29.12.2021
6230 Clouds 5 1018 48 10000 2.49 128 07:52 29.12.2021
6231 Clouds 4 1018 56 10000 1.98 126 06:43 29.12.2021
6232 Clouds 4 1018 61 10000 2.41 121 06:23 29.12.2021
6233 Clouds 5 1018 61 10000 2.41 121 05:40 29.12.2021
6234 Clear 6 1017 62 10000 2.48 113 03:18 29.12.2021
6235 Clouds 7 1016 56 10000 3.03 97 00:24 29.12.2021
6236 Clouds 8 1016 56 10000 3.03 97 23:47 28.12.2021
6237 Clouds 8 1016 56 10000 2.41 104 22:42 28.12.2021
6238 Clouds 8 1017 56 10000 1.97 116 22:24 28.12.2021
6239 Clouds 8 1017 56 10000 1.97 116 21:53 28.12.2021
6240 Clouds 8 1016 55 10000 2.43 115 20:47 28.12.2021
6241 Clouds 9 1016 52 10000 3.06 113 19:39 28.12.2021
6242 Clouds 9 1016 50 10000 3.56 115 18:44 28.12.2021
6243 Clouds 9 1016 49 10000 3.55 105 18:23 28.12.2021
6244 Clouds 12 1016 48 10000 3.66 99 16:35 28.12.2021
6245 Clouds 12 1016 47 10000 3.69 111 15:51 28.12.2021
6246 Clouds 12 1016 44 10000 3.83 124 15:25 28.12.2021
6247 Clouds 13 1016 44 10000 3.83 124 14:52 28.12.2021
6248 Clouds 13 1016 41 10000 3.64 132 14:21 28.12.2021
6249 Clouds 12 1016 41 10000 3.64 132 13:51 28.12.2021
6250 Clouds 12 1016 41 10000 3.64 132 13:31 28.12.2021
6251 Clouds 11 1016 41 10000 4.11 130 12:49 28.12.2021
6252 Clouds 11 1016 43 10000 4.25 128 11:51 28.12.2021
6253 Clouds 8 1018 46 10000 7.29 121 09:30 28.12.2021
6254 Clouds 6 1021 51 10000 5.34 114 07:31 28.12.2021
6255 Clouds 6 1020 56 10000 3.95 106 02:23 28.12.2021
6256 Clear 7 1021 53 10000 3.18 108 23:26 27.12.2021
6257 Clear 7 1021 53 10000 3.24 102 22:20 27.12.2021
6258 Clear 8 1021 52 10000 3.65 103 21:29 27.12.2021
6259 Clear 9 1021 51 10000 3.08 124 20:27 27.12.2021
6260 Clear 9 1021 51 10000 3.08 124 19:47 27.12.2021
6261 Clear 9 1020 50 10000 2.94 120 18:56 27.12.2021
6262 Clear 11 1020 49 10000 2.73 127 17:50 27.12.2021
6263 Clear 11 1020 48 10000 2.78 123 17:28 27.12.2021
6264 Clear 13 1020 47 10000 2.94 123 15:54 27.12.2021
6265 Clear 15 1020 44 10000 3.76 127 14:57 27.12.2021
6266 Clear 15 1020 41 10000 4.79 126 14:21 27.12.2021
6267 Clear 14 1020 39 10000 4.94 126 12:49 27.12.2021
6268 Clear 10 1021 43 10000 5.1 130 10:40 27.12.2021
6269 Clear 10 1022 47 10000 5.69 127 10:22 27.12.2021
6270 Clear 7 1024 51 10000 5.45 130 08:43 27.12.2021
6271 Clear 5 1024 57 10000 4.89 125 07:34 27.12.2021
6272 Clear 4 1023 67 10000 3.35 112 06:27 27.12.2021
6273 Clear 7 1023 61 10000 3.47 106 01:51 27.12.2021
6274 Clear 8 1023 59 10000 3.06 110 23:49 26.12.2021
6275 Clear 8 1023 58 10000 2.76 115 23:19 26.12.2021
6276 Clear 9 1023 57 10000 2.76 107 21:37 26.12.2021
6277 Clear 9 1023 54 10000 3.19 105 19:55 26.12.2021
6278 Clear 9 1023 52 10000 3.47 98 18:46 26.12.2021
6279 Clear 9 1023 49 10000 3.41 99 18:22 26.12.2021
6280 Clear 14 1022 45 10000 3.11 98 15:53 26.12.2021
6281 Clear 14 1021 39 10000 2.58 116 13:51 26.12.2021
6282 Clear 14 1021 39 10000 2.58 116 13:32 26.12.2021
6283 Clear 14 1022 40 10000 2.6 130 12:37 26.12.2021
6284 Clear 14 1022 40 10000 2.6 130 12:37 26.12.2021
6285 Clear 13 1023 42 10000 3.31 144 11:24 26.12.2021
6286 Clear 10 1024 44 10000 3.47 134 09:42 26.12.2021
6287 Clear 7 1025 48 10000 3.67 127 08:50 26.12.2021
6288 Clear 7 1025 55 10000 3.75 128 08:27 26.12.2021
6289 Clear 3 1025 65 10000 2.91 112 05:59 26.12.2021
6290 Clear 5 1024 65 10000 0.85 103 00:45 26.12.2021
6291 Clear 5 1024 64 10000 0.43 36 23:49 25.12.2021
6292 Clear 5 1024 64 10000 0.68 7 23:25 25.12.2021
6293 Clear 5 1024 63 10000 1.16 345 22:21 25.12.2021
6294 Clear 6 1024 62 10000 1.25 341 20:36 25.12.2021
6295 Clear 7 1024 58 10000 1.75 326 19:20 25.12.2021
6296 Clear 8 1024 60 10000 1.93 327 18:51 25.12.2021
6297 Clear 9 1023 54 10000 2.28 306 16:58 25.12.2021
6298 Clear 9 1023 51 10000 2.3 303 15:54 25.12.2021
6299 Clear 11 1023 44 10000 2.49 314 14:25 25.12.2021
6300 Clear 12 1023 44 10000 2.4 314 12:43 25.12.2021
6301 Clear 11 1023 51 10000 1.69 310 11:27 25.12.2021
6302 Clear 10 1025 55 10000 1.6 320 09:49 25.12.2021
6303 Clear 6 1026 68 10000 2.49 325 07:54 25.12.2021
6304 Clear 6 1023 86 10000 3.23 304 02:18 25.12.2021
6305 Clear 7 1023 82 10000 3.31 297 00:30 25.12.2021
6306 Clear 8 1022 77 10000 3.53 291 22:40 24.12.2021
6307 Clear 9 1022 64 10000 3.35 298 19:39 24.12.2021
6308 Clouds 9 1022 63 10000 4.17 306 19:20 24.12.2021
6309 Clouds 10 1020 63 10000 5.66 296 16:50 24.12.2021
6310 Clouds 10 1019 59 10000 6.63 289 16:19 24.12.2021
6311 Clouds 11 1019 59 10000 6.63 289 15:45 24.12.2021
6312 Clouds 11 1018 55 10000 7.17 285 14:46 24.12.2021
6313 Clouds 11 1018 49 10000 7.38 286 14:23 24.12.2021
6314 Clouds 11 1018 49 10000 7.38 286 13:37 24.12.2021
6315 Clouds 11 1018 48 10000 7.55 285 12:48 24.12.2021
6316 Clouds 11 1017 49 10000 7.45 284 11:52 24.12.2021
6317 Clouds 11 1018 51 10000 7.18 286 11:26 24.12.2021
6318 Clouds 11 1018 51 10000 7.18 286 10:50 24.12.2021
6319 Clouds 11 1019 54 10000 6.72 284 10:22 24.12.2021
6320 Clouds 9 1020 66 10000 5.85 277 08:25 24.12.2021
6321 Clouds 9 1020 66 10000 5.85 277 07:50 24.12.2021
6322 Clouds 9 1017 83 10000 4.61 301 02:52 24.12.2021
6323 Clouds 9 1018 89 10000 4.5 285 00:19 24.12.2021
6324 Clouds 9 1018 89 10000 4.55 267 23:23 23.12.2021
6325 Clouds 9 1018 89 10000 4.55 267 22:39 23.12.2021
6326 Clouds 9 1018 82 10000 4.53 260 22:20 23.12.2021
6327 Clouds 9 1018 82 10000 4.53 260 21:33 23.12.2021
6328 Clouds 10 1018 81 10000 3.01 259 20:20 23.12.2021
6329 Clouds 10 1018 80 10000 3.11 256 18:37 23.12.2021
6330 Clouds 10 1019 77 10000 3.24 264 17:57 23.12.2021
6331 Clouds 10 1018 74 10000 3.58 270 16:57 23.12.2021
6332 Clouds 10 1018 70 10000 4.67 274 16:25 23.12.2021
6333 Clouds 10 1018 70 10000 4.67 274 15:32 23.12.2021
6334 Clouds 11 1017 63 10000 5.52 278 14:54 23.12.2021
6335 Clouds 11 1017 63 10000 5.52 278 14:36 23.12.2021
6336 Clouds 12 1017 54 10000 5.4 286 13:19 23.12.2021
6337 Clouds 11 1018 54 10000 5.41 294 10:54 23.12.2021
6338 Clouds 11 1020 56 10000 6.06 289 09:49 23.12.2021
6339 Clouds 11 1021 60 10000 5.95 286 09:26 23.12.2021
6340 Clouds 10 1021 65 10000 5.78 284 08:25 23.12.2021
6341 Clouds 9 1020 90 10000 3.8 290 04:36 23.12.2021
6342 Clouds 10 1020 80 10000 4.43 280 23:33 22.12.2021
6343 Clouds 10 1020 78 10000 4.55 276 22:49 22.12.2021
6344 Clouds 10 1021 80 10000 3.89 275 21:57 22.12.2021
6345 Clouds 10 1021 82 10000 3.26 272 21:29 22.12.2021
6346 Clouds 10 1021 82 10000 3.26 272 20:51 22.12.2021
6347 Clouds 10 1021 82 10000 3.26 272 20:33 22.12.2021
6348 Clouds 10 1021 84 10000 2.96 284 19:35 22.12.2021
6349 Clouds 11 1021 80 10000 2.68 303 18:18 22.12.2021
6350 Clouds 11 1021 80 10000 2.68 303 17:35 22.12.2021
6351 Clouds 12 1020 74 10000 2.81 300 15:49 22.12.2021
6352 Clouds 12 1020 70 10000 2.31 293 13:46 22.12.2021
6353 Clouds 12 1020 71 10000 2.13 297 12:44 22.12.2021
6354 Clouds 10 1022 72 10000 3.62 242 10:48 22.12.2021
6355 Clouds 10 1023 76 10000 4.22 228 09:40 22.12.2021
6356 Clouds 10 1023 75 10000 5.49 249 07:55 22.12.2021
6357 Clouds 9 1023 85 10000 2.25 257 05:51 22.12.2021
6358 Clouds 9 1023 85 10000 2.25 257 05:31 22.12.2021
6359 Clouds 10 1022 84 10000 2.11 254 04:55 22.12.2021
6360 Clouds 10 1022 84 10000 2.11 254 04:35 22.12.2021
6361 Clouds 10 1022 83 10000 2.14 243 03:34 22.12.2021
6362 Clouds 10 1023 79 10000 2.92 243 02:25 22.12.2021
6363 Clouds 9 1023 78 10000 3.16 258 23:47 21.12.2021
6364 Clouds 10 1023 76 10000 3.47 268 22:36 21.12.2021
6365 Clouds 10 1023 71 10000 4.15 267 21:55 21.12.2021
6366 Clouds 9 1023 71 10000 4.15 267 21:31 21.12.2021
6367 Clouds 9 1023 71 10000 4.54 257 20:24 21.12.2021
6368 Clouds 9 1023 71 10000 4.54 257 19:52 21.12.2021
6369 Clouds 9 1023 71 10000 4.54 257 19:31 21.12.2021
6370 Clouds 8 1023 73 10000 5.32 253 18:23 21.12.2021
6371 Clouds 9 1023 73 10000 5.32 253 17:53 21.12.2021
6372 Clouds 9 1022 70 10000 6.29 254 16:47 21.12.2021
6373 Clouds 8 1021 68 10000 6.91 259 15:34 21.12.2021
6374 Clouds 8 1021 64 10000 9.21 265 14:20 21.12.2021
6375 Clouds 9 1021 64 10000 9.21 265 13:41 21.12.2021
6376 Clouds 8 1020 61 10000 10.36 263 12:25 21.12.2021
6377 Clouds 8 1021 59 10000 11.46 256 10:38 21.12.2021
6378 Clouds 7 1021 57 10000 11.69 258 09:50 21.12.2021
6379 Clouds 7 1021 59 10000 10.46 251 08:55 21.12.2021
6380 Clouds 7 1021 62 10000 9.45 248 07:43 21.12.2021
6381 Clouds 7 1021 70 10000 8.68 247 07:20 21.12.2021
6382 Clouds 6 1019 76 10000 8.65 237 03:24 21.12.2021
6383 Clouds 7 1019 78 10000 9.14 240 01:20 21.12.2021
6384 Clouds 6 1019 83 10000 8.58 249 23:54 20.12.2021
6385 Clouds 7 1018 83 10000 10.17 253 22:35 20.12.2021
6386 Clouds 6 1018 84 10000 9.5 253 21:52 20.12.2021
6387 Clouds 6 1018 82 10000 9.36 245 21:24 20.12.2021
6388 Clouds 6 1018 82 10000 9.36 245 20:54 20.12.2021
6389 Clouds 6 1017 82 10000 10.02 239 20:19 20.12.2021
6390 Clouds 7 1017 82 10000 10.02 239 19:38 20.12.2021
6391 Clouds 7 1017 81 10000 10.79 239 19:19 20.12.2021
6392 Clouds 8 1017 82 10000 10.52 242 18:32 20.12.2021
6393 Clouds 8 1016 79 10000 10.32 252 17:50 20.12.2021
6394 Clouds 8 1016 81 10000 11.24 249 16:46 20.12.2021
6395 Clouds 8 1015 74 10000 12.07 250 15:57 20.12.2021
6396 Clouds 8 1015 74 10000 12.07 250 15:35 20.12.2021
6397 Clouds 9 1014 56 10000 12.7 249 13:32 20.12.2021
6398 Clouds 9 1014 56 10000 12.7 249 13:32 20.12.2021
6399 Clouds 10 1014 48 10000 14.09 252 12:30 20.12.2021
6400 Clouds 8 1014 53 10000 11.47 245 10:46 20.12.2021
6401 Clouds 7 1015 79 10000 10.55 238 09:40 20.12.2021
6402 Clear 10 1014 61 10000 12.39 233 08:50 20.12.2021
6403 Clear 10 1014 61 10000 12.39 233 08:31 20.12.2021
6404 Clear 9 1014 49 10000 8.61 224 07:35 20.12.2021
6405 Clear 8 1014 55 10000 3.51 191 06:39 20.12.2021
6406 Clear 6 1015 57 10000 0.55 205 00:20 20.12.2021
6407 Clear 7 1016 57 10000 0.63 103 22:58 19.12.2021
6408 Clear 7 1016 57 10000 0.63 103 22:40 19.12.2021
6409 Clear 8 1016 56 10000 1.06 48 21:32 19.12.2021
6410 Clear 8 1016 55 10000 0.68 7 20:42 19.12.2021
6411 Clear 8 1017 53 10000 1.44 278 20:23 19.12.2021
6412 Clear 10 1017 53 10000 1.44 278 19:41 19.12.2021
6413 Clear 10 1017 52 10000 2.95 290 18:46 19.12.2021
6414 Clear 11 1017 50 10000 3.37 285 17:54 19.12.2021
6415 Clear 11 1017 50 10000 3.37 285 17:34 19.12.2021
6416 Clear 12 1016 47 10000 3.57 280 16:41 19.12.2021
6417 Clear 12 1016 43 10000 3.82 259 15:56 19.12.2021
6418 Clear 12 1015 37 10000 5.24 254 15:25 19.12.2021
6419 Clear 13 1015 37 10000 5.24 254 14:45 19.12.2021
6420 Clear 12 1015 33 10000 6.68 245 13:35 19.12.2021
6421 Clear 13 1015 32 10000 6.89 238 12:59 19.12.2021
6422 Clear 13 1015 32 10000 6.89 238 12:31 19.12.2021
6423 Clear 12 1015 31 10000 6.5 232 11:38 19.12.2021
6424 Clear 12 1016 34 10000 6.2 224 10:50 19.12.2021
6425 Clear 12 1017 38 10000 5.85 213 10:22 19.12.2021
6426 Clear 10 1018 43 10000 5.61 215 08:51 19.12.2021
6427 Clear 7 1019 58 10000 2.99 189 06:51 19.12.2021
6428 Clear 8 1017 64 10000 2.23 229 02:30 19.12.2021
6429 Clear 9 1017 64 10000 2.36 239 00:55 19.12.2021
6430 Clear 9 1017 63 10000 2.73 255 23:21 18.12.2021
6431 Clear 9 1018 63 10000 3.01 266 22:28 18.12.2021
6432 Clear 8 1018 63 10000 3.01 266 21:44 18.12.2021
6433 Clear 8 1018 64 10000 3.32 268 21:25 18.12.2021
6434 Clear 10 1018 64 10000 3.32 268 20:43 18.12.2021
6435 Clear 10 1017 62 10000 3.42 260 19:38 18.12.2021
6436 Clear 11 1017 58 10000 3.01 259 18:25 18.12.2021
6437 Clear 11 1017 58 10000 3.01 259 17:49 18.12.2021
6438 Clear 11 1017 56 10000 3.68 258 16:50 18.12.2021
6439 Clear 11 1016 53 10000 5.12 257 16:21 18.12.2021
6440 Clear 11 1015 49 10000 6.88 260 15:24 18.12.2021
6441 Clear 12 1015 46 10000 7.87 258 13:58 18.12.2021
6442 Clouds 11 1015 49 10000 7.17 257 11:57 18.12.2021
6443 Clear 10 1017 54 10000 6.17 254 09:59 18.12.2021
6444 Clear 10 1017 54 10000 6.17 254 09:32 18.12.2021
6445 Clear 9 1017 59 10000 5.91 251 08:36 18.12.2021
6446 Clear 9 1018 64 10000 5.96 248 07:41 18.12.2021
6447 Clear 9 1016 84 10000 4.95 261 01:47 18.12.2021
6448 Clouds 10 1016 79 10000 4.85 261 23:56 17.12.2021
6449 Clouds 10 1016 76 10000 4.58 262 22:51 17.12.2021
6450 Clouds 10 1017 75 10000 4.24 270 21:50 17.12.2021
6451 Clouds 9 1016 74 10000 4.54 277 20:49 17.12.2021
6452 Clouds 9 1016 73 10000 5.89 283 19:58 17.12.2021
6453 Clouds 11 1016 77 10000 3.88 290 18:40 17.12.2021
6454 Clouds 11 1016 74 10000 4.61 280 18:19 17.12.2021
6455 Clouds 11 1016 70 10000 5.18 279 17:20 17.12.2021
6456 Clouds 11 1015 64 10000 5.6 280 16:29 17.12.2021
6457 Clouds 14 1015 64 10000 5.6 280 15:51 17.12.2021
6458 Clouds 14 1015 58 10000 6.94 278 14:43 17.12.2021
6459 Clouds 14 1014 53 10000 7.31 275 13:56 17.12.2021
6460 Clouds 13 1015 59 10000 6.79 270 12:38 17.12.2021
6461 Clouds 12 1015 50 10000 5.62 277 11:18 17.12.2021
6462 Clouds 13 1016 54 10000 5 275 09:52 17.12.2021
6463 Clouds 11 1017 60 10000 4.54 269 08:58 17.12.2021
6464 Clear 11 1018 69 10000 3.65 267 08:19 17.12.2021
6465 Clear 8 1018 87 10000 2.7 289 05:21 17.12.2021
6466 Clear 10 1018 86 10000 3.17 290 02:52 17.12.2021
6467 Clear 11 1018 75 10000 3.61 310 22:52 16.12.2021
6468 Clear 11 1018 73 10000 4.06 314 22:22 16.12.2021
6469 Clear 11 1018 73 10000 4.06 314 21:44 16.12.2021
6470 Clear 11 1018 71 10000 3.96 313 20:48 16.12.2021
6471 Clear 11 1018 69 10000 4.03 315 20:27 16.12.2021
6472 Clear 11 1018 69 10000 4.03 315 19:31 16.12.2021
6473 Clouds 12 1018 66 10000 3.83 313 18:36 16.12.2021
6474 Clouds 11 1018 58 10000 4.13 310 17:48 16.12.2021
6475 Clouds 13 1018 46 10000 4.81 294 16:44 16.12.2021
6476 Clouds 13 1017 39 10000 4.72 288 16:18 16.12.2021
6477 Clouds 15 1016 35 10000 4.5 299 14:23 16.12.2021
6478 Clouds 15 1016 34 10000 4.83 292 12:30 16.12.2021
6479 Clouds 15 1017 41 10000 4.16 295 11:19 16.12.2021
6480 Clouds 14 1017 41 10000 4.16 295 10:45 16.12.2021
6481 Clouds 13 1018 45 10000 3.41 294 09:51 16.12.2021
6482 Clear 10 1019 63 10000 1.96 299 07:19 16.12.2021
6483 Clear 8 1019 72 10000 2.39 306 06:18 16.12.2021
6484 Clouds 10 1018 75 10000 3.87 310 00:44 16.12.2021
6485 Clouds 11 1018 71 10000 5.25 319 23:21 15.12.2021
6486 Clouds 12 1017 71 10000 4.69 326 22:22 15.12.2021
6487 Clouds 12 1017 71 10000 4.69 326 21:46 15.12.2021
6488 Clouds 13 1017 66 10000 4.45 325 21:26 15.12.2021
6489 Clouds 13 1017 60 10000 4.77 326 19:55 15.12.2021
6490 Clouds 13 1017 57 10000 4 302 19:19 15.12.2021
6491 Clouds 13 1016 55 10000 4.31 302 18:26 15.12.2021
6492 Clouds 14 1016 55 10000 4.31 302 17:49 15.12.2021
6493 Clouds 14 1016 53 10000 4.15 300 17:27 15.12.2021
6494 Clouds 14 1015 50 10000 4.14 295 16:25 15.12.2021
6495 Clouds 16 1015 50 10000 4.14 295 15:42 15.12.2021
6496 Clouds 16 1015 46 10000 4.38 289 15:24 15.12.2021
6497 Clouds 16 1015 43 10000 4.41 278 13:59 15.12.2021
6498 Clear 16 1015 44 10000 3.62 281 12:24 15.12.2021
6499 Clear 15 1016 53 10000 3.45 286 10:24 15.12.2021
6500 Clear 14 1017 61 10000 3.03 289 08:48 15.12.2021
6501 Clouds 12 1016 91 10000 2.34 320 05:59 15.12.2021
6502 Clear 14 1014 93 10000 4.31 311 00:52 15.12.2021
6503 Clear 15 1013 89 10000 3.88 313 23:41 14.12.2021
6504 Clear 15 1013 77 10000 3.7 311 22:48 14.12.2021
6505 Clear 16 1013 64 10000 3.41 302 21:51 14.12.2021
6506 Clear 16 1012 29 10000 4.41 295 20:27 14.12.2021
6507 Clear 16 1012 29 10000 4.41 295 19:40 14.12.2021
6508 Clear 17 1012 27 10000 4.63 284 18:44 14.12.2021
6509 Clear 17 1012 32 10000 4.45 288 17:58 14.12.2021
6510 Clear 17 1012 32 10000 4.45 288 17:58 14.12.2021
6511 Clear 17 1011 30 10000 3.96 281 17:28 14.12.2021
6512 Clear 19 1011 30 10000 3.96 281 16:38 14.12.2021
6513 Clouds 22 1010 27 10000 2.4 309 15:26 14.12.2021
6514 Clouds 20 1010 23 10000 1.64 286 13:31 14.12.2021
6515 Clouds 18 1011 24 10000 1.09 231 11:58 14.12.2021
6516 Clouds 18 1011 25 10000 1.38 144 11:23 14.12.2021
6517 Clouds 14 1012 26 10000 2.92 136 09:57 14.12.2021
6518 Clouds 14 1012 26 10000 2.92 136 09:35 14.12.2021
6519 Clouds 13 1014 32 10000 4.02 120 08:23 14.12.2021
6520 Clouds 10 1014 32 10000 4.02 120 07:43 14.12.2021
6521 Clouds 13 1015 35 10000 4.27 104 02:27 14.12.2021
6522 Clouds 13 1016 31 10000 3.83 100 22:55 13.12.2021
6523 Clouds 14 1016 30 10000 3.41 118 21:52 13.12.2021
6524 Clouds 14 1016 30 10000 4.24 110 21:18 13.12.2021
6525 Clouds 15 1016 30 10000 4.24 110 20:38 13.12.2021
6526 Clouds 15 1017 29 10000 4.22 109 19:52 13.12.2021
6527 Clouds 17 1017 28 10000 4.24 98 17:56 13.12.2021
6528 Clouds 17 1017 27 10000 4.46 96 17:26 13.12.2021
6529 Clouds 21 1017 27 10000 4.14 100 15:51 13.12.2021
6530 Clouds 21 1016 25 10000 4.31 112 15:25 13.12.2021
6531 Clouds 21 1016 23 10000 5.56 121 13:39 13.12.2021
6532 Clouds 22 1017 22 10000 4.6 122 12:46 13.12.2021
6533 Clouds 22 1016 23 10000 5.32 121 11:56 13.12.2021
6534 Clouds 22 1016 23 10000 5.32 121 11:35 13.12.2021
6535 Clouds 20 1018 24 10000 5.77 126 10:47 13.12.2021
6536 Clouds 17 1019 26 10000 5.72 137 09:32 13.12.2021
6537 Clouds 11 1020 34 10000 6.29 125 07:48 13.12.2021
6538 Clouds 13 1020 43 10000 4.67 117 05:36 13.12.2021
6539 Clouds 11 1020 40 10000 4.82 109 03:28 13.12.2021
6540 Clouds 18 1020 34 10000 4.64 107 23:22 12.12.2021
6541 Clouds 15 1021 33 10000 4.53 116 21:41 12.12.2021
6542 Clouds 15 1021 32 10000 4.79 111 20:18 12.12.2021
6543 Clouds 16 1021 31 10000 4.39 119 18:43 12.12.2021
6544 Clouds 17 1020 30 10000 4.15 113 17:45 12.12.2021
6545 Clouds 18 1020 30 10000 5 109 16:28 12.12.2021
6546 Clouds 19 1020 30 10000 5 109 15:50 12.12.2021
6547 Clouds 19 1020 28 10000 5.45 121 15:25 12.12.2021
6548 Clouds 20 1020 28 10000 5.45 121 14:36 12.12.2021
6549 Clouds 20 1020 25 10000 6.42 125 13:33 12.12.2021
6550 Clouds 19 1019 25 10000 6.85 128 12:32 12.12.2021
6551 Clouds 18 1020 26 10000 6.96 126 11:44 12.12.2021
6552 Clouds 18 1021 27 10000 7.06 126 11:24 12.12.2021
6553 Clouds 16 1022 30 10000 7.07 124 10:28 12.12.2021
6554 Clouds 13 1022 30 10000 7.07 124 09:39 12.12.2021
6555 Clouds 12 1023 33 10000 6.96 124 08:34 12.12.2021
6556 Clouds 9 1023 47 10000 4.06 105 06:20 12.12.2021
6557 Clouds 9 1022 47 10000 4.24 110 04:56 12.12.2021
6558 Clouds 10 1022 46 10000 4.07 103 03:57 12.12.2021
6559 Clouds 12 1022 42 10000 4.12 104 23:48 11.12.2021
6560 Clouds 12 1022 40 10000 3.68 107 22:24 11.12.2021
6561 Clouds 12 1022 40 10000 3.68 107 21:52 11.12.2021
6562 Clouds 12 1022 40 10000 3.8 105 21:18 11.12.2021
6563 Clouds 13 1022 39 10000 3.8 107 19:37 11.12.2021
6564 Clear 13 1021 38 10000 3.98 106 18:53 11.12.2021
6565 Clear 14 1021 36 10000 4.24 101 18:26 11.12.2021
6566 Clear 14 1021 36 10000 4.24 101 17:37 11.12.2021
6567 Clear 18 1019 33 10000 4.93 98 15:55 11.12.2021
6568 Clear 18 1019 33 10000 4.93 98 15:35 11.12.2021
6569 Clear 18 1019 28 10000 5.95 128 13:21 11.12.2021
6570 Clear 16 1019 29 10000 5.75 128 11:55 11.12.2021
6571 Clear 12 1021 35 10000 6.74 126 09:57 11.12.2021
6572 Clear 12 1021 35 10000 6.74 126 09:34 11.12.2021
6573 Clouds 12 1022 56 10000 4.85 106 02:41 11.12.2021
6574 Clouds 13 1022 53 10000 4.86 106 00:44 11.12.2021
6575 Clouds 13 1022 53 10000 4.59 114 23:39 10.12.2021
6576 Clouds 13 1022 51 10000 4.75 112 22:27 10.12.2021
6577 Clouds 13 1022 51 10000 4.75 112 21:37 10.12.2021
6578 Clouds 13 1022 50 10000 4.73 117 19:55 10.12.2021
6579 Clouds 13 1022 49 10000 4.94 115 19:18 10.12.2021
6580 Clouds 16 1022 44 10000 5.58 110 17:23 10.12.2021
6581 Clouds 16 1022 44 10000 5.58 110 16:34 10.12.2021
6582 Clouds 17 1022 43 10000 5.66 113 15:43 10.12.2021
6583 Clouds 17 1022 39 10000 6.45 122 15:23 10.12.2021
6584 Clouds 19 1022 38 10000 7.58 126 13:53 10.12.2021
6585 Clouds 19 1022 38 10000 7.58 126 13:31 10.12.2021
6586 Clouds 17 1022 39 10000 7.64 128 12:51 10.12.2021
6587 Clouds 16 1022 39 10000 6.95 128 11:36 10.12.2021
6588 Clouds 15 1023 42 10000 7.11 127 10:55 10.12.2021
6589 Clouds 14 1025 47 10000 6.43 126 09:36 10.12.2021
6590 Clouds 11 1026 70 10000 4.54 112 07:25 10.12.2021
6591 Clear 7 1025 79 10000 3.24 108 04:32 10.12.2021
6592 Clear 8 1025 79 10000 2.47 116 02:39 10.12.2021
6593 Clear 10 1025 76 10000 1.44 104 23:40 09.12.2021
6594 Clear 10 1025 76 10000 1.44 104 23:40 09.12.2021
6595 Clear 10 1025 77 10000 0.88 51 22:41 09.12.2021
6596 Clear 10 1025 74 10000 1.53 12 22:21 09.12.2021
6597 Clear 10 1025 74 10000 1.53 12 21:39 09.12.2021
6598 Clear 11 1025 72 10000 1.79 349 20:35 09.12.2021
6599 Clear 11 1025 71 10000 1.95 323 19:43 09.12.2021
6600 Clouds 11 1024 68 10000 2.45 295 19:20 09.12.2021
6601 Clouds 12 1024 68 10000 3.18 282 18:19 09.12.2021
6602 Clouds 12 1024 68 10000 3.18 282 17:48 09.12.2021
6603 Clouds 12 1024 65 10000 3.41 282 17:24 09.12.2021
6604 Clouds 12 1024 65 10000 3.41 282 16:36 09.12.2021
6605 Clouds 12 1023 54 10000 3.56 276 15:18 09.12.2021
6606 Clouds 12 1022 54 10000 3.74 276 14:30 09.12.2021
6607 Clouds 12 1022 48 10000 5.15 270 12:48 09.12.2021
6608 Clouds 14 1022 47 10000 5.45 281 11:51 09.12.2021
6609 Clouds 14 1023 55 10000 5.47 283 10:28 09.12.2021
6610 Clouds 11 1023 68 10000 5.64 247 07:53 09.12.2021
6611 Clouds 10 1021 83 10000 5.73 252 03:58 09.12.2021
6612 Clouds 10 1019 74 10000 8.37 264 00:26 09.12.2021
6613 Clouds 10 1019 74 10000 8.37 264 23:37 08.12.2021
6614 Clouds 10 1019 78 10000 8.76 261 22:57 08.12.2021
6615 Clouds 10 1019 78 10000 8.76 261 22:37 08.12.2021
6616 Clouds 12 1019 77 10000 9.73 258 21:39 08.12.2021
6617 Clouds 12 1018 69 10000 10.83 248 20:58 08.12.2021
6618 Clouds 13 1018 71 10000 10.55 249 19:57 08.12.2021
6619 Clear 13 1017 57 10000 11 247 19:29 08.12.2021
6620 Clear 13 1017 49 10000 10.21 246 18:28 08.12.2021
6621 Clear 13 1017 46 10000 9.8 249 17:24 08.12.2021
6622 Clear 13 1016 45 10000 9.87 253 15:45 08.12.2021
6623 Clear 13 1016 41 10000 9.75 250 15:23 08.12.2021
6624 Clear 14 1015 37 10000 11.46 253 13:40 08.12.2021
6625 Clear 13 1015 28 10000 9.68 242 10:45 08.12.2021
6626 Clear 13 1016 27 10000 8.9 243 10:24 08.12.2021
6627 Clear 12 1017 27 10000 7.73 248 08:54 08.12.2021
6628 Clear 11 1017 47 10000 6.17 251 06:52 08.12.2021
6629 Clouds 14 1014 40 10000 4.85 273 01:21 08.12.2021
6630 Clouds 15 1014 36 10000 3.74 271 23:31 07.12.2021
6631 Clouds 15 1014 36 10000 2.59 123 21:26 07.12.2021
6632 Clouds 14 1014 36 10000 2.59 123 20:30 07.12.2021
6633 Clouds 15 1014 36 10000 2.85